<?xml version='1.0' encoding='UTF-8'?><gpx version="1.1" creator="JPX - https://github.com/jenetics/jpx" xmlns="http://www.topografix.com/GPX/1/1"><trk><trkseg><trkpt lat="42.1500218" lon="14.5852143"><ele>204.99999999999997</ele><time>2026-04-05T07:37:57.826Z</time></trkpt><trkpt lat="42.1500477" lon="14.5853163"><ele>205.0</ele><time>2026-04-05T07:41:15.826Z</time></trkpt><trkpt lat="42.1499599" lon="14.5852561"><ele>205.0</ele><time>2026-04-05T07:41:54.826Z</time></trkpt><trkpt lat="42.1498928" lon="14.5852563"><ele>205.0</ele><time>2026-04-05T07:41:59.826Z</time></trkpt><trkpt lat="42.1498243" lon="14.5852422"><ele>204.99999999999997</ele><time>2026-04-05T07:42:04.826Z</time></trkpt><trkpt lat="42.1497236" lon="14.585219"><ele>205.0</ele><time>2026-04-05T07:42:07.826Z</time></trkpt><trkpt lat="42.1496273" lon="14.5851743"><ele>203.66666666666666</ele><time>2026-04-05T07:42:09.826Z</time></trkpt><trkpt lat="42.1495283" lon="14.5851504"><ele>202.33333333333331</ele><time>2026-04-05T07:42:11.826Z</time></trkpt><trkpt lat="42.1494551" lon="14.5851541"><ele>201.0</ele><time>2026-04-05T07:42:13.826Z</time></trkpt><trkpt lat="42.1493862" lon="14.5851951"><ele>199.66666666666669</ele><time>2026-04-05T07:42:15.826Z</time></trkpt><trkpt lat="42.1493192" lon="14.5852428"><ele>198.33333333333334</ele><time>2026-04-05T07:42:17.826Z</time></trkpt><trkpt lat="42.1492478" lon="14.5852829"><ele>197.0</ele><time>2026-04-05T07:42:21.826Z</time></trkpt><trkpt lat="42.1491785" lon="14.585227"><ele>197.00000000000003</ele><time>2026-04-05T07:42:24.827Z</time></trkpt><trkpt lat="42.1491112" lon="14.5851708"><ele>197.0</ele><time>2026-04-05T07:42:27.826Z</time></trkpt><trkpt lat="42.149089" lon="14.5850551"><ele>197.0</ele><time>2026-04-05T07:42:31.826Z</time></trkpt><trkpt lat="42.1490944" lon="14.5849494"><ele>197.0</ele><time>2026-04-05T07:42:34.826Z</time></trkpt><trkpt lat="42.1491122" lon="14.584844"><ele>197.00000000000003</ele><time>2026-04-05T07:42:37.826Z</time></trkpt><trkpt lat="42.1491196" lon="14.5847472"><ele>197.0</ele><time>2026-04-05T07:42:40.826Z</time></trkpt><trkpt lat="42.1491321" lon="14.5846542"><ele>197.00000000000003</ele><time>2026-04-05T07:42:43.826Z</time></trkpt><trkpt lat="42.1491494" lon="14.5845525"><ele>197.0</ele><time>2026-04-05T07:42:46.826Z</time></trkpt><trkpt lat="42.1491831" lon="14.584438"><ele>197.0</ele><time>2026-04-05T07:42:49.827Z</time></trkpt><trkpt lat="42.1492067" lon="14.5843583"><ele>197.0</ele><time>2026-04-05T07:42:51.826Z</time></trkpt><trkpt lat="42.149225" lon="14.5842433"><ele>197.00000000000003</ele><time>2026-04-05T07:42:54.826Z</time></trkpt><trkpt lat="42.14924" lon="14.5841233"><ele>197.0</ele><time>2026-04-05T07:42:57.826Z</time></trkpt><trkpt lat="42.1492317" lon="14.584025"><ele>196.57142857142858</ele><time>2026-04-05T07:43:00.826Z</time></trkpt><trkpt lat="42.1492483" lon="14.58394"><ele>196.14285714285717</ele><time>2026-04-05T07:43:02.826Z</time></trkpt><trkpt lat="42.1492633" lon="14.5838483"><ele>195.71428571428572</ele><time>2026-04-05T07:43:04.826Z</time></trkpt><trkpt lat="42.1492833" lon="14.5837467"><ele>195.28571428571428</ele><time>2026-04-05T07:43:06.826Z</time></trkpt><trkpt lat="42.1493" lon="14.583645"><ele>194.85714285714286</ele><time>2026-04-05T07:43:08.826Z</time></trkpt><trkpt lat="42.1493133" lon="14.5835583"><ele>194.42857142857142</ele><time>2026-04-05T07:43:10.826Z</time></trkpt><trkpt lat="42.1493317" lon="14.5834483"><ele>194.0</ele><time>2026-04-05T07:43:13.827Z</time></trkpt><trkpt lat="42.1493633" lon="14.5833633"><ele>194.00000000000003</ele><time>2026-04-05T07:43:15.826Z</time></trkpt><trkpt lat="42.1494" lon="14.5832683"><ele>194.0</ele><time>2026-04-05T07:43:18.826Z</time></trkpt><trkpt lat="42.1494167" lon="14.5831733"><ele>194.0</ele><time>2026-04-05T07:43:21.826Z</time></trkpt><trkpt lat="42.1494117" lon="14.58306"><ele>194.0</ele><time>2026-04-05T07:43:24.826Z</time></trkpt><trkpt lat="42.149415" lon="14.5829567"><ele>194.00000000000003</ele><time>2026-04-05T07:43:27.826Z</time></trkpt><trkpt lat="42.1494383" lon="14.5828317"><ele>194.0</ele><time>2026-04-05T07:43:29.826Z</time></trkpt><trkpt lat="42.14944" lon="14.5827467"><ele>195.16666666666669</ele><time>2026-04-05T07:43:31.826Z</time></trkpt><trkpt lat="42.1494517" lon="14.5826583"><ele>196.33333333333334</ele><time>2026-04-05T07:43:33.827Z</time></trkpt><trkpt lat="42.1494833" lon="14.5825533"><ele>197.5</ele><time>2026-04-05T07:43:35.826Z</time></trkpt><trkpt lat="42.1494533" lon="14.58244"><ele>198.66666666666669</ele><time>2026-04-05T07:43:38.827Z</time></trkpt><trkpt lat="42.14939" lon="14.5823417"><ele>199.83333333333334</ele><time>2026-04-05T07:43:41.826Z</time></trkpt><trkpt lat="42.1493583" lon="14.5822633"><ele>201.0</ele><time>2026-04-05T07:43:43.826Z</time></trkpt><trkpt lat="42.1492983" lon="14.582175"><ele>201.0</ele><time>2026-04-05T07:43:46.826Z</time></trkpt><trkpt lat="42.149245" lon="14.58208"><ele>201.0</ele><time>2026-04-05T07:43:49.826Z</time></trkpt><trkpt lat="42.1491867" lon="14.5819933"><ele>201.0</ele><time>2026-04-05T07:43:52.826Z</time></trkpt><trkpt lat="42.1491467" lon="14.5819183"><ele>201.0</ele><time>2026-04-05T07:43:54.826Z</time></trkpt><trkpt lat="42.1491067" lon="14.5818483"><ele>201.0</ele><time>2026-04-05T07:43:56.826Z</time></trkpt><trkpt lat="42.1490633" lon="14.5817817"><ele>201.0</ele><time>2026-04-05T07:43:58.826Z</time></trkpt><trkpt lat="42.149" lon="14.5816967"><ele>201.66666666666666</ele><time>2026-04-05T07:44:01.826Z</time></trkpt><trkpt lat="42.1489567" lon="14.5816233"><ele>202.33333333333331</ele><time>2026-04-05T07:44:03.827Z</time></trkpt><trkpt lat="42.1489033" lon="14.5815417"><ele>203.0</ele><time>2026-04-05T07:44:06.826Z</time></trkpt><trkpt lat="42.1488783" lon="14.5814617"><ele>203.66666666666666</ele><time>2026-04-05T07:44:08.826Z</time></trkpt><trkpt lat="42.1488583" lon="14.5813483"><ele>204.33333333333331</ele><time>2026-04-05T07:44:11.827Z</time></trkpt><trkpt lat="42.1488283" lon="14.5812467"><ele>205.0</ele><time>2026-04-05T07:44:14.827Z</time></trkpt><trkpt lat="42.1488217" lon="14.581145"><ele>204.99999999999997</ele><time>2026-04-05T07:44:17.826Z</time></trkpt><trkpt lat="42.1488117" lon="14.5810233"><ele>205.0</ele><time>2026-04-05T07:44:20.826Z</time></trkpt><trkpt lat="42.14881" lon="14.5809333"><ele>205.0</ele><time>2026-04-05T07:44:22.827Z</time></trkpt><trkpt lat="42.1488183" lon="14.5808367"><ele>205.0</ele><time>2026-04-05T07:44:24.826Z</time></trkpt><trkpt lat="42.1488267" lon="14.580745"><ele>204.99999999999997</ele><time>2026-04-05T07:44:26.827Z</time></trkpt><trkpt lat="42.1488217" lon="14.580625"><ele>205.0</ele><time>2026-04-05T07:44:29.826Z</time></trkpt><trkpt lat="42.1488067" lon="14.5805283"><ele>204.99999999999997</ele><time>2026-04-05T07:44:32.826Z</time></trkpt><trkpt lat="42.1487833" lon="14.5804417"><ele>205.0</ele><time>2026-04-05T07:44:35.826Z</time></trkpt><trkpt lat="42.1487717" lon="14.5803367"><ele>205.0</ele><time>2026-04-05T07:44:38.827Z</time></trkpt><trkpt lat="42.148755" lon="14.580235"><ele>205.0</ele><time>2026-04-05T07:44:41.826Z</time></trkpt><trkpt lat="42.1487417" lon="14.5801367"><ele>204.99999999999997</ele><time>2026-04-05T07:44:44.827Z</time></trkpt><trkpt lat="42.1487383" lon="14.5800117"><ele>205.0</ele><time>2026-04-05T07:44:47.826Z</time></trkpt><trkpt lat="42.1487417" lon="14.5798883"><ele>206.16666666666666</ele><time>2026-04-05T07:44:49.826Z</time></trkpt><trkpt lat="42.14874" lon="14.5797733"><ele>207.33333333333331</ele><time>2026-04-05T07:44:51.826Z</time></trkpt><trkpt lat="42.14874" lon="14.5796667"><ele>208.5</ele><time>2026-04-05T07:44:53.826Z</time></trkpt><trkpt lat="42.148735" lon="14.5795367"><ele>209.66666666666669</ele><time>2026-04-05T07:44:55.826Z</time></trkpt><trkpt lat="42.1487217" lon="14.5794317"><ele>210.83333333333334</ele><time>2026-04-05T07:44:57.826Z</time></trkpt><trkpt lat="42.148725" lon="14.5793367"><ele>212.0</ele><time>2026-04-05T07:44:59.827Z</time></trkpt><trkpt lat="42.14872" lon="14.57922"><ele>212.2</ele><time>2026-04-05T07:45:02.826Z</time></trkpt><trkpt lat="42.1487233" lon="14.5790933"><ele>212.39999999999998</ele><time>2026-04-05T07:45:05.826Z</time></trkpt><trkpt lat="42.1487283" lon="14.578975"><ele>212.60000000000002</ele><time>2026-04-05T07:45:08.826Z</time></trkpt><trkpt lat="42.1487333" lon="14.5788683"><ele>212.8</ele><time>2026-04-05T07:45:11.826Z</time></trkpt><trkpt lat="42.1487583" lon="14.5787433"><ele>213.0</ele><time>2026-04-05T07:45:13.826Z</time></trkpt><trkpt lat="42.148755" lon="14.578615"><ele>212.14285714285714</ele><time>2026-04-05T07:45:16.826Z</time></trkpt><trkpt lat="42.1487433" lon="14.5785267"><ele>211.28571428571428</ele><time>2026-04-05T07:45:18.826Z</time></trkpt><trkpt lat="42.1487267" lon="14.57844"><ele>210.42857142857144</ele><time>2026-04-05T07:45:20.826Z</time></trkpt><trkpt lat="42.1487017" lon="14.578335"><ele>209.57142857142856</ele><time>2026-04-05T07:45:22.826Z</time></trkpt><trkpt lat="42.1486983" lon="14.5782133"><ele>208.71428571428572</ele><time>2026-04-05T07:45:25.826Z</time></trkpt><trkpt lat="42.1487183" lon="14.578125"><ele>207.85714285714286</ele><time>2026-04-05T07:45:27.826Z</time></trkpt><trkpt lat="42.14874" lon="14.5780433"><ele>207.0</ele><time>2026-04-05T07:45:29.827Z</time></trkpt><trkpt lat="42.148765" lon="14.5779633"><ele>205.5</ele><time>2026-04-05T07:45:31.826Z</time></trkpt><trkpt lat="42.14879" lon="14.5778517"><ele>204.0</ele><time>2026-04-05T07:45:34.826Z</time></trkpt><trkpt lat="42.148805" lon="14.5777633"><ele>202.5</ele><time>2026-04-05T07:45:36.826Z</time></trkpt><trkpt lat="42.1488083" lon="14.5776683"><ele>201.0</ele><time>2026-04-05T07:45:38.826Z</time></trkpt><trkpt lat="42.1487983" lon="14.577565"><ele>199.5</ele><time>2026-04-05T07:45:40.826Z</time></trkpt><trkpt lat="42.1487883" lon="14.5774667"><ele>198.0</ele><time>2026-04-05T07:45:42.827Z</time></trkpt><trkpt lat="42.148785" lon="14.57736"><ele>198.0</ele><time>2026-04-05T07:45:44.827Z</time></trkpt><trkpt lat="42.1488017" lon="14.577185"><ele>198.0</ele><time>2026-04-05T07:45:46.826Z</time></trkpt><trkpt lat="42.1488333" lon="14.5770417"><ele>198.0</ele><time>2026-04-05T07:45:48.826Z</time></trkpt><trkpt lat="42.1488817" lon="14.57692"><ele>198.0</ele><time>2026-04-05T07:45:50.826Z</time></trkpt><trkpt lat="42.14893" lon="14.5768033"><ele>198.0</ele><time>2026-04-05T07:45:52.827Z</time></trkpt><trkpt lat="42.1489717" lon="14.5767"><ele>196.83333333333334</ele><time>2026-04-05T07:45:54.826Z</time></trkpt><trkpt lat="42.1490183" lon="14.5766033"><ele>195.66666666666666</ele><time>2026-04-05T07:45:56.826Z</time></trkpt><trkpt lat="42.149075" lon="14.5764983"><ele>194.5</ele><time>2026-04-05T07:45:58.826Z</time></trkpt><trkpt lat="42.14912" lon="14.5763967"><ele>193.33333333333331</ele><time>2026-04-05T07:46:00.826Z</time></trkpt><trkpt lat="42.1491533" lon="14.5762917"><ele>192.16666666666666</ele><time>2026-04-05T07:46:02.826Z</time></trkpt><trkpt lat="42.1491783" lon="14.5761867"><ele>191.0</ele><time>2026-04-05T07:46:04.826Z</time></trkpt><trkpt lat="42.1491983" lon="14.5760817"><ele>196.8</ele><time>2026-04-05T07:46:06.826Z</time></trkpt><trkpt lat="42.149205" lon="14.5759717"><ele>202.60000000000002</ele><time>2026-04-05T07:46:08.826Z</time></trkpt><trkpt lat="42.1492033" lon="14.5758517"><ele>208.4</ele><time>2026-04-05T07:46:10.826Z</time></trkpt><trkpt lat="42.1492" lon="14.57572"><ele>214.2</ele><time>2026-04-05T07:46:12.826Z</time></trkpt><trkpt lat="42.1492067" lon="14.5755917"><ele>220.0</ele><time>2026-04-05T07:46:14.826Z</time></trkpt><trkpt lat="42.1492167" lon="14.575445"><ele>220.4</ele><time>2026-04-05T07:46:16.826Z</time></trkpt><trkpt lat="42.1492167" lon="14.5752967"><ele>220.8</ele><time>2026-04-05T07:46:18.826Z</time></trkpt><trkpt lat="42.1492033" lon="14.575165"><ele>221.2</ele><time>2026-04-05T07:46:20.827Z</time></trkpt><trkpt lat="42.1492" lon="14.5750383"><ele>221.6</ele><time>2026-04-05T07:46:22.826Z</time></trkpt><trkpt lat="42.1492067" lon="14.5749067"><ele>222.0</ele><time>2026-04-05T07:46:24.826Z</time></trkpt><trkpt lat="42.1492183" lon="14.5747667"><ele>222.0</ele><time>2026-04-05T07:46:26.826Z</time></trkpt><trkpt lat="42.14924" lon="14.5746383"><ele>222.0</ele><time>2026-04-05T07:46:28.826Z</time></trkpt><trkpt lat="42.14927" lon="14.574515"><ele>222.0</ele><time>2026-04-05T07:46:30.826Z</time></trkpt><trkpt lat="42.1492967" lon="14.5743917"><ele>222.0</ele><time>2026-04-05T07:46:32.826Z</time></trkpt><trkpt lat="42.1493183" lon="14.574265"><ele>222.0</ele><time>2026-04-05T07:46:34.827Z</time></trkpt><trkpt lat="42.14933" lon="14.57413"><ele>221.2</ele><time>2026-04-05T07:46:36.826Z</time></trkpt><trkpt lat="42.149325" lon="14.5739933"><ele>220.39999999999998</ele><time>2026-04-05T07:46:38.826Z</time></trkpt><trkpt lat="42.149315" lon="14.5738567"><ele>219.60000000000002</ele><time>2026-04-05T07:46:40.826Z</time></trkpt><trkpt lat="42.1493033" lon="14.5737333"><ele>218.8</ele><time>2026-04-05T07:46:42.826Z</time></trkpt><trkpt lat="42.1493" lon="14.5736017"><ele>218.0</ele><time>2026-04-05T07:46:44.826Z</time></trkpt><trkpt lat="42.1493117" lon="14.5734783"><ele>217.60000000000002</ele><time>2026-04-05T07:46:46.826Z</time></trkpt><trkpt lat="42.149345" lon="14.5733717"><ele>217.20000000000002</ele><time>2026-04-05T07:46:48.826Z</time></trkpt><trkpt lat="42.149385" lon="14.5732417"><ele>216.8</ele><time>2026-04-05T07:46:50.827Z</time></trkpt><trkpt lat="42.1494017" lon="14.57311"><ele>216.4</ele><time>2026-04-05T07:46:52.826Z</time></trkpt><trkpt lat="42.1494033" lon="14.5729717"><ele>216.0</ele><time>2026-04-05T07:46:54.827Z</time></trkpt><trkpt lat="42.1493967" lon="14.5728367"><ele>215.0</ele><time>2026-04-05T07:46:56.826Z</time></trkpt><trkpt lat="42.1493933" lon="14.5726917"><ele>214.00000000000003</ele><time>2026-04-05T07:46:58.826Z</time></trkpt><trkpt lat="42.1493967" lon="14.57256"><ele>213.0</ele><time>2026-04-05T07:47:00.826Z</time></trkpt><trkpt lat="42.1494217" lon="14.5724367"><ele>212.0</ele><time>2026-04-05T07:47:02.826Z</time></trkpt><trkpt lat="42.149475" lon="14.5723317"><ele>211.0</ele><time>2026-04-05T07:47:04.827Z</time></trkpt><trkpt lat="42.14954" lon="14.5722383"><ele>211.0</ele><time>2026-04-05T07:47:06.827Z</time></trkpt><trkpt lat="42.1495983" lon="14.572135"><ele>211.0</ele><time>2026-04-05T07:47:08.826Z</time></trkpt><trkpt lat="42.14965" lon="14.5720217"><ele>211.0</ele><time>2026-04-05T07:47:10.826Z</time></trkpt><trkpt lat="42.14969" lon="14.5719067"><ele>211.0</ele><time>2026-04-05T07:47:12.826Z</time></trkpt><trkpt lat="42.1497283" lon="14.5717833"><ele>211.0</ele><time>2026-04-05T07:47:14.826Z</time></trkpt><trkpt lat="42.1497667" lon="14.571655"><ele>209.8</ele><time>2026-04-05T07:47:16.826Z</time></trkpt><trkpt lat="42.1497983" lon="14.5715117"><ele>208.60000000000002</ele><time>2026-04-05T07:47:18.826Z</time></trkpt><trkpt lat="42.1498233" lon="14.5713733"><ele>207.4</ele><time>2026-04-05T07:47:20.826Z</time></trkpt><trkpt lat="42.1498433" lon="14.5712367"><ele>206.2</ele><time>2026-04-05T07:47:22.827Z</time></trkpt><trkpt lat="42.1498567" lon="14.5710983"><ele>205.0</ele><time>2026-04-05T07:47:24.826Z</time></trkpt><trkpt lat="42.1498683" lon="14.5709583"><ele>204.6</ele><time>2026-04-05T07:47:26.826Z</time></trkpt><trkpt lat="42.1498733" lon="14.5708217"><ele>204.2</ele><time>2026-04-05T07:47:28.826Z</time></trkpt><trkpt lat="42.1498633" lon="14.5706917"><ele>203.8</ele><time>2026-04-05T07:47:30.827Z</time></trkpt><trkpt lat="42.1498533" lon="14.5705617"><ele>203.4</ele><time>2026-04-05T07:47:32.826Z</time></trkpt><trkpt lat="42.1498267" lon="14.5704217"><ele>203.0</ele><time>2026-04-05T07:47:34.826Z</time></trkpt><trkpt lat="42.1497933" lon="14.570295"><ele>204.2</ele><time>2026-04-05T07:47:36.827Z</time></trkpt><trkpt lat="42.14975" lon="14.5701767"><ele>205.4</ele><time>2026-04-05T07:47:38.826Z</time></trkpt><trkpt lat="42.1496933" lon="14.5700683"><ele>206.6</ele><time>2026-04-05T07:47:40.826Z</time></trkpt><trkpt lat="42.1496383" lon="14.5699583"><ele>207.79999999999998</ele><time>2026-04-05T07:47:42.826Z</time></trkpt><trkpt lat="42.14958" lon="14.5698533"><ele>209.0</ele><time>2026-04-05T07:47:44.826Z</time></trkpt><trkpt lat="42.1495367" lon="14.5697067"><ele>209.0</ele><time>2026-04-05T07:47:46.826Z</time></trkpt><trkpt lat="42.1495117" lon="14.5695617"><ele>209.0</ele><time>2026-04-05T07:47:48.826Z</time></trkpt><trkpt lat="42.1495117" lon="14.5694317"><ele>209.0</ele><time>2026-04-05T07:47:50.826Z</time></trkpt><trkpt lat="42.14954" lon="14.5693"><ele>209.0</ele><time>2026-04-05T07:47:52.827Z</time></trkpt><trkpt lat="42.1495867" lon="14.5691933"><ele>209.0</ele><time>2026-04-05T07:47:54.827Z</time></trkpt><trkpt lat="42.1496467" lon="14.5691067"><ele>209.39999999999998</ele><time>2026-04-05T07:47:56.827Z</time></trkpt><trkpt lat="42.1497183" lon="14.569035"><ele>209.8</ele><time>2026-04-05T07:47:58.827Z</time></trkpt><trkpt lat="42.1497933" lon="14.5689667"><ele>210.2</ele><time>2026-04-05T07:48:00.827Z</time></trkpt><trkpt lat="42.1498633" lon="14.56889"><ele>210.60000000000002</ele><time>2026-04-05T07:48:02.826Z</time></trkpt><trkpt lat="42.149935" lon="14.5688183"><ele>211.0</ele><time>2026-04-05T07:48:04.826Z</time></trkpt><trkpt lat="42.1500133" lon="14.5687367"><ele>211.60000000000002</ele><time>2026-04-05T07:48:06.826Z</time></trkpt><trkpt lat="42.1500883" lon="14.5686567"><ele>212.2</ele><time>2026-04-05T07:48:08.826Z</time></trkpt><trkpt lat="42.15017" lon="14.56858"><ele>212.79999999999998</ele><time>2026-04-05T07:48:10.826Z</time></trkpt><trkpt lat="42.1502617" lon="14.5685083"><ele>213.39999999999998</ele><time>2026-04-05T07:48:12.827Z</time></trkpt><trkpt lat="42.1503517" lon="14.5684183"><ele>214.0</ele><time>2026-04-05T07:48:14.826Z</time></trkpt><trkpt lat="42.1504383" lon="14.5683317"><ele>214.0</ele><time>2026-04-05T07:48:16.826Z</time></trkpt><trkpt lat="42.1505217" lon="14.56826"><ele>213.99999999999997</ele><time>2026-04-05T07:48:18.826Z</time></trkpt><trkpt lat="42.150605" lon="14.5681917"><ele>213.99999999999997</ele><time>2026-04-05T07:48:20.826Z</time></trkpt><trkpt lat="42.1506967" lon="14.5681217"><ele>214.0</ele><time>2026-04-05T07:48:22.826Z</time></trkpt><trkpt lat="42.1507917" lon="14.568075"><ele>214.0</ele><time>2026-04-05T07:48:24.826Z</time></trkpt><trkpt lat="42.1509" lon="14.5680583"><ele>217.6</ele><time>2026-04-05T07:48:26.826Z</time></trkpt><trkpt lat="42.1509983" lon="14.5680617"><ele>221.2</ele><time>2026-04-05T07:48:28.826Z</time></trkpt><trkpt lat="42.151095" lon="14.5680883"><ele>224.79999999999998</ele><time>2026-04-05T07:48:30.826Z</time></trkpt><trkpt lat="42.15119" lon="14.56811"><ele>228.39999999999998</ele><time>2026-04-05T07:48:32.826Z</time></trkpt><trkpt lat="42.1512883" lon="14.5681433"><ele>232.0</ele><time>2026-04-05T07:48:34.827Z</time></trkpt><trkpt lat="42.1513933" lon="14.5681283"><ele>232.0</ele><time>2026-04-05T07:48:36.826Z</time></trkpt><trkpt lat="42.1514717" lon="14.56806"><ele>232.0</ele><time>2026-04-05T07:48:38.826Z</time></trkpt><trkpt lat="42.1515367" lon="14.567935"><ele>232.0</ele><time>2026-04-05T07:48:40.826Z</time></trkpt><trkpt lat="42.1515567" lon="14.567805"><ele>232.0</ele><time>2026-04-05T07:48:42.826Z</time></trkpt><trkpt lat="42.151545" lon="14.5676683"><ele>232.0</ele><time>2026-04-05T07:48:44.826Z</time></trkpt><trkpt lat="42.1515083" lon="14.567535"><ele>229.0</ele><time>2026-04-05T07:48:46.826Z</time></trkpt><trkpt lat="42.15146" lon="14.567415"><ele>226.0</ele><time>2026-04-05T07:48:48.826Z</time></trkpt><trkpt lat="42.151405" lon="14.5672983"><ele>223.0</ele><time>2026-04-05T07:48:50.826Z</time></trkpt><trkpt lat="42.1513517" lon="14.567185"><ele>220.0</ele><time>2026-04-05T07:48:52.826Z</time></trkpt><trkpt lat="42.1512917" lon="14.567055"><ele>217.0</ele><time>2026-04-05T07:48:54.826Z</time></trkpt><trkpt lat="42.1512333" lon="14.5669317"><ele>216.6</ele><time>2026-04-05T07:48:56.826Z</time></trkpt><trkpt lat="42.1511833" lon="14.5668067"><ele>216.2</ele><time>2026-04-05T07:48:58.827Z</time></trkpt><trkpt lat="42.1511433" lon="14.566675"><ele>215.8</ele><time>2026-04-05T07:49:00.826Z</time></trkpt><trkpt lat="42.1511333" lon="14.5665417"><ele>215.4</ele><time>2026-04-05T07:49:02.826Z</time></trkpt><trkpt lat="42.1511367" lon="14.5664133"><ele>215.0</ele><time>2026-04-05T07:49:04.826Z</time></trkpt><trkpt lat="42.1511467" lon="14.5662817"><ele>216.6</ele><time>2026-04-05T07:49:06.827Z</time></trkpt><trkpt lat="42.151165" lon="14.5661383"><ele>218.2</ele><time>2026-04-05T07:49:08.826Z</time></trkpt><trkpt lat="42.1511667" lon="14.5659833"><ele>219.8</ele><time>2026-04-05T07:49:10.826Z</time></trkpt><trkpt lat="42.1511383" lon="14.5658433"><ele>221.4</ele><time>2026-04-05T07:49:12.826Z</time></trkpt><trkpt lat="42.15108" lon="14.5657117"><ele>223.0</ele><time>2026-04-05T07:49:14.827Z</time></trkpt><trkpt lat="42.1510233" lon="14.56559"><ele>223.0</ele><time>2026-04-05T07:49:16.826Z</time></trkpt><trkpt lat="42.1509467" lon="14.5654783"><ele>223.0</ele><time>2026-04-05T07:49:18.826Z</time></trkpt><trkpt lat="42.15087" lon="14.5653683"><ele>223.0</ele><time>2026-04-05T07:49:20.826Z</time></trkpt><trkpt lat="42.15079" lon="14.5652567"><ele>223.0</ele><time>2026-04-05T07:49:22.827Z</time></trkpt><trkpt lat="42.1507517" lon="14.5651233"><ele>223.0</ele><time>2026-04-05T07:49:24.826Z</time></trkpt><trkpt lat="42.1507517" lon="14.56497"><ele>224.60000000000002</ele><time>2026-04-05T07:49:26.826Z</time></trkpt><trkpt lat="42.150775" lon="14.5648217"><ele>226.20000000000002</ele><time>2026-04-05T07:49:28.826Z</time></trkpt><trkpt lat="42.150815" lon="14.564685"><ele>227.8</ele><time>2026-04-05T07:49:30.826Z</time></trkpt><trkpt lat="42.150845" lon="14.5645433"><ele>229.4</ele><time>2026-04-05T07:49:32.826Z</time></trkpt><trkpt lat="42.1508567" lon="14.564405"><ele>231.0</ele><time>2026-04-05T07:49:34.826Z</time></trkpt><trkpt lat="42.150855" lon="14.5642583"><ele>231.0</ele><time>2026-04-05T07:49:36.826Z</time></trkpt><trkpt lat="42.1508483" lon="14.5640983"><ele>231.00000000000003</ele><time>2026-04-05T07:49:38.827Z</time></trkpt><trkpt lat="42.150835" lon="14.5639467"><ele>231.00000000000003</ele><time>2026-04-05T07:49:40.826Z</time></trkpt><trkpt lat="42.15081" lon="14.56381"><ele>231.0</ele><time>2026-04-05T07:49:42.826Z</time></trkpt><trkpt lat="42.1507833" lon="14.56367"><ele>231.0</ele><time>2026-04-05T07:49:44.826Z</time></trkpt><trkpt lat="42.150765" lon="14.5635267"><ele>231.60000000000002</ele><time>2026-04-05T07:49:46.826Z</time></trkpt><trkpt lat="42.1507433" lon="14.56337"><ele>232.20000000000002</ele><time>2026-04-05T07:49:48.826Z</time></trkpt><trkpt lat="42.1507267" lon="14.56322"><ele>232.79999999999998</ele><time>2026-04-05T07:49:50.826Z</time></trkpt><trkpt lat="42.15071" lon="14.5631017"><ele>233.39999999999998</ele><time>2026-04-05T07:49:52.826Z</time></trkpt><trkpt lat="42.150695" lon="14.56298"><ele>234.0</ele><time>2026-04-05T07:49:54.826Z</time></trkpt><trkpt lat="42.1506833" lon="14.5628533"><ele>230.39999999999998</ele><time>2026-04-05T07:49:56.826Z</time></trkpt><trkpt lat="42.1506583" lon="14.5627333"><ele>226.79999999999998</ele><time>2026-04-05T07:49:58.826Z</time></trkpt><trkpt lat="42.1506317" lon="14.562605"><ele>223.20000000000002</ele><time>2026-04-05T07:50:00.826Z</time></trkpt><trkpt lat="42.1505967" lon="14.5624667"><ele>219.60000000000002</ele><time>2026-04-05T07:50:02.826Z</time></trkpt><trkpt lat="42.1505417" lon="14.5623267"><ele>216.0</ele><time>2026-04-05T07:50:04.826Z</time></trkpt><trkpt lat="42.1504783" lon="14.5621783"><ele>216.0</ele><time>2026-04-05T07:50:06.827Z</time></trkpt><trkpt lat="42.1504417" lon="14.562105"><ele>216.00000000000003</ele><time>2026-04-05T07:50:07.826Z</time></trkpt><trkpt lat="42.1504117" lon="14.5620283"><ele>216.00000000000003</ele><time>2026-04-05T07:50:08.826Z</time></trkpt><trkpt lat="42.1503483" lon="14.561885"><ele>216.0</ele><time>2026-04-05T07:50:10.826Z</time></trkpt><trkpt lat="42.15029" lon="14.5617533"><ele>216.0</ele><time>2026-04-05T07:50:12.826Z</time></trkpt><trkpt lat="42.150215" lon="14.5616483"><ele>218.4</ele><time>2026-04-05T07:50:14.826Z</time></trkpt><trkpt lat="42.150115" lon="14.5615583"><ele>220.8</ele><time>2026-04-05T07:50:16.826Z</time></trkpt><trkpt lat="42.150015" lon="14.5614883"><ele>223.20000000000002</ele><time>2026-04-05T07:50:18.827Z</time></trkpt><trkpt lat="42.149945" lon="14.5613933"><ele>225.60000000000002</ele><time>2026-04-05T07:50:20.826Z</time></trkpt><trkpt lat="42.14993" lon="14.56126"><ele>228.0</ele><time>2026-04-05T07:50:22.826Z</time></trkpt><trkpt lat="42.149955" lon="14.5611217"><ele>228.2</ele><time>2026-04-05T07:50:24.826Z</time></trkpt><trkpt lat="42.1499883" lon="14.5609867"><ele>228.4</ele><time>2026-04-05T07:50:26.827Z</time></trkpt><trkpt lat="42.1500083" lon="14.560905"><ele>228.59999999999997</ele><time>2026-04-05T07:50:27.826Z</time></trkpt><trkpt lat="42.1500433" lon="14.56077"><ele>228.79999999999998</ele><time>2026-04-05T07:50:29.826Z</time></trkpt><trkpt lat="42.1501" lon="14.560615"><ele>229.0</ele><time>2026-04-05T07:50:31.827Z</time></trkpt><trkpt lat="42.1501417" lon="14.560465"><ele>228.0</ele><time>2026-04-05T07:50:33.826Z</time></trkpt><trkpt lat="42.1501733" lon="14.5603183"><ele>227.0</ele><time>2026-04-05T07:50:35.826Z</time></trkpt><trkpt lat="42.1502117" lon="14.5601717"><ele>226.0</ele><time>2026-04-05T07:50:37.826Z</time></trkpt><trkpt lat="42.1502517" lon="14.560025"><ele>225.0</ele><time>2026-04-05T07:50:39.826Z</time></trkpt><trkpt lat="42.150285" lon="14.5598717"><ele>225.0</ele><time>2026-04-05T07:50:41.826Z</time></trkpt><trkpt lat="42.1503133" lon="14.5597267"><ele>225.0</ele><time>2026-04-05T07:50:43.827Z</time></trkpt><trkpt lat="42.1503317" lon="14.5595733"><ele>225.0</ele><time>2026-04-05T07:50:45.827Z</time></trkpt><trkpt lat="42.1503367" lon="14.5594283"><ele>225.0</ele><time>2026-04-05T07:50:47.826Z</time></trkpt><trkpt lat="42.1503367" lon="14.5593417"><ele>225.0</ele><time>2026-04-05T07:50:48.826Z</time></trkpt><trkpt lat="42.150335" lon="14.5591867"><ele>225.25</ele><time>2026-04-05T07:50:50.826Z</time></trkpt><trkpt lat="42.1503183" lon="14.55904"><ele>225.5</ele><time>2026-04-05T07:50:52.826Z</time></trkpt><trkpt lat="42.1502883" lon="14.5588917"><ele>225.75</ele><time>2026-04-05T07:50:54.826Z</time></trkpt><trkpt lat="42.1502583" lon="14.5587467"><ele>226.0</ele><time>2026-04-05T07:50:56.826Z</time></trkpt><trkpt lat="42.150225" lon="14.5585983"><ele>227.25</ele><time>2026-04-05T07:50:58.826Z</time></trkpt><trkpt lat="42.1501933" lon="14.5584533"><ele>228.5</ele><time>2026-04-05T07:51:00.826Z</time></trkpt><trkpt lat="42.1501567" lon="14.5583067"><ele>229.75</ele><time>2026-04-05T07:51:02.826Z</time></trkpt><trkpt lat="42.1501217" lon="14.5581583"><ele>231.0</ele><time>2026-04-05T07:51:04.826Z</time></trkpt><trkpt lat="42.1500917" lon="14.5580033"><ele>231.0</ele><time>2026-04-05T07:51:06.826Z</time></trkpt><trkpt lat="42.15006" lon="14.55785"><ele>231.00000000000003</ele><time>2026-04-05T07:51:08.826Z</time></trkpt><trkpt lat="42.1500267" lon="14.557705"><ele>231.00000000000003</ele><time>2026-04-05T07:51:10.826Z</time></trkpt><trkpt lat="42.1500017" lon="14.5575733"><ele>231.0</ele><time>2026-04-05T07:51:12.826Z</time></trkpt><trkpt lat="42.149985" lon="14.5574183"><ele>231.0</ele><time>2026-04-05T07:51:14.826Z</time></trkpt><trkpt lat="42.1499783" lon="14.5573267"><ele>231.0</ele><time>2026-04-05T07:51:15.826Z</time></trkpt><trkpt lat="42.1499433" lon="14.557195"><ele>231.00000000000003</ele><time>2026-04-05T07:51:17.826Z</time></trkpt><trkpt lat="42.1499233" lon="14.55706"><ele>231.00000000000003</ele><time>2026-04-05T07:51:19.826Z</time></trkpt><trkpt lat="42.1499083" lon="14.5569167"><ele>231.0</ele><time>2026-04-05T07:51:21.826Z</time></trkpt><trkpt lat="42.1499017" lon="14.5567733"><ele>231.0</ele><time>2026-04-05T07:51:23.826Z</time></trkpt><trkpt lat="42.1499067" lon="14.5566283"><ele>231.0</ele><time>2026-04-05T07:51:25.826Z</time></trkpt><trkpt lat="42.1499217" lon="14.5564867"><ele>231.00000000000003</ele><time>2026-04-05T07:51:27.826Z</time></trkpt><trkpt lat="42.149935" lon="14.5563467"><ele>231.00000000000003</ele><time>2026-04-05T07:51:29.826Z</time></trkpt><trkpt lat="42.1499433" lon="14.55622"><ele>231.0</ele><time>2026-04-05T07:51:31.826Z</time></trkpt><trkpt lat="42.1499583" lon="14.556095"><ele>231.0</ele><time>2026-04-05T07:51:33.826Z</time></trkpt><trkpt lat="42.14997" lon="14.5559733"><ele>231.0</ele><time>2026-04-05T07:51:35.827Z</time></trkpt><trkpt lat="42.1499833" lon="14.5558533"><ele>231.0</ele><time>2026-04-05T07:51:37.826Z</time></trkpt><trkpt lat="42.1499967" lon="14.5557317"><ele>231.0</ele><time>2026-04-05T07:51:39.826Z</time></trkpt><trkpt lat="42.1500033" lon="14.5556067"><ele>231.0</ele><time>2026-04-05T07:51:41.826Z</time></trkpt><trkpt lat="42.150015" lon="14.55549"><ele>231.0</ele><time>2026-04-05T07:51:43.826Z</time></trkpt><trkpt lat="42.150025" lon="14.5553733"><ele>231.0</ele><time>2026-04-05T07:51:45.826Z</time></trkpt><trkpt lat="42.150035" lon="14.5552633"><ele>231.4</ele><time>2026-04-05T07:51:47.826Z</time></trkpt><trkpt lat="42.1500483" lon="14.555145"><ele>231.8</ele><time>2026-04-05T07:51:49.826Z</time></trkpt><trkpt lat="42.15006" lon="14.55502"><ele>232.20000000000002</ele><time>2026-04-05T07:51:51.826Z</time></trkpt><trkpt lat="42.1500717" lon="14.5548983"><ele>232.60000000000002</ele><time>2026-04-05T07:51:53.826Z</time></trkpt><trkpt lat="42.150085" lon="14.55478"><ele>233.0</ele><time>2026-04-05T07:51:55.827Z</time></trkpt><trkpt lat="42.1501017" lon="14.5546633"><ele>233.00000000000003</ele><time>2026-04-05T07:51:57.827Z</time></trkpt><trkpt lat="42.15011" lon="14.5545517"><ele>233.0</ele><time>2026-04-05T07:51:59.828Z</time></trkpt><trkpt lat="42.1501267" lon="14.55443"><ele>233.0</ele><time>2026-04-05T07:52:01.827Z</time></trkpt><trkpt lat="42.15014" lon="14.55431"><ele>233.0</ele><time>2026-04-05T07:52:03.827Z</time></trkpt><trkpt lat="42.1501517" lon="14.554195"><ele>233.00000000000003</ele><time>2026-04-05T07:52:05.828Z</time></trkpt><trkpt lat="42.1501583" lon="14.554085"><ele>233.0</ele><time>2026-04-05T07:52:07.828Z</time></trkpt><trkpt lat="42.15017" lon="14.5539667"><ele>233.83333333333334</ele><time>2026-04-05T07:52:09.828Z</time></trkpt><trkpt lat="42.1501783" lon="14.5538433"><ele>234.66666666666669</ele><time>2026-04-05T07:52:11.827Z</time></trkpt><trkpt lat="42.150185" lon="14.5537267"><ele>235.5</ele><time>2026-04-05T07:52:13.827Z</time></trkpt><trkpt lat="42.1501833" lon="14.5536167"><ele>236.33333333333331</ele><time>2026-04-05T07:52:15.827Z</time></trkpt><trkpt lat="42.1501783" lon="14.5535017"><ele>237.16666666666666</ele><time>2026-04-05T07:52:17.827Z</time></trkpt><trkpt lat="42.1501617" lon="14.5533833"><ele>238.0</ele><time>2026-04-05T07:52:19.827Z</time></trkpt><trkpt lat="42.150135" lon="14.5532633"><ele>238.16666666666666</ele><time>2026-04-05T07:52:21.827Z</time></trkpt><trkpt lat="42.1501083" lon="14.5531583"><ele>238.33333333333331</ele><time>2026-04-05T07:52:23.827Z</time></trkpt><trkpt lat="42.1500767" lon="14.55306"><ele>238.5</ele><time>2026-04-05T07:52:25.827Z</time></trkpt><trkpt lat="42.1500467" lon="14.5529683"><ele>238.66666666666669</ele><time>2026-04-05T07:52:27.828Z</time></trkpt><trkpt lat="42.1500233" lon="14.552865"><ele>238.83333333333334</ele><time>2026-04-05T07:52:29.827Z</time></trkpt><trkpt lat="42.1499733" lon="14.55278"><ele>239.0</ele><time>2026-04-05T07:52:31.828Z</time></trkpt><trkpt lat="42.1499383" lon="14.5526667"><ele>239.0</ele><time>2026-04-05T07:52:33.827Z</time></trkpt><trkpt lat="42.1498867" lon="14.5525783"><ele>238.99999999999997</ele><time>2026-04-05T07:52:35.828Z</time></trkpt><trkpt lat="42.14984" lon="14.55248"><ele>238.99999999999997</ele><time>2026-04-05T07:52:37.828Z</time></trkpt><trkpt lat="42.1497883" lon="14.5523733"><ele>239.0</ele><time>2026-04-05T07:52:39.827Z</time></trkpt><trkpt lat="42.149735" lon="14.5522767"><ele>239.0</ele><time>2026-04-05T07:52:41.827Z</time></trkpt><trkpt lat="42.1496917" lon="14.5521583"><ele>240.2</ele><time>2026-04-05T07:52:43.828Z</time></trkpt><trkpt lat="42.1496467" lon="14.5520417"><ele>241.39999999999998</ele><time>2026-04-05T07:52:45.827Z</time></trkpt><trkpt lat="42.1496033" lon="14.5519233"><ele>242.6</ele><time>2026-04-05T07:52:47.827Z</time></trkpt><trkpt lat="42.1495683" lon="14.5518017"><ele>243.8</ele><time>2026-04-05T07:52:49.827Z</time></trkpt><trkpt lat="42.1495483" lon="14.5516933"><ele>245.0</ele><time>2026-04-05T07:52:51.827Z</time></trkpt><trkpt lat="42.14955" lon="14.5515767"><ele>245.0</ele><time>2026-04-05T07:52:53.827Z</time></trkpt><trkpt lat="42.1495467" lon="14.55145"><ele>245.0</ele><time>2026-04-05T07:52:55.827Z</time></trkpt><trkpt lat="42.1495667" lon="14.5513317"><ele>245.0</ele><time>2026-04-05T07:52:57.827Z</time></trkpt><trkpt lat="42.1495933" lon="14.5512233"><ele>245.0</ele><time>2026-04-05T07:52:59.828Z</time></trkpt><trkpt lat="42.1496467" lon="14.551125"><ele>245.0</ele><time>2026-04-05T07:53:01.827Z</time></trkpt><trkpt lat="42.14971" lon="14.5510367"><ele>244.66666666666669</ele><time>2026-04-05T07:53:03.828Z</time></trkpt><trkpt lat="42.149775" lon="14.550955"><ele>244.33333333333334</ele><time>2026-04-05T07:53:05.827Z</time></trkpt><trkpt lat="42.1498417" lon="14.5508783"><ele>244.0</ele><time>2026-04-05T07:53:07.828Z</time></trkpt><trkpt lat="42.1499083" lon="14.5508033"><ele>243.66666666666669</ele><time>2026-04-05T07:53:09.827Z</time></trkpt><trkpt lat="42.1499767" lon="14.5507383"><ele>243.33333333333334</ele><time>2026-04-05T07:53:11.827Z</time></trkpt><trkpt lat="42.1500433" lon="14.55068"><ele>243.0</ele><time>2026-04-05T07:53:13.828Z</time></trkpt><trkpt lat="42.1501117" lon="14.5506117"><ele>243.0</ele><time>2026-04-05T07:53:15.827Z</time></trkpt><trkpt lat="42.1501833" lon="14.550535"><ele>243.0</ele><time>2026-04-05T07:53:17.827Z</time></trkpt><trkpt lat="42.1502517" lon="14.5504633"><ele>243.0</ele><time>2026-04-05T07:53:19.827Z</time></trkpt><trkpt lat="42.150325" lon="14.5503883"><ele>243.0</ele><time>2026-04-05T07:53:21.827Z</time></trkpt><trkpt lat="42.1504033" lon="14.5503233"><ele>243.0</ele><time>2026-04-05T07:53:23.827Z</time></trkpt><trkpt lat="42.15049" lon="14.550265"><ele>244.16666666666666</ele><time>2026-04-05T07:53:25.827Z</time></trkpt><trkpt lat="42.1505667" lon="14.5502067"><ele>245.33333333333331</ele><time>2026-04-05T07:53:27.827Z</time></trkpt><trkpt lat="42.1506417" lon="14.5501567"><ele>246.5</ele><time>2026-04-05T07:53:29.827Z</time></trkpt><trkpt lat="42.1507133" lon="14.5501067"><ele>247.66666666666666</ele><time>2026-04-05T07:53:31.827Z</time></trkpt><trkpt lat="42.150785" lon="14.5500633"><ele>248.83333333333331</ele><time>2026-04-05T07:53:33.827Z</time></trkpt><trkpt lat="42.1508617" lon="14.5500217"><ele>250.0</ele><time>2026-04-05T07:53:35.827Z</time></trkpt><trkpt lat="42.150925" lon="14.549975"><ele>249.99999999999997</ele><time>2026-04-05T07:53:37.827Z</time></trkpt><trkpt lat="42.1509883" lon="14.54993"><ele>250.0</ele><time>2026-04-05T07:53:39.828Z</time></trkpt><trkpt lat="42.1510533" lon="14.5498667"><ele>250.0</ele><time>2026-04-05T07:53:41.827Z</time></trkpt><trkpt lat="42.1511217" lon="14.5498017"><ele>250.0</ele><time>2026-04-05T07:53:43.827Z</time></trkpt><trkpt lat="42.1511867" lon="14.549735"><ele>249.99999999999997</ele><time>2026-04-05T07:53:45.828Z</time></trkpt><trkpt lat="42.1512533" lon="14.5496417"><ele>250.0</ele><time>2026-04-05T07:53:47.827Z</time></trkpt><trkpt lat="42.15131" lon="14.549545"><ele>250.4</ele><time>2026-04-05T07:53:49.827Z</time></trkpt><trkpt lat="42.1513633" lon="14.5494417"><ele>250.8</ele><time>2026-04-05T07:53:51.827Z</time></trkpt><trkpt lat="42.1514183" lon="14.5493333"><ele>251.2</ele><time>2026-04-05T07:53:53.827Z</time></trkpt><trkpt lat="42.15148" lon="14.5492217"><ele>251.6</ele><time>2026-04-05T07:53:55.827Z</time></trkpt><trkpt lat="42.151545" lon="14.5490983"><ele>252.0</ele><time>2026-04-05T07:53:57.828Z</time></trkpt><trkpt lat="42.1515817" lon="14.5490217"><ele>252.0</ele><time>2026-04-05T07:53:58.827Z</time></trkpt><trkpt lat="42.1516167" lon="14.5489317"><ele>252.0</ele><time>2026-04-05T07:53:59.828Z</time></trkpt><trkpt lat="42.1516533" lon="14.54884"><ele>252.0</ele><time>2026-04-05T07:54:00.828Z</time></trkpt><trkpt lat="42.15169" lon="14.5487517"><ele>252.0</ele><time>2026-04-05T07:54:01.827Z</time></trkpt><trkpt lat="42.1517417" lon="14.5486533"><ele>252.0</ele><time>2026-04-05T07:54:02.828Z</time></trkpt><trkpt lat="42.151795" lon="14.54855"><ele>252.0</ele><time>2026-04-05T07:54:03.827Z</time></trkpt><trkpt lat="42.1518617" lon="14.5484317"><ele>250.6</ele><time>2026-04-05T07:54:04.827Z</time></trkpt><trkpt lat="42.15192" lon="14.5483167"><ele>249.2</ele><time>2026-04-05T07:54:05.828Z</time></trkpt><trkpt lat="42.1519783" lon="14.5482067"><ele>247.8</ele><time>2026-04-05T07:54:06.827Z</time></trkpt><trkpt lat="42.152035" lon="14.5480967"><ele>246.4</ele><time>2026-04-05T07:54:07.827Z</time></trkpt><trkpt lat="42.15209" lon="14.5479883"><ele>245.0</ele><time>2026-04-05T07:54:08.828Z</time></trkpt><trkpt lat="42.1521467" lon="14.5478867"><ele>243.2</ele><time>2026-04-05T07:54:09.827Z</time></trkpt><trkpt lat="42.1522033" lon="14.54778"><ele>241.4</ele><time>2026-04-05T07:54:10.828Z</time></trkpt><trkpt lat="42.152265" lon="14.5476933"><ele>239.60000000000002</ele><time>2026-04-05T07:54:11.828Z</time></trkpt><trkpt lat="42.1523417" lon="14.5476083"><ele>237.8</ele><time>2026-04-05T07:54:12.828Z</time></trkpt><trkpt lat="42.1524283" lon="14.54754"><ele>236.0</ele><time>2026-04-05T07:54:13.827Z</time></trkpt><trkpt lat="42.1525167" lon="14.5474833"><ele>236.0</ele><time>2026-04-05T07:54:14.827Z</time></trkpt><trkpt lat="42.1526083" lon="14.54744"><ele>236.00000000000003</ele><time>2026-04-05T07:54:15.827Z</time></trkpt><trkpt lat="42.1526967" lon="14.5473967"><ele>236.00000000000003</ele><time>2026-04-05T07:54:16.827Z</time></trkpt><trkpt lat="42.1527833" lon="14.5473517"><ele>236.0</ele><time>2026-04-05T07:54:17.827Z</time></trkpt><trkpt lat="42.1528683" lon="14.5473117"><ele>236.0</ele><time>2026-04-05T07:54:18.828Z</time></trkpt><trkpt lat="42.1529583" lon="14.5472617"><ele>236.00000000000003</ele><time>2026-04-05T07:54:19.828Z</time></trkpt><trkpt lat="42.153045" lon="14.547215"><ele>236.0</ele><time>2026-04-05T07:54:20.827Z</time></trkpt><trkpt lat="42.15313" lon="14.5471683"><ele>236.0</ele><time>2026-04-05T07:54:21.828Z</time></trkpt><trkpt lat="42.1532133" lon="14.5471267"><ele>236.0</ele><time>2026-04-05T07:54:22.827Z</time></trkpt><trkpt lat="42.153295" lon="14.5470867"><ele>236.00000000000003</ele><time>2026-04-05T07:54:23.827Z</time></trkpt><trkpt lat="42.153375" lon="14.5470583"><ele>236.0</ele><time>2026-04-05T07:54:24.827Z</time></trkpt><trkpt lat="42.1534533" lon="14.5470267"><ele>235.85714285714283</ele><time>2026-04-05T07:54:25.827Z</time></trkpt><trkpt lat="42.1535267" lon="14.5469967"><ele>235.71428571428572</ele><time>2026-04-05T07:54:26.828Z</time></trkpt><trkpt lat="42.1535983" lon="14.5469667"><ele>235.57142857142856</ele><time>2026-04-05T07:54:27.827Z</time></trkpt><trkpt lat="42.1536667" lon="14.54694"><ele>235.42857142857142</ele><time>2026-04-05T07:54:28.828Z</time></trkpt><trkpt lat="42.1537383" lon="14.546915"><ele>235.28571428571428</ele><time>2026-04-05T07:54:29.827Z</time></trkpt><trkpt lat="42.15381" lon="14.5468833"><ele>235.14285714285714</ele><time>2026-04-05T07:54:30.827Z</time></trkpt><trkpt lat="42.15388" lon="14.5468467"><ele>235.0</ele><time>2026-04-05T07:54:31.827Z</time></trkpt><trkpt lat="42.1539517" lon="14.5468167"><ele>235.0</ele><time>2026-04-05T07:54:32.827Z</time></trkpt><trkpt lat="42.1540217" lon="14.54679"><ele>234.99999999999997</ele><time>2026-04-05T07:54:33.827Z</time></trkpt><trkpt lat="42.154095" lon="14.5467667"><ele>235.0</ele><time>2026-04-05T07:54:34.828Z</time></trkpt><trkpt lat="42.1541633" lon="14.5467467"><ele>235.0</ele><time>2026-04-05T07:54:35.827Z</time></trkpt><trkpt lat="42.1542317" lon="14.5467283"><ele>234.99999999999997</ele><time>2026-04-05T07:54:36.827Z</time></trkpt><trkpt lat="42.154305" lon="14.546715"><ele>235.0</ele><time>2026-04-05T07:54:37.827Z</time></trkpt><trkpt lat="42.1543783" lon="14.5467117"><ele>235.0</ele><time>2026-04-05T07:54:38.827Z</time></trkpt><trkpt lat="42.15445" lon="14.5467117"><ele>234.85714285714283</ele><time>2026-04-05T07:54:39.827Z</time></trkpt><trkpt lat="42.1545233" lon="14.5467117"><ele>234.7142857142857</ele><time>2026-04-05T07:54:40.827Z</time></trkpt><trkpt lat="42.1545917" lon="14.5467133"><ele>234.57142857142856</ele><time>2026-04-05T07:54:41.827Z</time></trkpt><trkpt lat="42.1546617" lon="14.546715"><ele>234.42857142857144</ele><time>2026-04-05T07:54:42.827Z</time></trkpt><trkpt lat="42.1547283" lon="14.54672"><ele>234.2857142857143</ele><time>2026-04-05T07:54:43.827Z</time></trkpt><trkpt lat="42.154795" lon="14.5467283"><ele>234.14285714285717</ele><time>2026-04-05T07:54:44.828Z</time></trkpt><trkpt lat="42.1548617" lon="14.5467383"><ele>234.0</ele><time>2026-04-05T07:54:45.828Z</time></trkpt><trkpt lat="42.1549283" lon="14.546745"><ele>234.0</ele><time>2026-04-05T07:54:46.828Z</time></trkpt><trkpt lat="42.1549933" lon="14.54675"><ele>234.00000000000003</ele><time>2026-04-05T07:54:47.828Z</time></trkpt><trkpt lat="42.1550617" lon="14.5467533"><ele>234.0</ele><time>2026-04-05T07:54:48.827Z</time></trkpt><trkpt lat="42.15513" lon="14.5467567"><ele>234.0</ele><time>2026-04-05T07:54:49.828Z</time></trkpt><trkpt lat="42.1551983" lon="14.5467583"><ele>234.00000000000003</ele><time>2026-04-05T07:54:50.827Z</time></trkpt><trkpt lat="42.1552717" lon="14.5467567"><ele>234.0</ele><time>2026-04-05T07:54:51.827Z</time></trkpt><trkpt lat="42.1553417" lon="14.5467667"><ele>234.0</ele><time>2026-04-05T07:54:52.828Z</time></trkpt><trkpt lat="42.15541" lon="14.5467683"><ele>234.0</ele><time>2026-04-05T07:54:53.827Z</time></trkpt><trkpt lat="42.15548" lon="14.54677"><ele>234.00000000000003</ele><time>2026-04-05T07:54:54.827Z</time></trkpt><trkpt lat="42.1555467" lon="14.5467733"><ele>234.0</ele><time>2026-04-05T07:54:55.827Z</time></trkpt><trkpt lat="42.1556133" lon="14.5467767"><ele>234.0</ele><time>2026-04-05T07:54:56.828Z</time></trkpt><trkpt lat="42.155685" lon="14.54679"><ele>234.00000000000003</ele><time>2026-04-05T07:54:57.827Z</time></trkpt><trkpt lat="42.15575" lon="14.5468017"><ele>234.0</ele><time>2026-04-05T07:54:58.827Z</time></trkpt><trkpt lat="42.1558183" lon="14.5468183"><ele>234.0</ele><time>2026-04-05T07:54:59.827Z</time></trkpt><trkpt lat="42.15589" lon="14.5468433"><ele>233.83333333333334</ele><time>2026-04-05T07:55:00.827Z</time></trkpt><trkpt lat="42.1559583" lon="14.546865"><ele>233.66666666666669</ele><time>2026-04-05T07:55:01.827Z</time></trkpt><trkpt lat="42.1560233" lon="14.5468917"><ele>233.5</ele><time>2026-04-05T07:55:02.827Z</time></trkpt><trkpt lat="42.1560867" lon="14.5469167"><ele>233.33333333333334</ele><time>2026-04-05T07:55:03.828Z</time></trkpt><trkpt lat="42.1561533" lon="14.5469433"><ele>233.16666666666669</ele><time>2026-04-05T07:55:04.827Z</time></trkpt><trkpt lat="42.156215" lon="14.5469617"><ele>233.0</ele><time>2026-04-05T07:55:05.827Z</time></trkpt><trkpt lat="42.156335" lon="14.547"><ele>233.0</ele><time>2026-04-05T07:55:07.827Z</time></trkpt><trkpt lat="42.1563983" lon="14.5470133"><ele>233.0</ele><time>2026-04-05T07:55:08.827Z</time></trkpt><trkpt lat="42.1564617" lon="14.5470183"><ele>233.0</ele><time>2026-04-05T07:55:09.827Z</time></trkpt><trkpt lat="42.1565267" lon="14.547015"><ele>233.0</ele><time>2026-04-05T07:55:10.827Z</time></trkpt><trkpt lat="42.156595" lon="14.5470083"><ele>233.0</ele><time>2026-04-05T07:55:11.827Z</time></trkpt><trkpt lat="42.1566633" lon="14.546995"><ele>233.0</ele><time>2026-04-05T07:55:12.827Z</time></trkpt><trkpt lat="42.1567267" lon="14.54698"><ele>233.0</ele><time>2026-04-05T07:55:13.827Z</time></trkpt><trkpt lat="42.15685" lon="14.5469467"><ele>233.16666666666669</ele><time>2026-04-05T07:55:15.827Z</time></trkpt><trkpt lat="42.156915" lon="14.546935"><ele>233.33333333333334</ele><time>2026-04-05T07:55:16.827Z</time></trkpt><trkpt lat="42.15698" lon="14.5469267"><ele>233.5</ele><time>2026-04-05T07:55:17.828Z</time></trkpt><trkpt lat="42.1570467" lon="14.54692"><ele>233.66666666666669</ele><time>2026-04-05T07:55:18.827Z</time></trkpt><trkpt lat="42.15717" lon="14.5468917"><ele>233.83333333333334</ele><time>2026-04-05T07:55:20.827Z</time></trkpt><trkpt lat="42.1572367" lon="14.54688"><ele>234.0</ele><time>2026-04-05T07:55:21.827Z</time></trkpt><trkpt lat="42.1573" lon="14.5468617"><ele>234.0</ele><time>2026-04-05T07:55:22.827Z</time></trkpt><trkpt lat="42.1573633" lon="14.5468467"><ele>234.00000000000003</ele><time>2026-04-05T07:55:23.827Z</time></trkpt><trkpt lat="42.1574283" lon="14.5468333"><ele>234.0</ele><time>2026-04-05T07:55:24.828Z</time></trkpt><trkpt lat="42.1574983" lon="14.5468267"><ele>234.0</ele><time>2026-04-05T07:55:25.827Z</time></trkpt><trkpt lat="42.157565" lon="14.5468283"><ele>234.00000000000003</ele><time>2026-04-05T07:55:26.827Z</time></trkpt><trkpt lat="42.15763" lon="14.5468333"><ele>234.0</ele><time>2026-04-05T07:55:27.827Z</time></trkpt><trkpt lat="42.1576933" lon="14.5468433"><ele>234.0</ele><time>2026-04-05T07:55:28.827Z</time></trkpt><trkpt lat="42.15776" lon="14.5468533"><ele>233.5</ele><time>2026-04-05T07:55:29.827Z</time></trkpt><trkpt lat="42.15783" lon="14.5468633"><ele>233.0</ele><time>2026-04-05T07:55:30.827Z</time></trkpt><trkpt lat="42.1578983" lon="14.54688"><ele>232.5</ele><time>2026-04-05T07:55:31.828Z</time></trkpt><trkpt lat="42.1579617" lon="14.5469"><ele>232.0</ele><time>2026-04-05T07:55:32.828Z</time></trkpt><trkpt lat="42.1580267" lon="14.5469167"><ele>231.5</ele><time>2026-04-05T07:55:33.828Z</time></trkpt><trkpt lat="42.1581517" lon="14.5469583"><ele>231.0</ele><time>2026-04-05T07:55:35.828Z</time></trkpt><trkpt lat="42.1582183" lon="14.5469783"><ele>230.42857142857144</ele><time>2026-04-05T07:55:36.827Z</time></trkpt><trkpt lat="42.1582817" lon="14.5470033"><ele>229.85714285714286</ele><time>2026-04-05T07:55:37.828Z</time></trkpt><trkpt lat="42.1583433" lon="14.5470367"><ele>229.28571428571428</ele><time>2026-04-05T07:55:38.828Z</time></trkpt><trkpt lat="42.158405" lon="14.5470683"><ele>228.71428571428572</ele><time>2026-04-05T07:55:39.827Z</time></trkpt><trkpt lat="42.1584617" lon="14.5471083"><ele>228.14285714285717</ele><time>2026-04-05T07:55:40.827Z</time></trkpt><trkpt lat="42.1585217" lon="14.547155"><ele>227.57142857142858</ele><time>2026-04-05T07:55:41.827Z</time></trkpt><trkpt lat="42.1585783" lon="14.5472"><ele>227.0</ele><time>2026-04-05T07:55:42.827Z</time></trkpt><trkpt lat="42.158635" lon="14.547245"><ele>226.50000000000003</ele><time>2026-04-05T07:55:43.827Z</time></trkpt><trkpt lat="42.158745" lon="14.5473267"><ele>226.0</ele><time>2026-04-05T07:55:45.827Z</time></trkpt><trkpt lat="42.1588067" lon="14.54737"><ele>225.5</ele><time>2026-04-05T07:55:46.827Z</time></trkpt><trkpt lat="42.15887" lon="14.547415"><ele>225.0</ele><time>2026-04-05T07:55:47.828Z</time></trkpt><trkpt lat="42.1589267" lon="14.54746"><ele>224.50000000000003</ele><time>2026-04-05T07:55:48.827Z</time></trkpt><trkpt lat="42.158985" lon="14.547505"><ele>224.0</ele><time>2026-04-05T07:55:49.827Z</time></trkpt><trkpt lat="42.1590433" lon="14.5475483"><ele>224.00000000000003</ele><time>2026-04-05T07:55:50.827Z</time></trkpt><trkpt lat="42.1591517" lon="14.5476333"><ele>224.0</ele><time>2026-04-05T07:55:52.827Z</time></trkpt><trkpt lat="42.1592117" lon="14.5476783"><ele>224.0</ele><time>2026-04-05T07:55:53.827Z</time></trkpt><trkpt lat="42.1592717" lon="14.5477233"><ele>224.0</ele><time>2026-04-05T07:55:54.828Z</time></trkpt><trkpt lat="42.1593333" lon="14.5477633"><ele>224.00000000000003</ele><time>2026-04-05T07:55:55.827Z</time></trkpt><trkpt lat="42.1593933" lon="14.5478017"><ele>224.0</ele><time>2026-04-05T07:55:56.827Z</time></trkpt><trkpt lat="42.159455" lon="14.54784"><ele>222.85714285714286</ele><time>2026-04-05T07:55:57.827Z</time></trkpt><trkpt lat="42.159515" lon="14.547885"><ele>221.71428571428572</ele><time>2026-04-05T07:55:58.828Z</time></trkpt><trkpt lat="42.15957" lon="14.5479283"><ele>220.57142857142856</ele><time>2026-04-05T07:55:59.827Z</time></trkpt><trkpt lat="42.1596267" lon="14.5479733"><ele>219.42857142857144</ele><time>2026-04-05T07:56:00.827Z</time></trkpt><trkpt lat="42.15969" lon="14.5480183"><ele>218.28571428571428</ele><time>2026-04-05T07:56:01.827Z</time></trkpt><trkpt lat="42.1597533" lon="14.54806"><ele>217.14285714285714</ele><time>2026-04-05T07:56:02.827Z</time></trkpt><trkpt lat="42.1598133" lon="14.5480983"><ele>216.0</ele><time>2026-04-05T07:56:03.828Z</time></trkpt><trkpt lat="42.1598733" lon="14.5481383"><ele>216.0</ele><time>2026-04-05T07:56:04.827Z</time></trkpt><trkpt lat="42.1599333" lon="14.5481817"><ele>216.0</ele><time>2026-04-05T07:56:05.827Z</time></trkpt><trkpt lat="42.1599933" lon="14.5482233"><ele>216.0</ele><time>2026-04-05T07:56:06.827Z</time></trkpt><trkpt lat="42.1600583" lon="14.54827"><ele>216.0</ele><time>2026-04-05T07:56:07.827Z</time></trkpt><trkpt lat="42.1601233" lon="14.5483133"><ele>216.0</ele><time>2026-04-05T07:56:08.827Z</time></trkpt><trkpt lat="42.16019" lon="14.5483417"><ele>216.0</ele><time>2026-04-05T07:56:09.828Z</time></trkpt><trkpt lat="42.1602567" lon="14.5483633"><ele>216.0</ele><time>2026-04-05T07:56:10.828Z</time></trkpt><trkpt lat="42.1603267" lon="14.5483767"><ele>216.0</ele><time>2026-04-05T07:56:11.828Z</time></trkpt><trkpt lat="42.1603983" lon="14.5483783"><ele>216.0</ele><time>2026-04-05T07:56:12.827Z</time></trkpt><trkpt lat="42.1604683" lon="14.548375"><ele>216.0</ele><time>2026-04-05T07:56:13.827Z</time></trkpt><trkpt lat="42.1605417" lon="14.5483567"><ele>216.0</ele><time>2026-04-05T07:56:14.827Z</time></trkpt><trkpt lat="42.160605" lon="14.5483483"><ele>216.0</ele><time>2026-04-05T07:56:15.827Z</time></trkpt><trkpt lat="42.1606767" lon="14.548345"><ele>216.0</ele><time>2026-04-05T07:56:16.827Z</time></trkpt><trkpt lat="42.16075" lon="14.5483283"><ele>216.0</ele><time>2026-04-05T07:56:17.827Z</time></trkpt><trkpt lat="42.1608283" lon="14.5483217"><ele>215.85714285714286</ele><time>2026-04-05T07:56:18.827Z</time></trkpt><trkpt lat="42.1609" lon="14.54831"><ele>215.71428571428572</ele><time>2026-04-05T07:56:19.828Z</time></trkpt><trkpt lat="42.1609733" lon="14.5482933"><ele>215.57142857142856</ele><time>2026-04-05T07:56:20.827Z</time></trkpt><trkpt lat="42.1610467" lon="14.548275"><ele>215.42857142857144</ele><time>2026-04-05T07:56:21.827Z</time></trkpt><trkpt lat="42.16112" lon="14.548265"><ele>215.2857142857143</ele><time>2026-04-05T07:56:22.828Z</time></trkpt><trkpt lat="42.1611933" lon="14.5482483"><ele>215.14285714285714</ele><time>2026-04-05T07:56:23.827Z</time></trkpt><trkpt lat="42.1612633" lon="14.5482417"><ele>215.0</ele><time>2026-04-05T07:56:24.827Z</time></trkpt><trkpt lat="42.1613333" lon="14.54823"><ele>215.0</ele><time>2026-04-05T07:56:25.828Z</time></trkpt><trkpt lat="42.1614017" lon="14.5482183"><ele>215.0</ele><time>2026-04-05T07:56:26.827Z</time></trkpt><trkpt lat="42.1614733" lon="14.5481983"><ele>215.0</ele><time>2026-04-05T07:56:27.827Z</time></trkpt><trkpt lat="42.1615467" lon="14.5481817"><ele>215.0</ele><time>2026-04-05T07:56:28.827Z</time></trkpt><trkpt lat="42.1616183" lon="14.5481667"><ele>215.0</ele><time>2026-04-05T07:56:29.828Z</time></trkpt><trkpt lat="42.16169" lon="14.5481517"><ele>215.0</ele><time>2026-04-05T07:56:30.827Z</time></trkpt><trkpt lat="42.1617633" lon="14.5481467"><ele>215.0</ele><time>2026-04-05T07:56:31.827Z</time></trkpt><trkpt lat="42.1618317" lon="14.548135"><ele>214.28571428571428</ele><time>2026-04-05T07:56:32.828Z</time></trkpt><trkpt lat="42.1619" lon="14.5481267"><ele>213.57142857142858</ele><time>2026-04-05T07:56:33.827Z</time></trkpt><trkpt lat="42.1619683" lon="14.5481183"><ele>212.85714285714286</ele><time>2026-04-05T07:56:34.827Z</time></trkpt><trkpt lat="42.1620383" lon="14.548105"><ele>212.14285714285714</ele><time>2026-04-05T07:56:35.827Z</time></trkpt><trkpt lat="42.1621017" lon="14.548095"><ele>211.42857142857144</ele><time>2026-04-05T07:56:36.828Z</time></trkpt><trkpt lat="42.1621667" lon="14.5480783"><ele>210.71428571428572</ele><time>2026-04-05T07:56:37.827Z</time></trkpt><trkpt lat="42.1622333" lon="14.54806"><ele>210.0</ele><time>2026-04-05T07:56:38.827Z</time></trkpt><trkpt lat="42.1623017" lon="14.5480483"><ele>210.0</ele><time>2026-04-05T07:56:39.827Z</time></trkpt><trkpt lat="42.1623633" lon="14.54802"><ele>210.0</ele><time>2026-04-05T07:56:40.827Z</time></trkpt><trkpt lat="42.1624267" lon="14.5479867"><ele>210.0</ele><time>2026-04-05T07:56:41.827Z</time></trkpt><trkpt lat="42.1624933" lon="14.5479517"><ele>210.0</ele><time>2026-04-05T07:56:42.827Z</time></trkpt><trkpt lat="42.1625583" lon="14.5479117"><ele>210.0</ele><time>2026-04-05T07:56:43.827Z</time></trkpt><trkpt lat="42.16262" lon="14.5478667"><ele>210.0</ele><time>2026-04-05T07:56:44.827Z</time></trkpt><trkpt lat="42.1626833" lon="14.5478133"><ele>210.0</ele><time>2026-04-05T07:56:45.827Z</time></trkpt><trkpt lat="42.162745" lon="14.5477633"><ele>210.83333333333334</ele><time>2026-04-05T07:56:46.827Z</time></trkpt><trkpt lat="42.162805" lon="14.5477067"><ele>211.66666666666669</ele><time>2026-04-05T07:56:47.827Z</time></trkpt><trkpt lat="42.162875" lon="14.547645"><ele>212.5</ele><time>2026-04-05T07:56:48.827Z</time></trkpt><trkpt lat="42.1629417" lon="14.5475867"><ele>213.33333333333334</ele><time>2026-04-05T07:56:49.827Z</time></trkpt><trkpt lat="42.16301" lon="14.54753"><ele>214.16666666666669</ele><time>2026-04-05T07:56:50.827Z</time></trkpt><trkpt lat="42.163075" lon="14.5474767"><ele>215.0</ele><time>2026-04-05T07:56:51.828Z</time></trkpt><trkpt lat="42.16314" lon="14.547425"><ele>213.28571428571428</ele><time>2026-04-05T07:56:52.827Z</time></trkpt><trkpt lat="42.1632033" lon="14.54737"><ele>211.57142857142858</ele><time>2026-04-05T07:56:53.827Z</time></trkpt><trkpt lat="42.1632633" lon="14.547325"><ele>209.85714285714286</ele><time>2026-04-05T07:56:54.827Z</time></trkpt><trkpt lat="42.163325" lon="14.5472767"><ele>208.14285714285714</ele><time>2026-04-05T07:56:55.827Z</time></trkpt><trkpt lat="42.1633883" lon="14.5472167"><ele>206.42857142857144</ele><time>2026-04-05T07:56:56.828Z</time></trkpt><trkpt lat="42.1634533" lon="14.54716"><ele>204.71428571428572</ele><time>2026-04-05T07:56:57.827Z</time></trkpt><trkpt lat="42.16352" lon="14.54711"><ele>203.0</ele><time>2026-04-05T07:56:58.827Z</time></trkpt><trkpt lat="42.16358" lon="14.5470633"><ele>204.00000000000003</ele><time>2026-04-05T07:56:59.827Z</time></trkpt><trkpt lat="42.163645" lon="14.5470083"><ele>205.0</ele><time>2026-04-05T07:57:00.828Z</time></trkpt><trkpt lat="42.1637033" lon="14.54695"><ele>206.0</ele><time>2026-04-05T07:57:01.827Z</time></trkpt><trkpt lat="42.1637633" lon="14.5468817"><ele>207.0</ele><time>2026-04-05T07:57:02.827Z</time></trkpt><trkpt lat="42.1638167" lon="14.5468033"><ele>208.00000000000003</ele><time>2026-04-05T07:57:03.827Z</time></trkpt><trkpt lat="42.16385" lon="14.5467067"><ele>209.0</ele><time>2026-04-05T07:57:04.827Z</time></trkpt><trkpt lat="42.163845" lon="14.5465983"><ele>209.00000000000003</ele><time>2026-04-05T07:57:05.828Z</time></trkpt><trkpt lat="42.1638167" lon="14.5465017"><ele>209.0</ele><time>2026-04-05T07:57:06.827Z</time></trkpt><trkpt lat="42.1637717" lon="14.5464133"><ele>209.0</ele><time>2026-04-05T07:57:07.827Z</time></trkpt><trkpt lat="42.1637133" lon="14.546345"><ele>209.0</ele><time>2026-04-05T07:57:08.827Z</time></trkpt><trkpt lat="42.1636433" lon="14.5462817"><ele>209.00000000000003</ele><time>2026-04-05T07:57:09.827Z</time></trkpt><trkpt lat="42.1635783" lon="14.546215"><ele>209.0</ele><time>2026-04-05T07:57:10.827Z</time></trkpt><trkpt lat="42.1635133" lon="14.5461467"><ele>208.33333333333334</ele><time>2026-04-05T07:57:11.827Z</time></trkpt><trkpt lat="42.1634467" lon="14.5460783"><ele>207.66666666666669</ele><time>2026-04-05T07:57:12.827Z</time></trkpt><trkpt lat="42.163375" lon="14.5460183"><ele>207.0</ele><time>2026-04-05T07:57:13.827Z</time></trkpt><trkpt lat="42.1633017" lon="14.5459533"><ele>206.33333333333331</ele><time>2026-04-05T07:57:14.827Z</time></trkpt><trkpt lat="42.1632267" lon="14.545885"><ele>205.66666666666666</ele><time>2026-04-05T07:57:15.827Z</time></trkpt><trkpt lat="42.1631533" lon="14.5458267"><ele>205.0</ele><time>2026-04-05T07:57:16.827Z</time></trkpt><trkpt lat="42.163075" lon="14.5457733"><ele>205.0</ele><time>2026-04-05T07:57:17.828Z</time></trkpt><trkpt lat="42.1629967" lon="14.5457333"><ele>205.0</ele><time>2026-04-05T07:57:18.827Z</time></trkpt><trkpt lat="42.1629117" lon="14.5456917"><ele>205.0</ele><time>2026-04-05T07:57:19.827Z</time></trkpt><trkpt lat="42.1628267" lon="14.5456617"><ele>205.0</ele><time>2026-04-05T07:57:20.828Z</time></trkpt><trkpt lat="42.1627333" lon="14.5456333"><ele>205.0</ele><time>2026-04-05T07:57:21.827Z</time></trkpt><trkpt lat="42.1626417" lon="14.5456"><ele>205.0</ele><time>2026-04-05T07:57:22.827Z</time></trkpt><trkpt lat="42.1625483" lon="14.5455617"><ele>205.0</ele><time>2026-04-05T07:57:23.827Z</time></trkpt><trkpt lat="42.1624617" lon="14.54552"><ele>205.0</ele><time>2026-04-05T07:57:24.827Z</time></trkpt><trkpt lat="42.162375" lon="14.5454717"><ele>205.0</ele><time>2026-04-05T07:57:25.827Z</time></trkpt><trkpt lat="42.16229" lon="14.5454117"><ele>205.0</ele><time>2026-04-05T07:57:26.828Z</time></trkpt><trkpt lat="42.1622083" lon="14.545355"><ele>203.0</ele><time>2026-04-05T07:57:27.827Z</time></trkpt><trkpt lat="42.1621317" lon="14.5452883"><ele>201.0</ele><time>2026-04-05T07:57:28.827Z</time></trkpt><trkpt lat="42.1620517" lon="14.5452233"><ele>199.0</ele><time>2026-04-05T07:57:29.827Z</time></trkpt><trkpt lat="42.161965" lon="14.5451617"><ele>197.0</ele><time>2026-04-05T07:57:30.827Z</time></trkpt><trkpt lat="42.1618783" lon="14.5450983"><ele>195.0</ele><time>2026-04-05T07:57:31.828Z</time></trkpt><trkpt lat="42.161795" lon="14.54503"><ele>195.0</ele><time>2026-04-05T07:57:32.827Z</time></trkpt><trkpt lat="42.1617133" lon="14.5449617"><ele>195.0</ele><time>2026-04-05T07:57:33.827Z</time></trkpt><trkpt lat="42.1616333" lon="14.5448933"><ele>195.0</ele><time>2026-04-05T07:57:34.828Z</time></trkpt><trkpt lat="42.1615567" lon="14.5448067"><ele>195.0</ele><time>2026-04-05T07:57:35.827Z</time></trkpt><trkpt lat="42.1614933" lon="14.54471"><ele>195.0</ele><time>2026-04-05T07:57:36.827Z</time></trkpt><trkpt lat="42.1614467" lon="14.5445967"><ele>195.2</ele><time>2026-04-05T07:57:37.827Z</time></trkpt><trkpt lat="42.16143" lon="14.544465"><ele>195.4</ele><time>2026-04-05T07:57:38.827Z</time></trkpt><trkpt lat="42.16144" lon="14.544335"><ele>195.60000000000002</ele><time>2026-04-05T07:57:39.828Z</time></trkpt><trkpt lat="42.1614667" lon="14.5442017"><ele>195.8</ele><time>2026-04-05T07:57:40.827Z</time></trkpt><trkpt lat="42.161505" lon="14.54409"><ele>196.0</ele><time>2026-04-05T07:57:41.827Z</time></trkpt><trkpt lat="42.1615583" lon="14.544"><ele>194.75</ele><time>2026-04-05T07:57:42.827Z</time></trkpt><trkpt lat="42.161605" lon="14.5439417"><ele>193.5</ele><time>2026-04-05T07:57:43.827Z</time></trkpt><trkpt lat="42.161655" lon="14.54388"><ele>192.25</ele><time>2026-04-05T07:57:45.827Z</time></trkpt><trkpt lat="42.1615783" lon="14.5435783"><ele>191.0</ele><time>2026-04-05T07:58:54.107Z</time></trkpt><trkpt lat="42.1617" lon="14.5437567"><ele>190.5</ele><time>2026-04-05T07:58:57.33Z</time></trkpt><trkpt lat="42.1616917" lon="14.5438733"><ele>190.0</ele><time>2026-04-05T07:59:21.83Z</time></trkpt><trkpt lat="42.1617633" lon="14.54388"><ele>189.5</ele><time>2026-04-05T07:59:23.829Z</time></trkpt><trkpt lat="42.16186" lon="14.54385"><ele>189.0</ele><time>2026-04-05T07:59:25.829Z</time></trkpt><trkpt lat="42.1619667" lon="14.5438017"><ele>188.5</ele><time>2026-04-05T07:59:27.829Z</time></trkpt><trkpt lat="42.1620267" lon="14.543775"><ele>188.0</ele><time>2026-04-05T07:59:28.829Z</time></trkpt><trkpt lat="42.162095" lon="14.543735"><ele>188.42857142857142</ele><time>2026-04-05T07:59:29.829Z</time></trkpt><trkpt lat="42.16216" lon="14.5436933"><ele>188.85714285714283</ele><time>2026-04-05T07:59:30.829Z</time></trkpt><trkpt lat="42.162225" lon="14.543655"><ele>189.28571428571428</ele><time>2026-04-05T07:59:31.829Z</time></trkpt><trkpt lat="42.162295" lon="14.5436117"><ele>189.71428571428572</ele><time>2026-04-05T07:59:32.829Z</time></trkpt><trkpt lat="42.1623617" lon="14.5435767"><ele>190.14285714285714</ele><time>2026-04-05T07:59:33.829Z</time></trkpt><trkpt lat="42.1624283" lon="14.5435383"><ele>190.57142857142858</ele><time>2026-04-05T07:59:34.829Z</time></trkpt><trkpt lat="42.1625" lon="14.543505"><ele>191.0</ele><time>2026-04-05T07:59:35.829Z</time></trkpt><trkpt lat="42.1625767" lon="14.5434767"><ele>189.5</ele><time>2026-04-05T07:59:36.829Z</time></trkpt><trkpt lat="42.162655" lon="14.543455"><ele>188.0</ele><time>2026-04-05T07:59:37.829Z</time></trkpt><trkpt lat="42.162735" lon="14.543435"><ele>186.5</ele><time>2026-04-05T07:59:38.829Z</time></trkpt><trkpt lat="42.162815" lon="14.543425"><ele>185.0</ele><time>2026-04-05T07:59:39.83Z</time></trkpt><trkpt lat="42.1628983" lon="14.543415"><ele>183.5</ele><time>2026-04-05T07:59:40.829Z</time></trkpt><trkpt lat="42.1629867" lon="14.5434083"><ele>182.0</ele><time>2026-04-05T07:59:41.829Z</time></trkpt><trkpt lat="42.1630733" lon="14.5434017"><ele>182.0</ele><time>2026-04-05T07:59:42.829Z</time></trkpt><trkpt lat="42.1631633" lon="14.54339"><ele>182.0</ele><time>2026-04-05T07:59:43.829Z</time></trkpt><trkpt lat="42.1632517" lon="14.5433833"><ele>182.0</ele><time>2026-04-05T07:59:44.829Z</time></trkpt><trkpt lat="42.16334" lon="14.5433767"><ele>182.0</ele><time>2026-04-05T07:59:45.829Z</time></trkpt><trkpt lat="42.1634283" lon="14.5433767"><ele>182.0</ele><time>2026-04-05T07:59:46.829Z</time></trkpt><trkpt lat="42.163515" lon="14.5433733"><ele>182.0</ele><time>2026-04-05T07:59:47.829Z</time></trkpt><trkpt lat="42.1636083" lon="14.5433667"><ele>180.66666666666666</ele><time>2026-04-05T07:59:48.829Z</time></trkpt><trkpt lat="42.1637017" lon="14.54336"><ele>179.33333333333331</ele><time>2026-04-05T07:59:49.829Z</time></trkpt><trkpt lat="42.1637933" lon="14.5433517"><ele>178.0</ele><time>2026-04-05T07:59:50.83Z</time></trkpt><trkpt lat="42.1638817" lon="14.543345"><ele>176.66666666666666</ele><time>2026-04-05T07:59:51.829Z</time></trkpt><trkpt lat="42.1639683" lon="14.5433367"><ele>175.33333333333334</ele><time>2026-04-05T07:59:52.83Z</time></trkpt><trkpt lat="42.164055" lon="14.5433317"><ele>174.0</ele><time>2026-04-05T07:59:53.829Z</time></trkpt><trkpt lat="42.1641417" lon="14.5433267"><ele>173.33333333333334</ele><time>2026-04-05T07:59:54.829Z</time></trkpt><trkpt lat="42.1642267" lon="14.5433217"><ele>172.66666666666666</ele><time>2026-04-05T07:59:55.83Z</time></trkpt><trkpt lat="42.1643183" lon="14.5433233"><ele>172.0</ele><time>2026-04-05T07:59:56.829Z</time></trkpt><trkpt lat="42.1644083" lon="14.5433133"><ele>171.33333333333331</ele><time>2026-04-05T07:59:57.829Z</time></trkpt><trkpt lat="42.1645" lon="14.54331"><ele>170.66666666666666</ele><time>2026-04-05T07:59:58.829Z</time></trkpt><trkpt lat="42.16459" lon="14.5433067"><ele>170.0</ele><time>2026-04-05T07:59:59.829Z</time></trkpt><trkpt lat="42.1646817" lon="14.5432983"><ele>170.0</ele><time>2026-04-05T08:00:00.829Z</time></trkpt><trkpt lat="42.1647733" lon="14.5433017"><ele>170.0</ele><time>2026-04-05T08:00:01.83Z</time></trkpt><trkpt lat="42.1648617" lon="14.543295"><ele>170.0</ele><time>2026-04-05T08:00:02.83Z</time></trkpt><trkpt lat="42.16495" lon="14.5432883"><ele>170.0</ele><time>2026-04-05T08:00:03.829Z</time></trkpt><trkpt lat="42.16504" lon="14.5432867"><ele>170.0</ele><time>2026-04-05T08:00:04.829Z</time></trkpt><trkpt lat="42.1651233" lon="14.54328"><ele>170.0</ele><time>2026-04-05T08:00:05.829Z</time></trkpt><trkpt lat="42.16521" lon="14.5432717"><ele>169.2</ele><time>2026-04-05T08:00:06.829Z</time></trkpt><trkpt lat="42.1653033" lon="14.54325"><ele>168.4</ele><time>2026-04-05T08:00:07.829Z</time></trkpt><trkpt lat="42.165395" lon="14.54322"><ele>167.60000000000002</ele><time>2026-04-05T08:00:08.829Z</time></trkpt><trkpt lat="42.1654867" lon="14.5431933"><ele>166.8</ele><time>2026-04-05T08:00:09.829Z</time></trkpt><trkpt lat="42.16558" lon="14.5431733"><ele>166.0</ele><time>2026-04-05T08:00:10.829Z</time></trkpt><trkpt lat="42.1656767" lon="14.5431483"><ele>165.20000000000002</ele><time>2026-04-05T08:00:11.829Z</time></trkpt><trkpt lat="42.1657717" lon="14.54312"><ele>164.4</ele><time>2026-04-05T08:00:12.83Z</time></trkpt><trkpt lat="42.1658717" lon="14.5430933"><ele>163.6</ele><time>2026-04-05T08:00:13.829Z</time></trkpt><trkpt lat="42.165975" lon="14.5430767"><ele>162.8</ele><time>2026-04-05T08:00:14.829Z</time></trkpt><trkpt lat="42.1660767" lon="14.54307"><ele>162.0</ele><time>2026-04-05T08:00:15.829Z</time></trkpt><trkpt lat="42.1661733" lon="14.5430733"><ele>162.0</ele><time>2026-04-05T08:00:16.829Z</time></trkpt><trkpt lat="42.166275" lon="14.5430817"><ele>162.0</ele><time>2026-04-05T08:00:17.829Z</time></trkpt><trkpt lat="42.16637" lon="14.5430983"><ele>162.0</ele><time>2026-04-05T08:00:18.829Z</time></trkpt><trkpt lat="42.1664617" lon="14.5431133"><ele>162.0</ele><time>2026-04-05T08:00:19.829Z</time></trkpt><trkpt lat="42.166555" lon="14.54313"><ele>162.0</ele><time>2026-04-05T08:00:20.83Z</time></trkpt><trkpt lat="42.16665" lon="14.5431483"><ele>161.83333333333334</ele><time>2026-04-05T08:00:21.829Z</time></trkpt><trkpt lat="42.1667417" lon="14.543165"><ele>161.66666666666666</ele><time>2026-04-05T08:00:22.83Z</time></trkpt><trkpt lat="42.1668283" lon="14.54318"><ele>161.5</ele><time>2026-04-05T08:00:23.829Z</time></trkpt><trkpt lat="42.1669133" lon="14.5431933"><ele>161.33333333333331</ele><time>2026-04-05T08:00:24.829Z</time></trkpt><trkpt lat="42.1669983" lon="14.5432083"><ele>161.16666666666666</ele><time>2026-04-05T08:00:25.829Z</time></trkpt><trkpt lat="42.1670833" lon="14.5432233"><ele>161.0</ele><time>2026-04-05T08:00:26.829Z</time></trkpt><trkpt lat="42.1671667" lon="14.543245"><ele>161.0</ele><time>2026-04-05T08:00:27.829Z</time></trkpt><trkpt lat="42.16725" lon="14.5432617"><ele>161.0</ele><time>2026-04-05T08:00:28.83Z</time></trkpt><trkpt lat="42.16733" lon="14.5432867"><ele>161.0</ele><time>2026-04-05T08:00:29.83Z</time></trkpt><trkpt lat="42.16741" lon="14.5433167"><ele>161.0</ele><time>2026-04-05T08:00:30.83Z</time></trkpt><trkpt lat="42.1674883" lon="14.54334"><ele>161.0</ele><time>2026-04-05T08:00:31.829Z</time></trkpt><trkpt lat="42.1675683" lon="14.5433683"><ele>161.0</ele><time>2026-04-05T08:00:32.829Z</time></trkpt><trkpt lat="42.1676483" lon="14.5434017"><ele>161.83333333333331</ele><time>2026-04-05T08:00:33.829Z</time></trkpt><trkpt lat="42.167725" lon="14.5434267"><ele>162.66666666666666</ele><time>2026-04-05T08:00:34.829Z</time></trkpt><trkpt lat="42.167805" lon="14.5434567"><ele>163.5</ele><time>2026-04-05T08:00:35.83Z</time></trkpt><trkpt lat="42.16788" lon="14.5434983"><ele>164.33333333333334</ele><time>2026-04-05T08:00:36.829Z</time></trkpt><trkpt lat="42.1679533" lon="14.5435367"><ele>165.16666666666669</ele><time>2026-04-05T08:00:37.829Z</time></trkpt><trkpt lat="42.1680283" lon="14.5435717"><ele>166.0</ele><time>2026-04-05T08:00:38.83Z</time></trkpt><trkpt lat="42.1681067" lon="14.54361"><ele>166.0</ele><time>2026-04-05T08:00:39.829Z</time></trkpt><trkpt lat="42.1681767" lon="14.5436417"><ele>166.0</ele><time>2026-04-05T08:00:40.829Z</time></trkpt><trkpt lat="42.168255" lon="14.5436783"><ele>166.0</ele><time>2026-04-05T08:00:41.829Z</time></trkpt><trkpt lat="42.1683283" lon="14.5437083"><ele>166.0</ele><time>2026-04-05T08:00:42.83Z</time></trkpt><trkpt lat="42.1684017" lon="14.5437433"><ele>166.0</ele><time>2026-04-05T08:00:43.829Z</time></trkpt><trkpt lat="42.1684767" lon="14.543775"><ele>166.0</ele><time>2026-04-05T08:00:44.83Z</time></trkpt><trkpt lat="42.1685517" lon="14.54381"><ele>163.5</ele><time>2026-04-05T08:00:45.829Z</time></trkpt><trkpt lat="42.1686267" lon="14.5438317"><ele>161.0</ele><time>2026-04-05T08:00:46.829Z</time></trkpt><trkpt lat="42.1687033" lon="14.5438533"><ele>158.5</ele><time>2026-04-05T08:00:47.829Z</time></trkpt><trkpt lat="42.1687733" lon="14.543875"><ele>156.0</ele><time>2026-04-05T08:00:48.829Z</time></trkpt><trkpt lat="42.1688483" lon="14.543895"><ele>153.5</ele><time>2026-04-05T08:00:49.829Z</time></trkpt><trkpt lat="42.1689233" lon="14.5439133"><ele>151.0</ele><time>2026-04-05T08:00:50.829Z</time></trkpt><trkpt lat="42.169" lon="14.543935"><ele>151.42857142857144</ele><time>2026-04-05T08:00:51.83Z</time></trkpt><trkpt lat="42.169075" lon="14.543955"><ele>151.85714285714286</ele><time>2026-04-05T08:00:52.829Z</time></trkpt><trkpt lat="42.1691467" lon="14.5439733"><ele>152.28571428571428</ele><time>2026-04-05T08:00:53.83Z</time></trkpt><trkpt lat="42.1692167" lon="14.5439883"><ele>152.71428571428572</ele><time>2026-04-05T08:00:54.829Z</time></trkpt><trkpt lat="42.1692867" lon="14.5439983"><ele>153.14285714285714</ele><time>2026-04-05T08:00:55.829Z</time></trkpt><trkpt lat="42.169355" lon="14.5440067"><ele>153.57142857142858</ele><time>2026-04-05T08:00:56.829Z</time></trkpt><trkpt lat="42.1694267" lon="14.5440133"><ele>154.0</ele><time>2026-04-05T08:00:57.829Z</time></trkpt><trkpt lat="42.1695" lon="14.5440083"><ele>154.0</ele><time>2026-04-05T08:00:58.829Z</time></trkpt><trkpt lat="42.1695733" lon="14.5440067"><ele>154.0</ele><time>2026-04-05T08:00:59.829Z</time></trkpt><trkpt lat="42.1696467" lon="14.5440033"><ele>154.0</ele><time>2026-04-05T08:01:00.829Z</time></trkpt><trkpt lat="42.169715" lon="14.543995"><ele>154.0</ele><time>2026-04-05T08:01:01.829Z</time></trkpt><trkpt lat="42.1697783" lon="14.543995"><ele>154.0</ele><time>2026-04-05T08:01:02.829Z</time></trkpt><trkpt lat="42.1698417" lon="14.543995"><ele>154.0</ele><time>2026-04-05T08:01:03.829Z</time></trkpt><trkpt lat="42.1699633" lon="14.544"><ele>154.0</ele><time>2026-04-05T08:01:05.829Z</time></trkpt><trkpt lat="42.17003" lon="14.5439983"><ele>154.0</ele><time>2026-04-05T08:01:06.829Z</time></trkpt><trkpt lat="42.170095" lon="14.543995"><ele>154.0</ele><time>2026-04-05T08:01:07.829Z</time></trkpt><trkpt lat="42.17016" lon="14.5439917"><ele>154.0</ele><time>2026-04-05T08:01:08.83Z</time></trkpt><trkpt lat="42.17028" lon="14.5439883"><ele>154.0</ele><time>2026-04-05T08:01:10.829Z</time></trkpt><trkpt lat="42.1704017" lon="14.5439783"><ele>154.0</ele><time>2026-04-05T08:01:12.829Z</time></trkpt><trkpt lat="42.17047" lon="14.5439717"><ele>154.0</ele><time>2026-04-05T08:01:13.83Z</time></trkpt><trkpt lat="42.1705883" lon="14.5439533"><ele>154.0</ele><time>2026-04-05T08:01:15.83Z</time></trkpt><trkpt lat="42.1707" lon="14.5439333"><ele>154.0</ele><time>2026-04-05T08:01:17.829Z</time></trkpt><trkpt lat="42.1708083" lon="14.5439"><ele>154.0</ele><time>2026-04-05T08:01:19.83Z</time></trkpt><trkpt lat="42.17093" lon="14.5438567"><ele>152.75</ele><time>2026-04-05T08:01:21.829Z</time></trkpt><trkpt lat="42.171045" lon="14.5438133"><ele>151.5</ele><time>2026-04-05T08:01:23.83Z</time></trkpt><trkpt lat="42.1711517" lon="14.5437717"><ele>150.25</ele><time>2026-04-05T08:01:25.829Z</time></trkpt><trkpt lat="42.1712633" lon="14.543725"><ele>149.0</ele><time>2026-04-05T08:01:27.829Z</time></trkpt><trkpt lat="42.1713667" lon="14.5436533"><ele>150.2</ele><time>2026-04-05T08:01:29.829Z</time></trkpt><trkpt lat="42.1714667" lon="14.5435683"><ele>151.4</ele><time>2026-04-05T08:01:31.829Z</time></trkpt><trkpt lat="42.1715667" lon="14.54348"><ele>152.6</ele><time>2026-04-05T08:01:33.829Z</time></trkpt><trkpt lat="42.1716233" lon="14.5434333"><ele>153.8</ele><time>2026-04-05T08:01:34.829Z</time></trkpt><trkpt lat="42.1717233" lon="14.54335"><ele>155.0</ele><time>2026-04-05T08:01:36.829Z</time></trkpt><trkpt lat="42.1718233" lon="14.54326"><ele>155.0</ele><time>2026-04-05T08:01:38.83Z</time></trkpt><trkpt lat="42.17192" lon="14.5431833"><ele>155.0</ele><time>2026-04-05T08:01:40.829Z</time></trkpt><trkpt lat="42.1720167" lon="14.543115"><ele>155.0</ele><time>2026-04-05T08:01:42.829Z</time></trkpt><trkpt lat="42.1721183" lon="14.543025"><ele>155.0</ele><time>2026-04-05T08:01:44.829Z</time></trkpt><trkpt lat="42.172215" lon="14.5429317"><ele>154.5</ele><time>2026-04-05T08:01:46.829Z</time></trkpt><trkpt lat="42.1723033" lon="14.5428217"><ele>154.0</ele><time>2026-04-05T08:01:48.829Z</time></trkpt><trkpt lat="42.1723883" lon="14.5427083"><ele>153.5</ele><time>2026-04-05T08:01:50.829Z</time></trkpt><trkpt lat="42.1724683" lon="14.542585"><ele>153.0</ele><time>2026-04-05T08:01:52.829Z</time></trkpt><trkpt lat="42.17255" lon="14.5424717"><ele>153.0</ele><time>2026-04-05T08:01:54.83Z</time></trkpt><trkpt lat="42.1726383" lon="14.5423583"><ele>153.0</ele><time>2026-04-05T08:01:56.829Z</time></trkpt><trkpt lat="42.1727167" lon="14.5422367"><ele>153.0</ele><time>2026-04-05T08:01:58.83Z</time></trkpt><trkpt lat="42.1728017" lon="14.5421217"><ele>153.0</ele><time>2026-04-05T08:02:00.83Z</time></trkpt><trkpt lat="42.1728967" lon="14.5420283"><ele>152.75</ele><time>2026-04-05T08:02:02.83Z</time></trkpt><trkpt lat="42.172995" lon="14.5419433"><ele>152.5</ele><time>2026-04-05T08:02:04.829Z</time></trkpt><trkpt lat="42.1731033" lon="14.5418883"><ele>152.25</ele><time>2026-04-05T08:02:06.829Z</time></trkpt><trkpt lat="42.173215" lon="14.54184"><ele>152.0</ele><time>2026-04-05T08:02:08.829Z</time></trkpt><trkpt lat="42.1733217" lon="14.5418067"><ele>152.0</ele><time>2026-04-05T08:02:10.829Z</time></trkpt><trkpt lat="42.1734383" lon="14.5417683"><ele>152.0</ele><time>2026-04-05T08:02:12.829Z</time></trkpt><trkpt lat="42.1735567" lon="14.5417333"><ele>152.0</ele><time>2026-04-05T08:02:14.83Z</time></trkpt><trkpt lat="42.1736733" lon="14.5416983"><ele>152.0</ele><time>2026-04-05T08:02:16.83Z</time></trkpt><trkpt lat="42.1737917" lon="14.5416633"><ele>152.0</ele><time>2026-04-05T08:02:18.829Z</time></trkpt><trkpt lat="42.173905" lon="14.5416133"><ele>152.0</ele><time>2026-04-05T08:02:20.829Z</time></trkpt><trkpt lat="42.1739667" lon="14.5415867"><ele>152.0</ele><time>2026-04-05T08:02:21.829Z</time></trkpt><trkpt lat="42.17408" lon="14.541525"><ele>152.0</ele><time>2026-04-05T08:02:23.83Z</time></trkpt><trkpt lat="42.1741383" lon="14.54149"><ele>152.0</ele><time>2026-04-05T08:02:24.83Z</time></trkpt><trkpt lat="42.174195" lon="14.5414467"><ele>152.0</ele><time>2026-04-05T08:02:25.829Z</time></trkpt><trkpt lat="42.17425" lon="14.541405"><ele>151.5</ele><time>2026-04-05T08:02:26.83Z</time></trkpt><trkpt lat="42.1743583" lon="14.541315"><ele>151.0</ele><time>2026-04-05T08:02:28.829Z</time></trkpt><trkpt lat="42.1744183" lon="14.541265"><ele>150.5</ele><time>2026-04-05T08:02:29.829Z</time></trkpt><trkpt lat="42.1744817" lon="14.54122"><ele>150.0</ele><time>2026-04-05T08:02:30.829Z</time></trkpt><trkpt lat="42.1745483" lon="14.541175"><ele>149.5</ele><time>2026-04-05T08:02:31.829Z</time></trkpt><trkpt lat="42.17462" lon="14.5411233"><ele>149.0</ele><time>2026-04-05T08:02:32.829Z</time></trkpt><trkpt lat="42.1746917" lon="14.541075"><ele>149.0</ele><time>2026-04-05T08:02:33.829Z</time></trkpt><trkpt lat="42.174765" lon="14.54103"><ele>149.0</ele><time>2026-04-05T08:02:34.829Z</time></trkpt><trkpt lat="42.1748417" lon="14.5409833"><ele>149.0</ele><time>2026-04-05T08:02:35.829Z</time></trkpt><trkpt lat="42.1749183" lon="14.54094"><ele>149.0</ele><time>2026-04-05T08:02:36.829Z</time></trkpt><trkpt lat="42.1749967" lon="14.54091"><ele>149.0</ele><time>2026-04-05T08:02:37.829Z</time></trkpt><trkpt lat="42.1750817" lon="14.5408833"><ele>149.0</ele><time>2026-04-05T08:02:38.829Z</time></trkpt><trkpt lat="42.1751583" lon="14.5408767"><ele>148.16666666666666</ele><time>2026-04-05T08:02:39.83Z</time></trkpt><trkpt lat="42.1752433" lon="14.5408617"><ele>147.33333333333331</ele><time>2026-04-05T08:02:40.829Z</time></trkpt><trkpt lat="42.1753217" lon="14.54085"><ele>146.5</ele><time>2026-04-05T08:02:41.829Z</time></trkpt><trkpt lat="42.1753967" lon="14.54083"><ele>145.66666666666666</ele><time>2026-04-05T08:02:42.829Z</time></trkpt><trkpt lat="42.1754733" lon="14.54082"><ele>144.83333333333334</ele><time>2026-04-05T08:02:43.829Z</time></trkpt><trkpt lat="42.17555" lon="14.540805"><ele>144.0</ele><time>2026-04-05T08:02:44.829Z</time></trkpt><trkpt lat="42.1756283" lon="14.5407833"><ele>143.33333333333334</ele><time>2026-04-05T08:02:45.829Z</time></trkpt><trkpt lat="42.1757017" lon="14.540775"><ele>142.66666666666666</ele><time>2026-04-05T08:02:46.83Z</time></trkpt><trkpt lat="42.1757783" lon="14.5407667"><ele>142.0</ele><time>2026-04-05T08:02:47.829Z</time></trkpt><trkpt lat="42.1758533" lon="14.5407483"><ele>141.33333333333331</ele><time>2026-04-05T08:02:48.829Z</time></trkpt><trkpt lat="42.1759267" lon="14.5407317"><ele>140.66666666666666</ele><time>2026-04-05T08:02:49.829Z</time></trkpt><trkpt lat="42.1760033" lon="14.5407167"><ele>140.0</ele><time>2026-04-05T08:02:50.829Z</time></trkpt><trkpt lat="42.1760783" lon="14.5407017"><ele>140.0</ele><time>2026-04-05T08:02:51.829Z</time></trkpt><trkpt lat="42.1761517" lon="14.540685"><ele>140.0</ele><time>2026-04-05T08:02:52.83Z</time></trkpt><trkpt lat="42.176225" lon="14.54067"><ele>140.0</ele><time>2026-04-05T08:02:53.829Z</time></trkpt><trkpt lat="42.1762967" lon="14.54066"><ele>140.0</ele><time>2026-04-05T08:02:54.829Z</time></trkpt><trkpt lat="42.1763667" lon="14.54065"><ele>140.0</ele><time>2026-04-05T08:02:55.829Z</time></trkpt><trkpt lat="42.17643" lon="14.54064"><ele>140.0</ele><time>2026-04-05T08:02:56.829Z</time></trkpt><trkpt lat="42.176495" lon="14.5406333"><ele>140.0</ele><time>2026-04-05T08:02:57.829Z</time></trkpt><trkpt lat="42.1765583" lon="14.5406317"><ele>139.8</ele><time>2026-04-05T08:02:58.829Z</time></trkpt><trkpt lat="42.1766233" lon="14.54063"><ele>139.6</ele><time>2026-04-05T08:02:59.829Z</time></trkpt><trkpt lat="42.176745" lon="14.54063"><ele>139.4</ele><time>2026-04-05T08:03:01.829Z</time></trkpt><trkpt lat="42.1768567" lon="14.5406283"><ele>139.2</ele><time>2026-04-05T08:03:03.829Z</time></trkpt><trkpt lat="42.176965" lon="14.5406317"><ele>139.0</ele><time>2026-04-05T08:03:05.83Z</time></trkpt><trkpt lat="42.1770817" lon="14.5406417"><ele>139.0</ele><time>2026-04-05T08:03:07.829Z</time></trkpt><trkpt lat="42.177195" lon="14.540645"><ele>139.0</ele><time>2026-04-05T08:03:09.829Z</time></trkpt><trkpt lat="42.1773033" lon="14.5406433"><ele>139.0</ele><time>2026-04-05T08:03:11.829Z</time></trkpt><trkpt lat="42.1774083" lon="14.5406333"><ele>139.0</ele><time>2026-04-05T08:03:13.83Z</time></trkpt><trkpt lat="42.17751" lon="14.54063"><ele>139.0</ele><time>2026-04-05T08:03:15.829Z</time></trkpt><trkpt lat="42.1776067" lon="14.5406467"><ele>139.2</ele><time>2026-04-05T08:03:17.83Z</time></trkpt><trkpt lat="42.177705" lon="14.5406333"><ele>139.4</ele><time>2026-04-05T08:03:19.829Z</time></trkpt><trkpt lat="42.177795" lon="14.540615"><ele>139.6</ele><time>2026-04-05T08:03:21.83Z</time></trkpt><trkpt lat="42.1778917" lon="14.5405233"><ele>139.8</ele><time>2026-04-05T08:03:23.829Z</time></trkpt><trkpt lat="42.177985" lon="14.5404867"><ele>140.0</ele><time>2026-04-05T08:03:25.829Z</time></trkpt><trkpt lat="42.1780633" lon="14.540445"><ele>140.0</ele><time>2026-04-05T08:03:27.829Z</time></trkpt><trkpt lat="42.1781433" lon="14.5404167"><ele>140.0</ele><time>2026-04-05T08:03:29.829Z</time></trkpt><trkpt lat="42.17822" lon="14.5403983"><ele>140.0</ele><time>2026-04-05T08:03:31.829Z</time></trkpt><trkpt lat="42.1783033" lon="14.5403767"><ele>140.0</ele><time>2026-04-05T08:03:33.829Z</time></trkpt><trkpt lat="42.1783717" lon="14.5403383"><ele>140.0</ele><time>2026-04-05T08:03:35.829Z</time></trkpt><trkpt lat="42.178445" lon="14.5403"><ele>140.0</ele><time>2026-04-05T08:03:37.829Z</time></trkpt><trkpt lat="42.1785083" lon="14.54028"><ele>140.14285714285714</ele><time>2026-04-05T08:03:39.829Z</time></trkpt><trkpt lat="42.17858" lon="14.5402667"><ele>140.28571428571428</ele><time>2026-04-05T08:03:41.829Z</time></trkpt><trkpt lat="42.1786483" lon="14.5402517"><ele>140.42857142857144</ele><time>2026-04-05T08:03:43.828Z</time></trkpt><trkpt lat="42.1787217" lon="14.5402483"><ele>140.57142857142856</ele><time>2026-04-05T08:03:45.828Z</time></trkpt><trkpt lat="42.1787917" lon="14.540245"><ele>140.71428571428572</ele><time>2026-04-05T08:03:47.828Z</time></trkpt><trkpt lat="42.1788617" lon="14.540225"><ele>140.85714285714286</ele><time>2026-04-05T08:03:49.828Z</time></trkpt><trkpt lat="42.178935" lon="14.540205"><ele>141.0</ele><time>2026-04-05T08:03:51.828Z</time></trkpt><trkpt lat="42.1790067" lon="14.5401967"><ele>141.28571428571428</ele><time>2026-04-05T08:03:53.828Z</time></trkpt><trkpt lat="42.17908" lon="14.5402033"><ele>141.57142857142856</ele><time>2026-04-05T08:03:55.829Z</time></trkpt><trkpt lat="42.1791533" lon="14.54021"><ele>141.85714285714283</ele><time>2026-04-05T08:03:57.828Z</time></trkpt><trkpt lat="42.1792233" lon="14.5402133"><ele>142.14285714285714</ele><time>2026-04-05T08:03:59.829Z</time></trkpt><trkpt lat="42.1792933" lon="14.5402133"><ele>142.42857142857142</ele><time>2026-04-05T08:04:01.828Z</time></trkpt><trkpt lat="42.1793633" lon="14.5402133"><ele>142.7142857142857</ele><time>2026-04-05T08:04:03.828Z</time></trkpt><trkpt lat="42.1794367" lon="14.5402067"><ele>143.0</ele><time>2026-04-05T08:04:05.828Z</time></trkpt><trkpt lat="42.17951" lon="14.5402033"><ele>143.0</ele><time>2026-04-05T08:04:07.828Z</time></trkpt><trkpt lat="42.1796" lon="14.54019"><ele>143.0</ele><time>2026-04-05T08:04:10.828Z</time></trkpt><trkpt lat="42.1796783" lon="14.5401733"><ele>143.0</ele><time>2026-04-05T08:04:13.828Z</time></trkpt><trkpt lat="42.1797517" lon="14.540165"><ele>143.0</ele><time>2026-04-05T08:04:16.828Z</time></trkpt><trkpt lat="42.1798267" lon="14.5401483"><ele>143.0</ele><time>2026-04-05T08:04:19.828Z</time></trkpt><trkpt lat="42.1799033" lon="14.5401233"><ele>143.0</ele><time>2026-04-05T08:04:22.828Z</time></trkpt><trkpt lat="42.17997" lon="14.5401"><ele>143.7142857142857</ele><time>2026-04-05T08:04:25.828Z</time></trkpt><trkpt lat="42.18004" lon="14.5400783"><ele>144.42857142857142</ele><time>2026-04-05T08:04:28.828Z</time></trkpt><trkpt lat="42.1801083" lon="14.5400567"><ele>145.14285714285714</ele><time>2026-04-05T08:04:31.828Z</time></trkpt><trkpt lat="42.180175" lon="14.5400467"><ele>145.85714285714283</ele><time>2026-04-05T08:04:34.829Z</time></trkpt><trkpt lat="42.1802533" lon="14.5400367"><ele>146.57142857142856</ele><time>2026-04-05T08:04:37.828Z</time></trkpt><trkpt lat="42.1803167" lon="14.5400333"><ele>147.28571428571428</ele><time>2026-04-05T08:04:40.828Z</time></trkpt><trkpt lat="42.18038" lon="14.54002"><ele>148.0</ele><time>2026-04-05T08:04:43.828Z</time></trkpt><trkpt lat="42.1804617" lon="14.5400017"><ele>148.0</ele><time>2026-04-05T08:04:46.828Z</time></trkpt><trkpt lat="42.180525" lon="14.5399917"><ele>148.0</ele><time>2026-04-05T08:04:48.828Z</time></trkpt><trkpt lat="42.18059" lon="14.5400033"><ele>148.0</ele><time>2026-04-05T08:04:51.828Z</time></trkpt><trkpt lat="42.18066" lon="14.5400133"><ele>148.0</ele><time>2026-04-05T08:04:54.828Z</time></trkpt><trkpt lat="42.1807283" lon="14.54002"><ele>148.0</ele><time>2026-04-05T08:04:57.828Z</time></trkpt><trkpt lat="42.1808017" lon="14.5400367"><ele>148.0</ele><time>2026-04-05T08:05:00.828Z</time></trkpt><trkpt lat="42.1808767" lon="14.5400233"><ele>148.0</ele><time>2026-04-05T08:05:03.828Z</time></trkpt><trkpt lat="42.1809633" lon="14.540015"><ele>149.57142857142858</ele><time>2026-04-05T08:05:06.828Z</time></trkpt><trkpt lat="42.1810367" lon="14.540005"><ele>151.14285714285714</ele><time>2026-04-05T08:05:09.828Z</time></trkpt><trkpt lat="42.1811083" lon="14.54"><ele>152.71428571428572</ele><time>2026-04-05T08:05:12.828Z</time></trkpt><trkpt lat="42.1811917" lon="14.539995"><ele>154.28571428571428</ele><time>2026-04-05T08:05:15.828Z</time></trkpt><trkpt lat="42.18126" lon="14.5399983"><ele>155.85714285714286</ele><time>2026-04-05T08:05:18.829Z</time></trkpt><trkpt lat="42.1813233" lon="14.5399933"><ele>157.42857142857142</ele><time>2026-04-05T08:05:21.828Z</time></trkpt><trkpt lat="42.1814067" lon="14.5399933"><ele>159.0</ele><time>2026-04-05T08:05:24.828Z</time></trkpt><trkpt lat="42.1814917" lon="14.53999"><ele>160.0</ele><time>2026-04-05T08:05:27.829Z</time></trkpt><trkpt lat="42.18158" lon="14.539995"><ele>161.0</ele><time>2026-04-05T08:05:30.828Z</time></trkpt><trkpt lat="42.1816467" lon="14.539995"><ele>162.0</ele><time>2026-04-05T08:05:32.829Z</time></trkpt><trkpt lat="42.18172" lon="14.5399983"><ele>163.0</ele><time>2026-04-05T08:05:34.829Z</time></trkpt><trkpt lat="42.1818" lon="14.5399983"><ele>164.0</ele><time>2026-04-05T08:05:36.828Z</time></trkpt><trkpt lat="42.1818833" lon="14.5399917"><ele>165.0</ele><time>2026-04-05T08:05:38.828Z</time></trkpt><trkpt lat="42.18197" lon="14.539985"><ele>165.0</ele><time>2026-04-05T08:05:40.828Z</time></trkpt><trkpt lat="42.182055" lon="14.5399817"><ele>165.0</ele><time>2026-04-05T08:05:42.828Z</time></trkpt><trkpt lat="42.1821617" lon="14.5399833"><ele>165.0</ele><time>2026-04-05T08:05:44.828Z</time></trkpt><trkpt lat="42.1822733" lon="14.5399917"><ele>165.0</ele><time>2026-04-05T08:05:46.828Z</time></trkpt><trkpt lat="42.1823783" lon="14.5399983"><ele>165.0</ele><time>2026-04-05T08:05:48.829Z</time></trkpt><trkpt lat="42.1824967" lon="14.5399967"><ele>164.8</ele><time>2026-04-05T08:05:50.828Z</time></trkpt><trkpt lat="42.1826083" lon="14.54"><ele>164.6</ele><time>2026-04-05T08:05:52.828Z</time></trkpt><trkpt lat="42.1827167" lon="14.539995"><ele>164.39999999999998</ele><time>2026-04-05T08:05:54.828Z</time></trkpt><trkpt lat="42.182835" lon="14.5400017"><ele>164.2</ele><time>2026-04-05T08:05:56.828Z</time></trkpt><trkpt lat="42.1829033" lon="14.5399917"><ele>164.0</ele><time>2026-04-05T08:05:57.828Z</time></trkpt><trkpt lat="42.182975" lon="14.5399733"><ele>164.0</ele><time>2026-04-05T08:05:58.828Z</time></trkpt><trkpt lat="42.1830433" lon="14.5399567"><ele>164.0</ele><time>2026-04-05T08:05:59.828Z</time></trkpt><trkpt lat="42.1831117" lon="14.539935"><ele>164.0</ele><time>2026-04-05T08:06:00.828Z</time></trkpt><trkpt lat="42.1832367" lon="14.5398917"><ele>164.0</ele><time>2026-04-05T08:06:02.828Z</time></trkpt><trkpt lat="42.1833017" lon="14.53987"><ele>164.0</ele><time>2026-04-05T08:06:03.829Z</time></trkpt><trkpt lat="42.1833683" lon="14.5398567"><ele>164.0</ele><time>2026-04-05T08:06:04.828Z</time></trkpt><trkpt lat="42.1834317" lon="14.5398383"><ele>163.57142857142856</ele><time>2026-04-05T08:06:05.828Z</time></trkpt><trkpt lat="42.1835017" lon="14.539815"><ele>163.14285714285714</ele><time>2026-04-05T08:06:06.829Z</time></trkpt><trkpt lat="42.183565" lon="14.5398"><ele>162.71428571428572</ele><time>2026-04-05T08:06:07.828Z</time></trkpt><trkpt lat="42.1836333" lon="14.539785"><ele>162.28571428571428</ele><time>2026-04-05T08:06:08.828Z</time></trkpt><trkpt lat="42.18371" lon="14.5397767"><ele>161.85714285714286</ele><time>2026-04-05T08:06:09.828Z</time></trkpt><trkpt lat="42.18378" lon="14.5397683"><ele>161.42857142857142</ele><time>2026-04-05T08:06:10.828Z</time></trkpt><trkpt lat="42.1838533" lon="14.53976"><ele>161.0</ele><time>2026-04-05T08:06:11.829Z</time></trkpt><trkpt lat="42.183925" lon="14.5397467"><ele>161.0</ele><time>2026-04-05T08:06:12.828Z</time></trkpt><trkpt lat="42.183995" lon="14.53975"><ele>161.0</ele><time>2026-04-05T08:06:13.829Z</time></trkpt><trkpt lat="42.1840717" lon="14.5397533"><ele>161.0</ele><time>2026-04-05T08:06:14.828Z</time></trkpt><trkpt lat="42.18415" lon="14.5397483"><ele>161.0</ele><time>2026-04-05T08:06:15.828Z</time></trkpt><trkpt lat="42.1842283" lon="14.53975"><ele>161.0</ele><time>2026-04-05T08:06:16.828Z</time></trkpt><trkpt lat="42.1842983" lon="14.5397417"><ele>161.0</ele><time>2026-04-05T08:06:17.828Z</time></trkpt><trkpt lat="42.1843733" lon="14.53973"><ele>161.0</ele><time>2026-04-05T08:06:18.828Z</time></trkpt><trkpt lat="42.1844433" lon="14.5397267"><ele>160.28571428571428</ele><time>2026-04-05T08:06:19.828Z</time></trkpt><trkpt lat="42.18452" lon="14.5397117"><ele>159.57142857142856</ele><time>2026-04-05T08:06:20.829Z</time></trkpt><trkpt lat="42.184605" lon="14.539705"><ele>158.85714285714286</ele><time>2026-04-05T08:06:21.828Z</time></trkpt><trkpt lat="42.1846833" lon="14.5397083"><ele>158.14285714285714</ele><time>2026-04-05T08:06:22.828Z</time></trkpt><trkpt lat="42.1847517" lon="14.5397067"><ele>157.42857142857142</ele><time>2026-04-05T08:06:23.828Z</time></trkpt><trkpt lat="42.1848183" lon="14.5397"><ele>156.71428571428572</ele><time>2026-04-05T08:06:24.828Z</time></trkpt><trkpt lat="42.18489" lon="14.5396867"><ele>156.0</ele><time>2026-04-05T08:06:25.828Z</time></trkpt><trkpt lat="42.1849617" lon="14.5396767"><ele>155.0</ele><time>2026-04-05T08:06:26.828Z</time></trkpt><trkpt lat="42.1850383" lon="14.539665"><ele>154.0</ele><time>2026-04-05T08:06:27.828Z</time></trkpt><trkpt lat="42.185125" lon="14.5396617"><ele>153.0</ele><time>2026-04-05T08:06:28.828Z</time></trkpt><trkpt lat="42.1852117" lon="14.5396633"><ele>152.0</ele><time>2026-04-05T08:06:29.828Z</time></trkpt><trkpt lat="42.1852917" lon="14.539665"><ele>151.0</ele><time>2026-04-05T08:06:30.828Z</time></trkpt><trkpt lat="42.1853733" lon="14.5396833"><ele>150.0</ele><time>2026-04-05T08:06:31.828Z</time></trkpt><trkpt lat="42.185455" lon="14.5397017"><ele>150.0</ele><time>2026-04-05T08:06:32.828Z</time></trkpt><trkpt lat="42.18553" lon="14.5397317"><ele>150.0</ele><time>2026-04-05T08:06:33.828Z</time></trkpt><trkpt lat="42.1856067" lon="14.5397717"><ele>150.0</ele><time>2026-04-05T08:06:34.828Z</time></trkpt><trkpt lat="42.18569" lon="14.5398433"><ele>150.0</ele><time>2026-04-05T08:06:35.828Z</time></trkpt><trkpt lat="42.1857683" lon="14.539925"><ele>150.0</ele><time>2026-04-05T08:06:36.828Z</time></trkpt><trkpt lat="42.1858467" lon="14.5399933"><ele>149.5</ele><time>2026-04-05T08:06:37.828Z</time></trkpt><trkpt lat="42.18591" lon="14.54005"><ele>149.0</ele><time>2026-04-05T08:06:38.828Z</time></trkpt><trkpt lat="42.1859667" lon="14.5400917"><ele>148.5</ele><time>2026-04-05T08:06:39.828Z</time></trkpt><trkpt lat="42.1860683" lon="14.540155"><ele>148.0</ele><time>2026-04-05T08:06:41.828Z</time></trkpt><trkpt lat="42.186155" lon="14.5402133"><ele>147.5</ele><time>2026-04-05T08:06:43.828Z</time></trkpt><trkpt lat="42.1862217" lon="14.5402583"><ele>147.0</ele><time>2026-04-05T08:06:45.828Z</time></trkpt><trkpt lat="42.1862917" lon="14.54029"><ele>147.0</ele><time>2026-04-05T08:06:47.828Z</time></trkpt><trkpt lat="42.1863633" lon="14.5403117"><ele>147.0</ele><time>2026-04-05T08:06:49.828Z</time></trkpt><trkpt lat="42.186425" lon="14.540345"><ele>147.0</ele><time>2026-04-05T08:06:51.829Z</time></trkpt><trkpt lat="42.18648" lon="14.5403883"><ele>147.0</ele><time>2026-04-05T08:06:53.828Z</time></trkpt><trkpt lat="42.1865417" lon="14.5404283"><ele>147.0</ele><time>2026-04-05T08:06:55.829Z</time></trkpt><trkpt lat="42.18663" lon="14.5404767"><ele>147.0</ele><time>2026-04-05T08:06:58.828Z</time></trkpt><trkpt lat="42.186695" lon="14.54054"><ele>147.0</ele><time>2026-04-05T08:07:00.829Z</time></trkpt><trkpt lat="42.1867917" lon="14.5405783"><ele>147.16666666666666</ele><time>2026-04-05T08:07:02.829Z</time></trkpt><trkpt lat="42.1868567" lon="14.5405733"><ele>147.33333333333334</ele><time>2026-04-05T08:07:03.828Z</time></trkpt><trkpt lat="42.186965" lon="14.54056"><ele>147.5</ele><time>2026-04-05T08:07:05.828Z</time></trkpt><trkpt lat="42.18704" lon="14.540535"><ele>147.66666666666669</ele><time>2026-04-05T08:07:07.828Z</time></trkpt><trkpt lat="42.187115" lon="14.5405167"><ele>147.83333333333334</ele><time>2026-04-05T08:07:09.829Z</time></trkpt><trkpt lat="42.18721" lon="14.54051"><ele>148.0</ele><time>2026-04-05T08:07:11.829Z</time></trkpt><trkpt lat="42.1873083" lon="14.5405333"><ele>147.83333333333334</ele><time>2026-04-05T08:07:13.828Z</time></trkpt><trkpt lat="42.1873983" lon="14.5405917"><ele>147.66666666666669</ele><time>2026-04-05T08:07:15.828Z</time></trkpt><trkpt lat="42.187495" lon="14.5406133"><ele>147.5</ele><time>2026-04-05T08:07:17.829Z</time></trkpt><trkpt lat="42.187585" lon="14.5405717"><ele>147.33333333333334</ele><time>2026-04-05T08:07:19.829Z</time></trkpt><trkpt lat="42.1876333" lon="14.540505"><ele>147.16666666666666</ele><time>2026-04-05T08:07:20.828Z</time></trkpt><trkpt lat="42.1876917" lon="14.5404283"><ele>147.0</ele><time>2026-04-05T08:07:21.828Z</time></trkpt><trkpt lat="42.18775" lon="14.5403467"><ele>147.0</ele><time>2026-04-05T08:07:22.829Z</time></trkpt><trkpt lat="42.1878" lon="14.540265"><ele>147.0</ele><time>2026-04-05T08:07:23.828Z</time></trkpt><trkpt lat="42.1878483" lon="14.5401833"><ele>147.0</ele><time>2026-04-05T08:07:24.828Z</time></trkpt><trkpt lat="42.1878983" lon="14.540105"><ele>147.0</ele><time>2026-04-05T08:07:25.828Z</time></trkpt><trkpt lat="42.1879533" lon="14.5400417"><ele>147.0</ele><time>2026-04-05T08:07:26.829Z</time></trkpt><trkpt lat="42.1880067" lon="14.539985"><ele>147.0</ele><time>2026-04-05T08:07:27.829Z</time></trkpt><trkpt lat="42.1880683" lon="14.539925"><ele>147.0</ele><time>2026-04-05T08:07:28.828Z</time></trkpt><trkpt lat="42.188135" lon="14.5398817"><ele>146.5</ele><time>2026-04-05T08:07:29.828Z</time></trkpt><trkpt lat="42.1881967" lon="14.539825"><ele>146.0</ele><time>2026-04-05T08:07:30.828Z</time></trkpt><trkpt lat="42.1882617" lon="14.5397917"><ele>145.5</ele><time>2026-04-05T08:07:31.828Z</time></trkpt><trkpt lat="42.18834" lon="14.5397983"><ele>145.0</ele><time>2026-04-05T08:07:32.829Z</time></trkpt><trkpt lat="42.18842" lon="14.53981"><ele>144.5</ele><time>2026-04-05T08:07:33.828Z</time></trkpt><trkpt lat="42.1884933" lon="14.539845"><ele>144.0</ele><time>2026-04-05T08:07:34.828Z</time></trkpt><trkpt lat="42.1885667" lon="14.5399033"><ele>144.0</ele><time>2026-04-05T08:07:35.828Z</time></trkpt><trkpt lat="42.18864" lon="14.5399633"><ele>144.0</ele><time>2026-04-05T08:07:36.829Z</time></trkpt><trkpt lat="42.1887117" lon="14.54003"><ele>144.0</ele><time>2026-04-05T08:07:37.828Z</time></trkpt><trkpt lat="42.1887883" lon="14.5401017"><ele>144.0</ele><time>2026-04-05T08:07:38.828Z</time></trkpt><trkpt lat="42.1888733" lon="14.5401733"><ele>144.0</ele><time>2026-04-05T08:07:39.828Z</time></trkpt><trkpt lat="42.1889567" lon="14.5402533"><ele>141.5</ele><time>2026-04-05T08:07:40.828Z</time></trkpt><trkpt lat="42.18904" lon="14.5403483"><ele>139.0</ele><time>2026-04-05T08:07:41.828Z</time></trkpt><trkpt lat="42.189125" lon="14.5404483"><ele>136.5</ele><time>2026-04-05T08:07:42.828Z</time></trkpt><trkpt lat="42.1892067" lon="14.5405717"><ele>134.0</ele><time>2026-04-05T08:07:43.828Z</time></trkpt><trkpt lat="42.18928" lon="14.5407067"><ele>134.0</ele><time>2026-04-05T08:07:44.828Z</time></trkpt><trkpt lat="42.1893567" lon="14.5408317"><ele>134.0</ele><time>2026-04-05T08:07:45.828Z</time></trkpt><trkpt lat="42.1894433" lon="14.54094"><ele>134.0</ele><time>2026-04-05T08:07:46.828Z</time></trkpt><trkpt lat="42.1895283" lon="14.5410533"><ele>134.0</ele><time>2026-04-05T08:07:47.828Z</time></trkpt><trkpt lat="42.1896217" lon="14.5411233"><ele>134.0</ele><time>2026-04-05T08:07:48.828Z</time></trkpt><trkpt lat="42.1897183" lon="14.54119"><ele>134.0</ele><time>2026-04-05T08:07:49.828Z</time></trkpt><trkpt lat="42.1898233" lon="14.5412583"><ele>134.0</ele><time>2026-04-05T08:07:50.828Z</time></trkpt><trkpt lat="42.18992" lon="14.54132"><ele>134.0</ele><time>2026-04-05T08:07:51.828Z</time></trkpt><trkpt lat="42.1900133" lon="14.5413833"><ele>134.0</ele><time>2026-04-05T08:07:52.828Z</time></trkpt><trkpt lat="42.1901067" lon="14.54145"><ele>133.8</ele><time>2026-04-05T08:07:53.828Z</time></trkpt><trkpt lat="42.1901983" lon="14.5415183"><ele>133.60000000000002</ele><time>2026-04-05T08:07:54.829Z</time></trkpt><trkpt lat="42.1902817" lon="14.541575"><ele>133.4</ele><time>2026-04-05T08:07:55.828Z</time></trkpt><trkpt lat="42.190365" lon="14.5416283"><ele>133.20000000000002</ele><time>2026-04-05T08:07:56.828Z</time></trkpt><trkpt lat="42.19045" lon="14.5416717"><ele>133.0</ele><time>2026-04-05T08:07:57.829Z</time></trkpt><trkpt lat="42.1905233" lon="14.5417267"><ele>133.0</ele><time>2026-04-05T08:07:58.829Z</time></trkpt><trkpt lat="42.1906017" lon="14.5417767"><ele>133.0</ele><time>2026-04-05T08:07:59.828Z</time></trkpt><trkpt lat="42.1906733" lon="14.54183"><ele>133.0</ele><time>2026-04-05T08:08:00.828Z</time></trkpt><trkpt lat="42.1907433" lon="14.541905"><ele>133.0</ele><time>2026-04-05T08:08:01.829Z</time></trkpt><trkpt lat="42.1908233" lon="14.5419717"><ele>133.0</ele><time>2026-04-05T08:08:02.828Z</time></trkpt><trkpt lat="42.1909017" lon="14.54205"><ele>133.0</ele><time>2026-04-05T08:08:03.828Z</time></trkpt><trkpt lat="42.19099" lon="14.5421067"><ele>132.0</ele><time>2026-04-05T08:08:04.828Z</time></trkpt><trkpt lat="42.1910717" lon="14.542165"><ele>131.0</ele><time>2026-04-05T08:08:05.828Z</time></trkpt><trkpt lat="42.1911583" lon="14.5422283"><ele>130.0</ele><time>2026-04-05T08:08:06.828Z</time></trkpt><trkpt lat="42.1912483" lon="14.54228"><ele>129.0</ele><time>2026-04-05T08:08:07.828Z</time></trkpt><trkpt lat="42.1913367" lon="14.5423267"><ele>128.0</ele><time>2026-04-05T08:08:08.829Z</time></trkpt><trkpt lat="42.1914267" lon="14.5423683"><ele>125.4</ele><time>2026-04-05T08:08:09.828Z</time></trkpt><trkpt lat="42.1915167" lon="14.5423717"><ele>122.80000000000001</ele><time>2026-04-05T08:08:10.828Z</time></trkpt><trkpt lat="42.1916133" lon="14.5423783"><ele>120.2</ele><time>2026-04-05T08:08:11.829Z</time></trkpt><trkpt lat="42.191705" lon="14.5424083"><ele>117.6</ele><time>2026-04-05T08:08:12.828Z</time></trkpt><trkpt lat="42.1917933" lon="14.5424633"><ele>115.0</ele><time>2026-04-05T08:08:13.829Z</time></trkpt><trkpt lat="42.19187" lon="14.54254"><ele>115.0</ele><time>2026-04-05T08:08:14.828Z</time></trkpt><trkpt lat="42.1919367" lon="14.5426467"><ele>115.0</ele><time>2026-04-05T08:08:15.828Z</time></trkpt><trkpt lat="42.1920033" lon="14.54275"><ele>115.0</ele><time>2026-04-05T08:08:16.829Z</time></trkpt><trkpt lat="42.19207" lon="14.5428583"><ele>115.0</ele><time>2026-04-05T08:08:17.828Z</time></trkpt><trkpt lat="42.1921367" lon="14.542975"><ele>115.0</ele><time>2026-04-05T08:08:18.828Z</time></trkpt><trkpt lat="42.1922033" lon="14.543085"><ele>114.6</ele><time>2026-04-05T08:08:19.828Z</time></trkpt><trkpt lat="42.19227" lon="14.5432033"><ele>114.2</ele><time>2026-04-05T08:08:20.828Z</time></trkpt><trkpt lat="42.19234" lon="14.5433233"><ele>113.80000000000001</ele><time>2026-04-05T08:08:21.828Z</time></trkpt><trkpt lat="42.1924" lon="14.5434317"><ele>113.4</ele><time>2026-04-05T08:08:22.828Z</time></trkpt><trkpt lat="42.1924617" lon="14.5435367"><ele>113.0</ele><time>2026-04-05T08:08:23.829Z</time></trkpt><trkpt lat="42.19253" lon="14.5436383"><ele>110.80000000000001</ele><time>2026-04-05T08:08:24.828Z</time></trkpt><trkpt lat="42.1925917" lon="14.543735"><ele>108.60000000000001</ele><time>2026-04-05T08:08:25.828Z</time></trkpt><trkpt lat="42.1926617" lon="14.5438333"><ele>106.4</ele><time>2026-04-05T08:08:26.828Z</time></trkpt><trkpt lat="42.1927367" lon="14.5439183"><ele>104.19999999999999</ele><time>2026-04-05T08:08:27.828Z</time></trkpt><trkpt lat="42.192815" lon="14.5440033"><ele>102.0</ele><time>2026-04-05T08:08:28.828Z</time></trkpt><trkpt lat="42.1928967" lon="14.54406"><ele>102.0</ele><time>2026-04-05T08:08:29.828Z</time></trkpt><trkpt lat="42.1929817" lon="14.54411"><ele>102.0</ele><time>2026-04-05T08:08:30.829Z</time></trkpt><trkpt lat="42.1930683" lon="14.544155"><ele>102.0</ele><time>2026-04-05T08:08:31.828Z</time></trkpt><trkpt lat="42.1931583" lon="14.5441967"><ele>102.0</ele><time>2026-04-05T08:08:32.828Z</time></trkpt><trkpt lat="42.19324" lon="14.544225"><ele>102.0</ele><time>2026-04-05T08:08:33.828Z</time></trkpt><trkpt lat="42.1933167" lon="14.5442467"><ele>102.0</ele><time>2026-04-05T08:08:34.828Z</time></trkpt><trkpt lat="42.1933917" lon="14.5442633"><ele>102.5</ele><time>2026-04-05T08:08:35.829Z</time></trkpt><trkpt lat="42.193465" lon="14.5442867"><ele>103.0</ele><time>2026-04-05T08:08:36.828Z</time></trkpt><trkpt lat="42.193535" lon="14.5443117"><ele>103.5</ele><time>2026-04-05T08:08:37.829Z</time></trkpt><trkpt lat="42.19361" lon="14.5443333"><ele>104.0</ele><time>2026-04-05T08:08:38.828Z</time></trkpt><trkpt lat="42.193685" lon="14.5443533"><ele>104.5</ele><time>2026-04-05T08:08:39.829Z</time></trkpt><trkpt lat="42.1937633" lon="14.5443817"><ele>105.0</ele><time>2026-04-05T08:08:40.828Z</time></trkpt><trkpt lat="42.1938433" lon="14.544405"><ele>105.0</ele><time>2026-04-05T08:08:41.828Z</time></trkpt><trkpt lat="42.1939167" lon="14.54444"><ele>105.0</ele><time>2026-04-05T08:08:42.828Z</time></trkpt><trkpt lat="42.1939833" lon="14.5444717"><ele>105.0</ele><time>2026-04-05T08:08:43.828Z</time></trkpt><trkpt lat="42.1940517" lon="14.5444983"><ele>105.0</ele><time>2026-04-05T08:08:44.829Z</time></trkpt><trkpt lat="42.19412" lon="14.5445283"><ele>105.0</ele><time>2026-04-05T08:08:45.829Z</time></trkpt><trkpt lat="42.1941867" lon="14.5445583"><ele>105.0</ele><time>2026-04-05T08:08:46.829Z</time></trkpt><trkpt lat="42.19425" lon="14.544595"><ele>105.0</ele><time>2026-04-05T08:08:47.828Z</time></trkpt><trkpt lat="42.1943083" lon="14.5446333"><ele>103.75</ele><time>2026-04-05T08:08:48.828Z</time></trkpt><trkpt lat="42.1944267" lon="14.5446867"><ele>102.5</ele><time>2026-04-05T08:08:50.828Z</time></trkpt><trkpt lat="42.1945467" lon="14.5447367"><ele>101.25</ele><time>2026-04-05T08:08:52.828Z</time></trkpt><trkpt lat="42.194665" lon="14.5447817"><ele>100.0</ele><time>2026-04-05T08:08:54.828Z</time></trkpt><trkpt lat="42.19478" lon="14.54482"><ele>100.0</ele><time>2026-04-05T08:08:56.828Z</time></trkpt><trkpt lat="42.19489" lon="14.5448433"><ele>100.0</ele><time>2026-04-05T08:08:58.828Z</time></trkpt><trkpt lat="42.1949983" lon="14.5448533"><ele>100.0</ele><time>2026-04-05T08:09:00.828Z</time></trkpt><trkpt lat="42.1951133" lon="14.5448683"><ele>100.0</ele><time>2026-04-05T08:09:02.828Z</time></trkpt><trkpt lat="42.1952533" lon="14.5448983"><ele>100.00000000000001</ele><time>2026-04-05T08:09:04.828Z</time></trkpt><trkpt lat="42.19532" lon="14.5449067"><ele>100.0</ele><time>2026-04-05T08:09:05.828Z</time></trkpt><trkpt lat="42.1953867" lon="14.54491"><ele>100.0</ele><time>2026-04-05T08:09:06.828Z</time></trkpt><trkpt lat="42.19551" lon="14.54491"><ele>100.0</ele><time>2026-04-05T08:09:08.828Z</time></trkpt><trkpt lat="42.1956283" lon="14.5449083"><ele>100.00000000000001</ele><time>2026-04-05T08:09:10.828Z</time></trkpt><trkpt lat="42.1956933" lon="14.5449067"><ele>100.0</ele><time>2026-04-05T08:09:11.828Z</time></trkpt><trkpt lat="42.1958217" lon="14.5449417"><ele>99.66666666666667</ele><time>2026-04-05T08:09:13.828Z</time></trkpt><trkpt lat="42.1958883" lon="14.54497"><ele>99.33333333333334</ele><time>2026-04-05T08:09:14.828Z</time></trkpt><trkpt lat="42.19596" lon="14.5450033"><ele>99.0</ele><time>2026-04-05T08:09:15.828Z</time></trkpt><trkpt lat="42.196035" lon="14.5450367"><ele>98.66666666666666</ele><time>2026-04-05T08:09:16.828Z</time></trkpt><trkpt lat="42.1961067" lon="14.5450783"><ele>98.33333333333333</ele><time>2026-04-05T08:09:17.828Z</time></trkpt><trkpt lat="42.19618" lon="14.5451133"><ele>98.0</ele><time>2026-04-05T08:09:18.828Z</time></trkpt><trkpt lat="42.1962467" lon="14.54514"><ele>97.99999999999999</ele><time>2026-04-05T08:09:19.828Z</time></trkpt><trkpt lat="42.1963233" lon="14.545165"><ele>98.0</ele><time>2026-04-05T08:09:20.828Z</time></trkpt><trkpt lat="42.1964033" lon="14.5451683"><ele>98.0</ele><time>2026-04-05T08:09:21.828Z</time></trkpt><trkpt lat="42.1964883" lon="14.545165"><ele>98.0</ele><time>2026-04-05T08:09:22.828Z</time></trkpt><trkpt lat="42.1965733" lon="14.54516"><ele>97.99999999999999</ele><time>2026-04-05T08:09:23.828Z</time></trkpt><trkpt lat="42.1966617" lon="14.545155"><ele>98.0</ele><time>2026-04-05T08:09:24.828Z</time></trkpt><trkpt lat="42.19675" lon="14.5451467"><ele>97.66666666666666</ele><time>2026-04-05T08:09:25.829Z</time></trkpt><trkpt lat="42.196835" lon="14.54514"><ele>97.33333333333333</ele><time>2026-04-05T08:09:26.828Z</time></trkpt><trkpt lat="42.1969217" lon="14.54513"><ele>97.0</ele><time>2026-04-05T08:09:27.828Z</time></trkpt><trkpt lat="42.19701" lon="14.54512"><ele>96.66666666666666</ele><time>2026-04-05T08:09:28.829Z</time></trkpt><trkpt lat="42.1970983" lon="14.5451033"><ele>96.33333333333333</ele><time>2026-04-05T08:09:29.828Z</time></trkpt><trkpt lat="42.197185" lon="14.5450983"><ele>96.0</ele><time>2026-04-05T08:09:30.828Z</time></trkpt><trkpt lat="42.1972683" lon="14.5451067"><ele>95.6</ele><time>2026-04-05T08:09:31.828Z</time></trkpt><trkpt lat="42.1973533" lon="14.545105"><ele>95.19999999999999</ele><time>2026-04-05T08:09:32.828Z</time></trkpt><trkpt lat="42.1974417" lon="14.54509"><ele>94.80000000000001</ele><time>2026-04-05T08:09:33.828Z</time></trkpt><trkpt lat="42.197535" lon="14.5450683"><ele>94.4</ele><time>2026-04-05T08:09:34.828Z</time></trkpt><trkpt lat="42.1976283" lon="14.5450467"><ele>94.0</ele><time>2026-04-05T08:09:35.828Z</time></trkpt><trkpt lat="42.1977233" lon="14.5450233"><ele>94.0</ele><time>2026-04-05T08:09:36.829Z</time></trkpt><trkpt lat="42.1978067" lon="14.54501"><ele>94.0</ele><time>2026-04-05T08:09:37.828Z</time></trkpt><trkpt lat="42.1978983" lon="14.545"><ele>94.0</ele><time>2026-04-05T08:09:38.828Z</time></trkpt><trkpt lat="42.19799" lon="14.545"><ele>94.0</ele><time>2026-04-05T08:09:39.829Z</time></trkpt><trkpt lat="42.19808" lon="14.545025"><ele>94.0</ele><time>2026-04-05T08:09:40.828Z</time></trkpt><trkpt lat="42.1981683" lon="14.5450683"><ele>92.6</ele><time>2026-04-05T08:09:41.828Z</time></trkpt><trkpt lat="42.1982567" lon="14.54511"><ele>91.2</ele><time>2026-04-05T08:09:42.828Z</time></trkpt><trkpt lat="42.1983433" lon="14.5451467"><ele>89.8</ele><time>2026-04-05T08:09:43.828Z</time></trkpt><trkpt lat="42.1984317" lon="14.5451917"><ele>88.39999999999999</ele><time>2026-04-05T08:09:44.828Z</time></trkpt><trkpt lat="42.1985183" lon="14.545225"><ele>87.0</ele><time>2026-04-05T08:09:45.828Z</time></trkpt><trkpt lat="42.1986067" lon="14.545255"><ele>87.0</ele><time>2026-04-05T08:09:46.828Z</time></trkpt><trkpt lat="42.19869" lon="14.5452783"><ele>87.0</ele><time>2026-04-05T08:09:47.828Z</time></trkpt><trkpt lat="42.1987717" lon="14.5453"><ele>87.0</ele><time>2026-04-05T08:09:48.828Z</time></trkpt><trkpt lat="42.198855" lon="14.5453167"><ele>87.0</ele><time>2026-04-05T08:09:49.828Z</time></trkpt><trkpt lat="42.1989333" lon="14.54534"><ele>87.0</ele><time>2026-04-05T08:09:50.828Z</time></trkpt><trkpt lat="42.1990117" lon="14.5453667"><ele>87.0</ele><time>2026-04-05T08:09:51.828Z</time></trkpt><trkpt lat="42.19909" lon="14.545395"><ele>88.0</ele><time>2026-04-05T08:09:52.828Z</time></trkpt><trkpt lat="42.1991667" lon="14.545425"><ele>89.0</ele><time>2026-04-05T08:09:53.828Z</time></trkpt><trkpt lat="42.199245" lon="14.5454517"><ele>90.0</ele><time>2026-04-05T08:09:54.828Z</time></trkpt><trkpt lat="42.199325" lon="14.545475"><ele>91.0</ele><time>2026-04-05T08:09:55.828Z</time></trkpt><trkpt lat="42.1994017" lon="14.5454917"><ele>92.0</ele><time>2026-04-05T08:09:56.828Z</time></trkpt><trkpt lat="42.19948" lon="14.5455183"><ele>93.0</ele><time>2026-04-05T08:09:57.828Z</time></trkpt><trkpt lat="42.1995567" lon="14.5455367"><ele>93.0</ele><time>2026-04-05T08:09:58.828Z</time></trkpt><trkpt lat="42.19964" lon="14.5455483"><ele>93.0</ele><time>2026-04-05T08:09:59.828Z</time></trkpt><trkpt lat="42.1997267" lon="14.54555"><ele>93.0</ele><time>2026-04-05T08:10:00.828Z</time></trkpt><trkpt lat="42.199815" lon="14.5455483"><ele>93.0</ele><time>2026-04-05T08:10:01.828Z</time></trkpt><trkpt lat="42.1999033" lon="14.54555"><ele>93.0</ele><time>2026-04-05T08:10:02.828Z</time></trkpt><trkpt lat="42.1999933" lon="14.5455433"><ele>93.0</ele><time>2026-04-05T08:10:03.829Z</time></trkpt><trkpt lat="42.200085" lon="14.545535"><ele>92.33333333333333</ele><time>2026-04-05T08:10:04.828Z</time></trkpt><trkpt lat="42.200175" lon="14.5455317"><ele>91.66666666666667</ele><time>2026-04-05T08:10:05.828Z</time></trkpt><trkpt lat="42.2002617" lon="14.5455317"><ele>91.0</ele><time>2026-04-05T08:10:06.829Z</time></trkpt><trkpt lat="42.2003483" lon="14.5455267"><ele>90.33333333333334</ele><time>2026-04-05T08:10:07.828Z</time></trkpt><trkpt lat="42.2004317" lon="14.5455167"><ele>89.66666666666667</ele><time>2026-04-05T08:10:08.828Z</time></trkpt><trkpt lat="42.20052" lon="14.545505"><ele>89.0</ele><time>2026-04-05T08:10:09.828Z</time></trkpt><trkpt lat="42.20061" lon="14.5455017"><ele>86.8</ele><time>2026-04-05T08:10:10.828Z</time></trkpt><trkpt lat="42.200695" lon="14.5454883"><ele>84.60000000000001</ele><time>2026-04-05T08:10:11.828Z</time></trkpt><trkpt lat="42.20079" lon="14.5454767"><ele>82.4</ele><time>2026-04-05T08:10:12.828Z</time></trkpt><trkpt lat="42.2008733" lon="14.54548"><ele>80.2</ele><time>2026-04-05T08:10:13.829Z</time></trkpt><trkpt lat="42.200965" lon="14.5454733"><ele>78.0</ele><time>2026-04-05T08:10:14.828Z</time></trkpt><trkpt lat="42.2010617" lon="14.5454467"><ele>78.0</ele><time>2026-04-05T08:10:15.828Z</time></trkpt><trkpt lat="42.201165" lon="14.545415"><ele>78.0</ele><time>2026-04-05T08:10:16.828Z</time></trkpt><trkpt lat="42.2012533" lon="14.545365"><ele>78.0</ele><time>2026-04-05T08:10:17.828Z</time></trkpt><trkpt lat="42.2013567" lon="14.5453183"><ele>78.0</ele><time>2026-04-05T08:10:18.828Z</time></trkpt><trkpt lat="42.2014583" lon="14.5452833"><ele>78.0</ele><time>2026-04-05T08:10:19.828Z</time></trkpt><trkpt lat="42.2015583" lon="14.5452683"><ele>76.8</ele><time>2026-04-05T08:10:20.828Z</time></trkpt><trkpt lat="42.2016583" lon="14.5452783"><ele>75.6</ele><time>2026-04-05T08:10:21.828Z</time></trkpt><trkpt lat="42.20176" lon="14.5453083"><ele>74.4</ele><time>2026-04-05T08:10:22.828Z</time></trkpt><trkpt lat="42.201855" lon="14.5453517"><ele>73.2</ele><time>2026-04-05T08:10:23.828Z</time></trkpt><trkpt lat="42.2019467" lon="14.5454217"><ele>72.0</ele><time>2026-04-05T08:10:24.828Z</time></trkpt><trkpt lat="42.20203" lon="14.5455"><ele>72.0</ele><time>2026-04-05T08:10:25.828Z</time></trkpt><trkpt lat="42.20211" lon="14.5455817"><ele>72.0</ele><time>2026-04-05T08:10:26.828Z</time></trkpt><trkpt lat="42.2021967" lon="14.5456517"><ele>72.0</ele><time>2026-04-05T08:10:27.828Z</time></trkpt><trkpt lat="42.2022967" lon="14.545695"><ele>72.0</ele><time>2026-04-05T08:10:28.829Z</time></trkpt><trkpt lat="42.2024033" lon="14.5457033"><ele>72.0</ele><time>2026-04-05T08:10:29.829Z</time></trkpt><trkpt lat="42.2025117" lon="14.5456983"><ele>70.4</ele><time>2026-04-05T08:10:30.828Z</time></trkpt><trkpt lat="42.202625" lon="14.545685"><ele>68.80000000000001</ele><time>2026-04-05T08:10:31.828Z</time></trkpt><trkpt lat="42.202735" lon="14.5456617"><ele>67.2</ele><time>2026-04-05T08:10:32.829Z</time></trkpt><trkpt lat="42.2028383" lon="14.5456417"><ele>65.60000000000001</ele><time>2026-04-05T08:10:33.828Z</time></trkpt><trkpt lat="42.2029433" lon="14.545635"><ele>64.0</ele><time>2026-04-05T08:10:34.828Z</time></trkpt><trkpt lat="42.2030517" lon="14.5456617"><ele>64.0</ele><time>2026-04-05T08:10:35.828Z</time></trkpt><trkpt lat="42.2031533" lon="14.5457133"><ele>64.0</ele><time>2026-04-05T08:10:36.828Z</time></trkpt><trkpt lat="42.2032467" lon="14.5457967"><ele>64.0</ele><time>2026-04-05T08:10:37.828Z</time></trkpt><trkpt lat="42.2033267" lon="14.5459"><ele>64.0</ele><time>2026-04-05T08:10:38.828Z</time></trkpt><trkpt lat="42.203405" lon="14.5460133"><ele>64.0</ele><time>2026-04-05T08:10:39.828Z</time></trkpt><trkpt lat="42.2034767" lon="14.5461267"><ele>63.400000000000006</ele><time>2026-04-05T08:10:40.828Z</time></trkpt><trkpt lat="42.2035567" lon="14.546235"><ele>62.800000000000004</ele><time>2026-04-05T08:10:41.828Z</time></trkpt><trkpt lat="42.2036317" lon="14.54635"><ele>62.199999999999996</ele><time>2026-04-05T08:10:42.828Z</time></trkpt><trkpt lat="42.20371" lon="14.5464617"><ele>61.599999999999994</ele><time>2026-04-05T08:10:43.829Z</time></trkpt><trkpt lat="42.20378" lon="14.5465617"><ele>61.0</ele><time>2026-04-05T08:10:44.829Z</time></trkpt><trkpt lat="42.2038467" lon="14.5466333"><ele>60.99999999999999</ele><time>2026-04-05T08:10:45.828Z</time></trkpt><trkpt lat="42.20392" lon="14.5466733"><ele>61.0</ele><time>2026-04-05T08:10:46.828Z</time></trkpt><trkpt lat="42.204" lon="14.546675"><ele>61.0</ele><time>2026-04-05T08:10:47.828Z</time></trkpt><trkpt lat="42.2040767" lon="14.5466317"><ele>61.0</ele><time>2026-04-05T08:10:48.829Z</time></trkpt><trkpt lat="42.204135" lon="14.54655"><ele>60.99999999999999</ele><time>2026-04-05T08:10:49.828Z</time></trkpt><trkpt lat="42.2041617" lon="14.54644"><ele>61.0</ele><time>2026-04-05T08:10:50.828Z</time></trkpt><trkpt lat="42.2041633" lon="14.5463217"><ele>59.4</ele><time>2026-04-05T08:10:51.828Z</time></trkpt><trkpt lat="42.2041383" lon="14.5462017"><ele>57.8</ele><time>2026-04-05T08:10:52.828Z</time></trkpt><trkpt lat="42.204095" lon="14.5460867"><ele>56.199999999999996</ele><time>2026-04-05T08:10:53.828Z</time></trkpt><trkpt lat="42.2040367" lon="14.5459833"><ele>54.599999999999994</ele><time>2026-04-05T08:10:54.829Z</time></trkpt><trkpt lat="42.20398" lon="14.5458767"><ele>53.0</ele><time>2026-04-05T08:10:55.829Z</time></trkpt><trkpt lat="42.2039217" lon="14.5457783"><ele>53.0</ele><time>2026-04-05T08:10:56.828Z</time></trkpt><trkpt lat="42.2038567" lon="14.545675"><ele>53.0</ele><time>2026-04-05T08:10:57.828Z</time></trkpt><trkpt lat="42.20379" lon="14.5455717"><ele>53.0</ele><time>2026-04-05T08:10:58.828Z</time></trkpt><trkpt lat="42.2037217" lon="14.54547"><ele>53.0</ele><time>2026-04-05T08:10:59.828Z</time></trkpt><trkpt lat="42.2036583" lon="14.545355"><ele>53.0</ele><time>2026-04-05T08:11:00.829Z</time></trkpt><trkpt lat="42.2036133" lon="14.5452317"><ele>51.2</ele><time>2026-04-05T08:11:01.828Z</time></trkpt><trkpt lat="42.203585" lon="14.545095"><ele>49.4</ele><time>2026-04-05T08:11:02.828Z</time></trkpt><trkpt lat="42.2035683" lon="14.5449483"><ele>47.6</ele><time>2026-04-05T08:11:03.828Z</time></trkpt><trkpt lat="42.2035683" lon="14.5448017"><ele>45.800000000000004</ele><time>2026-04-05T08:11:04.828Z</time></trkpt><trkpt lat="42.2035767" lon="14.54466"><ele>44.0</ele><time>2026-04-05T08:11:05.828Z</time></trkpt><trkpt lat="42.20358" lon="14.5445183"><ele>42.800000000000004</ele><time>2026-04-05T08:11:06.828Z</time></trkpt><trkpt lat="42.2035767" lon="14.5443733"><ele>41.6</ele><time>2026-04-05T08:11:07.828Z</time></trkpt><trkpt lat="42.2035633" lon="14.54423"><ele>40.4</ele><time>2026-04-05T08:11:08.828Z</time></trkpt><trkpt lat="42.2035417" lon="14.5440883"><ele>39.2</ele><time>2026-04-05T08:11:09.828Z</time></trkpt><trkpt lat="42.20351" lon="14.5439533"><ele>38.0</ele><time>2026-04-05T08:11:10.828Z</time></trkpt><trkpt lat="42.2034733" lon="14.5438217"><ele>37.0</ele><time>2026-04-05T08:11:11.828Z</time></trkpt><trkpt lat="42.2034333" lon="14.543695"><ele>36.0</ele><time>2026-04-05T08:11:12.828Z</time></trkpt><trkpt lat="42.2033917" lon="14.5435767"><ele>35.0</ele><time>2026-04-05T08:11:13.828Z</time></trkpt><trkpt lat="42.2033483" lon="14.5434633"><ele>34.0</ele><time>2026-04-05T08:11:14.829Z</time></trkpt><trkpt lat="42.20331" lon="14.54335"><ele>33.0</ele><time>2026-04-05T08:11:15.829Z</time></trkpt><trkpt lat="42.203265" lon="14.5432433"><ele>33.0</ele><time>2026-04-05T08:11:16.828Z</time></trkpt><trkpt lat="42.20323" lon="14.5431417"><ele>33.0</ele><time>2026-04-05T08:11:17.828Z</time></trkpt><trkpt lat="42.2032017" lon="14.5430367"><ele>33.0</ele><time>2026-04-05T08:11:18.828Z</time></trkpt><trkpt lat="42.20317" lon="14.54294"><ele>33.0</ele><time>2026-04-05T08:11:19.828Z</time></trkpt><trkpt lat="42.2031517" lon="14.5428483"><ele>33.0</ele><time>2026-04-05T08:11:20.829Z</time></trkpt><trkpt lat="42.203125" lon="14.5427517"><ele>33.0</ele><time>2026-04-05T08:11:21.829Z</time></trkpt><trkpt lat="42.2031" lon="14.5426567"><ele>33.166666666666664</ele><time>2026-04-05T08:11:22.828Z</time></trkpt><trkpt lat="42.2030833" lon="14.54256"><ele>33.333333333333336</ele><time>2026-04-05T08:11:23.828Z</time></trkpt><trkpt lat="42.2030683" lon="14.5424633"><ele>33.5</ele><time>2026-04-05T08:11:24.828Z</time></trkpt><trkpt lat="42.20305" lon="14.54237"><ele>33.66666666666667</ele><time>2026-04-05T08:11:25.828Z</time></trkpt><trkpt lat="42.2030333" lon="14.5422833"><ele>33.833333333333336</ele><time>2026-04-05T08:11:26.828Z</time></trkpt><trkpt lat="42.2030067" lon="14.54212"><ele>34.0</ele><time>2026-04-05T08:11:28.828Z</time></trkpt><trkpt lat="42.2029783" lon="14.5419617"><ele>33.25</ele><time>2026-04-05T08:11:30.828Z</time></trkpt><trkpt lat="42.20296" lon="14.5417967"><ele>32.5</ele><time>2026-04-05T08:11:32.828Z</time></trkpt><trkpt lat="42.2029483" lon="14.5416367"><ele>31.75</ele><time>2026-04-05T08:11:34.828Z</time></trkpt><trkpt lat="42.2029267" lon="14.54148"><ele>31.0</ele><time>2026-04-05T08:11:36.828Z</time></trkpt><trkpt lat="42.2029083" lon="14.5413383"><ele>31.5</ele><time>2026-04-05T08:11:38.828Z</time></trkpt><trkpt lat="42.2029" lon="14.5411783"><ele>32.0</ele><time>2026-04-05T08:11:40.828Z</time></trkpt><trkpt lat="42.2028933" lon="14.5410217"><ele>32.5</ele><time>2026-04-05T08:11:42.828Z</time></trkpt><trkpt lat="42.202885" lon="14.5408667"><ele>33.0</ele><time>2026-04-05T08:11:44.828Z</time></trkpt><trkpt lat="42.2028767" lon="14.5407283"><ele>33.0</ele><time>2026-04-05T08:11:46.828Z</time></trkpt><trkpt lat="42.2028733" lon="14.5405933"><ele>33.0</ele><time>2026-04-05T08:11:48.828Z</time></trkpt><trkpt lat="42.2028767" lon="14.5404483"><ele>33.0</ele><time>2026-04-05T08:11:50.828Z</time></trkpt><trkpt lat="42.202865" lon="14.54031"><ele>33.0</ele><time>2026-04-05T08:11:52.828Z</time></trkpt><trkpt lat="42.2028633" lon="14.5401683"><ele>33.0</ele><time>2026-04-05T08:11:54.828Z</time></trkpt><trkpt lat="42.202865" lon="14.5400283"><ele>33.0</ele><time>2026-04-05T08:11:56.828Z</time></trkpt><trkpt lat="42.202865" lon="14.5399"><ele>33.0</ele><time>2026-04-05T08:11:58.828Z</time></trkpt><trkpt lat="42.2028717" lon="14.5397583"><ele>33.0</ele><time>2026-04-05T08:12:00.829Z</time></trkpt><trkpt lat="42.2028967" lon="14.5396317"><ele>33.0</ele><time>2026-04-05T08:12:02.828Z</time></trkpt><trkpt lat="42.2029483" lon="14.539525"><ele>33.0</ele><time>2026-04-05T08:12:04.828Z</time></trkpt><trkpt lat="42.2030167" lon="14.539455"><ele>33.166666666666664</ele><time>2026-04-05T08:12:06.828Z</time></trkpt><trkpt lat="42.2030933" lon="14.53942"><ele>33.333333333333336</ele><time>2026-04-05T08:12:08.828Z</time></trkpt><trkpt lat="42.2031733" lon="14.53939"><ele>33.5</ele><time>2026-04-05T08:12:10.828Z</time></trkpt><trkpt lat="42.2032533" lon="14.5393833"><ele>33.66666666666667</ele><time>2026-04-05T08:12:12.828Z</time></trkpt><trkpt lat="42.2033317" lon="14.5394017"><ele>33.833333333333336</ele><time>2026-04-05T08:12:14.828Z</time></trkpt><trkpt lat="42.20341" lon="14.5394183"><ele>34.0</ele><time>2026-04-05T08:12:16.829Z</time></trkpt><trkpt lat="42.2034917" lon="14.5394367"><ele>34.57142857142857</ele><time>2026-04-05T08:12:18.828Z</time></trkpt><trkpt lat="42.20357" lon="14.5394567"><ele>35.14285714285714</ele><time>2026-04-05T08:12:20.828Z</time></trkpt><trkpt lat="42.2036433" lon="14.5394667"><ele>35.71428571428571</ele><time>2026-04-05T08:12:22.828Z</time></trkpt><trkpt lat="42.2037217" lon="14.5394633"><ele>36.285714285714285</ele><time>2026-04-05T08:12:24.828Z</time></trkpt><trkpt lat="42.2037833" lon="14.5394333"><ele>36.85714285714286</ele><time>2026-04-05T08:12:26.828Z</time></trkpt><trkpt lat="42.2038367" lon="14.539385"><ele>37.42857142857142</ele><time>2026-04-05T08:12:28.829Z</time></trkpt><trkpt lat="42.2038883" lon="14.53933"><ele>38.0</ele><time>2026-04-05T08:12:30.828Z</time></trkpt><trkpt lat="42.2039417" lon="14.539265"><ele>38.0</ele><time>2026-04-05T08:12:32.828Z</time></trkpt><trkpt lat="42.2039883" lon="14.5391967"><ele>38.0</ele><time>2026-04-05T08:12:34.829Z</time></trkpt><trkpt lat="42.2040333" lon="14.5391317"><ele>38.0</ele><time>2026-04-05T08:12:36.828Z</time></trkpt><trkpt lat="42.2040967" lon="14.5390417"><ele>38.0</ele><time>2026-04-05T08:12:39.828Z</time></trkpt><trkpt lat="42.20414" lon="14.53898"><ele>38.0</ele><time>2026-04-05T08:12:41.828Z</time></trkpt><trkpt lat="42.2041833" lon="14.538915"><ele>38.0</ele><time>2026-04-05T08:12:43.828Z</time></trkpt><trkpt lat="42.2042267" lon="14.5388533"><ele>38.0</ele><time>2026-04-05T08:12:45.828Z</time></trkpt><trkpt lat="42.2042817" lon="14.5387717"><ele>39.166666666666664</ele><time>2026-04-05T08:12:48.828Z</time></trkpt><trkpt lat="42.204335" lon="14.5386967"><ele>40.33333333333333</ele><time>2026-04-05T08:12:51.828Z</time></trkpt><trkpt lat="42.2043833" lon="14.5386267"><ele>41.5</ele><time>2026-04-05T08:12:54.828Z</time></trkpt><trkpt lat="42.2044267" lon="14.5385617"><ele>42.666666666666664</ele><time>2026-04-05T08:12:57.829Z</time></trkpt><trkpt lat="42.2044667" lon="14.53848"><ele>43.833333333333336</ele><time>2026-04-05T08:13:01.828Z</time></trkpt><trkpt lat="42.20456" lon="14.5383617"><ele>45.0</ele><time>2026-04-05T08:13:08.828Z</time></trkpt><trkpt lat="42.204625" lon="14.5383133"><ele>45.0</ele><time>2026-04-05T08:13:10.828Z</time></trkpt><trkpt lat="42.2047183" lon="14.5382983"><ele>45.0</ele><time>2026-04-05T08:13:12.828Z</time></trkpt><trkpt lat="42.2047867" lon="14.5382067"><ele>45.0</ele><time>2026-04-05T08:13:14.828Z</time></trkpt><trkpt lat="42.204835" lon="14.53813"><ele>45.0</ele><time>2026-04-05T08:13:16.828Z</time></trkpt><trkpt lat="42.2048783" lon="14.5380633"><ele>45.0</ele><time>2026-04-05T08:13:18.828Z</time></trkpt><trkpt lat="42.2049417" lon="14.53798"><ele>45.0</ele><time>2026-04-05T08:13:21.828Z</time></trkpt><trkpt lat="42.20501" lon="14.5378967"><ele>46.666666666666664</ele><time>2026-04-05T08:13:24.828Z</time></trkpt><trkpt lat="42.2050767" lon="14.5378183"><ele>48.33333333333333</ele><time>2026-04-05T08:13:27.828Z</time></trkpt><trkpt lat="42.2051367" lon="14.53775"><ele>50.0</ele><time>2026-04-05T08:13:30.828Z</time></trkpt><trkpt lat="42.2051983" lon="14.53768"><ele>51.666666666666664</ele><time>2026-04-05T08:13:33.828Z</time></trkpt><trkpt lat="42.2052717" lon="14.5376283"><ele>53.33333333333333</ele><time>2026-04-05T08:13:36.829Z</time></trkpt><trkpt lat="42.2053383" lon="14.5375617"><ele>55.0</ele><time>2026-04-05T08:13:39.828Z</time></trkpt><trkpt lat="42.205395" lon="14.5374883"><ele>54.99999999999999</ele><time>2026-04-05T08:13:42.828Z</time></trkpt><trkpt lat="42.2054533" lon="14.5373967"><ele>55.0</ele><time>2026-04-05T08:13:45.829Z</time></trkpt><trkpt lat="42.205515" lon="14.5373183"><ele>55.0</ele><time>2026-04-05T08:13:48.828Z</time></trkpt><trkpt lat="42.2055767" lon="14.5372233"><ele>55.0</ele><time>2026-04-05T08:13:51.828Z</time></trkpt><trkpt lat="42.2056283" lon="14.53714"><ele>54.99999999999999</ele><time>2026-04-05T08:13:54.828Z</time></trkpt><trkpt lat="42.20567" lon="14.53705"><ele>55.0</ele><time>2026-04-05T08:13:57.828Z</time></trkpt><trkpt lat="42.20566" lon="14.5369433"><ele>55.99999999999999</ele><time>2026-04-05T08:14:00.828Z</time></trkpt><trkpt lat="42.205605" lon="14.5368417"><ele>57.0</ele><time>2026-04-05T08:14:03.828Z</time></trkpt><trkpt lat="42.2055633" lon="14.5367767"><ele>58.0</ele><time>2026-04-05T08:14:05.829Z</time></trkpt><trkpt lat="42.2055067" lon="14.5366817"><ele>59.0</ele><time>2026-04-05T08:14:08.828Z</time></trkpt><trkpt lat="42.20547" lon="14.5365817"><ele>59.99999999999999</ele><time>2026-04-05T08:14:11.829Z</time></trkpt><trkpt lat="42.2054417" lon="14.5364717"><ele>61.0</ele><time>2026-04-05T08:14:14.829Z</time></trkpt><trkpt lat="42.2054217" lon="14.5363633"><ele>60.99999999999999</ele><time>2026-04-05T08:14:17.828Z</time></trkpt><trkpt lat="42.2053883" lon="14.5362583"><ele>61.0</ele><time>2026-04-05T08:14:20.828Z</time></trkpt><trkpt lat="42.2053533" lon="14.5361483"><ele>61.0</ele><time>2026-04-05T08:14:23.828Z</time></trkpt><trkpt lat="42.205325" lon="14.5360483"><ele>61.0</ele><time>2026-04-05T08:14:26.828Z</time></trkpt><trkpt lat="42.2053" lon="14.53595"><ele>60.99999999999999</ele><time>2026-04-05T08:14:29.828Z</time></trkpt><trkpt lat="42.2052817" lon="14.5358683"><ele>61.0</ele><time>2026-04-05T08:14:31.828Z</time></trkpt><trkpt lat="42.205245" lon="14.53576"><ele>61.33333333333333</ele><time>2026-04-05T08:14:34.828Z</time></trkpt><trkpt lat="42.2052233" lon="14.5356467"><ele>61.666666666666664</ele><time>2026-04-05T08:14:37.829Z</time></trkpt><trkpt lat="42.2051917" lon="14.5355533"><ele>62.0</ele><time>2026-04-05T08:14:40.828Z</time></trkpt><trkpt lat="42.20516" lon="14.5354517"><ele>62.33333333333333</ele><time>2026-04-05T08:14:43.829Z</time></trkpt><trkpt lat="42.2051317" lon="14.53534"><ele>62.666666666666664</ele><time>2026-04-05T08:14:46.828Z</time></trkpt><trkpt lat="42.2051017" lon="14.53523"><ele>63.0</ele><time>2026-04-05T08:14:49.828Z</time></trkpt><trkpt lat="42.2050717" lon="14.5351283"><ele>63.833333333333336</ele><time>2026-04-05T08:14:52.829Z</time></trkpt><trkpt lat="42.205035" lon="14.535025"><ele>64.66666666666667</ele><time>2026-04-05T08:14:55.829Z</time></trkpt><trkpt lat="42.2050017" lon="14.53492"><ele>65.5</ele><time>2026-04-05T08:14:58.828Z</time></trkpt><trkpt lat="42.20497" lon="14.5348067"><ele>66.33333333333334</ele><time>2026-04-05T08:15:01.829Z</time></trkpt><trkpt lat="42.20495" lon="14.5347"><ele>67.16666666666667</ele><time>2026-04-05T08:15:04.828Z</time></trkpt><trkpt lat="42.2049317" lon="14.534585"><ele>68.0</ele><time>2026-04-05T08:15:07.828Z</time></trkpt><trkpt lat="42.2049067" lon="14.5344717"><ele>69.16666666666667</ele><time>2026-04-05T08:15:10.828Z</time></trkpt><trkpt lat="42.2048917" lon="14.5343717"><ele>70.33333333333334</ele><time>2026-04-05T08:15:13.828Z</time></trkpt><trkpt lat="42.204885" lon="14.534255"><ele>71.5</ele><time>2026-04-05T08:15:16.828Z</time></trkpt><trkpt lat="42.2048817" lon="14.5341483"><ele>72.66666666666667</ele><time>2026-04-05T08:15:19.829Z</time></trkpt><trkpt lat="42.2048767" lon="14.5340483"><ele>73.83333333333333</ele><time>2026-04-05T08:15:22.828Z</time></trkpt><trkpt lat="42.204865" lon="14.5339417"><ele>75.0</ele><time>2026-04-05T08:15:25.828Z</time></trkpt><trkpt lat="42.2048567" lon="14.5338283"><ele>76.0</ele><time>2026-04-05T08:15:28.828Z</time></trkpt><trkpt lat="42.20485" lon="14.53372"><ele>77.0</ele><time>2026-04-05T08:15:31.829Z</time></trkpt><trkpt lat="42.2048483" lon="14.5336133"><ele>78.0</ele><time>2026-04-05T08:15:34.828Z</time></trkpt><trkpt lat="42.2048417" lon="14.5335083"><ele>79.0</ele><time>2026-04-05T08:15:37.828Z</time></trkpt><trkpt lat="42.2048333" lon="14.5334033"><ele>80.0</ele><time>2026-04-05T08:15:40.829Z</time></trkpt><trkpt lat="42.2048483" lon="14.5332867"><ele>81.0</ele><time>2026-04-05T08:15:43.828Z</time></trkpt><trkpt lat="42.204855" lon="14.533175"><ele>81.0</ele><time>2026-04-05T08:15:46.828Z</time></trkpt><trkpt lat="42.2048683" lon="14.5330617"><ele>81.0</ele><time>2026-04-05T08:15:49.828Z</time></trkpt><trkpt lat="42.20489" lon="14.5329717"><ele>81.0</ele><time>2026-04-05T08:15:51.828Z</time></trkpt><trkpt lat="42.20491" lon="14.5328833"><ele>81.0</ele><time>2026-04-05T08:15:53.828Z</time></trkpt><trkpt lat="42.2049233" lon="14.532795"><ele>81.0</ele><time>2026-04-05T08:15:55.828Z</time></trkpt><trkpt lat="42.20495" lon="14.532715"><ele>81.0</ele><time>2026-04-05T08:15:57.829Z</time></trkpt><trkpt lat="42.2049733" lon="14.5325883"><ele>81.28571428571429</ele><time>2026-04-05T08:16:00.828Z</time></trkpt><trkpt lat="42.2049917" lon="14.5324933"><ele>81.57142857142857</ele><time>2026-04-05T08:16:02.828Z</time></trkpt><trkpt lat="42.2050083" lon="14.53241"><ele>81.85714285714286</ele><time>2026-04-05T08:16:04.828Z</time></trkpt><trkpt lat="42.2050333" lon="14.5322933"><ele>82.14285714285714</ele><time>2026-04-05T08:16:07.828Z</time></trkpt><trkpt lat="42.2050533" lon="14.5321917"><ele>82.42857142857143</ele><time>2026-04-05T08:16:10.828Z</time></trkpt><trkpt lat="42.2050717" lon="14.53211"><ele>82.71428571428571</ele><time>2026-04-05T08:16:12.829Z</time></trkpt><trkpt lat="42.2050917" lon="14.5320233"><ele>83.0</ele><time>2026-04-05T08:16:14.829Z</time></trkpt><trkpt lat="42.205115" lon="14.5319433"><ele>83.0</ele><time>2026-04-05T08:16:16.828Z</time></trkpt><trkpt lat="42.2051383" lon="14.53186"><ele>83.0</ele><time>2026-04-05T08:16:18.828Z</time></trkpt><trkpt lat="42.205165" lon="14.531745"><ele>83.0</ele><time>2026-04-05T08:16:21.828Z</time></trkpt><trkpt lat="42.2051933" lon="14.531625"><ele>83.0</ele><time>2026-04-05T08:16:24.828Z</time></trkpt><trkpt lat="42.2052083" lon="14.53154"><ele>83.0</ele><time>2026-04-05T08:16:26.828Z</time></trkpt><trkpt lat="42.2052283" lon="14.531425"><ele>83.0</ele><time>2026-04-05T08:16:29.829Z</time></trkpt><trkpt lat="42.205255" lon="14.5313167"><ele>82.66666666666667</ele><time>2026-04-05T08:16:32.828Z</time></trkpt><trkpt lat="42.2052783" lon="14.5311933"><ele>82.33333333333334</ele><time>2026-04-05T08:16:35.829Z</time></trkpt><trkpt lat="42.2052983" lon="14.5311067"><ele>82.0</ele><time>2026-04-05T08:16:37.828Z</time></trkpt><trkpt lat="42.205315" lon="14.5310217"><ele>81.66666666666667</ele><time>2026-04-05T08:16:39.828Z</time></trkpt><trkpt lat="42.2053383" lon="14.530905"><ele>81.33333333333333</ele><time>2026-04-05T08:16:42.828Z</time></trkpt><trkpt lat="42.20536" lon="14.5308217"><ele>81.0</ele><time>2026-04-05T08:16:44.828Z</time></trkpt><trkpt lat="42.20538" lon="14.5307317"><ele>81.0</ele><time>2026-04-05T08:16:46.828Z</time></trkpt><trkpt lat="42.2054067" lon="14.5306467"><ele>81.0</ele><time>2026-04-05T08:16:48.828Z</time></trkpt><trkpt lat="42.2054267" lon="14.530565"><ele>81.0</ele><time>2026-04-05T08:16:50.828Z</time></trkpt><trkpt lat="42.20545" lon="14.530485"><ele>81.0</ele><time>2026-04-05T08:16:52.829Z</time></trkpt><trkpt lat="42.205475" lon="14.530395"><ele>81.0</ele><time>2026-04-05T08:16:54.828Z</time></trkpt><trkpt lat="42.2055133" lon="14.5302817"><ele>81.0</ele><time>2026-04-05T08:16:57.828Z</time></trkpt><trkpt lat="42.20554" lon="14.5301983"><ele>81.0</ele><time>2026-04-05T08:16:59.828Z</time></trkpt><trkpt lat="42.2055683" lon="14.5301167"><ele>81.33333333333333</ele><time>2026-04-05T08:17:01.828Z</time></trkpt><trkpt lat="42.205595" lon="14.530035"><ele>81.66666666666667</ele><time>2026-04-05T08:17:03.828Z</time></trkpt><trkpt lat="42.2056283" lon="14.52992"><ele>82.0</ele><time>2026-04-05T08:17:06.828Z</time></trkpt><trkpt lat="42.2056567" lon="14.5298117"><ele>82.33333333333334</ele><time>2026-04-05T08:17:09.828Z</time></trkpt><trkpt lat="42.2056717" lon="14.5297067"><ele>82.66666666666667</ele><time>2026-04-05T08:17:12.828Z</time></trkpt><trkpt lat="42.2056783" lon="14.52962"><ele>83.0</ele><time>2026-04-05T08:17:14.829Z</time></trkpt><trkpt lat="42.2056867" lon="14.5295317"><ele>85.5</ele><time>2026-04-05T08:17:16.829Z</time></trkpt><trkpt lat="42.2056967" lon="14.5294133"><ele>88.0</ele><time>2026-04-05T08:17:19.828Z</time></trkpt><trkpt lat="42.2057033" lon="14.5293233"><ele>90.5</ele><time>2026-04-05T08:17:21.828Z</time></trkpt><trkpt lat="42.2057133" lon="14.52923"><ele>93.0</ele><time>2026-04-05T08:17:23.828Z</time></trkpt><trkpt lat="42.2057183" lon="14.5291317"><ele>95.49999999999999</ele><time>2026-04-05T08:17:25.828Z</time></trkpt><trkpt lat="42.2057233" lon="14.529045"><ele>98.0</ele><time>2026-04-05T08:17:27.829Z</time></trkpt><trkpt lat="42.2057233" lon="14.5289267"><ele>98.0</ele><time>2026-04-05T08:17:30.828Z</time></trkpt><trkpt lat="42.205725" lon="14.5288417"><ele>98.0</ele><time>2026-04-05T08:17:32.829Z</time></trkpt><trkpt lat="42.2057267" lon="14.5287567"><ele>98.0</ele><time>2026-04-05T08:17:34.829Z</time></trkpt><trkpt lat="42.2057333" lon="14.5286367"><ele>98.0</ele><time>2026-04-05T08:17:37.828Z</time></trkpt><trkpt lat="42.2057333" lon="14.5285483"><ele>98.0</ele><time>2026-04-05T08:17:39.828Z</time></trkpt><trkpt lat="42.20574" lon="14.528455"><ele>98.0</ele><time>2026-04-05T08:17:41.828Z</time></trkpt><trkpt lat="42.20574" lon="14.52836"><ele>98.0</ele><time>2026-04-05T08:17:43.828Z</time></trkpt><trkpt lat="42.20574" lon="14.52827"><ele>97.66666666666666</ele><time>2026-04-05T08:17:45.828Z</time></trkpt><trkpt lat="42.2057383" lon="14.5281533"><ele>97.33333333333333</ele><time>2026-04-05T08:17:48.828Z</time></trkpt><trkpt lat="42.2057283" lon="14.5280383"><ele>97.0</ele><time>2026-04-05T08:17:51.828Z</time></trkpt><trkpt lat="42.2057033" lon="14.5279567"><ele>96.66666666666666</ele><time>2026-04-05T08:17:53.829Z</time></trkpt><trkpt lat="42.2056567" lon="14.527895"><ele>96.33333333333333</ele><time>2026-04-05T08:17:55.828Z</time></trkpt><trkpt lat="42.2055933" lon="14.5278383"><ele>96.0</ele><time>2026-04-05T08:17:59.829Z</time></trkpt><trkpt lat="42.205725" lon="14.52779"><ele>95.99999999999999</ele><time>2026-04-05T08:19:04.13Z</time></trkpt><trkpt lat="42.20566" lon="14.5278333"><ele>96.0</ele><time>2026-04-05T08:19:05.328Z</time></trkpt><trkpt lat="42.2056517" lon="14.5277283"><ele>96.0</ele><time>2026-04-05T08:19:29.828Z</time></trkpt><trkpt lat="42.2056567" lon="14.527635"><ele>96.0</ele><time>2026-04-05T08:19:35.828Z</time></trkpt><trkpt lat="42.2056817" lon="14.527545"><ele>96.0</ele><time>2026-04-05T08:19:38.828Z</time></trkpt><trkpt lat="42.2057" lon="14.52746"><ele>95.99999999999999</ele><time>2026-04-05T08:19:40.828Z</time></trkpt><trkpt lat="42.2057133" lon="14.527375"><ele>96.0</ele><time>2026-04-05T08:19:42.828Z</time></trkpt><trkpt lat="42.20572" lon="14.52726"><ele>97.33333333333333</ele><time>2026-04-05T08:19:44.828Z</time></trkpt><trkpt lat="42.2057167" lon="14.52714"><ele>98.66666666666666</ele><time>2026-04-05T08:19:46.828Z</time></trkpt><trkpt lat="42.205715" lon="14.527025"><ele>100.0</ele><time>2026-04-05T08:19:48.828Z</time></trkpt><trkpt lat="42.20571" lon="14.5269117"><ele>101.33333333333333</ele><time>2026-04-05T08:19:50.828Z</time></trkpt><trkpt lat="42.20571" lon="14.5268017"><ele>102.66666666666666</ele><time>2026-04-05T08:19:52.828Z</time></trkpt><trkpt lat="42.2057083" lon="14.52668"><ele>104.0</ele><time>2026-04-05T08:19:54.828Z</time></trkpt><trkpt lat="42.20571" lon="14.52656"><ele>104.0</ele><time>2026-04-05T08:19:56.829Z</time></trkpt><trkpt lat="42.2057117" lon="14.5264417"><ele>104.0</ele><time>2026-04-05T08:19:58.829Z</time></trkpt><trkpt lat="42.2057117" lon="14.5263117"><ele>104.0</ele><time>2026-04-05T08:20:00.828Z</time></trkpt><trkpt lat="42.2057083" lon="14.526185"><ele>104.0</ele><time>2026-04-05T08:20:02.828Z</time></trkpt><trkpt lat="42.2057083" lon="14.5260533"><ele>104.0</ele><time>2026-04-05T08:20:04.828Z</time></trkpt><trkpt lat="42.2057117" lon="14.525905"><ele>103.16666666666666</ele><time>2026-04-05T08:20:06.828Z</time></trkpt><trkpt lat="42.205715" lon="14.5257583"><ele>102.33333333333333</ele><time>2026-04-05T08:20:08.828Z</time></trkpt><trkpt lat="42.20572" lon="14.5255933"><ele>101.5</ele><time>2026-04-05T08:20:10.828Z</time></trkpt><trkpt lat="42.2057183" lon="14.5255033"><ele>100.66666666666666</ele><time>2026-04-05T08:20:11.829Z</time></trkpt><trkpt lat="42.20572" lon="14.5254117"><ele>99.83333333333333</ele><time>2026-04-05T08:20:12.828Z</time></trkpt><trkpt lat="42.205725" lon="14.5253133"><ele>99.0</ele><time>2026-04-05T08:20:13.828Z</time></trkpt><trkpt lat="42.2057267" lon="14.52521"><ele>97.16666666666667</ele><time>2026-04-05T08:20:14.828Z</time></trkpt><trkpt lat="42.20573" lon="14.525105"><ele>95.33333333333333</ele><time>2026-04-05T08:20:15.829Z</time></trkpt><trkpt lat="42.2057283" lon="14.5249983"><ele>93.5</ele><time>2026-04-05T08:20:16.828Z</time></trkpt><trkpt lat="42.2057333" lon="14.52489"><ele>91.66666666666666</ele><time>2026-04-05T08:20:17.828Z</time></trkpt><trkpt lat="42.2057383" lon="14.5247717"><ele>89.83333333333333</ele><time>2026-04-05T08:20:18.828Z</time></trkpt><trkpt lat="42.2057417" lon="14.52465"><ele>88.0</ele><time>2026-04-05T08:20:19.829Z</time></trkpt><trkpt lat="42.20574" lon="14.5245267"><ele>89.4</ele><time>2026-04-05T08:20:20.828Z</time></trkpt><trkpt lat="42.2057333" lon="14.524405"><ele>90.80000000000001</ele><time>2026-04-05T08:20:21.828Z</time></trkpt><trkpt lat="42.2057217" lon="14.5242767"><ele>92.2</ele><time>2026-04-05T08:20:22.828Z</time></trkpt><trkpt lat="42.2056983" lon="14.5241533"><ele>93.6</ele><time>2026-04-05T08:20:23.828Z</time></trkpt><trkpt lat="42.2056633" lon="14.5240233"><ele>95.0</ele><time>2026-04-05T08:20:24.828Z</time></trkpt><trkpt lat="42.2056133" lon="14.5239033"><ele>95.0</ele><time>2026-04-05T08:20:25.828Z</time></trkpt><trkpt lat="42.2055533" lon="14.52379"><ele>95.0</ele><time>2026-04-05T08:20:26.828Z</time></trkpt><trkpt lat="42.2054933" lon="14.5236733"><ele>95.0</ele><time>2026-04-05T08:20:27.828Z</time></trkpt><trkpt lat="42.2054333" lon="14.52356"><ele>95.0</ele><time>2026-04-05T08:20:28.829Z</time></trkpt><trkpt lat="42.2053733" lon="14.5234483"><ele>95.0</ele><time>2026-04-05T08:20:29.828Z</time></trkpt><trkpt lat="42.2053167" lon="14.5233417"><ele>93.66666666666667</ele><time>2026-04-05T08:20:30.828Z</time></trkpt><trkpt lat="42.205265" lon="14.52324"><ele>92.33333333333334</ele><time>2026-04-05T08:20:31.828Z</time></trkpt><trkpt lat="42.20522" lon="14.5231433"><ele>91.0</ele><time>2026-04-05T08:20:32.828Z</time></trkpt><trkpt lat="42.205185" lon="14.5230533"><ele>89.66666666666667</ele><time>2026-04-05T08:20:33.828Z</time></trkpt><trkpt lat="42.2051567" lon="14.5229667"><ele>88.33333333333333</ele><time>2026-04-05T08:20:34.828Z</time></trkpt><trkpt lat="42.20517" lon="14.5228133"><ele>87.0</ele><time>2026-04-05T08:20:36.829Z</time></trkpt><trkpt lat="42.205285" lon="14.52278"><ele>87.0</ele><time>2026-04-05T08:20:38.828Z</time></trkpt><trkpt lat="42.2053467" lon="14.5228283"><ele>87.0</ele><time>2026-04-05T08:20:39.828Z</time></trkpt><trkpt lat="42.2054033" lon="14.5228817"><ele>87.0</ele><time>2026-04-05T08:20:40.828Z</time></trkpt><trkpt lat="42.20546" lon="14.52294"><ele>87.0</ele><time>2026-04-05T08:20:41.828Z</time></trkpt><trkpt lat="42.2055183" lon="14.522995"><ele>87.0</ele><time>2026-04-05T08:20:42.828Z</time></trkpt><trkpt lat="42.2055817" lon="14.5230567"><ele>87.0</ele><time>2026-04-05T08:20:43.828Z</time></trkpt><trkpt lat="42.205645" lon="14.52312"><ele>87.0</ele><time>2026-04-05T08:20:44.829Z</time></trkpt><trkpt lat="42.2057117" lon="14.5231867"><ele>84.83333333333333</ele><time>2026-04-05T08:20:45.828Z</time></trkpt><trkpt lat="42.2057833" lon="14.52325"><ele>82.66666666666667</ele><time>2026-04-05T08:20:46.828Z</time></trkpt><trkpt lat="42.2058517" lon="14.52332"><ele>80.5</ele><time>2026-04-05T08:20:47.828Z</time></trkpt><trkpt lat="42.20592" lon="14.5233883"><ele>78.33333333333334</ele><time>2026-04-05T08:20:48.828Z</time></trkpt><trkpt lat="42.2059933" lon="14.5234567"><ele>76.16666666666667</ele><time>2026-04-05T08:20:49.828Z</time></trkpt><trkpt lat="42.2060683" lon="14.52353"><ele>74.0</ele><time>2026-04-05T08:20:50.828Z</time></trkpt><trkpt lat="42.206145" lon="14.5236"><ele>74.0</ele><time>2026-04-05T08:20:51.828Z</time></trkpt><trkpt lat="42.2062233" lon="14.5236733"><ele>74.0</ele><time>2026-04-05T08:20:52.829Z</time></trkpt><trkpt lat="42.2063017" lon="14.5237483"><ele>74.0</ele><time>2026-04-05T08:20:53.828Z</time></trkpt><trkpt lat="42.2063767" lon="14.5238217"><ele>74.0</ele><time>2026-04-05T08:20:54.828Z</time></trkpt><trkpt lat="42.2064583" lon="14.52389"><ele>74.0</ele><time>2026-04-05T08:20:55.828Z</time></trkpt><trkpt lat="42.206545" lon="14.5239367"><ele>73.60000000000001</ele><time>2026-04-05T08:20:56.828Z</time></trkpt><trkpt lat="42.2066417" lon="14.5239483"><ele>73.2</ele><time>2026-04-05T08:20:57.828Z</time></trkpt><trkpt lat="42.2067383" lon="14.523935"><ele>72.80000000000001</ele><time>2026-04-05T08:20:58.828Z</time></trkpt><trkpt lat="42.20683" lon="14.5239083"><ele>72.4</ele><time>2026-04-05T08:20:59.828Z</time></trkpt><trkpt lat="42.20692" lon="14.5238567"><ele>72.0</ele><time>2026-04-05T08:21:00.828Z</time></trkpt><trkpt lat="42.207005" lon="14.5237933"><ele>72.0</ele><time>2026-04-05T08:21:01.829Z</time></trkpt><trkpt lat="42.2070917" lon="14.523735"><ele>72.0</ele><time>2026-04-05T08:21:02.828Z</time></trkpt><trkpt lat="42.2071817" lon="14.5236867"><ele>72.0</ele><time>2026-04-05T08:21:03.828Z</time></trkpt><trkpt lat="42.2072733" lon="14.5236467"><ele>72.0</ele><time>2026-04-05T08:21:04.829Z</time></trkpt><trkpt lat="42.2073733" lon="14.5236167"><ele>72.0</ele><time>2026-04-05T08:21:05.828Z</time></trkpt><trkpt lat="42.20747" lon="14.5236"><ele>69.8</ele><time>2026-04-05T08:21:06.828Z</time></trkpt><trkpt lat="42.2075683" lon="14.5236"><ele>67.6</ele><time>2026-04-05T08:21:07.828Z</time></trkpt><trkpt lat="42.207665" lon="14.52361"><ele>65.39999999999999</ele><time>2026-04-05T08:21:08.829Z</time></trkpt><trkpt lat="42.2077617" lon="14.5236333"><ele>63.199999999999996</ele><time>2026-04-05T08:21:09.828Z</time></trkpt><trkpt lat="42.2078517" lon="14.5236667"><ele>61.0</ele><time>2026-04-05T08:21:10.829Z</time></trkpt><trkpt lat="42.2079383" lon="14.5237117"><ele>61.166666666666664</ele><time>2026-04-05T08:21:11.829Z</time></trkpt><trkpt lat="42.2080233" lon="14.523755"><ele>61.33333333333333</ele><time>2026-04-05T08:21:12.829Z</time></trkpt><trkpt lat="42.2081067" lon="14.5238067"><ele>61.5</ele><time>2026-04-05T08:21:13.828Z</time></trkpt><trkpt lat="42.20819" lon="14.5238483"><ele>61.66666666666667</ele><time>2026-04-05T08:21:14.828Z</time></trkpt><trkpt lat="42.20827" lon="14.5238967"><ele>61.833333333333336</ele><time>2026-04-05T08:21:15.828Z</time></trkpt><trkpt lat="42.20835" lon="14.52394"><ele>62.0</ele><time>2026-04-05T08:21:16.828Z</time></trkpt><trkpt lat="42.208435" lon="14.52398"><ele>62.0</ele><time>2026-04-05T08:21:17.829Z</time></trkpt><trkpt lat="42.20852" lon="14.5240183"><ele>62.0</ele><time>2026-04-05T08:21:18.828Z</time></trkpt><trkpt lat="42.2086033" lon="14.5240517"><ele>62.0</ele><time>2026-04-05T08:21:19.828Z</time></trkpt><trkpt lat="42.2086917" lon="14.524085"><ele>62.0</ele><time>2026-04-05T08:21:20.829Z</time></trkpt><trkpt lat="42.2087833" lon="14.5241183"><ele>62.0</ele><time>2026-04-05T08:21:21.829Z</time></trkpt><trkpt lat="42.20887" lon="14.5241517"><ele>62.00000000000001</ele><time>2026-04-05T08:21:22.829Z</time></trkpt><trkpt lat="42.2089583" lon="14.5241867"><ele>62.0</ele><time>2026-04-05T08:21:23.828Z</time></trkpt><trkpt lat="42.2090383" lon="14.524225"><ele>62.0</ele><time>2026-04-05T08:21:24.828Z</time></trkpt><trkpt lat="42.2091133" lon="14.5242667"><ele>62.0</ele><time>2026-04-05T08:21:25.828Z</time></trkpt><trkpt lat="42.20919" lon="14.5243117"><ele>62.00000000000001</ele><time>2026-04-05T08:21:26.829Z</time></trkpt><trkpt lat="42.2092667" lon="14.5243483"><ele>62.0</ele><time>2026-04-05T08:21:27.829Z</time></trkpt><trkpt lat="42.209345" lon="14.5243833"><ele>61.833333333333336</ele><time>2026-04-05T08:21:28.828Z</time></trkpt><trkpt lat="42.2094283" lon="14.5244233"><ele>61.66666666666667</ele><time>2026-04-05T08:21:29.829Z</time></trkpt><trkpt lat="42.20951" lon="14.5244633"><ele>61.5</ele><time>2026-04-05T08:21:30.828Z</time></trkpt><trkpt lat="42.2095917" lon="14.5245067"><ele>61.33333333333333</ele><time>2026-04-05T08:21:31.828Z</time></trkpt><trkpt lat="42.2096733" lon="14.52455"><ele>61.166666666666664</ele><time>2026-04-05T08:21:32.828Z</time></trkpt><trkpt lat="42.20974" lon="14.5245983"><ele>61.0</ele><time>2026-04-05T08:21:33.828Z</time></trkpt><trkpt lat="42.209805" lon="14.5246517"><ele>59.99999999999999</ele><time>2026-04-05T08:21:34.828Z</time></trkpt><trkpt lat="42.20987" lon="14.5247133"><ele>59.0</ele><time>2026-04-05T08:21:35.828Z</time></trkpt><trkpt lat="42.20994" lon="14.5247817"><ele>58.0</ele><time>2026-04-05T08:21:36.828Z</time></trkpt><trkpt lat="42.210005" lon="14.52485"><ele>57.0</ele><time>2026-04-05T08:21:37.829Z</time></trkpt><trkpt lat="42.21007" lon="14.5249183"><ele>55.99999999999999</ele><time>2026-04-05T08:21:38.828Z</time></trkpt><trkpt lat="42.2101383" lon="14.5249867"><ele>55.0</ele><time>2026-04-05T08:21:39.828Z</time></trkpt><trkpt lat="42.2102133" lon="14.5250367"><ele>54.99999999999999</ele><time>2026-04-05T08:21:40.828Z</time></trkpt><trkpt lat="42.21029" lon="14.5250783"><ele>55.0</ele><time>2026-04-05T08:21:41.828Z</time></trkpt><trkpt lat="42.21037" lon="14.525105"><ele>55.0</ele><time>2026-04-05T08:21:42.828Z</time></trkpt><trkpt lat="42.2104483" lon="14.525125"><ele>55.0</ele><time>2026-04-05T08:21:43.828Z</time></trkpt><trkpt lat="42.2105283" lon="14.525145"><ele>54.99999999999999</ele><time>2026-04-05T08:21:44.828Z</time></trkpt><trkpt lat="42.2106033" lon="14.5251717"><ele>55.0</ele><time>2026-04-05T08:21:45.828Z</time></trkpt><trkpt lat="42.2106817" lon="14.52521"><ele>54.666666666666664</ele><time>2026-04-05T08:21:46.828Z</time></trkpt><trkpt lat="42.210755" lon="14.5252383"><ele>54.33333333333333</ele><time>2026-04-05T08:21:47.829Z</time></trkpt><trkpt lat="42.2108267" lon="14.52528"><ele>54.0</ele><time>2026-04-05T08:21:48.828Z</time></trkpt><trkpt lat="42.2108917" lon="14.525335"><ele>53.66666666666667</ele><time>2026-04-05T08:21:49.828Z</time></trkpt><trkpt lat="42.2109533" lon="14.5253967"><ele>53.333333333333336</ele><time>2026-04-05T08:21:50.828Z</time></trkpt><trkpt lat="42.2110183" lon="14.5254583"><ele>53.0</ele><time>2026-04-05T08:21:51.828Z</time></trkpt><trkpt lat="42.2110817" lon="14.5255183"><ele>53.0</ele><time>2026-04-05T08:21:52.828Z</time></trkpt><trkpt lat="42.211145" lon="14.525575"><ele>53.0</ele><time>2026-04-05T08:21:53.828Z</time></trkpt><trkpt lat="42.21121" lon="14.52562"><ele>53.0</ele><time>2026-04-05T08:21:54.828Z</time></trkpt><trkpt lat="42.211275" lon="14.52565"><ele>53.0</ele><time>2026-04-05T08:21:55.828Z</time></trkpt><trkpt lat="42.21134" lon="14.52567"><ele>53.0</ele><time>2026-04-05T08:21:56.829Z</time></trkpt><trkpt lat="42.2114033" lon="14.5256817"><ele>53.0</ele><time>2026-04-05T08:21:57.828Z</time></trkpt><trkpt lat="42.2114733" lon="14.5256833"><ele>53.0</ele><time>2026-04-05T08:21:58.828Z</time></trkpt><trkpt lat="42.21154" lon="14.525675"><ele>52.833333333333336</ele><time>2026-04-05T08:21:59.828Z</time></trkpt><trkpt lat="42.2116033" lon="14.525655"><ele>52.66666666666667</ele><time>2026-04-05T08:22:00.829Z</time></trkpt><trkpt lat="42.211725" lon="14.5256267"><ele>52.5</ele><time>2026-04-05T08:22:02.828Z</time></trkpt><trkpt lat="42.21185" lon="14.5255933"><ele>52.33333333333333</ele><time>2026-04-05T08:22:04.828Z</time></trkpt><trkpt lat="42.2119117" lon="14.525575"><ele>52.166666666666664</ele><time>2026-04-05T08:22:05.828Z</time></trkpt><trkpt lat="42.211975" lon="14.52556"><ele>52.0</ele><time>2026-04-05T08:22:06.828Z</time></trkpt><trkpt lat="42.2120383" lon="14.5255383"><ele>51.99999999999999</ele><time>2026-04-05T08:22:07.828Z</time></trkpt><trkpt lat="42.2121033" lon="14.5255233"><ele>52.0</ele><time>2026-04-05T08:22:08.828Z</time></trkpt><trkpt lat="42.2121667" lon="14.525515"><ele>52.0</ele><time>2026-04-05T08:22:09.828Z</time></trkpt><trkpt lat="42.212285" lon="14.5255633"><ele>52.0</ele><time>2026-04-05T08:22:11.828Z</time></trkpt><trkpt lat="42.2123433" lon="14.5256067"><ele>51.99999999999999</ele><time>2026-04-05T08:22:12.829Z</time></trkpt><trkpt lat="42.2124267" lon="14.5257167"><ele>52.0</ele><time>2026-04-05T08:22:14.829Z</time></trkpt><trkpt lat="42.2124683" lon="14.5257817"><ele>51.166666666666664</ele><time>2026-04-05T08:22:15.828Z</time></trkpt><trkpt lat="42.2125617" lon="14.525915"><ele>50.33333333333333</ele><time>2026-04-05T08:22:17.828Z</time></trkpt><trkpt lat="42.212615" lon="14.52598"><ele>49.5</ele><time>2026-04-05T08:22:18.829Z</time></trkpt><trkpt lat="42.2126717" lon="14.5260383"><ele>48.666666666666664</ele><time>2026-04-05T08:22:19.828Z</time></trkpt><trkpt lat="42.2127317" lon="14.526085"><ele>47.83333333333333</ele><time>2026-04-05T08:22:20.828Z</time></trkpt><trkpt lat="42.2127917" lon="14.5261233"><ele>47.0</ele><time>2026-04-05T08:22:21.828Z</time></trkpt><trkpt lat="42.2128517" lon="14.5261667"><ele>47.0</ele><time>2026-04-05T08:22:22.828Z</time></trkpt><trkpt lat="42.2129183" lon="14.5261983"><ele>47.0</ele><time>2026-04-05T08:22:23.828Z</time></trkpt><trkpt lat="42.21298" lon="14.52625"><ele>47.0</ele><time>2026-04-05T08:22:24.828Z</time></trkpt><trkpt lat="42.21303" lon="14.5263117"><ele>47.0</ele><time>2026-04-05T08:22:25.828Z</time></trkpt><trkpt lat="42.21307" lon="14.5263967"><ele>47.0</ele><time>2026-04-05T08:22:26.828Z</time></trkpt><trkpt lat="42.2130967" lon="14.5264783"><ele>47.0</ele><time>2026-04-05T08:22:27.828Z</time></trkpt><trkpt lat="42.2131183" lon="14.5265683"><ele>47.0</ele><time>2026-04-05T08:22:28.828Z</time></trkpt><trkpt lat="42.2131533" lon="14.5266717"><ele>47.0</ele><time>2026-04-05T08:22:29.828Z</time></trkpt><trkpt lat="42.2132" lon="14.5267517"><ele>47.0</ele><time>2026-04-05T08:22:30.828Z</time></trkpt><trkpt lat="42.2132517" lon="14.5268317"><ele>47.0</ele><time>2026-04-05T08:22:31.828Z</time></trkpt><trkpt lat="42.2133067" lon="14.5269117"><ele>47.0</ele><time>2026-04-05T08:22:32.828Z</time></trkpt><trkpt lat="42.2133467" lon="14.5270017"><ele>47.0</ele><time>2026-04-05T08:22:33.828Z</time></trkpt><trkpt lat="42.2133783" lon="14.5270933"><ele>47.0</ele><time>2026-04-05T08:22:34.828Z</time></trkpt><trkpt lat="42.2134117" lon="14.52717"><ele>47.0</ele><time>2026-04-05T08:22:35.828Z</time></trkpt><trkpt lat="42.2134517" lon="14.5272367"><ele>47.0</ele><time>2026-04-05T08:22:36.829Z</time></trkpt><trkpt lat="42.2134983" lon="14.527295"><ele>47.0</ele><time>2026-04-05T08:22:37.828Z</time></trkpt><trkpt lat="42.2135883" lon="14.5273883"><ele>47.0</ele><time>2026-04-05T08:22:39.829Z</time></trkpt><trkpt lat="42.2136817" lon="14.5274683"><ele>47.0</ele><time>2026-04-05T08:22:41.829Z</time></trkpt><trkpt lat="42.2137767" lon="14.5275417"><ele>47.0</ele><time>2026-04-05T08:22:43.828Z</time></trkpt><trkpt lat="42.2138667" lon="14.52761"><ele>47.0</ele><time>2026-04-05T08:22:45.828Z</time></trkpt><trkpt lat="42.213965" lon="14.5276817"><ele>47.0</ele><time>2026-04-05T08:22:47.828Z</time></trkpt><trkpt lat="42.2140567" lon="14.5277617"><ele>47.0</ele><time>2026-04-05T08:22:49.828Z</time></trkpt><trkpt lat="42.2141383" lon="14.5278567"><ele>47.0</ele><time>2026-04-05T08:22:51.828Z</time></trkpt><trkpt lat="42.2142083" lon="14.5279667"><ele>46.8</ele><time>2026-04-05T08:22:53.828Z</time></trkpt><trkpt lat="42.2142617" lon="14.5281017"><ele>46.6</ele><time>2026-04-05T08:22:55.828Z</time></trkpt><trkpt lat="42.2142983" lon="14.5282417"><ele>46.4</ele><time>2026-04-05T08:22:57.829Z</time></trkpt><trkpt lat="42.2143217" lon="14.5283783"><ele>46.199999999999996</ele><time>2026-04-05T08:22:59.828Z</time></trkpt><trkpt lat="42.214345" lon="14.5285067"><ele>46.0</ele><time>2026-04-05T08:23:01.828Z</time></trkpt><trkpt lat="42.21437" lon="14.5286433"><ele>47.8</ele><time>2026-04-05T08:23:03.829Z</time></trkpt><trkpt lat="42.21441" lon="14.528775"><ele>49.599999999999994</ele><time>2026-04-05T08:23:05.828Z</time></trkpt><trkpt lat="42.2144733" lon="14.52889"><ele>51.4</ele><time>2026-04-05T08:23:07.828Z</time></trkpt><trkpt lat="42.214545" lon="14.5289817"><ele>53.2</ele><time>2026-04-05T08:23:09.829Z</time></trkpt><trkpt lat="42.2146283" lon="14.5290767"><ele>55.0</ele><time>2026-04-05T08:23:11.828Z</time></trkpt><trkpt lat="42.214715" lon="14.5291583"><ele>55.0</ele><time>2026-04-05T08:23:13.828Z</time></trkpt><trkpt lat="42.214805" lon="14.529245"><ele>55.0</ele><time>2026-04-05T08:23:15.829Z</time></trkpt><trkpt lat="42.2148983" lon="14.52931"><ele>55.0</ele><time>2026-04-05T08:23:17.828Z</time></trkpt><trkpt lat="42.2149967" lon="14.5293517"><ele>55.0</ele><time>2026-04-05T08:23:19.828Z</time></trkpt><trkpt lat="42.2150917" lon="14.5293867"><ele>55.0</ele><time>2026-04-05T08:23:21.829Z</time></trkpt><trkpt lat="42.2151867" lon="14.5294033"><ele>52.8</ele><time>2026-04-05T08:23:23.828Z</time></trkpt><trkpt lat="42.215295" lon="14.5294117"><ele>50.6</ele><time>2026-04-05T08:23:25.828Z</time></trkpt><trkpt lat="42.2154" lon="14.5294"><ele>48.400000000000006</ele><time>2026-04-05T08:23:27.828Z</time></trkpt><trkpt lat="42.2155133" lon="14.52939"><ele>46.2</ele><time>2026-04-05T08:23:29.829Z</time></trkpt><trkpt lat="42.2155767" lon="14.5293867"><ele>44.0</ele><time>2026-04-05T08:23:30.829Z</time></trkpt><trkpt lat="42.215685" lon="14.5294167"><ele>45.400000000000006</ele><time>2026-04-05T08:23:32.828Z</time></trkpt><trkpt lat="42.2157733" lon="14.5294867"><ele>46.8</ele><time>2026-04-05T08:23:34.828Z</time></trkpt><trkpt lat="42.21584" lon="14.5295733"><ele>48.2</ele><time>2026-04-05T08:23:36.828Z</time></trkpt><trkpt lat="42.215895" lon="14.5296767"><ele>49.599999999999994</ele><time>2026-04-05T08:23:38.828Z</time></trkpt><trkpt lat="42.215945" lon="14.529795"><ele>51.0</ele><time>2026-04-05T08:23:40.828Z</time></trkpt><trkpt lat="42.2160167" lon="14.5299017"><ele>51.0</ele><time>2026-04-05T08:23:42.828Z</time></trkpt><trkpt lat="42.2161017" lon="14.52999"><ele>51.0</ele><time>2026-04-05T08:23:44.828Z</time></trkpt><trkpt lat="42.2161917" lon="14.5300633"><ele>51.0</ele><time>2026-04-05T08:23:46.828Z</time></trkpt><trkpt lat="42.2162733" lon="14.5301383"><ele>51.0</ele><time>2026-04-05T08:23:48.829Z</time></trkpt><trkpt lat="42.2163817" lon="14.5302167"><ele>51.0</ele><time>2026-04-05T08:23:50.828Z</time></trkpt><trkpt lat="42.216475" lon="14.5302933"><ele>51.199999999999996</ele><time>2026-04-05T08:23:52.828Z</time></trkpt><trkpt lat="42.2165667" lon="14.530375"><ele>51.4</ele><time>2026-04-05T08:23:54.828Z</time></trkpt><trkpt lat="42.2166533" lon="14.530445"><ele>51.6</ele><time>2026-04-05T08:23:56.828Z</time></trkpt><trkpt lat="42.2167383" lon="14.5305183"><ele>51.8</ele><time>2026-04-05T08:23:58.828Z</time></trkpt><trkpt lat="42.216825" lon="14.5305967"><ele>52.0</ele><time>2026-04-05T08:24:00.828Z</time></trkpt><trkpt lat="42.2169017" lon="14.530675"><ele>52.0</ele><time>2026-04-05T08:24:02.829Z</time></trkpt><trkpt lat="42.2169733" lon="14.5307567"><ele>52.0</ele><time>2026-04-05T08:24:04.828Z</time></trkpt><trkpt lat="42.2170383" lon="14.5308467"><ele>52.0</ele><time>2026-04-05T08:24:06.828Z</time></trkpt><trkpt lat="42.217095" lon="14.53097"><ele>52.0</ele><time>2026-04-05T08:24:08.828Z</time></trkpt><trkpt lat="42.2171417" lon="14.5310983"><ele>52.0</ele><time>2026-04-05T08:24:10.828Z</time></trkpt><trkpt lat="42.21718" lon="14.5312233"><ele>52.6</ele><time>2026-04-05T08:24:12.828Z</time></trkpt><trkpt lat="42.217215" lon="14.5313483"><ele>53.2</ele><time>2026-04-05T08:24:14.829Z</time></trkpt><trkpt lat="42.21726" lon="14.5314733"><ele>53.8</ele><time>2026-04-05T08:24:16.828Z</time></trkpt><trkpt lat="42.2173217" lon="14.5315833"><ele>54.4</ele><time>2026-04-05T08:24:18.829Z</time></trkpt><trkpt lat="42.217395" lon="14.5316717"><ele>55.0</ele><time>2026-04-05T08:24:20.828Z</time></trkpt><trkpt lat="42.2174867" lon="14.53174"><ele>55.0</ele><time>2026-04-05T08:24:22.828Z</time></trkpt><trkpt lat="42.2175783" lon="14.5317617"><ele>55.0</ele><time>2026-04-05T08:24:24.828Z</time></trkpt><trkpt lat="42.2176817" lon="14.5317817"><ele>55.0</ele><time>2026-04-05T08:24:26.829Z</time></trkpt><trkpt lat="42.2177883" lon="14.531785"><ele>55.0</ele><time>2026-04-05T08:24:28.828Z</time></trkpt><trkpt lat="42.2178967" lon="14.531785"><ele>55.0</ele><time>2026-04-05T08:24:30.828Z</time></trkpt><trkpt lat="42.2180033" lon="14.5317967"><ele>55.0</ele><time>2026-04-05T08:24:32.828Z</time></trkpt><trkpt lat="42.21811" lon="14.5318133"><ele>55.0</ele><time>2026-04-05T08:24:34.828Z</time></trkpt><trkpt lat="42.2182117" lon="14.5318467"><ele>55.0</ele><time>2026-04-05T08:24:36.829Z</time></trkpt><trkpt lat="42.2183283" lon="14.5319083"><ele>55.0</ele><time>2026-04-05T08:24:38.829Z</time></trkpt><trkpt lat="42.21843" lon="14.5319617"><ele>55.0</ele><time>2026-04-05T08:24:40.828Z</time></trkpt><trkpt lat="42.2185317" lon="14.5320083"><ele>54.8</ele><time>2026-04-05T08:24:42.828Z</time></trkpt><trkpt lat="42.218635" lon="14.5320567"><ele>54.6</ele><time>2026-04-05T08:24:44.828Z</time></trkpt><trkpt lat="42.2187417" lon="14.5321083"><ele>54.400000000000006</ele><time>2026-04-05T08:24:46.829Z</time></trkpt><trkpt lat="42.2188333" lon="14.5321683"><ele>54.2</ele><time>2026-04-05T08:24:48.828Z</time></trkpt><trkpt lat="42.2189217" lon="14.5322333"><ele>54.0</ele><time>2026-04-05T08:24:50.828Z</time></trkpt><trkpt lat="42.2190117" lon="14.5323"><ele>54.0</ele><time>2026-04-05T08:24:52.828Z</time></trkpt><trkpt lat="42.219105" lon="14.5323683"><ele>54.00000000000001</ele><time>2026-04-05T08:24:54.829Z</time></trkpt><trkpt lat="42.2191967" lon="14.532435"><ele>54.00000000000001</ele><time>2026-04-05T08:24:56.828Z</time></trkpt><trkpt lat="42.21929" lon="14.5324733"><ele>54.0</ele><time>2026-04-05T08:24:58.828Z</time></trkpt><trkpt lat="42.2193867" lon="14.5325033"><ele>54.0</ele><time>2026-04-05T08:25:00.828Z</time></trkpt><trkpt lat="42.2194867" lon="14.5325217"><ele>54.0</ele><time>2026-04-05T08:25:02.828Z</time></trkpt><trkpt lat="42.2195867" lon="14.5325183"><ele>54.00000000000001</ele><time>2026-04-05T08:25:04.828Z</time></trkpt><trkpt lat="42.2196833" lon="14.5325233"><ele>54.00000000000001</ele><time>2026-04-05T08:25:06.828Z</time></trkpt><trkpt lat="42.2197833" lon="14.532545"><ele>54.0</ele><time>2026-04-05T08:25:08.829Z</time></trkpt><trkpt lat="42.219875" lon="14.5325733"><ele>54.0</ele><time>2026-04-05T08:25:10.829Z</time></trkpt><trkpt lat="42.21996" lon="14.532615"><ele>53.400000000000006</ele><time>2026-04-05T08:25:12.828Z</time></trkpt><trkpt lat="42.22003" lon="14.5326817"><ele>52.800000000000004</ele><time>2026-04-05T08:25:14.829Z</time></trkpt><trkpt lat="42.2201" lon="14.5327817"><ele>52.2</ele><time>2026-04-05T08:25:16.828Z</time></trkpt><trkpt lat="42.2201717" lon="14.53288"><ele>51.599999999999994</ele><time>2026-04-05T08:25:18.828Z</time></trkpt><trkpt lat="42.2202317" lon="14.5329967"><ele>51.0</ele><time>2026-04-05T08:25:20.828Z</time></trkpt><trkpt lat="42.2202933" lon="14.5331033"><ele>54.25</ele><time>2026-04-05T08:25:22.828Z</time></trkpt><trkpt lat="42.2203733" lon="14.53323"><ele>57.5</ele><time>2026-04-05T08:25:24.828Z</time></trkpt><trkpt lat="42.2204617" lon="14.53334"><ele>60.75</ele><time>2026-04-05T08:25:26.828Z</time></trkpt><trkpt lat="42.2205517" lon="14.5334367"><ele>64.0</ele><time>2026-04-05T08:25:28.828Z</time></trkpt><trkpt lat="42.2206433" lon="14.53353"><ele>63.99999999999999</ele><time>2026-04-05T08:25:30.828Z</time></trkpt><trkpt lat="42.2207267" lon="14.5336183"><ele>64.0</ele><time>2026-04-05T08:25:32.828Z</time></trkpt><trkpt lat="42.220795" lon="14.5337"><ele>64.0</ele><time>2026-04-05T08:25:34.828Z</time></trkpt><trkpt lat="42.2208583" lon="14.533765"><ele>64.0</ele><time>2026-04-05T08:25:36.828Z</time></trkpt><trkpt lat="42.2209133" lon="14.53384"><ele>63.99999999999999</ele><time>2026-04-05T08:25:38.828Z</time></trkpt><trkpt lat="42.2209583" lon="14.5339333"><ele>64.0</ele><time>2026-04-05T08:25:40.828Z</time></trkpt><trkpt lat="42.2209933" lon="14.534035"><ele>64.0</ele><time>2026-04-05T08:25:42.829Z</time></trkpt><trkpt lat="42.2210267" lon="14.5341317"><ele>64.0</ele><time>2026-04-05T08:25:44.828Z</time></trkpt><trkpt lat="42.22107" lon="14.5342383"><ele>64.0</ele><time>2026-04-05T08:25:46.828Z</time></trkpt><trkpt lat="42.2211233" lon="14.53435"><ele>64.0</ele><time>2026-04-05T08:25:48.828Z</time></trkpt><trkpt lat="42.2211883" lon="14.5344733"><ele>64.0</ele><time>2026-04-05T08:25:50.828Z</time></trkpt><trkpt lat="42.2212683" lon="14.5345583"><ele>63.49999999999999</ele><time>2026-04-05T08:25:52.828Z</time></trkpt><trkpt lat="42.2213517" lon="14.53462"><ele>63.0</ele><time>2026-04-05T08:25:54.828Z</time></trkpt><trkpt lat="42.22143" lon="14.5346533"><ele>62.5</ele><time>2026-04-05T08:25:56.828Z</time></trkpt><trkpt lat="42.2215133" lon="14.53468"><ele>62.0</ele><time>2026-04-05T08:25:58.828Z</time></trkpt><trkpt lat="42.22159" lon="14.53471"><ele>61.49999999999999</ele><time>2026-04-05T08:26:00.828Z</time></trkpt><trkpt lat="42.221665" lon="14.5347317"><ele>61.0</ele><time>2026-04-05T08:26:02.828Z</time></trkpt><trkpt lat="42.2217517" lon="14.5348033"><ele>61.0</ele><time>2026-04-05T08:26:04.829Z</time></trkpt><trkpt lat="42.22184" lon="14.5348983"><ele>60.99999999999999</ele><time>2026-04-05T08:26:06.829Z</time></trkpt><trkpt lat="42.221935" lon="14.5349767"><ele>60.99999999999999</ele><time>2026-04-05T08:26:08.828Z</time></trkpt><trkpt lat="42.2220267" lon="14.535045"><ele>61.0</ele><time>2026-04-05T08:26:10.828Z</time></trkpt><trkpt lat="42.2221167" lon="14.53512"><ele>61.0</ele><time>2026-04-05T08:26:12.828Z</time></trkpt><trkpt lat="42.2221917" lon="14.5352"><ele>61.0</ele><time>2026-04-05T08:26:14.828Z</time></trkpt><trkpt lat="42.2222617" lon="14.5352867"><ele>60.99999999999999</ele><time>2026-04-05T08:26:16.828Z</time></trkpt><trkpt lat="42.2223317" lon="14.53538"><ele>60.99999999999999</ele><time>2026-04-05T08:26:18.828Z</time></trkpt><trkpt lat="42.222405" lon="14.53548"><ele>61.0</ele><time>2026-04-05T08:26:20.828Z</time></trkpt><trkpt lat="42.22248" lon="14.53558"><ele>61.0</ele><time>2026-04-05T08:26:22.828Z</time></trkpt><trkpt lat="42.222565" lon="14.5356767"><ele>61.0</ele><time>2026-04-05T08:26:24.828Z</time></trkpt><trkpt lat="42.2226433" lon="14.5357633"><ele>60.99999999999999</ele><time>2026-04-05T08:26:26.828Z</time></trkpt><trkpt lat="42.222715" lon="14.5358383"><ele>60.99999999999999</ele><time>2026-04-05T08:26:28.828Z</time></trkpt><trkpt lat="42.2228017" lon="14.5359167"><ele>61.0</ele><time>2026-04-05T08:26:30.828Z</time></trkpt><trkpt lat="42.2228983" lon="14.5359717"><ele>61.0</ele><time>2026-04-05T08:26:32.828Z</time></trkpt><trkpt lat="42.2230017" lon="14.53603"><ele>61.0</ele><time>2026-04-05T08:26:34.829Z</time></trkpt><trkpt lat="42.2231017" lon="14.5360783"><ele>60.99999999999999</ele><time>2026-04-05T08:26:36.828Z</time></trkpt><trkpt lat="42.223195" lon="14.5361233"><ele>60.99999999999999</ele><time>2026-04-05T08:26:38.828Z</time></trkpt><trkpt lat="42.22329" lon="14.5361433"><ele>61.0</ele><time>2026-04-05T08:26:40.828Z</time></trkpt><trkpt lat="42.223405" lon="14.5361683"><ele>61.0</ele><time>2026-04-05T08:26:42.828Z</time></trkpt><trkpt lat="42.2234783" lon="14.536185"><ele>61.57142857142856</ele><time>2026-04-05T08:26:43.829Z</time></trkpt><trkpt lat="42.2235567" lon="14.53621"><ele>62.14285714285714</ele><time>2026-04-05T08:26:44.828Z</time></trkpt><trkpt lat="42.2236317" lon="14.5362367"><ele>62.714285714285715</ele><time>2026-04-05T08:26:45.828Z</time></trkpt><trkpt lat="42.2237033" lon="14.536255"><ele>63.285714285714285</ele><time>2026-04-05T08:26:46.828Z</time></trkpt><trkpt lat="42.2237767" lon="14.536275"><ele>63.85714285714286</ele><time>2026-04-05T08:26:47.828Z</time></trkpt><trkpt lat="42.223845" lon="14.5362883"><ele>64.42857142857143</ele><time>2026-04-05T08:26:48.828Z</time></trkpt><trkpt lat="42.2239133" lon="14.5363067"><ele>65.0</ele><time>2026-04-05T08:26:49.828Z</time></trkpt><trkpt lat="42.22398" lon="14.5363333"><ele>63.14285714285715</ele><time>2026-04-05T08:26:50.828Z</time></trkpt><trkpt lat="42.2240433" lon="14.5363767"><ele>61.28571428571429</ele><time>2026-04-05T08:26:51.828Z</time></trkpt><trkpt lat="42.2240983" lon="14.5364383"><ele>59.42857142857143</ele><time>2026-04-05T08:26:52.828Z</time></trkpt><trkpt lat="42.2241483" lon="14.5365133"><ele>57.57142857142858</ele><time>2026-04-05T08:26:53.829Z</time></trkpt><trkpt lat="42.22419" lon="14.5365967"><ele>55.71428571428572</ele><time>2026-04-05T08:26:54.828Z</time></trkpt><trkpt lat="42.224225" lon="14.5366867"><ele>53.857142857142854</ele><time>2026-04-05T08:26:55.829Z</time></trkpt><trkpt lat="42.2242533" lon="14.5367883"><ele>52.0</ele><time>2026-04-05T08:26:56.828Z</time></trkpt><trkpt lat="42.2242783" lon="14.5368767"><ele>51.99999999999999</ele><time>2026-04-05T08:26:57.829Z</time></trkpt><trkpt lat="42.2243" lon="14.5369717"><ele>52.0</ele><time>2026-04-05T08:26:58.829Z</time></trkpt><trkpt lat="42.2243283" lon="14.5370717"><ele>52.0</ele><time>2026-04-05T08:26:59.828Z</time></trkpt><trkpt lat="42.2243667" lon="14.5371617"><ele>52.0</ele><time>2026-04-05T08:27:00.829Z</time></trkpt><trkpt lat="42.2244067" lon="14.537245"><ele>51.99999999999999</ele><time>2026-04-05T08:27:01.828Z</time></trkpt><trkpt lat="42.2244567" lon="14.5373183"><ele>52.0</ele><time>2026-04-05T08:27:02.828Z</time></trkpt><trkpt lat="42.2245117" lon="14.5373867"><ele>51.99999999999999</ele><time>2026-04-05T08:27:03.828Z</time></trkpt><trkpt lat="42.2245683" lon="14.5374483"><ele>52.0</ele><time>2026-04-05T08:27:04.829Z</time></trkpt><trkpt lat="42.2246283" lon="14.5375017"><ele>52.0</ele><time>2026-04-05T08:27:05.829Z</time></trkpt><trkpt lat="42.2246883" lon="14.5375433"><ele>52.0</ele><time>2026-04-05T08:27:06.828Z</time></trkpt><trkpt lat="42.224815" lon="14.53758"><ele>51.99999999999999</ele><time>2026-04-05T08:27:08.828Z</time></trkpt><trkpt lat="42.2248783" lon="14.537595"><ele>52.0</ele><time>2026-04-05T08:27:09.828Z</time></trkpt><trkpt lat="42.2249467" lon="14.5376067"><ele>51.99999999999999</ele><time>2026-04-05T08:27:10.828Z</time></trkpt><trkpt lat="42.2250183" lon="14.5376183"><ele>52.0</ele><time>2026-04-05T08:27:11.828Z</time></trkpt><trkpt lat="42.2250917" lon="14.5376183"><ele>52.0</ele><time>2026-04-05T08:27:12.828Z</time></trkpt><trkpt lat="42.2251667" lon="14.5376183"><ele>52.0</ele><time>2026-04-05T08:27:13.828Z</time></trkpt><trkpt lat="42.2252417" lon="14.5376083"><ele>51.99999999999999</ele><time>2026-04-05T08:27:14.829Z</time></trkpt><trkpt lat="42.2253233" lon="14.5376067"><ele>52.0</ele><time>2026-04-05T08:27:15.828Z</time></trkpt><trkpt lat="42.225405" lon="14.5376017"><ele>51.99999999999999</ele><time>2026-04-05T08:27:16.828Z</time></trkpt><trkpt lat="42.2254917" lon="14.537595"><ele>52.0</ele><time>2026-04-05T08:27:17.828Z</time></trkpt><trkpt lat="42.225575" lon="14.5375883"><ele>52.0</ele><time>2026-04-05T08:27:18.828Z</time></trkpt><trkpt lat="42.2256533" lon="14.5375783"><ele>52.0</ele><time>2026-04-05T08:27:19.829Z</time></trkpt><trkpt lat="42.2257333" lon="14.5375617"><ele>51.99999999999999</ele><time>2026-04-05T08:27:20.828Z</time></trkpt><trkpt lat="42.225815" lon="14.5375433"><ele>52.0</ele><time>2026-04-05T08:27:21.828Z</time></trkpt><trkpt lat="42.2258917" lon="14.5375233"><ele>51.33333333333333</ele><time>2026-04-05T08:27:22.829Z</time></trkpt><trkpt lat="42.2259667" lon="14.5375"><ele>50.666666666666664</ele><time>2026-04-05T08:27:23.828Z</time></trkpt><trkpt lat="42.22604" lon="14.53747"><ele>50.0</ele><time>2026-04-05T08:27:24.828Z</time></trkpt><trkpt lat="42.2261183" lon="14.5374283"><ele>49.33333333333333</ele><time>2026-04-05T08:27:25.828Z</time></trkpt><trkpt lat="42.2261883" lon="14.537375"><ele>48.666666666666664</ele><time>2026-04-05T08:27:26.828Z</time></trkpt><trkpt lat="42.226255" lon="14.53732"><ele>48.0</ele><time>2026-04-05T08:27:27.828Z</time></trkpt><trkpt lat="42.2263217" lon="14.5372633"><ele>48.0</ele><time>2026-04-05T08:27:28.828Z</time></trkpt><trkpt lat="42.2263883" lon="14.5372167"><ele>48.0</ele><time>2026-04-05T08:27:29.828Z</time></trkpt><trkpt lat="42.2264633" lon="14.5371767"><ele>48.0</ele><time>2026-04-05T08:27:30.828Z</time></trkpt><trkpt lat="42.2265417" lon="14.5371583"><ele>48.0</ele><time>2026-04-05T08:27:31.828Z</time></trkpt><trkpt lat="42.2266183" lon="14.53715"><ele>48.0</ele><time>2026-04-05T08:27:32.828Z</time></trkpt><trkpt lat="42.2266983" lon="14.5371567"><ele>48.0</ele><time>2026-04-05T08:27:33.828Z</time></trkpt><trkpt lat="42.2267767" lon="14.53717"><ele>47.833333333333336</ele><time>2026-04-05T08:27:34.828Z</time></trkpt><trkpt lat="42.226855" lon="14.5371917"><ele>47.666666666666664</ele><time>2026-04-05T08:27:35.829Z</time></trkpt><trkpt lat="42.22693" lon="14.53722"><ele>47.5</ele><time>2026-04-05T08:27:36.828Z</time></trkpt><trkpt lat="42.227005" lon="14.53725"><ele>47.33333333333333</ele><time>2026-04-05T08:27:37.828Z</time></trkpt><trkpt lat="42.227085" lon="14.53728"><ele>47.166666666666664</ele><time>2026-04-05T08:27:38.828Z</time></trkpt><trkpt lat="42.2271567" lon="14.5373167"><ele>47.0</ele><time>2026-04-05T08:27:39.828Z</time></trkpt><trkpt lat="42.227235" lon="14.53735"><ele>47.0</ele><time>2026-04-05T08:27:40.828Z</time></trkpt><trkpt lat="42.22731" lon="14.53738"><ele>47.0</ele><time>2026-04-05T08:27:41.828Z</time></trkpt><trkpt lat="42.2273733" lon="14.537405"><ele>47.0</ele><time>2026-04-05T08:27:42.828Z</time></trkpt><trkpt lat="42.2274367" lon="14.5374267"><ele>47.0</ele><time>2026-04-05T08:27:43.828Z</time></trkpt><trkpt lat="42.22751" lon="14.5374533"><ele>47.0</ele><time>2026-04-05T08:27:44.828Z</time></trkpt><trkpt lat="42.227595" lon="14.5374783"><ele>47.0</ele><time>2026-04-05T08:27:45.828Z</time></trkpt><trkpt lat="42.2276767" lon="14.5375"><ele>46.5</ele><time>2026-04-05T08:27:46.828Z</time></trkpt><trkpt lat="42.2277567" lon="14.5375267"><ele>46.0</ele><time>2026-04-05T08:27:47.828Z</time></trkpt><trkpt lat="42.2278333" lon="14.5375517"><ele>45.5</ele><time>2026-04-05T08:27:48.829Z</time></trkpt><trkpt lat="42.2279133" lon="14.5375817"><ele>45.0</ele><time>2026-04-05T08:27:49.829Z</time></trkpt><trkpt lat="42.2279817" lon="14.53762"><ele>44.5</ele><time>2026-04-05T08:27:50.828Z</time></trkpt><trkpt lat="42.22805" lon="14.537665"><ele>44.0</ele><time>2026-04-05T08:27:51.828Z</time></trkpt><trkpt lat="42.2281133" lon="14.5376983"><ele>44.57142857142857</ele><time>2026-04-05T08:27:52.828Z</time></trkpt><trkpt lat="42.2281717" lon="14.5377417"><ele>45.14285714285714</ele><time>2026-04-05T08:27:53.829Z</time></trkpt><trkpt lat="42.2282383" lon="14.5377967"><ele>45.71428571428571</ele><time>2026-04-05T08:27:54.828Z</time></trkpt><trkpt lat="42.2283017" lon="14.5378517"><ele>46.285714285714285</ele><time>2026-04-05T08:27:55.828Z</time></trkpt><trkpt lat="42.2283617" lon="14.5379033"><ele>46.857142857142854</ele><time>2026-04-05T08:27:56.828Z</time></trkpt><trkpt lat="42.22842" lon="14.53796"><ele>47.42857142857142</ele><time>2026-04-05T08:27:57.828Z</time></trkpt><trkpt lat="42.2284783" lon="14.5380233"><ele>48.0</ele><time>2026-04-05T08:27:58.828Z</time></trkpt><trkpt lat="42.2285383" lon="14.5380883"><ele>48.0</ele><time>2026-04-05T08:27:59.828Z</time></trkpt><trkpt lat="42.2285933" lon="14.53815"><ele>48.0</ele><time>2026-04-05T08:28:00.828Z</time></trkpt><trkpt lat="42.22865" lon="14.5382033"><ele>48.0</ele><time>2026-04-05T08:28:01.829Z</time></trkpt><trkpt lat="42.2287083" lon="14.53825"><ele>48.0</ele><time>2026-04-05T08:28:02.829Z</time></trkpt><trkpt lat="42.2288167" lon="14.5383433"><ele>48.0</ele><time>2026-04-05T08:28:04.828Z</time></trkpt><trkpt lat="42.2289383" lon="14.5384"><ele>46.0</ele><time>2026-04-05T08:28:06.828Z</time></trkpt><trkpt lat="42.229025" lon="14.538405"><ele>44.0</ele><time>2026-04-05T08:28:07.829Z</time></trkpt><trkpt lat="42.2291067" lon="14.5383883"><ele>42.0</ele><time>2026-04-05T08:28:08.828Z</time></trkpt><trkpt lat="42.2291817" lon="14.53836"><ele>40.0</ele><time>2026-04-05T08:28:09.828Z</time></trkpt><trkpt lat="42.22925" lon="14.5383233"><ele>38.0</ele><time>2026-04-05T08:28:10.828Z</time></trkpt><trkpt lat="42.2293267" lon="14.5382883"><ele>36.0</ele><time>2026-04-05T08:28:11.829Z</time></trkpt><trkpt lat="42.2293933" lon="14.53825"><ele>36.00000000000001</ele><time>2026-04-05T08:28:12.828Z</time></trkpt><trkpt lat="42.2294683" lon="14.538225"><ele>36.0</ele><time>2026-04-05T08:28:13.828Z</time></trkpt><trkpt lat="42.2295433" lon="14.5382083"><ele>36.0</ele><time>2026-04-05T08:28:14.828Z</time></trkpt><trkpt lat="42.2296133" lon="14.538195"><ele>36.0</ele><time>2026-04-05T08:28:15.828Z</time></trkpt><trkpt lat="42.2296833" lon="14.5382017"><ele>36.0</ele><time>2026-04-05T08:28:16.829Z</time></trkpt><trkpt lat="42.2297567" lon="14.5382183"><ele>36.00000000000001</ele><time>2026-04-05T08:28:17.828Z</time></trkpt><trkpt lat="42.2298317" lon="14.5382417"><ele>36.0</ele><time>2026-04-05T08:28:18.828Z</time></trkpt><trkpt lat="42.2299017" lon="14.5382733"><ele>35.142857142857146</ele><time>2026-04-05T08:28:19.828Z</time></trkpt><trkpt lat="42.22997" lon="14.5383033"><ele>34.285714285714285</ele><time>2026-04-05T08:28:20.828Z</time></trkpt><trkpt lat="42.2300383" lon="14.5383317"><ele>33.42857142857143</ele><time>2026-04-05T08:28:21.828Z</time></trkpt><trkpt lat="42.2301067" lon="14.5383583"><ele>32.57142857142857</ele><time>2026-04-05T08:28:22.828Z</time></trkpt><trkpt lat="42.2301733" lon="14.5383783"><ele>31.714285714285715</ele><time>2026-04-05T08:28:23.828Z</time></trkpt><trkpt lat="42.23024" lon="14.5384017"><ele>30.857142857142858</ele><time>2026-04-05T08:28:24.829Z</time></trkpt><trkpt lat="42.2303083" lon="14.5384283"><ele>30.0</ele><time>2026-04-05T08:28:25.828Z</time></trkpt><trkpt lat="42.2303733" lon="14.5384517"><ele>30.0</ele><time>2026-04-05T08:28:26.829Z</time></trkpt><trkpt lat="42.23044" lon="14.5384767"><ele>30.0</ele><time>2026-04-05T08:28:27.828Z</time></trkpt><trkpt lat="42.2305133" lon="14.5385"><ele>30.0</ele><time>2026-04-05T08:28:28.828Z</time></trkpt><trkpt lat="42.2305833" lon="14.5385267"><ele>30.0</ele><time>2026-04-05T08:28:29.829Z</time></trkpt><trkpt lat="42.2306567" lon="14.538555"><ele>30.0</ele><time>2026-04-05T08:28:30.828Z</time></trkpt><trkpt lat="42.2307267" lon="14.5385767"><ele>30.0</ele><time>2026-04-05T08:28:31.828Z</time></trkpt><trkpt lat="42.2307967" lon="14.5386083"><ele>30.0</ele><time>2026-04-05T08:28:32.828Z</time></trkpt><trkpt lat="42.230865" lon="14.5386367"><ele>30.857142857142858</ele><time>2026-04-05T08:28:33.828Z</time></trkpt><trkpt lat="42.2309367" lon="14.5386717"><ele>31.714285714285715</ele><time>2026-04-05T08:28:34.828Z</time></trkpt><trkpt lat="42.231" lon="14.5387067"><ele>32.57142857142857</ele><time>2026-04-05T08:28:35.829Z</time></trkpt><trkpt lat="42.2310667" lon="14.53875"><ele>33.42857142857143</ele><time>2026-04-05T08:28:36.828Z</time></trkpt><trkpt lat="42.23114" lon="14.53879"><ele>34.285714285714285</ele><time>2026-04-05T08:28:37.828Z</time></trkpt><trkpt lat="42.231205" lon="14.5388433"><ele>35.142857142857146</ele><time>2026-04-05T08:28:38.828Z</time></trkpt><trkpt lat="42.2312667" lon="14.5388833"><ele>36.0</ele><time>2026-04-05T08:28:39.828Z</time></trkpt><trkpt lat="42.2313783" lon="14.5389683"><ele>33.2</ele><time>2026-04-05T08:28:41.828Z</time></trkpt><trkpt lat="42.23148" lon="14.539085"><ele>30.400000000000002</ele><time>2026-04-05T08:28:43.828Z</time></trkpt><trkpt lat="42.2315383" lon="14.5391517"><ele>27.6</ele><time>2026-04-05T08:28:44.828Z</time></trkpt><trkpt lat="42.2315933" lon="14.5392167"><ele>24.8</ele><time>2026-04-05T08:28:45.829Z</time></trkpt><trkpt lat="42.231645" lon="14.5392917"><ele>22.0</ele><time>2026-04-05T08:28:46.828Z</time></trkpt><trkpt lat="42.2317183" lon="14.5394167"><ele>22.0</ele><time>2026-04-05T08:28:48.828Z</time></trkpt><trkpt lat="42.2317567" lon="14.53949"><ele>22.0</ele><time>2026-04-05T08:28:49.828Z</time></trkpt><trkpt lat="42.2318" lon="14.53958"><ele>22.0</ele><time>2026-04-05T08:28:50.828Z</time></trkpt><trkpt lat="42.2318283" lon="14.5396917"><ele>22.0</ele><time>2026-04-05T08:28:51.828Z</time></trkpt><trkpt lat="42.2318467" lon="14.53981"><ele>22.0</ele><time>2026-04-05T08:28:52.829Z</time></trkpt><trkpt lat="42.2318683" lon="14.5399383"><ele>22.0</ele><time>2026-04-05T08:28:53.829Z</time></trkpt><trkpt lat="42.2318917" lon="14.5400417"><ele>24.0</ele><time>2026-04-05T08:28:54.828Z</time></trkpt><trkpt lat="42.2319283" lon="14.5402017"><ele>26.0</ele><time>2026-04-05T08:28:56.829Z</time></trkpt><trkpt lat="42.2319867" lon="14.5403717"><ele>28.000000000000004</ele><time>2026-04-05T08:28:58.828Z</time></trkpt><trkpt lat="42.2320267" lon="14.54045"><ele>30.0</ele><time>2026-04-05T08:28:59.828Z</time></trkpt><trkpt lat="42.232075" lon="14.54052"><ele>32.0</ele><time>2026-04-05T08:29:00.828Z</time></trkpt><trkpt lat="42.2321317" lon="14.5405833"><ele>31.0</ele><time>2026-04-05T08:29:01.828Z</time></trkpt><trkpt lat="42.2321883" lon="14.5406367"><ele>29.999999999999996</ele><time>2026-04-05T08:29:02.828Z</time></trkpt><trkpt lat="42.2322467" lon="14.5406883"><ele>29.0</ele><time>2026-04-05T08:29:03.828Z</time></trkpt><trkpt lat="42.2323083" lon="14.5407267"><ele>28.0</ele><time>2026-04-05T08:29:04.829Z</time></trkpt><trkpt lat="42.2323683" lon="14.5407633"><ele>27.0</ele><time>2026-04-05T08:29:05.828Z</time></trkpt><trkpt lat="42.23243" lon="14.540795"><ele>26.0</ele><time>2026-04-05T08:29:06.828Z</time></trkpt><trkpt lat="42.2325367" lon="14.5408317"><ele>25.0</ele><time>2026-04-05T08:29:08.828Z</time></trkpt><trkpt lat="42.2325983" lon="14.5408517"><ele>25.000000000000004</ele><time>2026-04-05T08:29:09.828Z</time></trkpt><trkpt lat="42.2326617" lon="14.5408767"><ele>25.0</ele><time>2026-04-05T08:29:10.829Z</time></trkpt><trkpt lat="42.232725" lon="14.5409117"><ele>25.0</ele><time>2026-04-05T08:29:11.829Z</time></trkpt><trkpt lat="42.2327967" lon="14.540935"><ele>25.0</ele><time>2026-04-05T08:29:12.828Z</time></trkpt><trkpt lat="42.2328633" lon="14.54097"><ele>25.0</ele><time>2026-04-05T08:29:13.828Z</time></trkpt><trkpt lat="42.2329333" lon="14.5410167"><ele>25.000000000000004</ele><time>2026-04-05T08:29:14.829Z</time></trkpt><trkpt lat="42.233" lon="14.54106"><ele>25.0</ele><time>2026-04-05T08:29:15.829Z</time></trkpt><trkpt lat="42.2330633" lon="14.5411017"><ele>25.000000000000004</ele><time>2026-04-05T08:29:16.828Z</time></trkpt><trkpt lat="42.2331283" lon="14.5411433"><ele>25.0</ele><time>2026-04-05T08:29:17.828Z</time></trkpt><trkpt lat="42.2331867" lon="14.5411767"><ele>25.0</ele><time>2026-04-05T08:29:18.828Z</time></trkpt><trkpt lat="42.2332967" lon="14.54124"><ele>25.0</ele><time>2026-04-05T08:29:20.829Z</time></trkpt><trkpt lat="42.2333617" lon="14.5412833"><ele>25.000000000000004</ele><time>2026-04-05T08:29:21.828Z</time></trkpt><trkpt lat="42.2334267" lon="14.5413267"><ele>25.0</ele><time>2026-04-05T08:29:22.828Z</time></trkpt><trkpt lat="42.2334883" lon="14.5413817"><ele>24.833333333333336</ele><time>2026-04-05T08:29:23.828Z</time></trkpt><trkpt lat="42.2335517" lon="14.54145"><ele>24.666666666666668</ele><time>2026-04-05T08:29:24.828Z</time></trkpt><trkpt lat="42.233615" lon="14.5415183"><ele>24.5</ele><time>2026-04-05T08:29:25.828Z</time></trkpt><trkpt lat="42.233665" lon="14.541575"><ele>24.333333333333336</ele><time>2026-04-05T08:29:26.829Z</time></trkpt><trkpt lat="42.2337183" lon="14.5416383"><ele>24.166666666666668</ele><time>2026-04-05T08:29:27.828Z</time></trkpt><trkpt lat="42.2337917" lon="14.541775"><ele>24.0</ele><time>2026-04-05T08:29:29.828Z</time></trkpt><trkpt lat="42.2338567" lon="14.5418267"><ele>24.0</ele><time>2026-04-05T08:29:33.829Z</time></trkpt><trkpt lat="42.23395" lon="14.5418017"><ele>24.0</ele><time>2026-04-05T08:29:36.829Z</time></trkpt><trkpt lat="42.2340017" lon="14.5416983"><ele>24.0</ele><time>2026-04-05T08:29:38.828Z</time></trkpt><trkpt lat="42.2340517" lon="14.5415783"><ele>24.0</ele><time>2026-04-05T08:29:40.828Z</time></trkpt><trkpt lat="42.2341083" lon="14.5414517"><ele>24.0</ele><time>2026-04-05T08:29:42.828Z</time></trkpt><trkpt lat="42.23417" lon="14.54132"><ele>19.0</ele><time>2026-04-05T08:29:44.828Z</time></trkpt><trkpt lat="42.2342333" lon="14.5411967"><ele>14.0</ele><time>2026-04-05T08:29:46.829Z</time></trkpt><trkpt lat="42.2342883" lon="14.5410733"><ele>9.0</ele><time>2026-04-05T08:29:48.828Z</time></trkpt><trkpt lat="42.2343417" lon="14.5409317"><ele>4.0</ele><time>2026-04-05T08:29:50.829Z</time></trkpt><trkpt lat="42.2343967" lon="14.540795"><ele>4.0</ele><time>2026-04-05T08:29:52.828Z</time></trkpt><trkpt lat="42.2344517" lon="14.5406783"><ele>4.0</ele><time>2026-04-05T08:29:54.829Z</time></trkpt><trkpt lat="42.2345067" lon="14.5405483"><ele>4.0</ele><time>2026-04-05T08:29:56.828Z</time></trkpt><trkpt lat="42.2345683" lon="14.5404067"><ele>4.0</ele><time>2026-04-05T08:29:58.828Z</time></trkpt><trkpt lat="42.2346017" lon="14.5403333"><ele>4.0</ele><time>2026-04-05T08:29:59.828Z</time></trkpt><trkpt lat="42.23466" lon="14.540195"><ele>4.25</ele><time>2026-04-05T08:30:01.828Z</time></trkpt><trkpt lat="42.23472" lon="14.5400583"><ele>4.5</ele><time>2026-04-05T08:30:03.828Z</time></trkpt><trkpt lat="42.2347783" lon="14.5399183"><ele>4.75</ele><time>2026-04-05T08:30:05.828Z</time></trkpt><trkpt lat="42.2348367" lon="14.5397833"><ele>5.0</ele><time>2026-04-05T08:30:07.828Z</time></trkpt><trkpt lat="42.2349" lon="14.539645"><ele>5.4</ele><time>2026-04-05T08:30:09.828Z</time></trkpt><trkpt lat="42.2349583" lon="14.539505"><ele>5.8</ele><time>2026-04-05T08:30:11.828Z</time></trkpt><trkpt lat="42.23501" lon="14.5393717"><ele>6.199999999999999</ele><time>2026-04-05T08:30:13.828Z</time></trkpt><trkpt lat="42.2350683" lon="14.5392467"><ele>6.6</ele><time>2026-04-05T08:30:15.829Z</time></trkpt><trkpt lat="42.2351217" lon="14.5391217"><ele>7.0</ele><time>2026-04-05T08:30:17.829Z</time></trkpt><trkpt lat="42.23518" lon="14.5389817"><ele>7.0</ele><time>2026-04-05T08:30:19.828Z</time></trkpt><trkpt lat="42.2352367" lon="14.53884"><ele>6.999999999999999</ele><time>2026-04-05T08:30:21.828Z</time></trkpt><trkpt lat="42.2353" lon="14.5387017"><ele>6.999999999999999</ele><time>2026-04-05T08:30:23.828Z</time></trkpt><trkpt lat="42.235355" lon="14.538565"><ele>7.0</ele><time>2026-04-05T08:30:25.828Z</time></trkpt><trkpt lat="42.2353883" lon="14.5384917"><ele>7.0</ele><time>2026-04-05T08:30:26.828Z</time></trkpt><trkpt lat="42.23545" lon="14.53836"><ele>6.75</ele><time>2026-04-05T08:30:28.829Z</time></trkpt><trkpt lat="42.23551" lon="14.5382283"><ele>6.5</ele><time>2026-04-05T08:30:30.828Z</time></trkpt><trkpt lat="42.235565" lon="14.5380933"><ele>6.25</ele><time>2026-04-05T08:30:32.828Z</time></trkpt><trkpt lat="42.2356233" lon="14.5379567"><ele>6.0</ele><time>2026-04-05T08:30:34.828Z</time></trkpt><trkpt lat="42.2356783" lon="14.5378183"><ele>5.75</ele><time>2026-04-05T08:30:36.829Z</time></trkpt><trkpt lat="42.2357417" lon="14.537685"><ele>5.5</ele><time>2026-04-05T08:30:38.828Z</time></trkpt><trkpt lat="42.2358" lon="14.5375433"><ele>5.25</ele><time>2026-04-05T08:30:40.828Z</time></trkpt><trkpt lat="42.235855" lon="14.5374033"><ele>5.0</ele><time>2026-04-05T08:30:42.829Z</time></trkpt><trkpt lat="42.23592" lon="14.53727"><ele>5.0</ele><time>2026-04-05T08:30:44.828Z</time></trkpt><trkpt lat="42.23598" lon="14.537135"><ele>5.0</ele><time>2026-04-05T08:30:46.828Z</time></trkpt><trkpt lat="42.2360333" lon="14.5369983"><ele>5.0</ele><time>2026-04-05T08:30:48.829Z</time></trkpt><trkpt lat="42.2360933" lon="14.5368617"><ele>5.0</ele><time>2026-04-05T08:30:50.828Z</time></trkpt><trkpt lat="42.236155" lon="14.5367233"><ele>5.0</ele><time>2026-04-05T08:30:52.828Z</time></trkpt><trkpt lat="42.236215" lon="14.5365833"><ele>5.0</ele><time>2026-04-05T08:30:54.828Z</time></trkpt><trkpt lat="42.2362767" lon="14.5364483"><ele>5.0</ele><time>2026-04-05T08:30:56.829Z</time></trkpt><trkpt lat="42.2363383" lon="14.536315"><ele>5.0</ele><time>2026-04-05T08:30:58.829Z</time></trkpt><trkpt lat="42.2364017" lon="14.5361767"><ele>4.5</ele><time>2026-04-05T08:31:00.828Z</time></trkpt><trkpt lat="42.2364583" lon="14.5360417"><ele>4.0</ele><time>2026-04-05T08:31:02.829Z</time></trkpt><trkpt lat="42.23652" lon="14.5359033"><ele>3.5</ele><time>2026-04-05T08:31:04.828Z</time></trkpt><trkpt lat="42.2365833" lon="14.5357633"><ele>3.0</ele><time>2026-04-05T08:31:06.828Z</time></trkpt><trkpt lat="42.2366433" lon="14.5356333"><ele>3.0</ele><time>2026-04-05T08:31:08.829Z</time></trkpt><trkpt lat="42.2367083" lon="14.5355067"><ele>3.0</ele><time>2026-04-05T08:31:10.828Z</time></trkpt><trkpt lat="42.2367667" lon="14.5353717"><ele>3.0</ele><time>2026-04-05T08:31:12.828Z</time></trkpt><trkpt lat="42.2368" lon="14.5352983"><ele>3.0</ele><time>2026-04-05T08:31:13.828Z</time></trkpt><trkpt lat="42.2368617" lon="14.53516"><ele>3.0</ele><time>2026-04-05T08:31:15.829Z</time></trkpt><trkpt lat="42.236925" lon="14.5350183"><ele>3.0</ele><time>2026-04-05T08:31:17.829Z</time></trkpt><trkpt lat="42.2369883" lon="14.5348833"><ele>3.0</ele><time>2026-04-05T08:31:19.828Z</time></trkpt><trkpt lat="42.2370533" lon="14.5347467"><ele>3.0</ele><time>2026-04-05T08:31:21.828Z</time></trkpt><trkpt lat="42.2371083" lon="14.5346283"><ele>3.0</ele><time>2026-04-05T08:31:23.828Z</time></trkpt><trkpt lat="42.237165" lon="14.5345"><ele>3.0</ele><time>2026-04-05T08:31:25.828Z</time></trkpt><trkpt lat="42.2372183" lon="14.534365"><ele>3.0</ele><time>2026-04-05T08:31:27.829Z</time></trkpt><trkpt lat="42.2372683" lon="14.5342433"><ele>3.0</ele><time>2026-04-05T08:31:29.828Z</time></trkpt><trkpt lat="42.2373333" lon="14.534115"><ele>3.0</ele><time>2026-04-05T08:31:31.828Z</time></trkpt><trkpt lat="42.2373967" lon="14.53398"><ele>3.0</ele><time>2026-04-05T08:31:33.828Z</time></trkpt><trkpt lat="42.2374583" lon="14.5338367"><ele>3.0</ele><time>2026-04-05T08:31:35.828Z</time></trkpt><trkpt lat="42.2374933" lon="14.533765"><ele>3.0</ele><time>2026-04-05T08:31:36.829Z</time></trkpt><trkpt lat="42.2375567" lon="14.533615"><ele>3.0</ele><time>2026-04-05T08:31:38.828Z</time></trkpt><trkpt lat="42.2375933" lon="14.5335383"><ele>3.0</ele><time>2026-04-05T08:31:39.828Z</time></trkpt><trkpt lat="42.237625" lon="14.53346"><ele>3.0</ele><time>2026-04-05T08:31:40.828Z</time></trkpt><trkpt lat="42.2376617" lon="14.533385"><ele>3.0</ele><time>2026-04-05T08:31:41.828Z</time></trkpt><trkpt lat="42.2376967" lon="14.53331"><ele>3.0</ele><time>2026-04-05T08:31:42.828Z</time></trkpt><trkpt lat="42.23773" lon="14.5332367"><ele>3.0</ele><time>2026-04-05T08:31:43.828Z</time></trkpt><trkpt lat="42.2377633" lon="14.5331633"><ele>3.0</ele><time>2026-04-05T08:31:44.828Z</time></trkpt><trkpt lat="42.2378267" lon="14.5330267"><ele>3.0</ele><time>2026-04-05T08:31:46.828Z</time></trkpt><trkpt lat="42.2378917" lon="14.5328817"><ele>3.0</ele><time>2026-04-05T08:31:48.828Z</time></trkpt><trkpt lat="42.2379533" lon="14.53274"><ele>3.25</ele><time>2026-04-05T08:31:50.828Z</time></trkpt><trkpt lat="42.2380183" lon="14.5326067"><ele>3.5</ele><time>2026-04-05T08:31:52.828Z</time></trkpt><trkpt lat="42.238075" lon="14.5324717"><ele>3.75</ele><time>2026-04-05T08:31:54.829Z</time></trkpt><trkpt lat="42.2381333" lon="14.5323383"><ele>4.0</ele><time>2026-04-05T08:31:56.829Z</time></trkpt><trkpt lat="42.238195" lon="14.5322133"><ele>4.0</ele><time>2026-04-05T08:31:58.829Z</time></trkpt><trkpt lat="42.2382533" lon="14.5320883"><ele>4.0</ele><time>2026-04-05T08:32:00.829Z</time></trkpt><trkpt lat="42.2383183" lon="14.53196"><ele>4.0</ele><time>2026-04-05T08:32:02.829Z</time></trkpt><trkpt lat="42.238385" lon="14.5318183"><ele>4.0</ele><time>2026-04-05T08:32:04.829Z</time></trkpt><trkpt lat="42.2384467" lon="14.5316733"><ele>3.6666666666666665</ele><time>2026-04-05T08:32:06.829Z</time></trkpt><trkpt lat="42.23851" lon="14.5315333"><ele>3.333333333333333</ele><time>2026-04-05T08:32:08.829Z</time></trkpt><trkpt lat="42.238545" lon="14.5314567"><ele>3.0</ele><time>2026-04-05T08:32:09.829Z</time></trkpt><trkpt lat="42.2385783" lon="14.5313817"><ele>2.6666666666666665</ele><time>2026-04-05T08:32:10.829Z</time></trkpt><trkpt lat="42.2386117" lon="14.5313083"><ele>2.333333333333333</ele><time>2026-04-05T08:32:11.83Z</time></trkpt><trkpt lat="42.2386767" lon="14.5311683"><ele>2.0</ele><time>2026-04-05T08:32:13.829Z</time></trkpt><trkpt lat="42.23871" lon="14.5310933"><ele>1.6</ele><time>2026-04-05T08:32:14.829Z</time></trkpt><trkpt lat="42.2387767" lon="14.5309533"><ele>1.2000000000000002</ele><time>2026-04-05T08:32:16.829Z</time></trkpt><trkpt lat="42.2388417" lon="14.5308083"><ele>0.8</ele><time>2026-04-05T08:32:18.829Z</time></trkpt><trkpt lat="42.2389033" lon="14.5306617"><ele>0.4</ele><time>2026-04-05T08:32:20.829Z</time></trkpt><trkpt lat="42.238935" lon="14.5305867"><ele>0.0</ele><time>2026-04-05T08:32:21.83Z</time></trkpt><trkpt lat="42.2389667" lon="14.53051"><ele>0.2</ele><time>2026-04-05T08:32:22.829Z</time></trkpt><trkpt lat="42.2390317" lon="14.5303683"><ele>0.4</ele><time>2026-04-05T08:32:24.829Z</time></trkpt><trkpt lat="42.2390983" lon="14.5302317"><ele>0.6000000000000001</ele><time>2026-04-05T08:32:26.829Z</time></trkpt><trkpt lat="42.23913" lon="14.5301567"><ele>0.8</ele><time>2026-04-05T08:32:27.83Z</time></trkpt><trkpt lat="42.2391967" lon="14.5300133"><ele>1.0</ele><time>2026-04-05T08:32:29.829Z</time></trkpt><trkpt lat="42.2392317" lon="14.5299283"><ele>1.0</ele><time>2026-04-05T08:32:30.829Z</time></trkpt><trkpt lat="42.2392667" lon="14.5298567"><ele>0.9999999999999999</ele><time>2026-04-05T08:32:31.83Z</time></trkpt><trkpt lat="42.2393" lon="14.5297767"><ele>1.0</ele><time>2026-04-05T08:32:32.829Z</time></trkpt><trkpt lat="42.2393333" lon="14.5297033"><ele>1.0</ele><time>2026-04-05T08:32:33.829Z</time></trkpt><trkpt lat="42.2393683" lon="14.529625"><ele>0.9999999999999999</ele><time>2026-04-05T08:32:34.829Z</time></trkpt><trkpt lat="42.2394067" lon="14.52954"><ele>1.0</ele><time>2026-04-05T08:32:35.829Z</time></trkpt><trkpt lat="42.239445" lon="14.5294617"><ele>1.0</ele><time>2026-04-05T08:32:36.829Z</time></trkpt><trkpt lat="42.2394817" lon="14.5293833"><ele>1.0</ele><time>2026-04-05T08:32:37.829Z</time></trkpt><trkpt lat="42.2395167" lon="14.529305"><ele>1.0</ele><time>2026-04-05T08:32:38.829Z</time></trkpt><trkpt lat="42.2395517" lon="14.52923"><ele>1.0</ele><time>2026-04-05T08:32:39.829Z</time></trkpt><trkpt lat="42.2396117" lon="14.52909"><ele>1.0</ele><time>2026-04-05T08:32:41.829Z</time></trkpt><trkpt lat="42.2396717" lon="14.5289533"><ele>1.0</ele><time>2026-04-05T08:32:43.83Z</time></trkpt><trkpt lat="42.2397333" lon="14.5288167"><ele>1.0</ele><time>2026-04-05T08:32:45.83Z</time></trkpt><trkpt lat="42.2397983" lon="14.528685"><ele>1.0</ele><time>2026-04-05T08:32:47.829Z</time></trkpt><trkpt lat="42.23986" lon="14.52855"><ele>1.0</ele><time>2026-04-05T08:32:49.83Z</time></trkpt><trkpt lat="42.239915" lon="14.52841"><ele>1.0</ele><time>2026-04-05T08:32:51.829Z</time></trkpt><trkpt lat="42.2399783" lon="14.5282767"><ele>0.75</ele><time>2026-04-05T08:32:53.829Z</time></trkpt><trkpt lat="42.2400367" lon="14.5281533"><ele>0.5</ele><time>2026-04-05T08:32:55.829Z</time></trkpt><trkpt lat="42.2400983" lon="14.528025"><ele>0.25</ele><time>2026-04-05T08:32:57.829Z</time></trkpt><trkpt lat="42.240155" lon="14.5278933"><ele>0.0</ele><time>2026-04-05T08:32:59.829Z</time></trkpt><trkpt lat="42.2402217" lon="14.5277533"><ele>0.0</ele><time>2026-04-05T08:33:01.829Z</time></trkpt><trkpt lat="42.2402883" lon="14.5276183"><ele>0.0</ele><time>2026-04-05T08:33:03.829Z</time></trkpt><trkpt lat="42.2403533" lon="14.5274783"><ele>0.0</ele><time>2026-04-05T08:33:05.83Z</time></trkpt><trkpt lat="42.2404133" lon="14.5273417"><ele>0.0</ele><time>2026-04-05T08:33:07.829Z</time></trkpt><trkpt lat="42.24047" lon="14.5272083"><ele>0.0</ele><time>2026-04-05T08:33:09.829Z</time></trkpt><trkpt lat="42.2405317" lon="14.527075"><ele>0.0</ele><time>2026-04-05T08:33:11.829Z</time></trkpt><trkpt lat="42.24059" lon="14.526945"><ele>0.0</ele><time>2026-04-05T08:33:13.829Z</time></trkpt><trkpt lat="42.2406533" lon="14.52681"><ele>0.0</ele><time>2026-04-05T08:33:15.829Z</time></trkpt><trkpt lat="42.2407117" lon="14.5266783"><ele>0.25</ele><time>2026-04-05T08:33:17.829Z</time></trkpt><trkpt lat="42.2407733" lon="14.5265383"><ele>0.5</ele><time>2026-04-05T08:33:19.829Z</time></trkpt><trkpt lat="42.240835" lon="14.5264017"><ele>0.75</ele><time>2026-04-05T08:33:21.829Z</time></trkpt><trkpt lat="42.2408967" lon="14.5262683"><ele>1.0</ele><time>2026-04-05T08:33:23.829Z</time></trkpt><trkpt lat="42.2409567" lon="14.5261383"><ele>1.0</ele><time>2026-04-05T08:33:25.829Z</time></trkpt><trkpt lat="42.24102" lon="14.5260017"><ele>1.0</ele><time>2026-04-05T08:33:27.829Z</time></trkpt><trkpt lat="42.24108" lon="14.5258633"><ele>1.0</ele><time>2026-04-05T08:33:29.829Z</time></trkpt><trkpt lat="42.24114" lon="14.5257267"><ele>1.0</ele><time>2026-04-05T08:33:31.829Z</time></trkpt><trkpt lat="42.2412" lon="14.5255983"><ele>1.0</ele><time>2026-04-05T08:33:33.829Z</time></trkpt><trkpt lat="42.2412633" lon="14.5254617"><ele>1.0</ele><time>2026-04-05T08:33:35.829Z</time></trkpt><trkpt lat="42.241325" lon="14.52533"><ele>1.0</ele><time>2026-04-05T08:33:37.829Z</time></trkpt><trkpt lat="42.241385" lon="14.5251967"><ele>1.0</ele><time>2026-04-05T08:33:39.829Z</time></trkpt><trkpt lat="42.2414467" lon="14.5250633"><ele>1.0</ele><time>2026-04-05T08:33:41.829Z</time></trkpt><trkpt lat="42.241505" lon="14.5249267"><ele>1.0</ele><time>2026-04-05T08:33:43.829Z</time></trkpt><trkpt lat="42.2415667" lon="14.5247867"><ele>1.0</ele><time>2026-04-05T08:33:45.829Z</time></trkpt><trkpt lat="42.24162" lon="14.5246533"><ele>1.0</ele><time>2026-04-05T08:33:47.829Z</time></trkpt><trkpt lat="42.2416817" lon="14.5245217"><ele>1.5</ele><time>2026-04-05T08:33:49.829Z</time></trkpt><trkpt lat="42.2417333" lon="14.52438"><ele>2.0</ele><time>2026-04-05T08:33:51.83Z</time></trkpt><trkpt lat="42.2417817" lon="14.5242433"><ele>2.5</ele><time>2026-04-05T08:33:53.829Z</time></trkpt><trkpt lat="42.2418267" lon="14.524095"><ele>3.0</ele><time>2026-04-05T08:33:55.829Z</time></trkpt><trkpt lat="42.2418717" lon="14.5239483"><ele>3.0</ele><time>2026-04-05T08:33:57.829Z</time></trkpt><trkpt lat="42.2419133" lon="14.5238067"><ele>3.0</ele><time>2026-04-05T08:33:59.829Z</time></trkpt><trkpt lat="42.2419667" lon="14.5236683"><ele>3.0</ele><time>2026-04-05T08:34:01.829Z</time></trkpt><trkpt lat="42.2420267" lon="14.5235383"><ele>3.0</ele><time>2026-04-05T08:34:03.829Z</time></trkpt><trkpt lat="42.2421033" lon="14.523435"><ele>2.8</ele><time>2026-04-05T08:34:05.829Z</time></trkpt><trkpt lat="42.24219" lon="14.52335"><ele>2.5999999999999996</ele><time>2026-04-05T08:34:07.83Z</time></trkpt><trkpt lat="42.2422667" lon="14.5232367"><ele>2.4000000000000004</ele><time>2026-04-05T08:34:09.829Z</time></trkpt><trkpt lat="42.24233" lon="14.523115"><ele>2.2</ele><time>2026-04-05T08:34:11.829Z</time></trkpt><trkpt lat="42.2423883" lon="14.5229883"><ele>2.0</ele><time>2026-04-05T08:34:13.829Z</time></trkpt><trkpt lat="42.24244" lon="14.5228533"><ele>1.8</ele><time>2026-04-05T08:34:15.829Z</time></trkpt><trkpt lat="42.2424983" lon="14.5227317"><ele>1.6</ele><time>2026-04-05T08:34:17.829Z</time></trkpt><trkpt lat="42.2425567" lon="14.52261"><ele>1.4000000000000001</ele><time>2026-04-05T08:34:19.829Z</time></trkpt><trkpt lat="42.2426167" lon="14.52248"><ele>1.2000000000000002</ele><time>2026-04-05T08:34:21.829Z</time></trkpt><trkpt lat="42.2426733" lon="14.5223617"><ele>1.0</ele><time>2026-04-05T08:34:23.829Z</time></trkpt><trkpt lat="42.2427367" lon="14.5222317"><ele>1.0</ele><time>2026-04-05T08:34:25.829Z</time></trkpt><trkpt lat="42.242795" lon="14.5220967"><ele>1.0</ele><time>2026-04-05T08:34:27.829Z</time></trkpt><trkpt lat="42.2428533" lon="14.5219817"><ele>1.0</ele><time>2026-04-05T08:34:29.829Z</time></trkpt><trkpt lat="42.2429367" lon="14.521955"><ele>1.0</ele><time>2026-04-05T08:34:31.829Z</time></trkpt><trkpt lat="42.24302" lon="14.5220167"><ele>1.0</ele><time>2026-04-05T08:34:33.829Z</time></trkpt><trkpt lat="42.243085" lon="14.52211"><ele>1.2000000000000002</ele><time>2026-04-05T08:34:35.829Z</time></trkpt><trkpt lat="42.2431533" lon="14.52221"><ele>1.4000000000000001</ele><time>2026-04-05T08:34:37.829Z</time></trkpt><trkpt lat="42.243225" lon="14.5223017"><ele>1.6</ele><time>2026-04-05T08:34:39.829Z</time></trkpt><trkpt lat="42.243305" lon="14.522395"><ele>1.8</ele><time>2026-04-05T08:34:41.829Z</time></trkpt><trkpt lat="42.2433783" lon="14.5224933"><ele>2.0</ele><time>2026-04-05T08:34:43.829Z</time></trkpt><trkpt lat="42.2434117" lon="14.5225833"><ele>2.0</ele><time>2026-04-05T08:34:45.829Z</time></trkpt><trkpt lat="42.243395" lon="14.5226683"><ele>2.0</ele><time>2026-04-05T08:34:47.829Z</time></trkpt><trkpt lat="42.2433317" lon="14.5227667"><ele>2.0</ele><time>2026-04-05T08:34:49.829Z</time></trkpt><trkpt lat="42.2432683" lon="14.5228683"><ele>2.0</ele><time>2026-04-05T08:34:51.829Z</time></trkpt><trkpt lat="42.2431983" lon="14.5229933"><ele>2.0</ele><time>2026-04-05T08:34:53.829Z</time></trkpt><trkpt lat="42.2431283" lon="14.5231017"><ele>1.8</ele><time>2026-04-05T08:34:55.829Z</time></trkpt><trkpt lat="42.2430617" lon="14.5232167"><ele>1.6</ele><time>2026-04-05T08:34:57.829Z</time></trkpt><trkpt lat="42.242995" lon="14.5233383"><ele>1.4000000000000001</ele><time>2026-04-05T08:34:59.83Z</time></trkpt><trkpt lat="42.2429533" lon="14.5234317"><ele>1.2000000000000002</ele><time>2026-04-05T08:35:00.829Z</time></trkpt><trkpt lat="42.2429217" lon="14.5235083"><ele>1.0</ele><time>2026-04-05T08:35:01.829Z</time></trkpt><trkpt lat="42.2428667" lon="14.5236533"><ele>1.25</ele><time>2026-04-05T08:35:03.829Z</time></trkpt><trkpt lat="42.24281" lon="14.5237917"><ele>1.5</ele><time>2026-04-05T08:35:05.829Z</time></trkpt><trkpt lat="42.24275" lon="14.5239217"><ele>1.75</ele><time>2026-04-05T08:35:07.83Z</time></trkpt><trkpt lat="42.2426883" lon="14.52405"><ele>2.0</ele><time>2026-04-05T08:35:09.829Z</time></trkpt><trkpt lat="42.242625" lon="14.5241867"><ele>2.0</ele><time>2026-04-05T08:35:11.829Z</time></trkpt><trkpt lat="42.2425667" lon="14.5243133"><ele>2.0</ele><time>2026-04-05T08:35:13.829Z</time></trkpt><trkpt lat="42.2425167" lon="14.5244417"><ele>2.0</ele><time>2026-04-05T08:35:15.829Z</time></trkpt><trkpt lat="42.2424683" lon="14.5245667"><ele>2.0</ele><time>2026-04-05T08:35:17.829Z</time></trkpt><trkpt lat="42.2424117" lon="14.5247017"><ele>2.0</ele><time>2026-04-05T08:35:19.83Z</time></trkpt><trkpt lat="42.242355" lon="14.5248317"><ele>2.0</ele><time>2026-04-05T08:35:21.829Z</time></trkpt><trkpt lat="42.242305" lon="14.5249633"><ele>2.0</ele><time>2026-04-05T08:35:23.83Z</time></trkpt><trkpt lat="42.2422517" lon="14.5250983"><ele>2.0</ele><time>2026-04-05T08:35:25.829Z</time></trkpt><trkpt lat="42.2421967" lon="14.5252233"><ele>2.0</ele><time>2026-04-05T08:35:27.829Z</time></trkpt><trkpt lat="42.242135" lon="14.52535"><ele>2.0</ele><time>2026-04-05T08:35:29.829Z</time></trkpt><trkpt lat="42.2420733" lon="14.5254733"><ele>2.0</ele><time>2026-04-05T08:35:31.83Z</time></trkpt><trkpt lat="42.242025" lon="14.5255967"><ele>2.0</ele><time>2026-04-05T08:35:33.829Z</time></trkpt><trkpt lat="42.2419783" lon="14.525725"><ele>2.0</ele><time>2026-04-05T08:35:35.829Z</time></trkpt><trkpt lat="42.2419533" lon="14.525805"><ele>2.0</ele><time>2026-04-05T08:35:36.829Z</time></trkpt><trkpt lat="42.2419" lon="14.5259567"><ele>2.0</ele><time>2026-04-05T08:35:38.829Z</time></trkpt><trkpt lat="42.24185" lon="14.526075"><ele>2.0</ele><time>2026-04-05T08:35:40.829Z</time></trkpt><trkpt lat="42.2417967" lon="14.526205"><ele>2.0</ele><time>2026-04-05T08:35:42.83Z</time></trkpt><trkpt lat="42.24174" lon="14.5263367"><ele>2.0</ele><time>2026-04-05T08:35:44.829Z</time></trkpt><trkpt lat="42.2416817" lon="14.5264333"><ele>2.0</ele><time>2026-04-05T08:35:46.829Z</time></trkpt><trkpt lat="42.24163" lon="14.526545"><ele>2.0</ele><time>2026-04-05T08:35:48.829Z</time></trkpt><trkpt lat="42.2415667" lon="14.52668"><ele>2.0</ele><time>2026-04-05T08:35:50.83Z</time></trkpt><trkpt lat="42.2415067" lon="14.5268033"><ele>2.0</ele><time>2026-04-05T08:35:52.829Z</time></trkpt><trkpt lat="42.2414467" lon="14.5269417"><ele>2.0</ele><time>2026-04-05T08:35:54.829Z</time></trkpt><trkpt lat="42.2413967" lon="14.52708"><ele>2.0</ele><time>2026-04-05T08:35:56.829Z</time></trkpt><trkpt lat="42.2413383" lon="14.5272117"><ele>1.6</ele><time>2026-04-05T08:35:58.829Z</time></trkpt><trkpt lat="42.2412867" lon="14.5273517"><ele>1.2000000000000002</ele><time>2026-04-05T08:36:00.829Z</time></trkpt><trkpt lat="42.2412383" lon="14.5275083"><ele>0.8</ele><time>2026-04-05T08:36:02.83Z</time></trkpt><trkpt lat="42.2411833" lon="14.527655"><ele>0.4</ele><time>2026-04-05T08:36:04.829Z</time></trkpt><trkpt lat="42.2411583" lon="14.527735"><ele>0.0</ele><time>2026-04-05T08:36:05.829Z</time></trkpt><trkpt lat="42.2411333" lon="14.5278133"><ele>-0.25</ele><time>2026-04-05T08:36:06.829Z</time></trkpt><trkpt lat="42.241085" lon="14.52796"><ele>-0.5</ele><time>2026-04-05T08:36:08.829Z</time></trkpt><trkpt lat="42.24103" lon="14.5281017"><ele>-0.75</ele><time>2026-04-05T08:36:10.829Z</time></trkpt><trkpt lat="42.2409683" lon="14.528245"><ele>-1.0</ele><time>2026-04-05T08:36:12.83Z</time></trkpt><trkpt lat="42.2409233" lon="14.5283917"><ele>-1.0</ele><time>2026-04-05T08:36:14.829Z</time></trkpt><trkpt lat="42.2408717" lon="14.5285383"><ele>-1.0</ele><time>2026-04-05T08:36:16.829Z</time></trkpt><trkpt lat="42.2408117" lon="14.528675"><ele>-1.0</ele><time>2026-04-05T08:36:18.83Z</time></trkpt><trkpt lat="42.240755" lon="14.528815"><ele>-1.0</ele><time>2026-04-05T08:36:20.829Z</time></trkpt><trkpt lat="42.240705" lon="14.5289567"><ele>-0.75</ele><time>2026-04-05T08:36:22.829Z</time></trkpt><trkpt lat="42.2406467" lon="14.5290933"><ele>-0.5</ele><time>2026-04-05T08:36:24.829Z</time></trkpt><trkpt lat="42.2405917" lon="14.5292333"><ele>-0.25</ele><time>2026-04-05T08:36:26.829Z</time></trkpt><trkpt lat="42.2405383" lon="14.5293683"><ele>0.0</ele><time>2026-04-05T08:36:28.829Z</time></trkpt><trkpt lat="42.240485" lon="14.5295067"><ele>0.2</ele><time>2026-04-05T08:36:30.829Z</time></trkpt><trkpt lat="42.24043" lon="14.5296417"><ele>0.4</ele><time>2026-04-05T08:36:32.829Z</time></trkpt><trkpt lat="42.24037" lon="14.5297683"><ele>0.6000000000000001</ele><time>2026-04-05T08:36:34.829Z</time></trkpt><trkpt lat="42.2403" lon="14.529875"><ele>0.8</ele><time>2026-04-05T08:36:36.829Z</time></trkpt><trkpt lat="42.2402267" lon="14.5299867"><ele>1.0</ele><time>2026-04-05T08:36:38.829Z</time></trkpt><trkpt lat="42.240165" lon="14.53012"><ele>1.0</ele><time>2026-04-05T08:36:40.829Z</time></trkpt><trkpt lat="42.2401017" lon="14.53026"><ele>1.0</ele><time>2026-04-05T08:36:42.829Z</time></trkpt><trkpt lat="42.240045" lon="14.530395"><ele>1.0</ele><time>2026-04-05T08:36:44.83Z</time></trkpt><trkpt lat="42.23999" lon="14.5305367"><ele>1.0</ele><time>2026-04-05T08:36:46.829Z</time></trkpt><trkpt lat="42.2399267" lon="14.53067"><ele>1.0</ele><time>2026-04-05T08:36:48.829Z</time></trkpt><trkpt lat="42.2398667" lon="14.5308017"><ele>1.0</ele><time>2026-04-05T08:36:50.829Z</time></trkpt><trkpt lat="42.2398083" lon="14.530925"><ele>1.0</ele><time>2026-04-05T08:36:52.829Z</time></trkpt><trkpt lat="42.2397567" lon="14.531055"><ele>1.0</ele><time>2026-04-05T08:36:54.829Z</time></trkpt><trkpt lat="42.2397" lon="14.531185"><ele>1.0</ele><time>2026-04-05T08:36:56.829Z</time></trkpt><trkpt lat="42.23964" lon="14.5313133"><ele>1.0</ele><time>2026-04-05T08:36:58.829Z</time></trkpt><trkpt lat="42.239575" lon="14.53145"><ele>1.0</ele><time>2026-04-05T08:37:00.829Z</time></trkpt><trkpt lat="42.23954" lon="14.5315233"><ele>1.0</ele><time>2026-04-05T08:37:01.83Z</time></trkpt><trkpt lat="42.2394733" lon="14.5316583"><ele>1.0</ele><time>2026-04-05T08:37:03.829Z</time></trkpt><trkpt lat="42.239415" lon="14.5317883"><ele>1.0</ele><time>2026-04-05T08:37:05.829Z</time></trkpt><trkpt lat="42.239355" lon="14.5319217"><ele>1.0</ele><time>2026-04-05T08:37:07.829Z</time></trkpt><trkpt lat="42.239285" lon="14.5320467"><ele>1.0</ele><time>2026-04-05T08:37:09.829Z</time></trkpt><trkpt lat="42.23923" lon="14.5321833"><ele>1.0</ele><time>2026-04-05T08:37:11.83Z</time></trkpt><trkpt lat="42.2391767" lon="14.5323217"><ele>1.0</ele><time>2026-04-05T08:37:13.829Z</time></trkpt><trkpt lat="42.2391183" lon="14.5324533"><ele>1.0</ele><time>2026-04-05T08:37:15.829Z</time></trkpt><trkpt lat="42.2390633" lon="14.53259"><ele>1.0</ele><time>2026-04-05T08:37:17.829Z</time></trkpt><trkpt lat="42.2390017" lon="14.5327267"><ele>1.0</ele><time>2026-04-05T08:37:19.829Z</time></trkpt><trkpt lat="42.238935" lon="14.53287"><ele>1.0</ele><time>2026-04-05T08:37:21.829Z</time></trkpt><trkpt lat="42.2388733" lon="14.5329967"><ele>1.0</ele><time>2026-04-05T08:37:23.829Z</time></trkpt><trkpt lat="42.238815" lon="14.5331217"><ele>1.0</ele><time>2026-04-05T08:37:25.829Z</time></trkpt><trkpt lat="42.2387583" lon="14.533255"><ele>1.0</ele><time>2026-04-05T08:37:27.829Z</time></trkpt><trkpt lat="42.2386967" lon="14.53339"><ele>1.0</ele><time>2026-04-05T08:37:29.83Z</time></trkpt><trkpt lat="42.238635" lon="14.533525"><ele>1.0</ele><time>2026-04-05T08:37:31.829Z</time></trkpt><trkpt lat="42.238575" lon="14.5336617"><ele>1.0</ele><time>2026-04-05T08:37:33.83Z</time></trkpt><trkpt lat="42.238515" lon="14.533805"><ele>1.0</ele><time>2026-04-05T08:37:35.829Z</time></trkpt><trkpt lat="42.238455" lon="14.5339417"><ele>1.0</ele><time>2026-04-05T08:37:37.829Z</time></trkpt><trkpt lat="42.2383883" lon="14.53407"><ele>1.0</ele><time>2026-04-05T08:37:39.829Z</time></trkpt><trkpt lat="42.23833" lon="14.5341983"><ele>1.0</ele><time>2026-04-05T08:37:41.829Z</time></trkpt><trkpt lat="42.23828" lon="14.5343317"><ele>1.0</ele><time>2026-04-05T08:37:43.829Z</time></trkpt><trkpt lat="42.2382183" lon="14.5344617"><ele>1.0</ele><time>2026-04-05T08:37:45.829Z</time></trkpt><trkpt lat="42.23816" lon="14.5345983"><ele>1.0</ele><time>2026-04-05T08:37:47.829Z</time></trkpt><trkpt lat="42.2380967" lon="14.5347317"><ele>1.0</ele><time>2026-04-05T08:37:49.829Z</time></trkpt><trkpt lat="42.2380383" lon="14.5348683"><ele>1.0</ele><time>2026-04-05T08:37:51.829Z</time></trkpt><trkpt lat="42.237975" lon="14.5350067"><ele>1.0</ele><time>2026-04-05T08:37:53.829Z</time></trkpt><trkpt lat="42.23791" lon="14.5351383"><ele>1.0</ele><time>2026-04-05T08:37:55.829Z</time></trkpt><trkpt lat="42.237845" lon="14.53526"><ele>1.0</ele><time>2026-04-05T08:37:57.83Z</time></trkpt><trkpt lat="42.2377683" lon="14.53537"><ele>1.0</ele><time>2026-04-05T08:37:59.829Z</time></trkpt><trkpt lat="42.2376867" lon="14.53548"><ele>1.0</ele><time>2026-04-05T08:38:01.829Z</time></trkpt><trkpt lat="42.2375883" lon="14.5355283"><ele>1.0</ele><time>2026-04-05T08:38:03.829Z</time></trkpt><trkpt lat="42.2374817" lon="14.5355067"><ele>0.8333333333333333</ele><time>2026-04-05T08:38:05.829Z</time></trkpt><trkpt lat="42.2373717" lon="14.5354767"><ele>0.6666666666666666</ele><time>2026-04-05T08:38:07.829Z</time></trkpt><trkpt lat="42.2372783" lon="14.5354633"><ele>0.5</ele><time>2026-04-05T08:38:09.829Z</time></trkpt><trkpt lat="42.2372017" lon="14.5354583"><ele>0.3333333333333333</ele><time>2026-04-05T08:38:11.83Z</time></trkpt><trkpt lat="42.2371333" lon="14.5354683"><ele>0.16666666666666666</ele><time>2026-04-05T08:38:13.829Z</time></trkpt><trkpt lat="42.2370733" lon="14.5355033"><ele>0.0</ele><time>2026-04-05T08:38:15.83Z</time></trkpt><trkpt lat="42.2370283" lon="14.53558"><ele>0.6</ele><time>2026-04-05T08:38:17.829Z</time></trkpt><trkpt lat="42.2369783" lon="14.5356717"><ele>1.2</ele><time>2026-04-05T08:38:19.83Z</time></trkpt><trkpt lat="42.236935" lon="14.5357717"><ele>1.7999999999999998</ele><time>2026-04-05T08:38:21.829Z</time></trkpt><trkpt lat="42.2368917" lon="14.5358767"><ele>2.4</ele><time>2026-04-05T08:38:23.829Z</time></trkpt><trkpt lat="42.2368417" lon="14.5359833"><ele>3.0</ele><time>2026-04-05T08:38:25.829Z</time></trkpt><trkpt lat="42.2367933" lon="14.5361"><ele>3.0</ele><time>2026-04-05T08:38:27.829Z</time></trkpt><trkpt lat="42.2367433" lon="14.536215"><ele>3.0</ele><time>2026-04-05T08:38:29.829Z</time></trkpt><trkpt lat="42.2366967" lon="14.536335"><ele>3.0</ele><time>2026-04-05T08:38:31.829Z</time></trkpt><trkpt lat="42.2366517" lon="14.5364767"><ele>3.0</ele><time>2026-04-05T08:38:33.83Z</time></trkpt><trkpt lat="42.2366017" lon="14.53661"><ele>3.0</ele><time>2026-04-05T08:38:35.829Z</time></trkpt><trkpt lat="42.236555" lon="14.5367333"><ele>2.8</ele><time>2026-04-05T08:38:37.829Z</time></trkpt><trkpt lat="42.2365" lon="14.5368533"><ele>2.5999999999999996</ele><time>2026-04-05T08:38:39.829Z</time></trkpt><trkpt lat="42.2364517" lon="14.53697"><ele>2.4000000000000004</ele><time>2026-04-05T08:38:41.829Z</time></trkpt><trkpt lat="42.2363933" lon="14.5370933"><ele>2.2</ele><time>2026-04-05T08:38:43.83Z</time></trkpt><trkpt lat="42.23634" lon="14.53722"><ele>2.0</ele><time>2026-04-05T08:38:45.829Z</time></trkpt><trkpt lat="42.2362933" lon="14.5373317"><ele>2.6</ele><time>2026-04-05T08:38:47.829Z</time></trkpt><trkpt lat="42.2362433" lon="14.5374367"><ele>3.2</ele><time>2026-04-05T08:38:49.829Z</time></trkpt><trkpt lat="42.23619" lon="14.5375417"><ele>3.8</ele><time>2026-04-05T08:38:51.829Z</time></trkpt><trkpt lat="42.2361317" lon="14.537645"><ele>4.4</ele><time>2026-04-05T08:38:53.829Z</time></trkpt><trkpt lat="42.2360617" lon="14.5377717"><ele>5.0</ele><time>2026-04-05T08:38:55.829Z</time></trkpt><trkpt lat="42.2359983" lon="14.537915"><ele>5.0</ele><time>2026-04-05T08:38:57.829Z</time></trkpt><trkpt lat="42.2359483" lon="14.538045"><ele>5.0</ele><time>2026-04-05T08:38:59.829Z</time></trkpt><trkpt lat="42.2359" lon="14.53817"><ele>5.0</ele><time>2026-04-05T08:39:01.829Z</time></trkpt><trkpt lat="42.23585" lon="14.5383067"><ele>5.0</ele><time>2026-04-05T08:39:03.83Z</time></trkpt><trkpt lat="42.2357967" lon="14.5384383"><ele>5.0</ele><time>2026-04-05T08:39:05.829Z</time></trkpt><trkpt lat="42.23574" lon="14.538565"><ele>5.0</ele><time>2026-04-05T08:39:07.83Z</time></trkpt><trkpt lat="42.2356883" lon="14.5386917"><ele>5.0</ele><time>2026-04-05T08:39:09.829Z</time></trkpt><trkpt lat="42.235635" lon="14.538815"><ele>5.0</ele><time>2026-04-05T08:39:11.829Z</time></trkpt><trkpt lat="42.2355733" lon="14.5389333"><ele>5.0</ele><time>2026-04-05T08:39:13.829Z</time></trkpt><trkpt lat="42.2355183" lon="14.5390667"><ele>5.0</ele><time>2026-04-05T08:39:15.829Z</time></trkpt><trkpt lat="42.2354617" lon="14.53919"><ele>5.0</ele><time>2026-04-05T08:39:17.829Z</time></trkpt><trkpt lat="42.2354" lon="14.5393133"><ele>5.0</ele><time>2026-04-05T08:39:19.829Z</time></trkpt><trkpt lat="42.2353417" lon="14.5394383"><ele>5.0</ele><time>2026-04-05T08:39:21.829Z</time></trkpt><trkpt lat="42.2352833" lon="14.5395633"><ele>5.0</ele><time>2026-04-05T08:39:23.829Z</time></trkpt><trkpt lat="42.2352233" lon="14.53969"><ele>5.0</ele><time>2026-04-05T08:39:25.829Z</time></trkpt><trkpt lat="42.23517" lon="14.5398217"><ele>5.0</ele><time>2026-04-05T08:39:27.829Z</time></trkpt><trkpt lat="42.2351117" lon="14.5399517"><ele>5.0</ele><time>2026-04-05T08:39:29.829Z</time></trkpt><trkpt lat="42.235055" lon="14.540075"><ele>5.0</ele><time>2026-04-05T08:39:31.829Z</time></trkpt><trkpt lat="42.2349917" lon="14.5402083"><ele>5.0</ele><time>2026-04-05T08:39:33.829Z</time></trkpt><trkpt lat="42.2349317" lon="14.540325"><ele>5.0</ele><time>2026-04-05T08:39:35.83Z</time></trkpt><trkpt lat="42.2348767" lon="14.5404433"><ele>4.8</ele><time>2026-04-05T08:39:37.829Z</time></trkpt><trkpt lat="42.234815" lon="14.5405617"><ele>4.6</ele><time>2026-04-05T08:39:39.829Z</time></trkpt><trkpt lat="42.2347567" lon="14.5406783"><ele>4.4</ele><time>2026-04-05T08:39:41.829Z</time></trkpt><trkpt lat="42.2347033" lon="14.5408033"><ele>4.2</ele><time>2026-04-05T08:39:43.83Z</time></trkpt><trkpt lat="42.234645" lon="14.5409333"><ele>4.0</ele><time>2026-04-05T08:39:45.829Z</time></trkpt><trkpt lat="42.2345933" lon="14.5410583"><ele>4.0</ele><time>2026-04-05T08:39:47.829Z</time></trkpt><trkpt lat="42.2345417" lon="14.541175"><ele>4.0</ele><time>2026-04-05T08:39:49.83Z</time></trkpt><trkpt lat="42.2344933" lon="14.5412883"><ele>4.0</ele><time>2026-04-05T08:39:51.83Z</time></trkpt><trkpt lat="42.2344483" lon="14.541395"><ele>4.0</ele><time>2026-04-05T08:39:53.829Z</time></trkpt><trkpt lat="42.2344033" lon="14.54149"><ele>4.0</ele><time>2026-04-05T08:39:55.829Z</time></trkpt><trkpt lat="42.2343533" lon="14.5416083"><ele>4.0</ele><time>2026-04-05T08:39:57.829Z</time></trkpt><trkpt lat="42.234295" lon="14.5417283"><ele>4.0</ele><time>2026-04-05T08:39:59.829Z</time></trkpt><trkpt lat="42.23424" lon="14.5418567"><ele>4.0</ele><time>2026-04-05T08:40:01.83Z</time></trkpt><trkpt lat="42.2341883" lon="14.541985"><ele>4.0</ele><time>2026-04-05T08:40:03.83Z</time></trkpt><trkpt lat="42.234135" lon="14.54212"><ele>4.0</ele><time>2026-04-05T08:40:05.829Z</time></trkpt><trkpt lat="42.23407" lon="14.542255"><ele>3.75</ele><time>2026-04-05T08:40:07.829Z</time></trkpt><trkpt lat="42.234005" lon="14.542385"><ele>3.5</ele><time>2026-04-05T08:40:09.83Z</time></trkpt><trkpt lat="42.2339467" lon="14.5425167"><ele>3.25</ele><time>2026-04-05T08:40:11.83Z</time></trkpt><trkpt lat="42.2338833" lon="14.542655"><ele>3.0</ele><time>2026-04-05T08:40:13.829Z</time></trkpt><trkpt lat="42.2338183" lon="14.5427883"><ele>4.6</ele><time>2026-04-05T08:40:15.829Z</time></trkpt><trkpt lat="42.23375" lon="14.5429167"><ele>6.2</ele><time>2026-04-05T08:40:17.829Z</time></trkpt><trkpt lat="42.2336683" lon="14.54303"><ele>7.800000000000001</ele><time>2026-04-05T08:40:19.829Z</time></trkpt><trkpt lat="42.2335867" lon="14.5431267"><ele>9.4</ele><time>2026-04-05T08:40:21.83Z</time></trkpt><trkpt lat="42.2335317" lon="14.5432333"><ele>11.0</ele><time>2026-04-05T08:40:23.829Z</time></trkpt><trkpt lat="42.2335" lon="14.543355"><ele>11.0</ele><time>2026-04-05T08:40:25.829Z</time></trkpt><trkpt lat="42.233455" lon="14.5434983"><ele>11.0</ele><time>2026-04-05T08:40:27.829Z</time></trkpt><trkpt lat="42.23339" lon="14.5436317"><ele>11.0</ele><time>2026-04-05T08:40:29.829Z</time></trkpt><trkpt lat="42.233325" lon="14.5437517"><ele>11.0</ele><time>2026-04-05T08:40:31.829Z</time></trkpt><trkpt lat="42.2332583" lon="14.5438717"><ele>11.75</ele><time>2026-04-05T08:40:33.829Z</time></trkpt><trkpt lat="42.2331917" lon="14.544015"><ele>12.5</ele><time>2026-04-05T08:40:35.83Z</time></trkpt><trkpt lat="42.2331267" lon="14.5441517"><ele>13.25</ele><time>2026-04-05T08:40:37.829Z</time></trkpt><trkpt lat="42.23307" lon="14.5442867"><ele>14.0</ele><time>2026-04-05T08:40:39.829Z</time></trkpt><trkpt lat="42.2330083" lon="14.5444233"><ele>11.75</ele><time>2026-04-05T08:40:41.83Z</time></trkpt><trkpt lat="42.2329467" lon="14.5445517"><ele>9.5</ele><time>2026-04-05T08:40:43.83Z</time></trkpt><trkpt lat="42.2328733" lon="14.5446767"><ele>7.25</ele><time>2026-04-05T08:40:45.829Z</time></trkpt><trkpt lat="42.2328083" lon="14.5448083"><ele>5.0</ele><time>2026-04-05T08:40:47.83Z</time></trkpt><trkpt lat="42.23274" lon="14.54494"><ele>5.0</ele><time>2026-04-05T08:40:49.829Z</time></trkpt><trkpt lat="42.2326767" lon="14.54508"><ele>5.0</ele><time>2026-04-05T08:40:51.829Z</time></trkpt><trkpt lat="42.232605" lon="14.5452033"><ele>5.0</ele><time>2026-04-05T08:40:53.829Z</time></trkpt><trkpt lat="42.2325367" lon="14.545335"><ele>5.0</ele><time>2026-04-05T08:40:55.829Z</time></trkpt><trkpt lat="42.2324633" lon="14.545465"><ele>4.25</ele><time>2026-04-05T08:40:57.829Z</time></trkpt><trkpt lat="42.232385" lon="14.5455883"><ele>3.5</ele><time>2026-04-05T08:40:59.83Z</time></trkpt><trkpt lat="42.232315" lon="14.54571"><ele>2.75</ele><time>2026-04-05T08:41:01.829Z</time></trkpt><trkpt lat="42.2322417" lon="14.54584"><ele>2.0</ele><time>2026-04-05T08:41:03.829Z</time></trkpt><trkpt lat="42.2321667" lon="14.5459633"><ele>2.0</ele><time>2026-04-05T08:41:05.83Z</time></trkpt><trkpt lat="42.2320933" lon="14.546085"><ele>2.0</ele><time>2026-04-05T08:41:07.829Z</time></trkpt><trkpt lat="42.23202" lon="14.5462033"><ele>2.0</ele><time>2026-04-05T08:41:09.829Z</time></trkpt><trkpt lat="42.2319433" lon="14.54632"><ele>2.0</ele><time>2026-04-05T08:41:11.829Z</time></trkpt><trkpt lat="42.2318633" lon="14.5464333"><ele>1.9999999999999998</ele><time>2026-04-05T08:41:13.829Z</time></trkpt><trkpt lat="42.231825" lon="14.546505"><ele>2.0</ele><time>2026-04-05T08:41:14.829Z</time></trkpt><trkpt lat="42.2317867" lon="14.5465783"><ele>2.0</ele><time>2026-04-05T08:41:15.829Z</time></trkpt><trkpt lat="42.2317467" lon="14.5466483"><ele>2.0</ele><time>2026-04-05T08:41:16.829Z</time></trkpt><trkpt lat="42.2317117" lon="14.5467233"><ele>1.9999999999999998</ele><time>2026-04-05T08:41:17.83Z</time></trkpt><trkpt lat="42.23168" lon="14.5468"><ele>2.0</ele><time>2026-04-05T08:41:18.829Z</time></trkpt><trkpt lat="42.2316117" lon="14.54694"><ele>2.0</ele><time>2026-04-05T08:41:20.83Z</time></trkpt><trkpt lat="42.2315817" lon="14.5470167"><ele>2.0</ele><time>2026-04-05T08:41:21.83Z</time></trkpt><trkpt lat="42.2315033" lon="14.5471533"><ele>2.0</ele><time>2026-04-05T08:41:23.829Z</time></trkpt><trkpt lat="42.2314317" lon="14.547285"><ele>2.0</ele><time>2026-04-05T08:41:25.829Z</time></trkpt><trkpt lat="42.231395" lon="14.547355"><ele>2.0</ele><time>2026-04-05T08:41:26.829Z</time></trkpt><trkpt lat="42.23132" lon="14.5474783"><ele>2.2</ele><time>2026-04-05T08:41:28.829Z</time></trkpt><trkpt lat="42.2312483" lon="14.547605"><ele>2.4000000000000004</ele><time>2026-04-05T08:41:30.829Z</time></trkpt><trkpt lat="42.23117" lon="14.5477233"><ele>2.5999999999999996</ele><time>2026-04-05T08:41:32.829Z</time></trkpt><trkpt lat="42.2311333" lon="14.547795"><ele>2.8</ele><time>2026-04-05T08:41:33.829Z</time></trkpt><trkpt lat="42.2310567" lon="14.5479183"><ele>3.0</ele><time>2026-04-05T08:41:35.829Z</time></trkpt><trkpt lat="42.2309833" lon="14.5480433"><ele>3.0</ele><time>2026-04-05T08:41:37.829Z</time></trkpt><trkpt lat="42.2309133" lon="14.548175"><ele>3.0</ele><time>2026-04-05T08:41:39.829Z</time></trkpt><trkpt lat="42.2308733" lon="14.5482433"><ele>3.0</ele><time>2026-04-05T08:41:40.83Z</time></trkpt><trkpt lat="42.2307967" lon="14.5483667"><ele>3.0</ele><time>2026-04-05T08:41:42.829Z</time></trkpt><trkpt lat="42.23072" lon="14.5484933"><ele>3.0</ele><time>2026-04-05T08:41:44.829Z</time></trkpt><trkpt lat="42.2306433" lon="14.5486183"><ele>3.25</ele><time>2026-04-05T08:41:46.829Z</time></trkpt><trkpt lat="42.2305733" lon="14.5487417"><ele>3.5</ele><time>2026-04-05T08:41:48.83Z</time></trkpt><trkpt lat="42.2305033" lon="14.5488683"><ele>3.75</ele><time>2026-04-05T08:41:50.829Z</time></trkpt><trkpt lat="42.23043" lon="14.5489967"><ele>4.0</ele><time>2026-04-05T08:41:52.829Z</time></trkpt><trkpt lat="42.2303533" lon="14.549125"><ele>4.0</ele><time>2026-04-05T08:41:54.83Z</time></trkpt><trkpt lat="42.2302817" lon="14.5492533"><ele>4.0</ele><time>2026-04-05T08:41:56.829Z</time></trkpt><trkpt lat="42.2302117" lon="14.5493867"><ele>4.0</ele><time>2026-04-05T08:41:58.829Z</time></trkpt><trkpt lat="42.2301383" lon="14.549515"><ele>4.0</ele><time>2026-04-05T08:42:00.83Z</time></trkpt><trkpt lat="42.2300617" lon="14.549645"><ele>3.2</ele><time>2026-04-05T08:42:02.83Z</time></trkpt><trkpt lat="42.2299833" lon="14.5497683"><ele>2.4000000000000004</ele><time>2026-04-05T08:42:04.829Z</time></trkpt><trkpt lat="42.2299417" lon="14.549835"><ele>1.6</ele><time>2026-04-05T08:42:05.829Z</time></trkpt><trkpt lat="42.22987" lon="14.5499667"><ele>0.8</ele><time>2026-04-05T08:42:07.829Z</time></trkpt><trkpt lat="42.2297933" lon="14.5500967"><ele>0.0</ele><time>2026-04-05T08:42:09.829Z</time></trkpt><trkpt lat="42.2297217" lon="14.550225"><ele>1.25</ele><time>2026-04-05T08:42:11.829Z</time></trkpt><trkpt lat="42.229655" lon="14.5503517"><ele>2.5</ele><time>2026-04-05T08:42:13.829Z</time></trkpt><trkpt lat="42.22959" lon="14.5504883"><ele>3.75</ele><time>2026-04-05T08:42:15.829Z</time></trkpt><trkpt lat="42.2295367" lon="14.55064"><ele>5.0</ele><time>2026-04-05T08:42:17.83Z</time></trkpt><trkpt lat="42.2294767" lon="14.55078"><ele>5.0</ele><time>2026-04-05T08:42:19.829Z</time></trkpt><trkpt lat="42.2294433" lon="14.550855"><ele>5.0</ele><time>2026-04-05T08:42:20.83Z</time></trkpt><trkpt lat="42.229405" lon="14.550925"><ele>5.0</ele><time>2026-04-05T08:42:21.829Z</time></trkpt><trkpt lat="42.2293333" lon="14.5510617"><ele>5.0</ele><time>2026-04-05T08:42:23.829Z</time></trkpt><trkpt lat="42.2292567" lon="14.5511917"><ele>5.0</ele><time>2026-04-05T08:42:25.829Z</time></trkpt><trkpt lat="42.2291783" lon="14.5513183"><ele>3.75</ele><time>2026-04-05T08:42:27.829Z</time></trkpt><trkpt lat="42.2291033" lon="14.5514467"><ele>2.5</ele><time>2026-04-05T08:42:29.83Z</time></trkpt><trkpt lat="42.229025" lon="14.55156"><ele>1.25</ele><time>2026-04-05T08:42:31.829Z</time></trkpt><trkpt lat="42.2289517" lon="14.551675"><ele>0.0</ele><time>2026-04-05T08:42:33.829Z</time></trkpt><trkpt lat="42.228875" lon="14.5517983"><ele>0.6</ele><time>2026-04-05T08:42:35.829Z</time></trkpt><trkpt lat="42.2288033" lon="14.55193"><ele>1.2</ele><time>2026-04-05T08:42:37.829Z</time></trkpt><trkpt lat="42.22873" lon="14.552055"><ele>1.7999999999999998</ele><time>2026-04-05T08:42:39.829Z</time></trkpt><trkpt lat="42.2286517" lon="14.5521883"><ele>2.4</ele><time>2026-04-05T08:42:41.829Z</time></trkpt><trkpt lat="42.2286133" lon="14.5522567"><ele>3.0</ele><time>2026-04-05T08:42:42.83Z</time></trkpt><trkpt lat="42.228575" lon="14.5523267"><ele>3.0</ele><time>2026-04-05T08:42:43.829Z</time></trkpt><trkpt lat="42.2285367" lon="14.552395"><ele>3.0</ele><time>2026-04-05T08:42:44.829Z</time></trkpt><trkpt lat="42.2284683" lon="14.5525267"><ele>3.0</ele><time>2026-04-05T08:42:46.83Z</time></trkpt><trkpt lat="42.228395" lon="14.552645"><ele>3.0</ele><time>2026-04-05T08:42:48.829Z</time></trkpt><trkpt lat="42.2283117" lon="14.5527583"><ele>3.0</ele><time>2026-04-05T08:42:50.829Z</time></trkpt><trkpt lat="42.2282417" lon="14.5528883"><ele>3.0</ele><time>2026-04-05T08:42:52.829Z</time></trkpt><trkpt lat="42.2281733" lon="14.5530283"><ele>3.0</ele><time>2026-04-05T08:42:54.829Z</time></trkpt><trkpt lat="42.2280983" lon="14.5531633"><ele>3.0</ele><time>2026-04-05T08:42:56.83Z</time></trkpt><trkpt lat="42.2280283" lon="14.5532917"><ele>3.0</ele><time>2026-04-05T08:42:58.829Z</time></trkpt><trkpt lat="42.22796" lon="14.5534183"><ele>3.5</ele><time>2026-04-05T08:43:00.829Z</time></trkpt><trkpt lat="42.227885" lon="14.55354"><ele>4.0</ele><time>2026-04-05T08:43:02.829Z</time></trkpt><trkpt lat="42.2277983" lon="14.5536533"><ele>4.5</ele><time>2026-04-05T08:43:04.829Z</time></trkpt><trkpt lat="42.2277233" lon="14.553775"><ele>5.0</ele><time>2026-04-05T08:43:06.83Z</time></trkpt><trkpt lat="42.2276383" lon="14.553885"><ele>5.0</ele><time>2026-04-05T08:43:08.829Z</time></trkpt><trkpt lat="42.2275667" lon="14.554"><ele>5.0</ele><time>2026-04-05T08:43:10.83Z</time></trkpt><trkpt lat="42.22749" lon="14.554115"><ele>5.0</ele><time>2026-04-05T08:43:12.829Z</time></trkpt><trkpt lat="42.2274067" lon="14.55423"><ele>5.0</ele><time>2026-04-05T08:43:14.829Z</time></trkpt><trkpt lat="42.2273267" lon="14.5543417"><ele>7.0</ele><time>2026-04-05T08:43:16.829Z</time></trkpt><trkpt lat="42.2272483" lon="14.554455"><ele>9.0</ele><time>2026-04-05T08:43:18.829Z</time></trkpt><trkpt lat="42.2271667" lon="14.55457"><ele>11.0</ele><time>2026-04-05T08:43:20.829Z</time></trkpt><trkpt lat="42.2270917" lon="14.5546933"><ele>13.0</ele><time>2026-04-05T08:43:22.829Z</time></trkpt><trkpt lat="42.227025" lon="14.5548317"><ele>13.0</ele><time>2026-04-05T08:43:24.829Z</time></trkpt><trkpt lat="42.226955" lon="14.5549533"><ele>13.0</ele><time>2026-04-05T08:43:26.829Z</time></trkpt><trkpt lat="42.2268917" lon="14.5550867"><ele>13.0</ele><time>2026-04-05T08:43:28.83Z</time></trkpt><trkpt lat="42.2268333" lon="14.55522"><ele>13.0</ele><time>2026-04-05T08:43:30.829Z</time></trkpt><trkpt lat="42.2267617" lon="14.5553567"><ele>11.6</ele><time>2026-04-05T08:43:32.829Z</time></trkpt><trkpt lat="42.2266883" lon="14.555455"><ele>10.200000000000001</ele><time>2026-04-05T08:43:34.829Z</time></trkpt><trkpt lat="42.2266117" lon="14.5555483"><ele>8.8</ele><time>2026-04-05T08:43:36.829Z</time></trkpt><trkpt lat="42.22654" lon="14.5556567"><ele>7.4</ele><time>2026-04-05T08:43:38.829Z</time></trkpt><trkpt lat="42.2264667" lon="14.55577"><ele>6.0</ele><time>2026-04-05T08:43:40.83Z</time></trkpt><trkpt lat="42.2264417" lon="14.5558483"><ele>8.0</ele><time>2026-04-05T08:43:41.829Z</time></trkpt><trkpt lat="42.2263867" lon="14.55599"><ele>10.0</ele><time>2026-04-05T08:43:43.829Z</time></trkpt><trkpt lat="42.22633" lon="14.5561367"><ele>12.000000000000002</ele><time>2026-04-05T08:43:45.829Z</time></trkpt><trkpt lat="42.226275" lon="14.5562883"><ele>14.0</ele><time>2026-04-05T08:43:47.829Z</time></trkpt><trkpt lat="42.226245" lon="14.556365"><ele>16.0</ele><time>2026-04-05T08:43:48.829Z</time></trkpt><trkpt lat="42.22619" lon="14.5565117"><ele>16.0</ele><time>2026-04-05T08:43:50.829Z</time></trkpt><trkpt lat="42.2261617" lon="14.5565883"><ele>16.0</ele><time>2026-04-05T08:43:51.829Z</time></trkpt><trkpt lat="42.2261033" lon="14.55673"><ele>16.0</ele><time>2026-04-05T08:43:53.829Z</time></trkpt><trkpt lat="42.226055" lon="14.5568733"><ele>16.0</ele><time>2026-04-05T08:43:55.829Z</time></trkpt><trkpt lat="42.226005" lon="14.5570167"><ele>16.0</ele><time>2026-04-05T08:43:57.829Z</time></trkpt><trkpt lat="42.2259483" lon="14.5571567"><ele>14.25</ele><time>2026-04-05T08:43:59.829Z</time></trkpt><trkpt lat="42.2258967" lon="14.557305"><ele>12.5</ele><time>2026-04-05T08:44:01.83Z</time></trkpt><trkpt lat="42.2258417" lon="14.5574417"><ele>10.75</ele><time>2026-04-05T08:44:03.829Z</time></trkpt><trkpt lat="42.2257867" lon="14.557575"><ele>9.0</ele><time>2026-04-05T08:44:05.829Z</time></trkpt><trkpt lat="42.2257317" lon="14.5577117"><ele>9.0</ele><time>2026-04-05T08:44:07.829Z</time></trkpt><trkpt lat="42.2256833" lon="14.557845"><ele>9.0</ele><time>2026-04-05T08:44:09.829Z</time></trkpt><trkpt lat="42.2256367" lon="14.557985"><ele>9.0</ele><time>2026-04-05T08:44:11.83Z</time></trkpt><trkpt lat="42.225585" lon="14.5581217"><ele>9.0</ele><time>2026-04-05T08:44:13.829Z</time></trkpt><trkpt lat="42.2255317" lon="14.5582567"><ele>9.0</ele><time>2026-04-05T08:44:15.829Z</time></trkpt><trkpt lat="42.22548" lon="14.5584"><ele>9.0</ele><time>2026-04-05T08:44:17.829Z</time></trkpt><trkpt lat="42.2254217" lon="14.5585417"><ele>9.0</ele><time>2026-04-05T08:44:19.83Z</time></trkpt><trkpt lat="42.2253667" lon="14.5586833"><ele>9.0</ele><time>2026-04-05T08:44:21.83Z</time></trkpt><trkpt lat="42.2253183" lon="14.5588183"><ele>9.0</ele><time>2026-04-05T08:44:23.83Z</time></trkpt><trkpt lat="42.2252717" lon="14.5589467"><ele>9.0</ele><time>2026-04-05T08:44:25.83Z</time></trkpt><trkpt lat="42.225225" lon="14.5590983"><ele>9.0</ele><time>2026-04-05T08:44:27.83Z</time></trkpt><trkpt lat="42.225175" lon="14.55925"><ele>9.0</ele><time>2026-04-05T08:44:29.829Z</time></trkpt><trkpt lat="42.225125" lon="14.5593967"><ele>8.0</ele><time>2026-04-05T08:44:31.83Z</time></trkpt><trkpt lat="42.225075" lon="14.5595483"><ele>7.0</ele><time>2026-04-05T08:44:33.83Z</time></trkpt><trkpt lat="42.225025" lon="14.5596917"><ele>6.0</ele><time>2026-04-05T08:44:35.829Z</time></trkpt><trkpt lat="42.2249717" lon="14.5598317"><ele>5.0</ele><time>2026-04-05T08:44:37.83Z</time></trkpt><trkpt lat="42.2249167" lon="14.5599733"><ele>5.0</ele><time>2026-04-05T08:44:39.829Z</time></trkpt><trkpt lat="42.2248667" lon="14.560115"><ele>5.0</ele><time>2026-04-05T08:44:41.829Z</time></trkpt><trkpt lat="42.22482" lon="14.5602567"><ele>5.0</ele><time>2026-04-05T08:44:43.83Z</time></trkpt><trkpt lat="42.2247733" lon="14.5603967"><ele>5.0</ele><time>2026-04-05T08:44:45.829Z</time></trkpt><trkpt lat="42.2247167" lon="14.5605217"><ele>6.666666666666667</ele><time>2026-04-05T08:44:47.829Z</time></trkpt><trkpt lat="42.2246633" lon="14.5606283"><ele>8.333333333333334</ele><time>2026-04-05T08:44:49.829Z</time></trkpt><trkpt lat="42.224605" lon="14.560715"><ele>10.0</ele><time>2026-04-05T08:44:51.829Z</time></trkpt><trkpt lat="42.2245267" lon="14.5607567"><ele>11.666666666666666</ele><time>2026-04-05T08:44:53.829Z</time></trkpt><trkpt lat="42.2244633" lon="14.56078"><ele>13.333333333333334</ele><time>2026-04-05T08:44:55.83Z</time></trkpt><trkpt lat="42.2243917" lon="14.5608233"><ele>15.0</ele><time>2026-04-05T08:44:58.829Z</time></trkpt><trkpt lat="42.224315" lon="14.5608833"><ele>15.0</ele><time>2026-04-05T08:45:01.829Z</time></trkpt><trkpt lat="42.2242583" lon="14.5609483"><ele>15.0</ele><time>2026-04-05T08:45:03.83Z</time></trkpt><trkpt lat="42.2242183" lon="14.5610433"><ele>15.0</ele><time>2026-04-05T08:45:05.829Z</time></trkpt><trkpt lat="42.22418" lon="14.5611483"><ele>15.0</ele><time>2026-04-05T08:45:07.829Z</time></trkpt><trkpt lat="42.2241533" lon="14.5612667"><ele>15.0</ele><time>2026-04-05T08:45:09.829Z</time></trkpt><trkpt lat="42.22412" lon="14.5613933"><ele>15.0</ele><time>2026-04-05T08:45:11.829Z</time></trkpt><trkpt lat="42.2240533" lon="14.5615167"><ele>15.4</ele><time>2026-04-05T08:45:13.829Z</time></trkpt><trkpt lat="42.2240083" lon="14.5615767"><ele>15.8</ele><time>2026-04-05T08:45:14.829Z</time></trkpt><trkpt lat="42.2239283" lon="14.561695"><ele>16.2</ele><time>2026-04-05T08:45:16.829Z</time></trkpt><trkpt lat="42.2238617" lon="14.561815"><ele>16.6</ele><time>2026-04-05T08:45:18.829Z</time></trkpt><trkpt lat="42.2238183" lon="14.5619417"><ele>17.0</ele><time>2026-04-05T08:45:20.829Z</time></trkpt><trkpt lat="42.2237633" lon="14.562065"><ele>17.0</ele><time>2026-04-05T08:45:22.83Z</time></trkpt><trkpt lat="42.2237233" lon="14.5621333"><ele>17.0</ele><time>2026-04-05T08:45:23.829Z</time></trkpt><trkpt lat="42.2236567" lon="14.562255"><ele>17.0</ele><time>2026-04-05T08:45:25.829Z</time></trkpt><trkpt lat="42.2235983" lon="14.56238"><ele>17.0</ele><time>2026-04-05T08:45:27.829Z</time></trkpt><trkpt lat="42.2235383" lon="14.5625083"><ele>17.0</ele><time>2026-04-05T08:45:29.829Z</time></trkpt><trkpt lat="42.223475" lon="14.5626367"><ele>17.0</ele><time>2026-04-05T08:45:31.83Z</time></trkpt><trkpt lat="42.2234133" lon="14.5627683"><ele>17.0</ele><time>2026-04-05T08:45:33.829Z</time></trkpt><trkpt lat="42.2233467" lon="14.5628983"><ele>17.0</ele><time>2026-04-05T08:45:35.829Z</time></trkpt><trkpt lat="42.2232867" lon="14.5630367"><ele>17.0</ele><time>2026-04-05T08:45:37.83Z</time></trkpt><trkpt lat="42.22323" lon="14.5631717"><ele>15.0</ele><time>2026-04-05T08:45:39.829Z</time></trkpt><trkpt lat="42.22317" lon="14.5633"><ele>13.0</ele><time>2026-04-05T08:45:41.829Z</time></trkpt><trkpt lat="42.2231083" lon="14.563425"><ele>11.0</ele><time>2026-04-05T08:45:43.829Z</time></trkpt><trkpt lat="42.22304" lon="14.5635517"><ele>9.0</ele><time>2026-04-05T08:45:45.83Z</time></trkpt><trkpt lat="42.2229733" lon="14.56368"><ele>10.8</ele><time>2026-04-05T08:45:47.829Z</time></trkpt><trkpt lat="42.22291" lon="14.5637933"><ele>12.600000000000001</ele><time>2026-04-05T08:45:49.829Z</time></trkpt><trkpt lat="42.222855" lon="14.56392"><ele>14.4</ele><time>2026-04-05T08:45:51.829Z</time></trkpt><trkpt lat="42.2228017" lon="14.56406"><ele>16.2</ele><time>2026-04-05T08:45:53.829Z</time></trkpt><trkpt lat="42.2227517" lon="14.5642017"><ele>18.0</ele><time>2026-04-05T08:45:55.829Z</time></trkpt><trkpt lat="42.2226983" lon="14.5643283"><ele>18.0</ele><time>2026-04-05T08:45:57.829Z</time></trkpt><trkpt lat="42.2226317" lon="14.56445"><ele>18.0</ele><time>2026-04-05T08:45:59.829Z</time></trkpt><trkpt lat="42.22257" lon="14.5645867"><ele>18.0</ele><time>2026-04-05T08:46:01.829Z</time></trkpt><trkpt lat="42.2225383" lon="14.5646617"><ele>18.0</ele><time>2026-04-05T08:46:02.829Z</time></trkpt><trkpt lat="42.2224833" lon="14.5648"><ele>18.0</ele><time>2026-04-05T08:46:04.829Z</time></trkpt><trkpt lat="42.22243" lon="14.5649367"><ele>17.0</ele><time>2026-04-05T08:46:06.829Z</time></trkpt><trkpt lat="42.22238" lon="14.5650867"><ele>16.0</ele><time>2026-04-05T08:46:08.83Z</time></trkpt><trkpt lat="42.2223267" lon="14.5652267"><ele>15.0</ele><time>2026-04-05T08:46:10.829Z</time></trkpt><trkpt lat="42.222265" lon="14.5653667"><ele>14.0</ele><time>2026-04-05T08:46:12.829Z</time></trkpt><trkpt lat="42.222205" lon="14.5655033"><ele>15.6</ele><time>2026-04-05T08:46:14.829Z</time></trkpt><trkpt lat="42.2221467" lon="14.5656417"><ele>17.2</ele><time>2026-04-05T08:46:16.829Z</time></trkpt><trkpt lat="42.22211" lon="14.5657133"><ele>18.8</ele><time>2026-04-05T08:46:17.829Z</time></trkpt><trkpt lat="42.2220517" lon="14.5658483"><ele>20.400000000000002</ele><time>2026-04-05T08:46:19.829Z</time></trkpt><trkpt lat="42.221995" lon="14.5659783"><ele>22.0</ele><time>2026-04-05T08:46:21.829Z</time></trkpt><trkpt lat="42.2219333" lon="14.5661133"><ele>18.5</ele><time>2026-04-05T08:46:23.829Z</time></trkpt><trkpt lat="42.221875" lon="14.5662533"><ele>15.0</ele><time>2026-04-05T08:46:25.829Z</time></trkpt><trkpt lat="42.2218167" lon="14.5664017"><ele>11.5</ele><time>2026-04-05T08:46:27.829Z</time></trkpt><trkpt lat="42.2217517" lon="14.5665317"><ele>8.0</ele><time>2026-04-05T08:46:29.829Z</time></trkpt><trkpt lat="42.22169" lon="14.56666"><ele>8.0</ele><time>2026-04-05T08:46:31.829Z</time></trkpt><trkpt lat="42.2216267" lon="14.5667933"><ele>8.0</ele><time>2026-04-05T08:46:33.829Z</time></trkpt><trkpt lat="42.2215683" lon="14.5669267"><ele>8.0</ele><time>2026-04-05T08:46:35.83Z</time></trkpt><trkpt lat="42.22151" lon="14.5670583"><ele>8.0</ele><time>2026-04-05T08:46:37.829Z</time></trkpt><trkpt lat="42.2214517" lon="14.5672"><ele>10.0</ele><time>2026-04-05T08:46:39.829Z</time></trkpt><trkpt lat="42.2213933" lon="14.5673383"><ele>12.0</ele><time>2026-04-05T08:46:41.83Z</time></trkpt><trkpt lat="42.221335" lon="14.56747"><ele>14.0</ele><time>2026-04-05T08:46:43.829Z</time></trkpt><trkpt lat="42.2212733" lon="14.5676033"><ele>16.0</ele><time>2026-04-05T08:46:45.829Z</time></trkpt><trkpt lat="42.22122" lon="14.5677283"><ele>16.0</ele><time>2026-04-05T08:46:47.83Z</time></trkpt><trkpt lat="42.2211567" lon="14.5678583"><ele>16.0</ele><time>2026-04-05T08:46:49.829Z</time></trkpt><trkpt lat="42.2210967" lon="14.5679867"><ele>16.0</ele><time>2026-04-05T08:46:51.829Z</time></trkpt><trkpt lat="42.2210367" lon="14.56812"><ele>16.0</ele><time>2026-04-05T08:46:53.829Z</time></trkpt><trkpt lat="42.2209817" lon="14.5682467"><ele>15.4</ele><time>2026-04-05T08:46:55.829Z</time></trkpt><trkpt lat="42.220935" lon="14.568375"><ele>14.8</ele><time>2026-04-05T08:46:57.829Z</time></trkpt><trkpt lat="42.22088" lon="14.5684967"><ele>14.200000000000001</ele><time>2026-04-05T08:46:59.83Z</time></trkpt><trkpt lat="42.220825" lon="14.5686117"><ele>13.600000000000001</ele><time>2026-04-05T08:47:01.829Z</time></trkpt><trkpt lat="42.2207733" lon="14.5687367"><ele>13.0</ele><time>2026-04-05T08:47:03.829Z</time></trkpt><trkpt lat="42.22072" lon="14.5688617"><ele>12.4</ele><time>2026-04-05T08:47:05.829Z</time></trkpt><trkpt lat="42.2206667" lon="14.5689833"><ele>11.8</ele><time>2026-04-05T08:47:07.829Z</time></trkpt><trkpt lat="42.2206133" lon="14.5691083"><ele>11.2</ele><time>2026-04-05T08:47:09.829Z</time></trkpt><trkpt lat="42.2205583" lon="14.56923"><ele>10.6</ele><time>2026-04-05T08:47:11.829Z</time></trkpt><trkpt lat="42.220505" lon="14.5693417"><ele>10.0</ele><time>2026-04-05T08:47:13.829Z</time></trkpt><trkpt lat="42.2204533" lon="14.569455"><ele>11.6</ele><time>2026-04-05T08:47:15.829Z</time></trkpt><trkpt lat="42.2204" lon="14.5695733"><ele>13.2</ele><time>2026-04-05T08:47:17.829Z</time></trkpt><trkpt lat="42.2203417" lon="14.5696967"><ele>14.8</ele><time>2026-04-05T08:47:19.829Z</time></trkpt><trkpt lat="42.22029" lon="14.5698117"><ele>16.4</ele><time>2026-04-05T08:47:21.829Z</time></trkpt><trkpt lat="42.22023" lon="14.5699167"><ele>18.0</ele><time>2026-04-05T08:47:23.829Z</time></trkpt><trkpt lat="42.2201683" lon="14.570015"><ele>18.0</ele><time>2026-04-05T08:47:25.829Z</time></trkpt><trkpt lat="42.220095" lon="14.5701133"><ele>18.0</ele><time>2026-04-05T08:47:27.829Z</time></trkpt><trkpt lat="42.2200267" lon="14.570215"><ele>18.0</ele><time>2026-04-05T08:47:29.829Z</time></trkpt><trkpt lat="42.219965" lon="14.5703"><ele>18.0</ele><time>2026-04-05T08:47:31.83Z</time></trkpt><trkpt lat="42.2199" lon="14.5703833"><ele>18.0</ele><time>2026-04-05T08:47:33.829Z</time></trkpt><trkpt lat="42.2198383" lon="14.5704567"><ele>18.8</ele><time>2026-04-05T08:47:35.829Z</time></trkpt><trkpt lat="42.2197667" lon="14.5705533"><ele>19.6</ele><time>2026-04-05T08:47:37.83Z</time></trkpt><trkpt lat="42.219705" lon="14.5706433"><ele>20.400000000000002</ele><time>2026-04-05T08:47:39.829Z</time></trkpt><trkpt lat="42.2196367" lon="14.57072"><ele>21.200000000000003</ele><time>2026-04-05T08:47:41.829Z</time></trkpt><trkpt lat="42.21956" lon="14.57082"><ele>22.0</ele><time>2026-04-05T08:47:43.83Z</time></trkpt><trkpt lat="42.2194883" lon="14.5709217"><ele>22.0</ele><time>2026-04-05T08:47:45.83Z</time></trkpt><trkpt lat="42.2194233" lon="14.5710267"><ele>22.0</ele><time>2026-04-05T08:47:47.83Z</time></trkpt><trkpt lat="42.2193533" lon="14.571135"><ele>22.0</ele><time>2026-04-05T08:47:49.829Z</time></trkpt><trkpt lat="42.2192833" lon="14.5712367"><ele>22.0</ele><time>2026-04-05T08:47:51.829Z</time></trkpt><trkpt lat="42.2192167" lon="14.5713483"><ele>22.0</ele><time>2026-04-05T08:47:53.829Z</time></trkpt><trkpt lat="42.219145" lon="14.5714567"><ele>21.0</ele><time>2026-04-05T08:47:55.829Z</time></trkpt><trkpt lat="42.2190717" lon="14.5715717"><ele>20.0</ele><time>2026-04-05T08:47:57.83Z</time></trkpt><trkpt lat="42.2190033" lon="14.57168"><ele>19.0</ele><time>2026-04-05T08:47:59.829Z</time></trkpt><trkpt lat="42.2189283" lon="14.5717867"><ele>18.0</ele><time>2026-04-05T08:48:01.829Z</time></trkpt><trkpt lat="42.2188667" lon="14.5718967"><ele>17.0</ele><time>2026-04-05T08:48:03.829Z</time></trkpt><trkpt lat="42.2188017" lon="14.5720083"><ele>17.6</ele><time>2026-04-05T08:48:05.83Z</time></trkpt><trkpt lat="42.2187417" lon="14.57213"><ele>18.2</ele><time>2026-04-05T08:48:07.829Z</time></trkpt><trkpt lat="42.2186833" lon="14.5722567"><ele>18.8</ele><time>2026-04-05T08:48:09.829Z</time></trkpt><trkpt lat="42.2186367" lon="14.5723867"><ele>19.4</ele><time>2026-04-05T08:48:11.829Z</time></trkpt><trkpt lat="42.2185867" lon="14.5725067"><ele>20.0</ele><time>2026-04-05T08:48:13.829Z</time></trkpt><trkpt lat="42.21854" lon="14.5726317"><ele>20.0</ele><time>2026-04-05T08:48:15.829Z</time></trkpt><trkpt lat="42.2184917" lon="14.5727517"><ele>20.0</ele><time>2026-04-05T08:48:17.829Z</time></trkpt><trkpt lat="42.218445" lon="14.5728833"><ele>20.0</ele><time>2026-04-05T08:48:19.829Z</time></trkpt><trkpt lat="42.218395" lon="14.5730133"><ele>20.0</ele><time>2026-04-05T08:48:21.83Z</time></trkpt><trkpt lat="42.218345" lon="14.5731333"><ele>20.0</ele><time>2026-04-05T08:48:23.829Z</time></trkpt><trkpt lat="42.2182917" lon="14.5732567"><ele>19.8</ele><time>2026-04-05T08:48:25.829Z</time></trkpt><trkpt lat="42.2182433" lon="14.573375"><ele>19.6</ele><time>2026-04-05T08:48:27.829Z</time></trkpt><trkpt lat="42.2181967" lon="14.5735033"><ele>19.4</ele><time>2026-04-05T08:48:29.829Z</time></trkpt><trkpt lat="42.218145" lon="14.573625"><ele>19.2</ele><time>2026-04-05T08:48:31.829Z</time></trkpt><trkpt lat="42.21809" lon="14.57376"><ele>19.0</ele><time>2026-04-05T08:48:33.829Z</time></trkpt><trkpt lat="42.218025" lon="14.573875"><ele>20.6</ele><time>2026-04-05T08:48:35.829Z</time></trkpt><trkpt lat="42.21797" lon="14.5739967"><ele>22.2</ele><time>2026-04-05T08:48:37.829Z</time></trkpt><trkpt lat="42.2179117" lon="14.5741167"><ele>23.800000000000004</ele><time>2026-04-05T08:48:39.829Z</time></trkpt><trkpt lat="42.2178467" lon="14.5742317"><ele>25.400000000000002</ele><time>2026-04-05T08:48:41.83Z</time></trkpt><trkpt lat="42.217775" lon="14.5743433"><ele>27.0</ele><time>2026-04-05T08:48:43.83Z</time></trkpt><trkpt lat="42.2176983" lon="14.5744483"><ele>27.8</ele><time>2026-04-05T08:48:45.829Z</time></trkpt><trkpt lat="42.217625" lon="14.5745483"><ele>28.6</ele><time>2026-04-05T08:48:47.829Z</time></trkpt><trkpt lat="42.2175483" lon="14.57464"><ele>29.400000000000002</ele><time>2026-04-05T08:48:49.829Z</time></trkpt><trkpt lat="42.21747" lon="14.5747233"><ele>30.200000000000003</ele><time>2026-04-05T08:48:51.83Z</time></trkpt><trkpt lat="42.21739" lon="14.5748067"><ele>31.0</ele><time>2026-04-05T08:48:53.83Z</time></trkpt><trkpt lat="42.217315" lon="14.5748817"><ele>31.0</ele><time>2026-04-05T08:48:55.829Z</time></trkpt><trkpt lat="42.21724" lon="14.57497"><ele>31.0</ele><time>2026-04-05T08:48:57.83Z</time></trkpt><trkpt lat="42.21716" lon="14.57506"><ele>31.0</ele><time>2026-04-05T08:48:59.83Z</time></trkpt><trkpt lat="42.2170933" lon="14.5751667"><ele>31.0</ele><time>2026-04-05T08:49:01.83Z</time></trkpt><trkpt lat="42.2170333" lon="14.5752933"><ele>31.0</ele><time>2026-04-05T08:49:03.83Z</time></trkpt><trkpt lat="42.2169867" lon="14.5754167"><ele>30.8</ele><time>2026-04-05T08:49:05.829Z</time></trkpt><trkpt lat="42.2169583" lon="14.575545"><ele>30.6</ele><time>2026-04-05T08:49:07.829Z</time></trkpt><trkpt lat="42.2169317" lon="14.5756733"><ele>30.4</ele><time>2026-04-05T08:49:09.83Z</time></trkpt><trkpt lat="42.2169167" lon="14.5758017"><ele>30.2</ele><time>2026-04-05T08:49:11.829Z</time></trkpt><trkpt lat="42.21691" lon="14.5759467"><ele>30.0</ele><time>2026-04-05T08:49:13.829Z</time></trkpt><trkpt lat="42.2169" lon="14.5761"><ele>30.0</ele><time>2026-04-05T08:49:15.83Z</time></trkpt><trkpt lat="42.2168917" lon="14.57625"><ele>30.0</ele><time>2026-04-05T08:49:17.829Z</time></trkpt><trkpt lat="42.2168917" lon="14.5763967"><ele>30.0</ele><time>2026-04-05T08:49:19.829Z</time></trkpt><trkpt lat="42.2168883" lon="14.5765567"><ele>30.0</ele><time>2026-04-05T08:49:21.829Z</time></trkpt><trkpt lat="42.216875" lon="14.576705"><ele>30.0</ele><time>2026-04-05T08:49:23.829Z</time></trkpt><trkpt lat="42.2168517" lon="14.5768583"><ele>30.0</ele><time>2026-04-05T08:49:25.83Z</time></trkpt><trkpt lat="42.2168083" lon="14.576995"><ele>30.0</ele><time>2026-04-05T08:49:27.83Z</time></trkpt><trkpt lat="42.216765" lon="14.577125"><ele>30.0</ele><time>2026-04-05T08:49:29.829Z</time></trkpt><trkpt lat="42.2167083" lon="14.5772383"><ele>30.0</ele><time>2026-04-05T08:49:31.829Z</time></trkpt><trkpt lat="42.2166483" lon="14.57737"><ele>30.0</ele><time>2026-04-05T08:49:33.829Z</time></trkpt><trkpt lat="42.216615" lon="14.5774433"><ele>30.0</ele><time>2026-04-05T08:49:34.829Z</time></trkpt><trkpt lat="42.216575" lon="14.5775117"><ele>30.0</ele><time>2026-04-05T08:49:35.829Z</time></trkpt><trkpt lat="42.2165083" lon="14.577645"><ele>30.0</ele><time>2026-04-05T08:49:37.829Z</time></trkpt><trkpt lat="42.2164417" lon="14.577775"><ele>30.0</ele><time>2026-04-05T08:49:39.829Z</time></trkpt><trkpt lat="42.21641" lon="14.57785"><ele>30.0</ele><time>2026-04-05T08:49:40.829Z</time></trkpt><trkpt lat="42.2163467" lon="14.5779917"><ele>28.4</ele><time>2026-04-05T08:49:42.829Z</time></trkpt><trkpt lat="42.2162817" lon="14.5781217"><ele>26.8</ele><time>2026-04-05T08:49:44.829Z</time></trkpt><trkpt lat="42.2162067" lon="14.5782433"><ele>25.200000000000003</ele><time>2026-04-05T08:49:46.829Z</time></trkpt><trkpt lat="42.2161367" lon="14.5783733"><ele>23.6</ele><time>2026-04-05T08:49:48.829Z</time></trkpt><trkpt lat="42.2161017" lon="14.578445"><ele>22.0</ele><time>2026-04-05T08:49:49.829Z</time></trkpt><trkpt lat="42.2160633" lon="14.5785133"><ele>22.0</ele><time>2026-04-05T08:49:50.83Z</time></trkpt><trkpt lat="42.2159967" lon="14.5786467"><ele>22.0</ele><time>2026-04-05T08:49:52.829Z</time></trkpt><trkpt lat="42.21593" lon="14.5787817"><ele>22.0</ele><time>2026-04-05T08:49:54.83Z</time></trkpt><trkpt lat="42.2158617" lon="14.5789117"><ele>22.0</ele><time>2026-04-05T08:49:56.829Z</time></trkpt><trkpt lat="42.21579" lon="14.57904"><ele>22.200000000000003</ele><time>2026-04-05T08:49:58.829Z</time></trkpt><trkpt lat="42.215725" lon="14.5791767"><ele>22.4</ele><time>2026-04-05T08:50:00.829Z</time></trkpt><trkpt lat="42.215685" lon="14.579245"><ele>22.6</ele><time>2026-04-05T08:50:01.829Z</time></trkpt><trkpt lat="42.2156117" lon="14.5793817"><ele>22.799999999999997</ele><time>2026-04-05T08:50:03.829Z</time></trkpt><trkpt lat="42.21554" lon="14.5795133"><ele>23.0</ele><time>2026-04-05T08:50:05.829Z</time></trkpt><trkpt lat="42.21548" lon="14.579655"><ele>23.0</ele><time>2026-04-05T08:50:07.829Z</time></trkpt><trkpt lat="42.21541" lon="14.5797917"><ele>23.0</ele><time>2026-04-05T08:50:09.83Z</time></trkpt><trkpt lat="42.2153383" lon="14.5799233"><ele>23.0</ele><time>2026-04-05T08:50:11.829Z</time></trkpt><trkpt lat="42.215275" lon="14.5800517"><ele>23.0</ele><time>2026-04-05T08:50:13.829Z</time></trkpt><trkpt lat="42.21521" lon="14.5801733"><ele>23.0</ele><time>2026-04-05T08:50:15.829Z</time></trkpt><trkpt lat="42.2151767" lon="14.5802467"><ele>23.0</ele><time>2026-04-05T08:50:16.829Z</time></trkpt><trkpt lat="42.2151417" lon="14.5803183"><ele>23.0</ele><time>2026-04-05T08:50:17.83Z</time></trkpt><trkpt lat="42.2151033" lon="14.5803883"><ele>23.0</ele><time>2026-04-05T08:50:18.829Z</time></trkpt><trkpt lat="42.2150683" lon="14.58046"><ele>23.0</ele><time>2026-04-05T08:50:19.83Z</time></trkpt><trkpt lat="42.2150067" lon="14.5805967"><ele>23.0</ele><time>2026-04-05T08:50:21.829Z</time></trkpt><trkpt lat="42.214935" lon="14.5807317"><ele>23.5</ele><time>2026-04-05T08:50:23.829Z</time></trkpt><trkpt lat="42.2148683" lon="14.58087"><ele>24.0</ele><time>2026-04-05T08:50:25.83Z</time></trkpt><trkpt lat="42.2147983" lon="14.5810033"><ele>24.5</ele><time>2026-04-05T08:50:27.829Z</time></trkpt><trkpt lat="42.2147283" lon="14.581135"><ele>25.0</ele><time>2026-04-05T08:50:29.829Z</time></trkpt><trkpt lat="42.2146567" lon="14.5812617"><ele>25.0</ele><time>2026-04-05T08:50:31.829Z</time></trkpt><trkpt lat="42.2145883" lon="14.5813983"><ele>25.0</ele><time>2026-04-05T08:50:33.829Z</time></trkpt><trkpt lat="42.21452" lon="14.5815333"><ele>25.0</ele><time>2026-04-05T08:50:35.829Z</time></trkpt><trkpt lat="42.21446" lon="14.5816633"><ele>25.0</ele><time>2026-04-05T08:50:37.829Z</time></trkpt><trkpt lat="42.214395" lon="14.581785"><ele>25.000000000000004</ele><time>2026-04-05T08:50:39.83Z</time></trkpt><trkpt lat="42.21433" lon="14.5819067"><ele>25.0</ele><time>2026-04-05T08:50:41.829Z</time></trkpt><trkpt lat="42.214285" lon="14.581985"><ele>25.0</ele><time>2026-04-05T08:50:43.829Z</time></trkpt><trkpt lat="42.2142233" lon="14.58202"><ele>25.0</ele><time>2026-04-05T08:52:28.829Z</time></trkpt><trkpt lat="42.2142133" lon="14.582105"><ele>25.000000000000004</ele><time>2026-04-05T08:52:38.829Z</time></trkpt><trkpt lat="42.21416" lon="14.5822033"><ele>25.0</ele><time>2026-04-05T08:52:42.829Z</time></trkpt><trkpt lat="42.2141383" lon="14.5822833"><ele>24.000000000000004</ele><time>2026-04-05T08:52:44.829Z</time></trkpt><trkpt lat="42.2141117" lon="14.5823817"><ele>23.0</ele><time>2026-04-05T08:52:46.83Z</time></trkpt><trkpt lat="42.2141267" lon="14.582465"><ele>22.0</ele><time>2026-04-05T08:52:48.829Z</time></trkpt><trkpt lat="42.2142017" lon="14.58244"><ele>21.0</ele><time>2026-04-05T08:52:50.829Z</time></trkpt><trkpt lat="42.214265" lon="14.58236"><ele>20.0</ele><time>2026-04-05T08:52:52.829Z</time></trkpt><trkpt lat="42.2143633" lon="14.58234"><ele>19.0</ele><time>2026-04-05T08:52:54.829Z</time></trkpt><trkpt lat="42.2144783" lon="14.5824083"><ele>19.0</ele><time>2026-04-05T08:52:56.829Z</time></trkpt><trkpt lat="42.2145383" lon="14.5824667"><ele>19.0</ele><time>2026-04-05T08:52:57.829Z</time></trkpt><trkpt lat="42.214595" lon="14.5825167"><ele>19.0</ele><time>2026-04-05T08:52:58.829Z</time></trkpt><trkpt lat="42.2147" lon="14.58255"><ele>19.0</ele><time>2026-04-05T08:53:00.83Z</time></trkpt><trkpt lat="42.21479" lon="14.5825267"><ele>19.0</ele><time>2026-04-05T08:53:02.829Z</time></trkpt><trkpt lat="42.2148517" lon="14.5824833"><ele>19.0</ele><time>2026-04-05T08:53:04.83Z</time></trkpt><trkpt lat="42.2148017" lon="14.58257"><ele>19.0</ele><time>2026-04-05T08:53:11.829Z</time></trkpt><trkpt lat="42.214735" lon="14.582645"><ele>19.0</ele><time>2026-04-05T08:53:13.829Z</time></trkpt><trkpt lat="42.2146667" lon="14.582755"><ele>19.0</ele><time>2026-04-05T08:53:15.83Z</time></trkpt><trkpt lat="42.2146067" lon="14.5828833"><ele>19.0</ele><time>2026-04-05T08:53:17.829Z</time></trkpt><trkpt lat="42.2145417" lon="14.5830033"><ele>19.0</ele><time>2026-04-05T08:53:19.829Z</time></trkpt><trkpt lat="42.2144733" lon="14.5831233"><ele>18.2</ele><time>2026-04-05T08:53:21.83Z</time></trkpt><trkpt lat="42.2144017" lon="14.5832417"><ele>17.4</ele><time>2026-04-05T08:53:23.829Z</time></trkpt><trkpt lat="42.214325" lon="14.5833483"><ele>16.6</ele><time>2026-04-05T08:53:25.829Z</time></trkpt><trkpt lat="42.2142467" lon="14.583455"><ele>15.8</ele><time>2026-04-05T08:53:27.829Z</time></trkpt><trkpt lat="42.2141667" lon="14.5835633"><ele>15.0</ele><time>2026-04-05T08:53:29.83Z</time></trkpt><trkpt lat="42.2140867" lon="14.5836667"><ele>16.0</ele><time>2026-04-05T08:53:31.829Z</time></trkpt><trkpt lat="42.2140433" lon="14.58373"><ele>17.0</ele><time>2026-04-05T08:53:32.83Z</time></trkpt><trkpt lat="42.214" lon="14.5838"><ele>18.0</ele><time>2026-04-05T08:53:33.83Z</time></trkpt><trkpt lat="42.21396" lon="14.58387"><ele>19.0</ele><time>2026-04-05T08:53:34.829Z</time></trkpt><trkpt lat="42.2139183" lon="14.5839417"><ele>20.0</ele><time>2026-04-05T08:53:35.829Z</time></trkpt><trkpt lat="42.2138783" lon="14.5840117"><ele>21.0</ele><time>2026-04-05T08:53:36.829Z</time></trkpt><trkpt lat="42.2138383" lon="14.58408"><ele>22.0</ele><time>2026-04-05T08:53:37.829Z</time></trkpt><trkpt lat="42.2137633" lon="14.5842083"><ele>22.0</ele><time>2026-04-05T08:53:39.83Z</time></trkpt><trkpt lat="42.21369" lon="14.5843417"><ele>22.0</ele><time>2026-04-05T08:53:41.83Z</time></trkpt><trkpt lat="42.21362" lon="14.5844733"><ele>22.0</ele><time>2026-04-05T08:53:43.83Z</time></trkpt><trkpt lat="42.213545" lon="14.5845983"><ele>22.0</ele><time>2026-04-05T08:53:45.83Z</time></trkpt><trkpt lat="42.213475" lon="14.5847283"><ele>19.5</ele><time>2026-04-05T08:53:47.83Z</time></trkpt><trkpt lat="42.2134067" lon="14.584865"><ele>17.0</ele><time>2026-04-05T08:53:49.83Z</time></trkpt><trkpt lat="42.21334" lon="14.5850017"><ele>14.5</ele><time>2026-04-05T08:53:51.831Z</time></trkpt><trkpt lat="42.2132717" lon="14.5851383"><ele>12.0</ele><time>2026-04-05T08:53:53.831Z</time></trkpt><trkpt lat="42.21321" lon="14.5852683"><ele>13.0</ele><time>2026-04-05T08:53:55.83Z</time></trkpt><trkpt lat="42.2131467" lon="14.5854017"><ele>14.0</ele><time>2026-04-05T08:53:57.83Z</time></trkpt><trkpt lat="42.2130833" lon="14.585535"><ele>15.0</ele><time>2026-04-05T08:53:59.83Z</time></trkpt><trkpt lat="42.2130217" lon="14.5856683"><ele>16.0</ele><time>2026-04-05T08:54:01.83Z</time></trkpt><trkpt lat="42.212955" lon="14.5858033"><ele>16.0</ele><time>2026-04-05T08:54:03.83Z</time></trkpt><trkpt lat="42.2128883" lon="14.5859333"><ele>16.0</ele><time>2026-04-05T08:54:05.831Z</time></trkpt><trkpt lat="42.212825" lon="14.5860667"><ele>16.0</ele><time>2026-04-05T08:54:07.83Z</time></trkpt><trkpt lat="42.2127583" lon="14.5862017"><ele>16.0</ele><time>2026-04-05T08:54:09.83Z</time></trkpt><trkpt lat="42.2126917" lon="14.586335"><ele>14.25</ele><time>2026-04-05T08:54:11.83Z</time></trkpt><trkpt lat="42.212625" lon="14.586465"><ele>12.5</ele><time>2026-04-05T08:54:13.83Z</time></trkpt><trkpt lat="42.2125633" lon="14.5865967"><ele>10.75</ele><time>2026-04-05T08:54:15.83Z</time></trkpt><trkpt lat="42.2125067" lon="14.586735"><ele>9.0</ele><time>2026-04-05T08:54:17.83Z</time></trkpt><trkpt lat="42.2124367" lon="14.5868683"><ele>9.0</ele><time>2026-04-05T08:54:19.83Z</time></trkpt><trkpt lat="42.2123733" lon="14.5869967"><ele>9.0</ele><time>2026-04-05T08:54:21.83Z</time></trkpt><trkpt lat="42.2123067" lon="14.5871267"><ele>9.0</ele><time>2026-04-05T08:54:23.831Z</time></trkpt><trkpt lat="42.212235" lon="14.58725"><ele>9.0</ele><time>2026-04-05T08:54:25.83Z</time></trkpt><trkpt lat="42.21217" lon="14.5873883"><ele>10.5</ele><time>2026-04-05T08:54:27.831Z</time></trkpt><trkpt lat="42.212105" lon="14.587525"><ele>12.0</ele><time>2026-04-05T08:54:29.83Z</time></trkpt><trkpt lat="42.2120367" lon="14.587655"><ele>13.5</ele><time>2026-04-05T08:54:31.83Z</time></trkpt><trkpt lat="42.2119683" lon="14.5877883"><ele>15.0</ele><time>2026-04-05T08:54:33.83Z</time></trkpt><trkpt lat="42.21191" lon="14.5879233"><ele>15.0</ele><time>2026-04-05T08:54:35.83Z</time></trkpt><trkpt lat="42.2118533" lon="14.5880533"><ele>15.0</ele><time>2026-04-05T08:54:37.83Z</time></trkpt><trkpt lat="42.2117883" lon="14.588175"><ele>15.0</ele><time>2026-04-05T08:54:39.83Z</time></trkpt><trkpt lat="42.2117267" lon="14.5883"><ele>15.0</ele><time>2026-04-05T08:54:41.83Z</time></trkpt><trkpt lat="42.2116617" lon="14.5884283"><ele>15.0</ele><time>2026-04-05T08:54:43.83Z</time></trkpt><trkpt lat="42.2115933" lon="14.5885517"><ele>13.4</ele><time>2026-04-05T08:54:45.83Z</time></trkpt><trkpt lat="42.21152" lon="14.5886817"><ele>11.8</ele><time>2026-04-05T08:54:47.83Z</time></trkpt><trkpt lat="42.2114567" lon="14.588825"><ele>10.2</ele><time>2026-04-05T08:54:49.83Z</time></trkpt><trkpt lat="42.2114233" lon="14.5888983"><ele>8.6</ele><time>2026-04-05T08:54:50.83Z</time></trkpt><trkpt lat="42.211365" lon="14.589045"><ele>7.0</ele><time>2026-04-05T08:54:52.831Z</time></trkpt><trkpt lat="42.2113117" lon="14.589195"><ele>8.75</ele><time>2026-04-05T08:54:54.831Z</time></trkpt><trkpt lat="42.2112517" lon="14.5893417"><ele>10.5</ele><time>2026-04-05T08:54:56.83Z</time></trkpt><trkpt lat="42.2111933" lon="14.5894833"><ele>12.25</ele><time>2026-04-05T08:54:58.831Z</time></trkpt><trkpt lat="42.2111417" lon="14.5896183"><ele>14.0</ele><time>2026-04-05T08:55:00.831Z</time></trkpt><trkpt lat="42.211095" lon="14.58976"><ele>14.0</ele><time>2026-04-05T08:55:02.83Z</time></trkpt><trkpt lat="42.21104" lon="14.5899117"><ele>14.0</ele><time>2026-04-05T08:55:04.83Z</time></trkpt><trkpt lat="42.2109717" lon="14.5900517"><ele>14.0</ele><time>2026-04-05T08:55:06.83Z</time></trkpt><trkpt lat="42.2109133" lon="14.5901933"><ele>14.0</ele><time>2026-04-05T08:55:08.831Z</time></trkpt><trkpt lat="42.2108567" lon="14.5903417"><ele>12.2</ele><time>2026-04-05T08:55:10.83Z</time></trkpt><trkpt lat="42.2108" lon="14.5904917"><ele>10.399999999999999</ele><time>2026-04-05T08:55:12.83Z</time></trkpt><trkpt lat="42.21077" lon="14.5905667"><ele>8.6</ele><time>2026-04-05T08:55:13.83Z</time></trkpt><trkpt lat="42.210715" lon="14.5907083"><ele>6.8</ele><time>2026-04-05T08:55:15.83Z</time></trkpt><trkpt lat="42.210665" lon="14.5908533"><ele>5.0</ele><time>2026-04-05T08:55:17.83Z</time></trkpt><trkpt lat="42.2106083" lon="14.5909967"><ele>7.5</ele><time>2026-04-05T08:55:19.83Z</time></trkpt><trkpt lat="42.2105517" lon="14.5911383"><ele>10.0</ele><time>2026-04-05T08:55:21.83Z</time></trkpt><trkpt lat="42.2104917" lon="14.59128"><ele>12.5</ele><time>2026-04-05T08:55:23.83Z</time></trkpt><trkpt lat="42.210435" lon="14.5914217"><ele>15.0</ele><time>2026-04-05T08:55:25.83Z</time></trkpt><trkpt lat="42.2103767" lon="14.5915683"><ele>15.0</ele><time>2026-04-05T08:55:27.83Z</time></trkpt><trkpt lat="42.2103167" lon="14.5917133"><ele>15.0</ele><time>2026-04-05T08:55:29.83Z</time></trkpt><trkpt lat="42.2102533" lon="14.5918517"><ele>15.0</ele><time>2026-04-05T08:55:31.83Z</time></trkpt><trkpt lat="42.2101917" lon="14.5919767"><ele>15.0</ele><time>2026-04-05T08:55:33.83Z</time></trkpt><trkpt lat="42.2101267" lon="14.5921117"><ele>13.0</ele><time>2026-04-05T08:55:35.83Z</time></trkpt><trkpt lat="42.2100633" lon="14.592245"><ele>11.0</ele><time>2026-04-05T08:55:37.831Z</time></trkpt><trkpt lat="42.21" lon="14.5923783"><ele>9.0</ele><time>2026-04-05T08:55:39.83Z</time></trkpt><trkpt lat="42.2099267" lon="14.5925067"><ele>7.0</ele><time>2026-04-05T08:55:41.831Z</time></trkpt><trkpt lat="42.20985" lon="14.5926333"><ele>8.5</ele><time>2026-04-05T08:55:43.83Z</time></trkpt><trkpt lat="42.209775" lon="14.5927633"><ele>10.0</ele><time>2026-04-05T08:55:45.83Z</time></trkpt><trkpt lat="42.2097067" lon="14.5928833"><ele>11.5</ele><time>2026-04-05T08:55:47.83Z</time></trkpt><trkpt lat="42.20963" lon="14.593"><ele>13.0</ele><time>2026-04-05T08:55:49.83Z</time></trkpt><trkpt lat="42.2095583" lon="14.5931283"><ele>13.0</ele><time>2026-04-05T08:55:51.831Z</time></trkpt><trkpt lat="42.2094817" lon="14.59326"><ele>13.0</ele><time>2026-04-05T08:55:53.83Z</time></trkpt><trkpt lat="42.2094083" lon="14.5933867"><ele>13.0</ele><time>2026-04-05T08:55:55.831Z</time></trkpt><trkpt lat="42.2093317" lon="14.5935117"><ele>13.0</ele><time>2026-04-05T08:55:57.83Z</time></trkpt><trkpt lat="42.2092617" lon="14.5936417"><ele>14.0</ele><time>2026-04-05T08:55:59.83Z</time></trkpt><trkpt lat="42.2091867" lon="14.5937817"><ele>15.0</ele><time>2026-04-05T08:56:01.83Z</time></trkpt><trkpt lat="42.209115" lon="14.5939133"><ele>16.0</ele><time>2026-04-05T08:56:03.83Z</time></trkpt><trkpt lat="42.2090717" lon="14.5939767"><ele>17.0</ele><time>2026-04-05T08:56:04.83Z</time></trkpt><trkpt lat="42.2089967" lon="14.5941067"><ele>18.0</ele><time>2026-04-05T08:56:06.831Z</time></trkpt><trkpt lat="42.2089233" lon="14.594235"><ele>18.0</ele><time>2026-04-05T08:56:08.831Z</time></trkpt><trkpt lat="42.2088817" lon="14.5943"><ele>18.0</ele><time>2026-04-05T08:56:09.83Z</time></trkpt><trkpt lat="42.20881" lon="14.5944283"><ele>18.0</ele><time>2026-04-05T08:56:11.83Z</time></trkpt><trkpt lat="42.208735" lon="14.5945583"><ele>18.0</ele><time>2026-04-05T08:56:13.83Z</time></trkpt><trkpt lat="42.208665" lon="14.594685"><ele>18.0</ele><time>2026-04-05T08:56:15.83Z</time></trkpt><trkpt lat="42.20859" lon="14.5948117"><ele>17.0</ele><time>2026-04-05T08:56:17.831Z</time></trkpt><trkpt lat="42.2085233" lon="14.5949383"><ele>16.0</ele><time>2026-04-05T08:56:19.831Z</time></trkpt><trkpt lat="42.2084533" lon="14.5950683"><ele>15.0</ele><time>2026-04-05T08:56:21.831Z</time></trkpt><trkpt lat="42.2083833" lon="14.5952017"><ele>14.0</ele><time>2026-04-05T08:56:23.831Z</time></trkpt><trkpt lat="42.2083117" lon="14.59533"><ele>14.799999999999999</ele><time>2026-04-05T08:56:25.83Z</time></trkpt><trkpt lat="42.20827" lon="14.595395"><ele>15.599999999999998</ele><time>2026-04-05T08:56:26.83Z</time></trkpt><trkpt lat="42.2081967" lon="14.59552"><ele>16.4</ele><time>2026-04-05T08:56:28.83Z</time></trkpt><trkpt lat="42.20813" lon="14.5956483"><ele>17.2</ele><time>2026-04-05T08:56:30.83Z</time></trkpt><trkpt lat="42.208065" lon="14.5957717"><ele>18.0</ele><time>2026-04-05T08:56:32.83Z</time></trkpt><trkpt lat="42.2080017" lon="14.5959033"><ele>18.0</ele><time>2026-04-05T08:56:34.831Z</time></trkpt><trkpt lat="42.20794" lon="14.596035"><ele>18.0</ele><time>2026-04-05T08:56:36.83Z</time></trkpt><trkpt lat="42.2078833" lon="14.5961717"><ele>18.0</ele><time>2026-04-05T08:56:38.831Z</time></trkpt><trkpt lat="42.207825" lon="14.5963117"><ele>18.0</ele><time>2026-04-05T08:56:40.83Z</time></trkpt><trkpt lat="42.2077633" lon="14.5964483"><ele>17.2</ele><time>2026-04-05T08:56:42.83Z</time></trkpt><trkpt lat="42.2076933" lon="14.59658"><ele>16.4</ele><time>2026-04-05T08:56:44.83Z</time></trkpt><trkpt lat="42.2076583" lon="14.5966533"><ele>15.599999999999998</ele><time>2026-04-05T08:56:45.83Z</time></trkpt><trkpt lat="42.20761" lon="14.5967883"><ele>14.799999999999999</ele><time>2026-04-05T08:56:47.831Z</time></trkpt><trkpt lat="42.2075733" lon="14.596935"><ele>14.0</ele><time>2026-04-05T08:56:49.83Z</time></trkpt><trkpt lat="42.2075217" lon="14.597075"><ele>15.25</ele><time>2026-04-05T08:56:51.831Z</time></trkpt><trkpt lat="42.2074633" lon="14.5972183"><ele>16.5</ele><time>2026-04-05T08:56:53.83Z</time></trkpt><trkpt lat="42.207405" lon="14.5973617"><ele>17.75</ele><time>2026-04-05T08:56:55.83Z</time></trkpt><trkpt lat="42.2073467" lon="14.5975017"><ele>19.0</ele><time>2026-04-05T08:56:57.83Z</time></trkpt><trkpt lat="42.2072867" lon="14.59764"><ele>19.0</ele><time>2026-04-05T08:56:59.83Z</time></trkpt><trkpt lat="42.2072267" lon="14.59778"><ele>19.0</ele><time>2026-04-05T08:57:01.83Z</time></trkpt><trkpt lat="42.207165" lon="14.5979183"><ele>19.0</ele><time>2026-04-05T08:57:03.83Z</time></trkpt><trkpt lat="42.2071033" lon="14.598055"><ele>19.0</ele><time>2026-04-05T08:57:05.83Z</time></trkpt><trkpt lat="42.2070417" lon="14.59819"><ele>18.0</ele><time>2026-04-05T08:57:07.83Z</time></trkpt><trkpt lat="42.2069833" lon="14.598325"><ele>17.0</ele><time>2026-04-05T08:57:09.83Z</time></trkpt><trkpt lat="42.206925" lon="14.5984667"><ele>16.0</ele><time>2026-04-05T08:57:11.831Z</time></trkpt><trkpt lat="42.206865" lon="14.5986017"><ele>15.0</ele><time>2026-04-05T08:57:13.83Z</time></trkpt><trkpt lat="42.2068017" lon="14.5987367"><ele>13.25</ele><time>2026-04-05T08:57:15.83Z</time></trkpt><trkpt lat="42.20674" lon="14.5988733"><ele>11.5</ele><time>2026-04-05T08:57:17.83Z</time></trkpt><trkpt lat="42.2066833" lon="14.5990167"><ele>9.75</ele><time>2026-04-05T08:57:19.83Z</time></trkpt><trkpt lat="42.2066233" lon="14.599155"><ele>8.0</ele><time>2026-04-05T08:57:21.831Z</time></trkpt><trkpt lat="42.2065533" lon="14.5992833"><ele>8.75</ele><time>2026-04-05T08:57:23.83Z</time></trkpt><trkpt lat="42.2064933" lon="14.5994217"><ele>9.5</ele><time>2026-04-05T08:57:25.83Z</time></trkpt><trkpt lat="42.2064317" lon="14.599555"><ele>10.25</ele><time>2026-04-05T08:57:27.83Z</time></trkpt><trkpt lat="42.206375" lon="14.59969"><ele>11.0</ele><time>2026-04-05T08:57:29.831Z</time></trkpt><trkpt lat="42.2063183" lon="14.5998283"><ele>11.0</ele><time>2026-04-05T08:57:31.83Z</time></trkpt><trkpt lat="42.2062567" lon="14.59996"><ele>11.0</ele><time>2026-04-05T08:57:33.83Z</time></trkpt><trkpt lat="42.2061967" lon="14.6000933"><ele>11.0</ele><time>2026-04-05T08:57:35.831Z</time></trkpt><trkpt lat="42.2061367" lon="14.6002217"><ele>11.0</ele><time>2026-04-05T08:57:37.83Z</time></trkpt><trkpt lat="42.2060833" lon="14.600365"><ele>10.25</ele><time>2026-04-05T08:57:39.83Z</time></trkpt><trkpt lat="42.20602" lon="14.6005017"><ele>9.5</ele><time>2026-04-05T08:57:41.83Z</time></trkpt><trkpt lat="42.2059583" lon="14.6006367"><ele>8.75</ele><time>2026-04-05T08:57:43.83Z</time></trkpt><trkpt lat="42.2058967" lon="14.6007783"><ele>8.0</ele><time>2026-04-05T08:57:45.83Z</time></trkpt><trkpt lat="42.205835" lon="14.60092"><ele>8.0</ele><time>2026-04-05T08:57:47.831Z</time></trkpt><trkpt lat="42.2058" lon="14.6009933"><ele>8.0</ele><time>2026-04-05T08:57:48.83Z</time></trkpt><trkpt lat="42.2057417" lon="14.601135"><ele>8.0</ele><time>2026-04-05T08:57:50.83Z</time></trkpt><trkpt lat="42.205685" lon="14.6012783"><ele>8.0</ele><time>2026-04-05T08:57:52.83Z</time></trkpt><trkpt lat="42.20562" lon="14.6014067"><ele>8.0</ele><time>2026-04-05T08:57:54.83Z</time></trkpt><trkpt lat="42.2055667" lon="14.6015467"><ele>7.800000000000001</ele><time>2026-04-05T08:57:56.831Z</time></trkpt><trkpt lat="42.205505" lon="14.6016817"><ele>7.6000000000000005</ele><time>2026-04-05T08:57:58.83Z</time></trkpt><trkpt lat="42.2054467" lon="14.6018083"><ele>7.3999999999999995</ele><time>2026-04-05T08:58:00.83Z</time></trkpt><trkpt lat="42.2053833" lon="14.6019283"><ele>7.199999999999999</ele><time>2026-04-05T08:58:02.83Z</time></trkpt><trkpt lat="42.2053183" lon="14.6020467"><ele>7.0</ele><time>2026-04-05T08:58:04.83Z</time></trkpt><trkpt lat="42.2052533" lon="14.6021783"><ele>7.0</ele><time>2026-04-05T08:58:06.831Z</time></trkpt><trkpt lat="42.2052233" lon="14.6022533"><ele>6.999999999999999</ele><time>2026-04-05T08:58:07.83Z</time></trkpt><trkpt lat="42.2051617" lon="14.60239"><ele>6.999999999999999</ele><time>2026-04-05T08:58:09.83Z</time></trkpt><trkpt lat="42.2050967" lon="14.6025133"><ele>7.0</ele><time>2026-04-05T08:58:11.83Z</time></trkpt><trkpt lat="42.20503" lon="14.60263"><ele>7.0</ele><time>2026-04-05T08:58:13.831Z</time></trkpt><trkpt lat="42.2049733" lon="14.60277"><ele>6.25</ele><time>2026-04-05T08:58:15.83Z</time></trkpt><trkpt lat="42.20492" lon="14.6029117"><ele>5.5</ele><time>2026-04-05T08:58:17.83Z</time></trkpt><trkpt lat="42.20487" lon="14.6030567"><ele>4.75</ele><time>2026-04-05T08:58:19.83Z</time></trkpt><trkpt lat="42.2048133" lon="14.6032017"><ele>4.0</ele><time>2026-04-05T08:58:21.83Z</time></trkpt><trkpt lat="42.204755" lon="14.6033417"><ele>3.25</ele><time>2026-04-05T08:58:23.83Z</time></trkpt><trkpt lat="42.2047017" lon="14.6034817"><ele>2.5</ele><time>2026-04-05T08:58:25.83Z</time></trkpt><trkpt lat="42.20463" lon="14.603615"><ele>1.75</ele><time>2026-04-05T08:58:27.83Z</time></trkpt><trkpt lat="42.2045483" lon="14.6037267"><ele>1.0</ele><time>2026-04-05T08:58:29.83Z</time></trkpt><trkpt lat="42.2044883" lon="14.6038617"><ele>0.75</ele><time>2026-04-05T08:58:31.831Z</time></trkpt><trkpt lat="42.2044317" lon="14.6039933"><ele>0.5</ele><time>2026-04-05T08:58:33.83Z</time></trkpt><trkpt lat="42.2043733" lon="14.60414"><ele>0.25</ele><time>2026-04-05T08:58:35.83Z</time></trkpt><trkpt lat="42.2043133" lon="14.60428"><ele>0.0</ele><time>2026-04-05T08:58:37.83Z</time></trkpt><trkpt lat="42.2042533" lon="14.6044217"><ele>0.25</ele><time>2026-04-05T08:58:39.83Z</time></trkpt><trkpt lat="42.204195" lon="14.60456"><ele>0.5</ele><time>2026-04-05T08:58:41.83Z</time></trkpt><trkpt lat="42.204135" lon="14.6046917"><ele>0.75</ele><time>2026-04-05T08:58:43.83Z</time></trkpt><trkpt lat="42.2040767" lon="14.604825"><ele>1.0</ele><time>2026-04-05T08:58:45.83Z</time></trkpt><trkpt lat="42.20402" lon="14.6049583"><ele>1.0</ele><time>2026-04-05T08:58:47.83Z</time></trkpt><trkpt lat="42.2039567" lon="14.6050933"><ele>1.0</ele><time>2026-04-05T08:58:49.83Z</time></trkpt><trkpt lat="42.2039033" lon="14.6052183"><ele>1.0</ele><time>2026-04-05T08:58:51.831Z</time></trkpt><trkpt lat="42.203845" lon="14.6053517"><ele>1.0</ele><time>2026-04-05T08:58:53.83Z</time></trkpt><trkpt lat="42.20379" lon="14.60549"><ele>0.75</ele><time>2026-04-05T08:58:55.83Z</time></trkpt><trkpt lat="42.20373" lon="14.6056267"><ele>0.5</ele><time>2026-04-05T08:58:57.83Z</time></trkpt><trkpt lat="42.2036733" lon="14.60576"><ele>0.25</ele><time>2026-04-05T08:58:59.83Z</time></trkpt><trkpt lat="42.2036183" lon="14.6058967"><ele>0.0</ele><time>2026-04-05T08:59:01.83Z</time></trkpt><trkpt lat="42.20356" lon="14.6060333"><ele>0.25</ele><time>2026-04-05T08:59:03.83Z</time></trkpt><trkpt lat="42.2035" lon="14.6061717"><ele>0.5</ele><time>2026-04-05T08:59:05.83Z</time></trkpt><trkpt lat="42.2034383" lon="14.60631"><ele>0.75</ele><time>2026-04-05T08:59:07.831Z</time></trkpt><trkpt lat="42.203375" lon="14.6064467"><ele>1.0</ele><time>2026-04-05T08:59:09.83Z</time></trkpt><trkpt lat="42.2033167" lon="14.6065867"><ele>1.0</ele><time>2026-04-05T08:59:11.83Z</time></trkpt><trkpt lat="42.2032583" lon="14.6067217"><ele>1.0</ele><time>2026-04-05T08:59:13.831Z</time></trkpt><trkpt lat="42.2032" lon="14.606855"><ele>1.0</ele><time>2026-04-05T08:59:15.83Z</time></trkpt><trkpt lat="42.2031417" lon="14.6069917"><ele>1.0</ele><time>2026-04-05T08:59:17.83Z</time></trkpt><trkpt lat="42.2030817" lon="14.6071267"><ele>1.5</ele><time>2026-04-05T08:59:19.83Z</time></trkpt><trkpt lat="42.2030217" lon="14.6072617"><ele>2.0</ele><time>2026-04-05T08:59:21.83Z</time></trkpt><trkpt lat="42.202965" lon="14.6074"><ele>2.5</ele><time>2026-04-05T08:59:23.83Z</time></trkpt><trkpt lat="42.202905" lon="14.6075367"><ele>3.0</ele><time>2026-04-05T08:59:25.83Z</time></trkpt><trkpt lat="42.2028417" lon="14.6076733"><ele>3.0</ele><time>2026-04-05T08:59:27.83Z</time></trkpt><trkpt lat="42.2027767" lon="14.6078017"><ele>3.0</ele><time>2026-04-05T08:59:29.83Z</time></trkpt><trkpt lat="42.2027133" lon="14.60794"><ele>3.0</ele><time>2026-04-05T08:59:31.83Z</time></trkpt><trkpt lat="42.2026583" lon="14.6080783"><ele>3.0</ele><time>2026-04-05T08:59:33.83Z</time></trkpt><trkpt lat="42.2026033" lon="14.60822"><ele>3.25</ele><time>2026-04-05T08:59:35.83Z</time></trkpt><trkpt lat="42.2025467" lon="14.6083633"><ele>3.5</ele><time>2026-04-05T08:59:37.83Z</time></trkpt><trkpt lat="42.20249" lon="14.6085033"><ele>3.75</ele><time>2026-04-05T08:59:39.83Z</time></trkpt><trkpt lat="42.202435" lon="14.6086383"><ele>4.0</ele><time>2026-04-05T08:59:41.83Z</time></trkpt><trkpt lat="42.2023783" lon="14.6087783"><ele>3.75</ele><time>2026-04-05T08:59:43.83Z</time></trkpt><trkpt lat="42.2023217" lon="14.608915"><ele>3.5</ele><time>2026-04-05T08:59:45.83Z</time></trkpt><trkpt lat="42.202265" lon="14.6090533"><ele>3.25</ele><time>2026-04-05T08:59:47.83Z</time></trkpt><trkpt lat="42.2022067" lon="14.60919"><ele>3.0</ele><time>2026-04-05T08:59:49.83Z</time></trkpt><trkpt lat="42.20215" lon="14.6093267"><ele>3.0</ele><time>2026-04-05T08:59:51.83Z</time></trkpt><trkpt lat="42.20209" lon="14.6094633"><ele>3.0</ele><time>2026-04-05T08:59:53.83Z</time></trkpt><trkpt lat="42.2020317" lon="14.6096"><ele>3.0</ele><time>2026-04-05T08:59:55.83Z</time></trkpt><trkpt lat="42.20198" lon="14.60974"><ele>3.0</ele><time>2026-04-05T08:59:57.83Z</time></trkpt><trkpt lat="42.2019383" lon="14.6098817"><ele>3.0</ele><time>2026-04-05T08:59:59.83Z</time></trkpt><trkpt lat="42.20193" lon="14.6100383"><ele>3.0</ele><time>2026-04-05T09:00:01.83Z</time></trkpt><trkpt lat="42.2019333" lon="14.6102067"><ele>3.0</ele><time>2026-04-05T09:00:03.83Z</time></trkpt><trkpt lat="42.2019333" lon="14.6102933"><ele>3.0</ele><time>2026-04-05T09:00:04.831Z</time></trkpt><trkpt lat="42.2019333" lon="14.610385"><ele>3.0</ele><time>2026-04-05T09:00:05.83Z</time></trkpt><trkpt lat="42.2019283" lon="14.610475"><ele>3.0</ele><time>2026-04-05T09:00:06.83Z</time></trkpt><trkpt lat="42.2019083" lon="14.61056"><ele>3.4</ele><time>2026-04-05T09:00:07.83Z</time></trkpt><trkpt lat="42.2018817" lon="14.6106383"><ele>3.8</ele><time>2026-04-05T09:00:08.83Z</time></trkpt><trkpt lat="42.20183" lon="14.6107833"><ele>4.2</ele><time>2026-04-05T09:00:10.831Z</time></trkpt><trkpt lat="42.2017833" lon="14.6109233"><ele>4.6</ele><time>2026-04-05T09:00:12.83Z</time></trkpt><trkpt lat="42.20174" lon="14.6110533"><ele>5.0</ele><time>2026-04-05T09:00:14.831Z</time></trkpt><trkpt lat="42.2016933" lon="14.61118"><ele>5.0</ele><time>2026-04-05T09:00:16.83Z</time></trkpt><trkpt lat="42.2016517" lon="14.6112967"><ele>5.0</ele><time>2026-04-05T09:00:18.83Z</time></trkpt><trkpt lat="42.2016183" lon="14.61139"><ele>5.0</ele><time>2026-04-05T09:00:20.83Z</time></trkpt><trkpt lat="42.201605" lon="14.6114867"><ele>5.0</ele><time>2026-04-05T09:00:23.83Z</time></trkpt><trkpt lat="42.2015817" lon="14.6115983"><ele>5.0</ele><time>2026-04-05T09:00:26.831Z</time></trkpt><trkpt lat="42.2015533" lon="14.6116983"><ele>5.0</ele><time>2026-04-05T09:00:29.83Z</time></trkpt><trkpt lat="42.201525" lon="14.611775"><ele>5.0</ele><time>2026-04-05T09:00:31.83Z</time></trkpt><trkpt lat="42.2015" lon="14.6118617"><ele>5.0</ele><time>2026-04-05T09:00:33.83Z</time></trkpt><trkpt lat="42.2014733" lon="14.6119417"><ele>5.0</ele><time>2026-04-05T09:00:35.83Z</time></trkpt><trkpt lat="42.20141" lon="14.6120317"><ele>5.0</ele><time>2026-04-05T09:00:38.83Z</time></trkpt><trkpt lat="42.2013683" lon="14.6121117"><ele>5.0</ele><time>2026-04-05T09:00:40.83Z</time></trkpt><trkpt lat="42.2013367" lon="14.6122233"><ele>5.0</ele><time>2026-04-05T09:00:42.83Z</time></trkpt><trkpt lat="42.20131" lon="14.6123333"><ele>5.166666666666667</ele><time>2026-04-05T09:00:44.83Z</time></trkpt><trkpt lat="42.2012833" lon="14.612445"><ele>5.333333333333334</ele><time>2026-04-05T09:00:46.83Z</time></trkpt><trkpt lat="42.2012567" lon="14.6125567"><ele>5.5</ele><time>2026-04-05T09:00:48.831Z</time></trkpt><trkpt lat="42.2012217" lon="14.6126667"><ele>5.666666666666667</ele><time>2026-04-05T09:00:50.831Z</time></trkpt><trkpt lat="42.2011933" lon="14.6127833"><ele>5.833333333333333</ele><time>2026-04-05T09:00:52.83Z</time></trkpt><trkpt lat="42.2011617" lon="14.6128883"><ele>6.0</ele><time>2026-04-05T09:00:54.83Z</time></trkpt><trkpt lat="42.2011233" lon="14.6129983"><ele>6.166666666666667</ele><time>2026-04-05T09:00:56.83Z</time></trkpt><trkpt lat="42.201085" lon="14.6131133"><ele>6.333333333333334</ele><time>2026-04-05T09:00:58.83Z</time></trkpt><trkpt lat="42.2010467" lon="14.6132333"><ele>6.5</ele><time>2026-04-05T09:01:00.83Z</time></trkpt><trkpt lat="42.20101" lon="14.613345"><ele>6.666666666666667</ele><time>2026-04-05T09:01:02.83Z</time></trkpt><trkpt lat="42.2009767" lon="14.6134433"><ele>6.833333333333334</ele><time>2026-04-05T09:01:04.831Z</time></trkpt><trkpt lat="42.20094" lon="14.6135417"><ele>7.0</ele><time>2026-04-05T09:01:06.83Z</time></trkpt><trkpt lat="42.2009067" lon="14.6136467"><ele>6.666666666666667</ele><time>2026-04-05T09:01:08.83Z</time></trkpt><trkpt lat="42.2008683" lon="14.6137433"><ele>6.333333333333334</ele><time>2026-04-05T09:01:10.83Z</time></trkpt><trkpt lat="42.2008333" lon="14.61385"><ele>6.0</ele><time>2026-04-05T09:01:12.83Z</time></trkpt><trkpt lat="42.200805" lon="14.6139617"><ele>5.666666666666667</ele><time>2026-04-05T09:01:14.83Z</time></trkpt><trkpt lat="42.2007733" lon="14.61407"><ele>5.333333333333334</ele><time>2026-04-05T09:01:16.83Z</time></trkpt><trkpt lat="42.2007417" lon="14.61418"><ele>5.0</ele><time>2026-04-05T09:01:18.83Z</time></trkpt><trkpt lat="42.20071" lon="14.6142933"><ele>5.0</ele><time>2026-04-05T09:01:20.83Z</time></trkpt><trkpt lat="42.2006733" lon="14.61441"><ele>5.0</ele><time>2026-04-05T09:01:22.83Z</time></trkpt><trkpt lat="42.200645" lon="14.6145367"><ele>5.0</ele><time>2026-04-05T09:01:24.83Z</time></trkpt><trkpt lat="42.2006433" lon="14.6146683"><ele>5.0</ele><time>2026-04-05T09:01:26.83Z</time></trkpt><trkpt lat="42.20065" lon="14.6147983"><ele>5.0</ele><time>2026-04-05T09:01:28.83Z</time></trkpt><trkpt lat="42.2006317" lon="14.61494"><ele>4.833333333333334</ele><time>2026-04-05T09:01:30.831Z</time></trkpt><trkpt lat="42.2005883" lon="14.6150517"><ele>4.666666666666667</ele><time>2026-04-05T09:01:32.83Z</time></trkpt><trkpt lat="42.2005417" lon="14.6151567"><ele>4.5</ele><time>2026-04-05T09:01:34.83Z</time></trkpt><trkpt lat="42.2005067" lon="14.6152483"><ele>4.333333333333333</ele><time>2026-04-05T09:01:36.831Z</time></trkpt><trkpt lat="42.2005017" lon="14.61535"><ele>4.166666666666666</ele><time>2026-04-05T09:01:38.83Z</time></trkpt><trkpt lat="42.2004633" lon="14.6154183"><ele>4.0</ele><time>2026-04-05T09:01:40.83Z</time></trkpt><trkpt lat="42.2004033" lon="14.6155017"><ele>4.0</ele><time>2026-04-05T09:01:42.83Z</time></trkpt><trkpt lat="42.200335" lon="14.6156033"><ele>4.0</ele><time>2026-04-05T09:01:44.83Z</time></trkpt><trkpt lat="42.2002717" lon="14.6157133"><ele>4.0</ele><time>2026-04-05T09:01:46.831Z</time></trkpt><trkpt lat="42.2002183" lon="14.6158233"><ele>4.0</ele><time>2026-04-05T09:01:48.83Z</time></trkpt><trkpt lat="42.2001717" lon="14.6159567"><ele>4.0</ele><time>2026-04-05T09:01:50.83Z</time></trkpt><trkpt lat="42.2001183" lon="14.6160933"><ele>3.4000000000000004</ele><time>2026-04-05T09:01:52.831Z</time></trkpt><trkpt lat="42.20007" lon="14.6162333"><ele>2.8000000000000003</ele><time>2026-04-05T09:01:54.83Z</time></trkpt><trkpt lat="42.20002" lon="14.616385"><ele>2.2</ele><time>2026-04-05T09:01:56.83Z</time></trkpt><trkpt lat="42.199995" lon="14.6164633"><ele>1.6</ele><time>2026-04-05T09:01:57.83Z</time></trkpt><trkpt lat="42.1999517" lon="14.6166033"><ele>1.0</ele><time>2026-04-05T09:01:59.83Z</time></trkpt><trkpt lat="42.1999017" lon="14.6167517"><ele>1.0</ele><time>2026-04-05T09:02:01.83Z</time></trkpt><trkpt lat="42.1998567" lon="14.6169033"><ele>1.0</ele><time>2026-04-05T09:02:03.83Z</time></trkpt><trkpt lat="42.1998083" lon="14.6170533"><ele>1.0</ele><time>2026-04-05T09:02:05.83Z</time></trkpt><trkpt lat="42.1997617" lon="14.6171967"><ele>1.0</ele><time>2026-04-05T09:02:07.83Z</time></trkpt><trkpt lat="42.1997117" lon="14.6173467"><ele>1.4</ele><time>2026-04-05T09:02:09.83Z</time></trkpt><trkpt lat="42.1996633" lon="14.6174867"><ele>1.8</ele><time>2026-04-05T09:02:11.83Z</time></trkpt><trkpt lat="42.1996067" lon="14.6176367"><ele>2.1999999999999997</ele><time>2026-04-05T09:02:13.831Z</time></trkpt><trkpt lat="42.199585" lon="14.6177167"><ele>2.6</ele><time>2026-04-05T09:02:14.83Z</time></trkpt><trkpt lat="42.1995367" lon="14.6178617"><ele>3.0</ele><time>2026-04-05T09:02:16.83Z</time></trkpt><trkpt lat="42.1994783" lon="14.6179983"><ele>3.0</ele><time>2026-04-05T09:02:18.83Z</time></trkpt><trkpt lat="42.1994367" lon="14.6181417"><ele>3.0</ele><time>2026-04-05T09:02:20.83Z</time></trkpt><trkpt lat="42.1993867" lon="14.6182833"><ele>3.0</ele><time>2026-04-05T09:02:22.83Z</time></trkpt><trkpt lat="42.19936" lon="14.6183633"><ele>3.0</ele><time>2026-04-05T09:02:23.831Z</time></trkpt><trkpt lat="42.19931" lon="14.6185"><ele>3.0</ele><time>2026-04-05T09:02:25.83Z</time></trkpt><trkpt lat="42.19926" lon="14.6186367"><ele>2.75</ele><time>2026-04-05T09:02:27.83Z</time></trkpt><trkpt lat="42.199215" lon="14.6187783"><ele>2.5</ele><time>2026-04-05T09:02:29.831Z</time></trkpt><trkpt lat="42.199175" lon="14.6189133"><ele>2.25</ele><time>2026-04-05T09:02:31.83Z</time></trkpt><trkpt lat="42.1991283" lon="14.61905"><ele>2.0</ele><time>2026-04-05T09:02:33.83Z</time></trkpt><trkpt lat="42.199085" lon="14.6191983"><ele>2.0</ele><time>2026-04-05T09:02:35.83Z</time></trkpt><trkpt lat="42.1990367" lon="14.6193383"><ele>2.0</ele><time>2026-04-05T09:02:37.83Z</time></trkpt><trkpt lat="42.198985" lon="14.619485"><ele>2.0</ele><time>2026-04-05T09:02:39.83Z</time></trkpt><trkpt lat="42.19894" lon="14.6196317"><ele>2.0</ele><time>2026-04-05T09:02:41.83Z</time></trkpt><trkpt lat="42.1988983" lon="14.6197783"><ele>3.4000000000000004</ele><time>2026-04-05T09:02:43.83Z</time></trkpt><trkpt lat="42.198855" lon="14.619925"><ele>4.800000000000001</ele><time>2026-04-05T09:02:45.83Z</time></trkpt><trkpt lat="42.19881" lon="14.620075"><ele>6.2</ele><time>2026-04-05T09:02:47.831Z</time></trkpt><trkpt lat="42.1987867" lon="14.620155"><ele>7.6000000000000005</ele><time>2026-04-05T09:02:48.83Z</time></trkpt><trkpt lat="42.198745" lon="14.6203067"><ele>9.0</ele><time>2026-04-05T09:02:50.83Z</time></trkpt><trkpt lat="42.198705" lon="14.62046"><ele>9.0</ele><time>2026-04-05T09:02:52.83Z</time></trkpt><trkpt lat="42.19866" lon="14.6206133"><ele>9.0</ele><time>2026-04-05T09:02:54.831Z</time></trkpt><trkpt lat="42.1986167" lon="14.6207633"><ele>9.0</ele><time>2026-04-05T09:02:56.83Z</time></trkpt><trkpt lat="42.198575" lon="14.6209133"><ele>9.0</ele><time>2026-04-05T09:02:58.831Z</time></trkpt><trkpt lat="42.1985567" lon="14.6210017"><ele>9.0</ele><time>2026-04-05T09:02:59.83Z</time></trkpt><trkpt lat="42.1985183" lon="14.621155"><ele>8.75</ele><time>2026-04-05T09:03:01.83Z</time></trkpt><trkpt lat="42.19847" lon="14.6213"><ele>8.5</ele><time>2026-04-05T09:03:03.83Z</time></trkpt><trkpt lat="42.198425" lon="14.621445"><ele>8.25</ele><time>2026-04-05T09:03:05.83Z</time></trkpt><trkpt lat="42.1983783" lon="14.6216017"><ele>8.0</ele><time>2026-04-05T09:03:07.83Z</time></trkpt><trkpt lat="42.1983333" lon="14.6217367"><ele>8.0</ele><time>2026-04-05T09:03:09.83Z</time></trkpt><trkpt lat="42.1982883" lon="14.6218867"><ele>8.0</ele><time>2026-04-05T09:03:11.83Z</time></trkpt><trkpt lat="42.1982433" lon="14.6220367"><ele>8.0</ele><time>2026-04-05T09:03:13.831Z</time></trkpt><trkpt lat="42.198205" lon="14.6221767"><ele>8.0</ele><time>2026-04-05T09:03:15.831Z</time></trkpt><trkpt lat="42.1981583" lon="14.622315"><ele>8.75</ele><time>2026-04-05T09:03:17.83Z</time></trkpt><trkpt lat="42.198115" lon="14.6224633"><ele>9.5</ele><time>2026-04-05T09:03:19.83Z</time></trkpt><trkpt lat="42.1980783" lon="14.6226133"><ele>10.25</ele><time>2026-04-05T09:03:21.83Z</time></trkpt><trkpt lat="42.1980383" lon="14.622765"><ele>11.0</ele><time>2026-04-05T09:03:23.83Z</time></trkpt><trkpt lat="42.197995" lon="14.6229133"><ele>11.0</ele><time>2026-04-05T09:03:25.83Z</time></trkpt><trkpt lat="42.1979683" lon="14.6229917"><ele>11.0</ele><time>2026-04-05T09:03:26.83Z</time></trkpt><trkpt lat="42.197925" lon="14.6231417"><ele>11.0</ele><time>2026-04-05T09:03:28.83Z</time></trkpt><trkpt lat="42.197895" lon="14.6233"><ele>11.0</ele><time>2026-04-05T09:03:30.831Z</time></trkpt><trkpt lat="42.19785" lon="14.6234467"><ele>11.0</ele><time>2026-04-05T09:03:32.83Z</time></trkpt><trkpt lat="42.1978017" lon="14.6235867"><ele>10.5</ele><time>2026-04-05T09:03:34.83Z</time></trkpt><trkpt lat="42.1977583" lon="14.6237367"><ele>10.0</ele><time>2026-04-05T09:03:36.831Z</time></trkpt><trkpt lat="42.1977133" lon="14.6238817"><ele>9.5</ele><time>2026-04-05T09:03:38.83Z</time></trkpt><trkpt lat="42.1976733" lon="14.6240367"><ele>9.0</ele><time>2026-04-05T09:03:40.83Z</time></trkpt><trkpt lat="42.1976317" lon="14.6241833"><ele>9.0</ele><time>2026-04-05T09:03:42.831Z</time></trkpt><trkpt lat="42.1975867" lon="14.6243317"><ele>9.0</ele><time>2026-04-05T09:03:44.83Z</time></trkpt><trkpt lat="42.197535" lon="14.62447"><ele>9.0</ele><time>2026-04-05T09:03:46.83Z</time></trkpt><trkpt lat="42.1974783" lon="14.6246117"><ele>9.0</ele><time>2026-04-05T09:03:48.831Z</time></trkpt><trkpt lat="42.19743" lon="14.624755"><ele>8.6</ele><time>2026-04-05T09:03:50.83Z</time></trkpt><trkpt lat="42.1973833" lon="14.6249"><ele>8.2</ele><time>2026-04-05T09:03:52.83Z</time></trkpt><trkpt lat="42.1973283" lon="14.625045"><ele>7.799999999999999</ele><time>2026-04-05T09:03:54.83Z</time></trkpt><trkpt lat="42.1973" lon="14.6251217"><ele>7.3999999999999995</ele><time>2026-04-05T09:03:55.831Z</time></trkpt><trkpt lat="42.19725" lon="14.625255"><ele>7.0</ele><time>2026-04-05T09:03:57.83Z</time></trkpt><trkpt lat="42.1971967" lon="14.6254"><ele>7.0</ele><time>2026-04-05T09:03:59.83Z</time></trkpt><trkpt lat="42.197145" lon="14.625545"><ele>6.999999999999999</ele><time>2026-04-05T09:04:01.83Z</time></trkpt><trkpt lat="42.197095" lon="14.6256983"><ele>6.999999999999999</ele><time>2026-04-05T09:04:03.83Z</time></trkpt><trkpt lat="42.1970667" lon="14.6257817"><ele>7.0</ele><time>2026-04-05T09:04:04.83Z</time></trkpt><trkpt lat="42.1970367" lon="14.6258583"><ele>7.0</ele><time>2026-04-05T09:04:05.831Z</time></trkpt><trkpt lat="42.19699" lon="14.626005"><ele>5.25</ele><time>2026-04-05T09:04:07.83Z</time></trkpt><trkpt lat="42.19694" lon="14.6261517"><ele>3.5</ele><time>2026-04-05T09:04:09.83Z</time></trkpt><trkpt lat="42.19689" lon="14.6262867"><ele>1.75</ele><time>2026-04-05T09:04:11.83Z</time></trkpt><trkpt lat="42.19683" lon="14.626415"><ele>0.0</ele><time>2026-04-05T09:04:13.83Z</time></trkpt><trkpt lat="42.1967767" lon="14.6265583"><ele>0.0</ele><time>2026-04-05T09:04:15.83Z</time></trkpt><trkpt lat="42.19673" lon="14.626715"><ele>0.0</ele><time>2026-04-05T09:04:17.83Z</time></trkpt><trkpt lat="42.1967033" lon="14.6267933"><ele>0.0</ele><time>2026-04-05T09:04:18.83Z</time></trkpt><trkpt lat="42.1966533" lon="14.6269383"><ele>0.0</ele><time>2026-04-05T09:04:20.83Z</time></trkpt><trkpt lat="42.1966033" lon="14.6270817"><ele>0.0</ele><time>2026-04-05T09:04:22.83Z</time></trkpt><trkpt lat="42.1965533" lon="14.6272233"><ele>0.5</ele><time>2026-04-05T09:04:24.83Z</time></trkpt><trkpt lat="42.1965033" lon="14.6273667"><ele>1.0</ele><time>2026-04-05T09:04:26.83Z</time></trkpt><trkpt lat="42.196455" lon="14.6275067"><ele>1.5</ele><time>2026-04-05T09:04:28.83Z</time></trkpt><trkpt lat="42.1964083" lon="14.627655"><ele>2.0</ele><time>2026-04-05T09:04:30.83Z</time></trkpt><trkpt lat="42.1963583" lon="14.6278"><ele>2.4000000000000004</ele><time>2026-04-05T09:04:32.831Z</time></trkpt><trkpt lat="42.1963117" lon="14.62793"><ele>2.8000000000000003</ele><time>2026-04-05T09:04:34.83Z</time></trkpt><trkpt lat="42.1962633" lon="14.6280617"><ele>3.2</ele><time>2026-04-05T09:04:36.83Z</time></trkpt><trkpt lat="42.19621" lon="14.62818"><ele>3.6</ele><time>2026-04-05T09:04:38.83Z</time></trkpt><trkpt lat="42.1961633" lon="14.628295"><ele>4.0</ele><time>2026-04-05T09:04:40.83Z</time></trkpt><trkpt lat="42.1961133" lon="14.6283967"><ele>3.9999999999999996</ele><time>2026-04-05T09:04:42.83Z</time></trkpt><trkpt lat="42.1960767" lon="14.6285017"><ele>4.0</ele><time>2026-04-05T09:04:44.83Z</time></trkpt><trkpt lat="42.196045" lon="14.6286117"><ele>4.0</ele><time>2026-04-05T09:04:46.83Z</time></trkpt><trkpt lat="42.1960183" lon="14.6287117"><ele>4.0</ele><time>2026-04-05T09:04:48.831Z</time></trkpt><trkpt lat="42.1960083" lon="14.6288083"><ele>3.9999999999999996</ele><time>2026-04-05T09:04:51.83Z</time></trkpt><trkpt lat="42.19601" lon="14.6288983"><ele>4.0</ele><time>2026-04-05T09:04:54.831Z</time></trkpt><trkpt lat="42.196025" lon="14.6290017"><ele>4.0</ele><time>2026-04-05T09:04:56.83Z</time></trkpt><trkpt lat="42.1960417" lon="14.6291217"><ele>4.0</ele><time>2026-04-05T09:04:58.831Z</time></trkpt><trkpt lat="42.196015" lon="14.6292433"><ele>4.0</ele><time>2026-04-05T09:05:00.83Z</time></trkpt><trkpt lat="42.19596" lon="14.6293633"><ele>4.0</ele><time>2026-04-05T09:05:02.83Z</time></trkpt><trkpt lat="42.1959033" lon="14.6294817"><ele>4.0</ele><time>2026-04-05T09:05:04.83Z</time></trkpt><trkpt lat="42.1958683" lon="14.6296167"><ele>3.8000000000000003</ele><time>2026-04-05T09:05:06.83Z</time></trkpt><trkpt lat="42.19583" lon="14.6297483"><ele>3.6000000000000005</ele><time>2026-04-05T09:05:08.83Z</time></trkpt><trkpt lat="42.195785" lon="14.6298733"><ele>3.4</ele><time>2026-04-05T09:05:10.83Z</time></trkpt><trkpt lat="42.1957383" lon="14.6299933"><ele>3.2</ele><time>2026-04-05T09:05:12.83Z</time></trkpt><trkpt lat="42.1956917" lon="14.63012"><ele>3.0</ele><time>2026-04-05T09:05:14.83Z</time></trkpt><trkpt lat="42.1956583" lon="14.6302667"><ele>3.2</ele><time>2026-04-05T09:05:16.831Z</time></trkpt><trkpt lat="42.19562" lon="14.6304117"><ele>3.4</ele><time>2026-04-05T09:05:18.831Z</time></trkpt><trkpt lat="42.1955783" lon="14.6305717"><ele>3.6000000000000005</ele><time>2026-04-05T09:05:20.83Z</time></trkpt><trkpt lat="42.1955317" lon="14.6307217"><ele>3.8000000000000003</ele><time>2026-04-05T09:05:22.83Z</time></trkpt><trkpt lat="42.1955117" lon="14.6308083"><ele>4.0</ele><time>2026-04-05T09:05:23.83Z</time></trkpt><trkpt lat="42.1954733" lon="14.6309567"><ele>4.0</ele><time>2026-04-05T09:05:25.83Z</time></trkpt><trkpt lat="42.1954333" lon="14.6310917"><ele>4.0</ele><time>2026-04-05T09:05:27.83Z</time></trkpt><trkpt lat="42.1954" lon="14.631215"><ele>4.0</ele><time>2026-04-05T09:05:29.83Z</time></trkpt><trkpt lat="42.19538" lon="14.6313333"><ele>4.0</ele><time>2026-04-05T09:05:31.83Z</time></trkpt><trkpt lat="42.1953467" lon="14.6314433"><ele>4.0</ele><time>2026-04-05T09:05:33.831Z</time></trkpt><trkpt lat="42.19531" lon="14.6315833"><ele>3.9999999999999996</ele><time>2026-04-05T09:05:35.83Z</time></trkpt><trkpt lat="42.1952767" lon="14.6317"><ele>4.0</ele><time>2026-04-05T09:05:37.83Z</time></trkpt><trkpt lat="42.19524" lon="14.6318167"><ele>4.0</ele><time>2026-04-05T09:05:39.83Z</time></trkpt><trkpt lat="42.1952033" lon="14.6319283"><ele>4.0</ele><time>2026-04-05T09:05:41.831Z</time></trkpt><trkpt lat="42.1951767" lon="14.63204"><ele>3.9999999999999996</ele><time>2026-04-05T09:05:43.83Z</time></trkpt><trkpt lat="42.195145" lon="14.6321433"><ele>4.0</ele><time>2026-04-05T09:05:45.83Z</time></trkpt><trkpt lat="42.1951117" lon="14.6322517"><ele>4.166666666666666</ele><time>2026-04-05T09:05:47.831Z</time></trkpt><trkpt lat="42.1950817" lon="14.6323717"><ele>4.333333333333333</ele><time>2026-04-05T09:05:49.83Z</time></trkpt><trkpt lat="42.1950467" lon="14.6324783"><ele>4.5</ele><time>2026-04-05T09:05:51.831Z</time></trkpt><trkpt lat="42.1950217" lon="14.6325833"><ele>4.666666666666667</ele><time>2026-04-05T09:05:53.83Z</time></trkpt><trkpt lat="42.194995" lon="14.632685"><ele>4.833333333333334</ele><time>2026-04-05T09:05:55.831Z</time></trkpt><trkpt lat="42.19497" lon="14.63278"><ele>5.0</ele><time>2026-04-05T09:05:57.83Z</time></trkpt><trkpt lat="42.1949417" lon="14.6328767"><ele>5.166666666666667</ele><time>2026-04-05T09:05:59.83Z</time></trkpt><trkpt lat="42.1949133" lon="14.6329633"><ele>5.333333333333334</ele><time>2026-04-05T09:06:01.83Z</time></trkpt><trkpt lat="42.1948733" lon="14.6330867"><ele>5.5</ele><time>2026-04-05T09:06:04.83Z</time></trkpt><trkpt lat="42.1948483" lon="14.6331883"><ele>5.666666666666667</ele><time>2026-04-05T09:06:06.83Z</time></trkpt><trkpt lat="42.1948183" lon="14.633295"><ele>5.833333333333333</ele><time>2026-04-05T09:06:09.83Z</time></trkpt><trkpt lat="42.1947917" lon="14.6333833"><ele>6.0</ele><time>2026-04-05T09:06:13.83Z</time></trkpt><trkpt lat="42.1947633" lon="14.6334683"><ele>6.0</ele><time>2026-04-05T09:06:16.831Z</time></trkpt><trkpt lat="42.1947283" lon="14.6335817"><ele>6.0</ele><time>2026-04-05T09:06:19.83Z</time></trkpt><trkpt lat="42.1947017" lon="14.633665"><ele>6.0</ele><time>2026-04-05T09:06:21.83Z</time></trkpt><trkpt lat="42.1946817" lon="14.6337667"><ele>6.0</ele><time>2026-04-05T09:06:23.83Z</time></trkpt><trkpt lat="42.1946617" lon="14.6338583"><ele>6.0</ele><time>2026-04-05T09:06:25.831Z</time></trkpt><trkpt lat="42.1946383" lon="14.6339417"><ele>6.0</ele><time>2026-04-05T09:06:27.83Z</time></trkpt><trkpt lat="42.1946033" lon="14.63405"><ele>5.666666666666667</ele><time>2026-04-05T09:06:30.83Z</time></trkpt><trkpt lat="42.1945583" lon="14.6341333"><ele>5.333333333333333</ele><time>2026-04-05T09:06:32.83Z</time></trkpt><trkpt lat="42.19452" lon="14.63424"><ele>5.0</ele><time>2026-04-05T09:06:34.83Z</time></trkpt><trkpt lat="42.19449" lon="14.6343567"><ele>4.666666666666666</ele><time>2026-04-05T09:06:36.83Z</time></trkpt><trkpt lat="42.1944517" lon="14.6344633"><ele>4.333333333333333</ele><time>2026-04-05T09:06:38.83Z</time></trkpt><trkpt lat="42.194425" lon="14.6345833"><ele>4.0</ele><time>2026-04-05T09:06:40.83Z</time></trkpt><trkpt lat="42.1943867" lon="14.6347067"><ele>3.6</ele><time>2026-04-05T09:06:42.83Z</time></trkpt><trkpt lat="42.1943517" lon="14.634835"><ele>3.2</ele><time>2026-04-05T09:06:44.831Z</time></trkpt><trkpt lat="42.19432" lon="14.6349667"><ele>2.8000000000000003</ele><time>2026-04-05T09:06:46.83Z</time></trkpt><trkpt lat="42.1942767" lon="14.6351033"><ele>2.4000000000000004</ele><time>2026-04-05T09:06:48.83Z</time></trkpt><trkpt lat="42.194235" lon="14.6352417"><ele>2.0</ele><time>2026-04-05T09:06:50.83Z</time></trkpt><trkpt lat="42.194195" lon="14.63538"><ele>1.8</ele><time>2026-04-05T09:06:52.83Z</time></trkpt><trkpt lat="42.1941533" lon="14.6355283"><ele>1.6</ele><time>2026-04-05T09:06:54.83Z</time></trkpt><trkpt lat="42.194115" lon="14.6356617"><ele>1.4000000000000001</ele><time>2026-04-05T09:06:56.831Z</time></trkpt><trkpt lat="42.1940717" lon="14.635785"><ele>1.2000000000000002</ele><time>2026-04-05T09:06:58.83Z</time></trkpt><trkpt lat="42.1940267" lon="14.6359133"><ele>1.0</ele><time>2026-04-05T09:07:00.83Z</time></trkpt><trkpt lat="42.1939983" lon="14.6360533"><ele>1.2000000000000002</ele><time>2026-04-05T09:07:02.83Z</time></trkpt><trkpt lat="42.1939617" lon="14.6361867"><ele>1.4000000000000001</ele><time>2026-04-05T09:07:04.83Z</time></trkpt><trkpt lat="42.1939283" lon="14.6363283"><ele>1.6</ele><time>2026-04-05T09:07:06.831Z</time></trkpt><trkpt lat="42.193885" lon="14.6364683"><ele>1.8</ele><time>2026-04-05T09:07:08.83Z</time></trkpt><trkpt lat="42.1938417" lon="14.6366017"><ele>2.0</ele><time>2026-04-05T09:07:10.83Z</time></trkpt><trkpt lat="42.1938067" lon="14.6367433"><ele>2.0</ele><time>2026-04-05T09:07:12.831Z</time></trkpt><trkpt lat="42.19377" lon="14.6368817"><ele>2.0</ele><time>2026-04-05T09:07:14.83Z</time></trkpt><trkpt lat="42.1937417" lon="14.6370083"><ele>2.0</ele><time>2026-04-05T09:07:16.83Z</time></trkpt><trkpt lat="42.193715" lon="14.637125"><ele>2.0</ele><time>2026-04-05T09:07:18.83Z</time></trkpt><trkpt lat="42.19368" lon="14.637245"><ele>2.0</ele><time>2026-04-05T09:07:20.83Z</time></trkpt><trkpt lat="42.19365" lon="14.6373683"><ele>1.8</ele><time>2026-04-05T09:07:22.83Z</time></trkpt><trkpt lat="42.19361" lon="14.6374933"><ele>1.6</ele><time>2026-04-05T09:07:24.83Z</time></trkpt><trkpt lat="42.19357" lon="14.6376217"><ele>1.4000000000000001</ele><time>2026-04-05T09:07:26.83Z</time></trkpt><trkpt lat="42.193535" lon="14.6377633"><ele>1.2000000000000002</ele><time>2026-04-05T09:07:28.83Z</time></trkpt><trkpt lat="42.1935" lon="14.6379067"><ele>1.0</ele><time>2026-04-05T09:07:30.83Z</time></trkpt><trkpt lat="42.1934383" lon="14.6380133"><ele>1.0</ele><time>2026-04-05T09:07:32.83Z</time></trkpt><trkpt lat="42.1933933" lon="14.6381183"><ele>1.0</ele><time>2026-04-05T09:07:34.83Z</time></trkpt><trkpt lat="42.1933467" lon="14.6382567"><ele>1.0</ele><time>2026-04-05T09:07:36.83Z</time></trkpt><trkpt lat="42.193305" lon="14.6384"><ele>1.0</ele><time>2026-04-05T09:07:38.83Z</time></trkpt><trkpt lat="42.1932567" lon="14.63855"><ele>1.0</ele><time>2026-04-05T09:07:40.83Z</time></trkpt><trkpt lat="42.1932117" lon="14.6387033"><ele>1.0</ele><time>2026-04-05T09:07:42.83Z</time></trkpt><trkpt lat="42.193175" lon="14.6388567"><ele>1.0</ele><time>2026-04-05T09:07:44.83Z</time></trkpt><trkpt lat="42.19314" lon="14.6390083"><ele>1.0</ele><time>2026-04-05T09:07:46.83Z</time></trkpt><trkpt lat="42.19311" lon="14.6391683"><ele>1.0</ele><time>2026-04-05T09:07:48.83Z</time></trkpt><trkpt lat="42.1930933" lon="14.6392517"><ele>1.0</ele><time>2026-04-05T09:07:49.83Z</time></trkpt><trkpt lat="42.193055" lon="14.639405"><ele>0.5</ele><time>2026-04-05T09:07:51.83Z</time></trkpt><trkpt lat="42.1930167" lon="14.6395517"><ele>0.0</ele><time>2026-04-05T09:07:53.83Z</time></trkpt><trkpt lat="42.1929783" lon="14.639705"><ele>-0.5</ele><time>2026-04-05T09:07:55.83Z</time></trkpt><trkpt lat="42.1929417" lon="14.6398567"><ele>-1.0</ele><time>2026-04-05T09:07:57.83Z</time></trkpt><trkpt lat="42.1929017" lon="14.64"><ele>-1.0</ele><time>2026-04-05T09:07:59.83Z</time></trkpt><trkpt lat="42.19286" lon="14.6401533"><ele>-1.0</ele><time>2026-04-05T09:08:01.83Z</time></trkpt><trkpt lat="42.192825" lon="14.6403083"><ele>-1.0</ele><time>2026-04-05T09:08:03.83Z</time></trkpt><trkpt lat="42.1927883" lon="14.6404583"><ele>-1.0</ele><time>2026-04-05T09:08:05.83Z</time></trkpt><trkpt lat="42.1927533" lon="14.6406033"><ele>-0.75</ele><time>2026-04-05T09:08:07.83Z</time></trkpt><trkpt lat="42.1927217" lon="14.6407583"><ele>-0.5</ele><time>2026-04-05T09:08:09.83Z</time></trkpt><trkpt lat="42.192685" lon="14.6409167"><ele>-0.25</ele><time>2026-04-05T09:08:11.83Z</time></trkpt><trkpt lat="42.1926483" lon="14.6410717"><ele>0.0</ele><time>2026-04-05T09:08:13.83Z</time></trkpt><trkpt lat="42.1926183" lon="14.6412233"><ele>0.0</ele><time>2026-04-05T09:08:15.83Z</time></trkpt><trkpt lat="42.1925817" lon="14.6413733"><ele>0.0</ele><time>2026-04-05T09:08:17.831Z</time></trkpt><trkpt lat="42.1925417" lon="14.6415183"><ele>0.0</ele><time>2026-04-05T09:08:19.83Z</time></trkpt><trkpt lat="42.1925017" lon="14.6416667"><ele>0.0</ele><time>2026-04-05T09:08:21.83Z</time></trkpt><trkpt lat="42.19246" lon="14.6418117"><ele>0.0</ele><time>2026-04-05T09:08:23.831Z</time></trkpt><trkpt lat="42.1924217" lon="14.6419617"><ele>0.0</ele><time>2026-04-05T09:08:25.83Z</time></trkpt><trkpt lat="42.1923833" lon="14.642115"><ele>0.0</ele><time>2026-04-05T09:08:27.83Z</time></trkpt><trkpt lat="42.1923633" lon="14.6421967"><ele>0.0</ele><time>2026-04-05T09:08:28.83Z</time></trkpt><trkpt lat="42.1923233" lon="14.642345"><ele>0.0</ele><time>2026-04-05T09:08:30.83Z</time></trkpt><trkpt lat="42.1922633" lon="14.6424717"><ele>0.0</ele><time>2026-04-05T09:08:32.83Z</time></trkpt><trkpt lat="42.19218" lon="14.642575"><ele>0.0</ele><time>2026-04-05T09:08:34.83Z</time></trkpt><trkpt lat="42.1920917" lon="14.6426783"><ele>0.0</ele><time>2026-04-05T09:08:36.83Z</time></trkpt><trkpt lat="42.1920183" lon="14.6427833"><ele>0.0</ele><time>2026-04-05T09:08:38.83Z</time></trkpt><trkpt lat="42.191965" lon="14.6428417"><ele>0.0</ele><time>2026-04-05T09:08:41.83Z</time></trkpt><trkpt lat="42.1920467" lon="14.6428467"><ele>0.0</ele><time>2026-04-05T09:08:48.83Z</time></trkpt><trkpt lat="42.1921167" lon="14.64291"><ele>0.0</ele><time>2026-04-05T09:08:51.831Z</time></trkpt><trkpt lat="42.192115" lon="14.6430067"><ele>0.0</ele><time>2026-04-05T09:08:53.83Z</time></trkpt><trkpt lat="42.1920833" lon="14.6431233"><ele>0.0</ele><time>2026-04-05T09:08:55.83Z</time></trkpt><trkpt lat="42.19206" lon="14.6432467"><ele>0.0</ele><time>2026-04-05T09:08:57.83Z</time></trkpt><trkpt lat="42.192035" lon="14.64337"><ele>0.0</ele><time>2026-04-05T09:08:59.83Z</time></trkpt><trkpt lat="42.1920083" lon="14.6435067"><ele>0.0</ele><time>2026-04-05T09:09:01.83Z</time></trkpt><trkpt lat="42.191985" lon="14.64365"><ele>0.0</ele><time>2026-04-05T09:09:03.83Z</time></trkpt><trkpt lat="42.19196" lon="14.64379"><ele>0.0</ele><time>2026-04-05T09:09:05.83Z</time></trkpt><trkpt lat="42.1919383" lon="14.6439417"><ele>0.0</ele><time>2026-04-05T09:09:07.83Z</time></trkpt><trkpt lat="42.1919183" lon="14.6440817"><ele>0.0</ele><time>2026-04-05T09:09:09.83Z</time></trkpt><trkpt lat="42.1918917" lon="14.644225"><ele>0.0</ele><time>2026-04-05T09:09:11.831Z</time></trkpt><trkpt lat="42.191865" lon="14.6443767"><ele>0.0</ele><time>2026-04-05T09:09:13.83Z</time></trkpt><trkpt lat="42.191845" lon="14.6445217"><ele>0.0</ele><time>2026-04-05T09:09:15.831Z</time></trkpt><trkpt lat="42.1918233" lon="14.644635"><ele>0.0</ele><time>2026-04-05T09:09:17.83Z</time></trkpt><trkpt lat="42.1917567" lon="14.6446917"><ele>0.0</ele><time>2026-04-05T09:09:20.83Z</time></trkpt><trkpt lat="42.1916867" lon="14.644655"><ele>0.3333333333333333</ele><time>2026-04-05T09:09:22.83Z</time></trkpt><trkpt lat="42.1916083" lon="14.6446"><ele>0.6666666666666666</ele><time>2026-04-05T09:09:24.831Z</time></trkpt><trkpt lat="42.1915217" lon="14.6445467"><ele>1.0</ele><time>2026-04-05T09:09:26.83Z</time></trkpt><trkpt lat="42.1914483" lon="14.6444967"><ele>1.3333333333333333</ele><time>2026-04-05T09:09:28.83Z</time></trkpt><trkpt lat="42.1913683" lon="14.6444567"><ele>1.6666666666666665</ele><time>2026-04-05T09:09:30.83Z</time></trkpt><trkpt lat="42.19129" lon="14.6444133"><ele>2.0</ele><time>2026-04-05T09:09:32.83Z</time></trkpt><trkpt lat="42.1912217" lon="14.6443783"><ele>1.9999999999999998</ele><time>2026-04-05T09:09:34.83Z</time></trkpt><trkpt lat="42.1911617" lon="14.64434"><ele>2.0</ele><time>2026-04-05T09:09:36.83Z</time></trkpt><trkpt lat="42.1910833" lon="14.6443233"><ele>2.0</ele><time>2026-04-05T09:09:38.831Z</time></trkpt><trkpt lat="42.1909833" lon="14.6443433"><ele>2.0</ele><time>2026-04-05T09:09:40.83Z</time></trkpt><trkpt lat="42.1908867" lon="14.6443733"><ele>1.9999999999999998</ele><time>2026-04-05T09:09:42.83Z</time></trkpt><trkpt lat="42.1907883" lon="14.6444017"><ele>2.0</ele><time>2026-04-05T09:09:44.83Z</time></trkpt><trkpt lat="42.190685" lon="14.64443"><ele>2.2</ele><time>2026-04-05T09:09:46.83Z</time></trkpt><trkpt lat="42.1905883" lon="14.6444583"><ele>2.4000000000000004</ele><time>2026-04-05T09:09:48.83Z</time></trkpt><trkpt lat="42.1905017" lon="14.64449"><ele>2.5999999999999996</ele><time>2026-04-05T09:09:50.83Z</time></trkpt><trkpt lat="42.1904133" lon="14.644525"><ele>2.8</ele><time>2026-04-05T09:09:52.831Z</time></trkpt><trkpt lat="42.190315" lon="14.64456"><ele>3.0</ele><time>2026-04-05T09:09:54.831Z</time></trkpt><trkpt lat="42.1902183" lon="14.6445833"><ele>3.0</ele><time>2026-04-05T09:09:56.83Z</time></trkpt><trkpt lat="42.1901233" lon="14.644595"><ele>3.0</ele><time>2026-04-05T09:09:58.83Z</time></trkpt><trkpt lat="42.190045" lon="14.64458"><ele>3.0</ele><time>2026-04-05T09:10:00.83Z</time></trkpt><trkpt lat="42.189965" lon="14.6445533"><ele>3.0</ele><time>2026-04-05T09:10:02.83Z</time></trkpt><trkpt lat="42.1898967" lon="14.644545"><ele>3.0</ele><time>2026-04-05T09:10:04.83Z</time></trkpt><trkpt lat="42.1898267" lon="14.6445417"><ele>3.0</ele><time>2026-04-05T09:10:06.83Z</time></trkpt><trkpt lat="42.18973" lon="14.644535"><ele>2.6</ele><time>2026-04-05T09:10:07.83Z</time></trkpt><trkpt lat="42.189625" lon="14.644505"><ele>2.1999999999999997</ele><time>2026-04-05T09:10:09.83Z</time></trkpt><trkpt lat="42.1895133" lon="14.64455"><ele>1.8</ele><time>2026-04-05T09:10:11.83Z</time></trkpt><trkpt lat="42.18941" lon="14.6445983"><ele>1.4</ele><time>2026-04-05T09:10:13.83Z</time></trkpt><trkpt lat="42.189305" lon="14.6446283"><ele>1.0</ele><time>2026-04-05T09:10:15.83Z</time></trkpt><trkpt lat="42.1892017" lon="14.6446367"><ele>1.0</ele><time>2026-04-05T09:10:17.83Z</time></trkpt><trkpt lat="42.1890983" lon="14.6446483"><ele>1.0</ele><time>2026-04-05T09:10:19.83Z</time></trkpt><trkpt lat="42.188985" lon="14.64465"><ele>1.0</ele><time>2026-04-05T09:10:21.83Z</time></trkpt><trkpt lat="42.1888783" lon="14.644655"><ele>1.0</ele><time>2026-04-05T09:10:23.83Z</time></trkpt><trkpt lat="42.1887717" lon="14.6446517"><ele>1.0</ele><time>2026-04-05T09:10:25.83Z</time></trkpt><trkpt lat="42.1886583" lon="14.6446533"><ele>1.25</ele><time>2026-04-05T09:10:27.83Z</time></trkpt><trkpt lat="42.1885367" lon="14.644655"><ele>1.5</ele><time>2026-04-05T09:10:29.83Z</time></trkpt><trkpt lat="42.1884183" lon="14.6446567"><ele>1.75</ele><time>2026-04-05T09:10:31.831Z</time></trkpt><trkpt lat="42.188305" lon="14.644665"><ele>2.0</ele><time>2026-04-05T09:10:33.83Z</time></trkpt><trkpt lat="42.1881917" lon="14.64467"><ele>2.2</ele><time>2026-04-05T09:10:35.831Z</time></trkpt><trkpt lat="42.188125" lon="14.6446717"><ele>2.4000000000000004</ele><time>2026-04-05T09:10:36.831Z</time></trkpt><trkpt lat="42.1880617" lon="14.6446717"><ele>2.5999999999999996</ele><time>2026-04-05T09:10:37.83Z</time></trkpt><trkpt lat="42.1879417" lon="14.644675"><ele>2.8</ele><time>2026-04-05T09:10:39.83Z</time></trkpt><trkpt lat="42.187825" lon="14.644675"><ele>3.0</ele><time>2026-04-05T09:10:41.83Z</time></trkpt><trkpt lat="42.1877067" lon="14.64467"><ele>3.0</ele><time>2026-04-05T09:10:43.83Z</time></trkpt><trkpt lat="42.187585" lon="14.644645"><ele>3.0</ele><time>2026-04-05T09:10:45.831Z</time></trkpt><trkpt lat="42.1874717" lon="14.6445783"><ele>3.0</ele><time>2026-04-05T09:10:47.83Z</time></trkpt><trkpt lat="42.1873883" lon="14.6444617"><ele>3.0</ele><time>2026-04-05T09:10:49.83Z</time></trkpt><trkpt lat="42.1873117" lon="14.64434"><ele>2.5</ele><time>2026-04-05T09:10:51.83Z</time></trkpt><trkpt lat="42.1872333" lon="14.644225"><ele>2.0</ele><time>2026-04-05T09:10:53.831Z</time></trkpt><trkpt lat="42.187155" lon="14.6441117"><ele>1.5</ele><time>2026-04-05T09:10:55.83Z</time></trkpt><trkpt lat="42.187085" lon="14.6440033"><ele>1.0</ele><time>2026-04-05T09:10:57.83Z</time></trkpt><trkpt lat="42.1869967" lon="14.6439017"><ele>1.0</ele><time>2026-04-05T09:10:59.831Z</time></trkpt><trkpt lat="42.186905" lon="14.6438"><ele>1.0</ele><time>2026-04-05T09:11:01.83Z</time></trkpt><trkpt lat="42.1868033" lon="14.6437283"><ele>1.0</ele><time>2026-04-05T09:11:03.83Z</time></trkpt><trkpt lat="42.1867417" lon="14.6437017"><ele>1.0</ele><time>2026-04-05T09:11:04.831Z</time></trkpt><trkpt lat="42.1866817" lon="14.643675"><ele>1.0</ele><time>2026-04-05T09:11:05.831Z</time></trkpt><trkpt lat="42.18657" lon="14.6436217"><ele>1.5</ele><time>2026-04-05T09:11:07.83Z</time></trkpt><trkpt lat="42.186455" lon="14.6435783"><ele>2.0</ele><time>2026-04-05T09:11:09.83Z</time></trkpt><trkpt lat="42.1863467" lon="14.6435283"><ele>2.5</ele><time>2026-04-05T09:11:11.83Z</time></trkpt><trkpt lat="42.1862317" lon="14.64348"><ele>3.0</ele><time>2026-04-05T09:11:13.83Z</time></trkpt><trkpt lat="42.1861167" lon="14.64344"><ele>3.0</ele><time>2026-04-05T09:11:15.83Z</time></trkpt><trkpt lat="42.1859967" lon="14.6433983"><ele>3.0</ele><time>2026-04-05T09:11:17.83Z</time></trkpt><trkpt lat="42.185875" lon="14.6433717"><ele>3.0</ele><time>2026-04-05T09:11:19.83Z</time></trkpt><trkpt lat="42.1857533" lon="14.6433733"><ele>3.0</ele><time>2026-04-05T09:11:21.83Z</time></trkpt><trkpt lat="42.1856417" lon="14.6433983"><ele>3.25</ele><time>2026-04-05T09:11:23.83Z</time></trkpt><trkpt lat="42.1855367" lon="14.6434433"><ele>3.5</ele><time>2026-04-05T09:11:25.83Z</time></trkpt><trkpt lat="42.185435" lon="14.6434983"><ele>3.75</ele><time>2026-04-05T09:11:27.83Z</time></trkpt><trkpt lat="42.1853283" lon="14.6435567"><ele>4.0</ele><time>2026-04-05T09:11:29.83Z</time></trkpt><trkpt lat="42.1852183" lon="14.6436117"><ele>4.0</ele><time>2026-04-05T09:11:31.83Z</time></trkpt><trkpt lat="42.18511" lon="14.6436683"><ele>4.0</ele><time>2026-04-05T09:11:33.83Z</time></trkpt><trkpt lat="42.1849967" lon="14.6437217"><ele>4.0</ele><time>2026-04-05T09:11:35.831Z</time></trkpt><trkpt lat="42.1848883" lon="14.6437767"><ele>4.0</ele><time>2026-04-05T09:11:37.831Z</time></trkpt><trkpt lat="42.18478" lon="14.6438267"><ele>4.0</ele><time>2026-04-05T09:11:39.831Z</time></trkpt><trkpt lat="42.18467" lon="14.64389"><ele>4.0</ele><time>2026-04-05T09:11:41.831Z</time></trkpt><trkpt lat="42.1845667" lon="14.6439617"><ele>4.0</ele><time>2026-04-05T09:11:43.832Z</time></trkpt><trkpt lat="42.1844717" lon="14.6440583"><ele>4.0</ele><time>2026-04-05T09:11:45.831Z</time></trkpt><trkpt lat="42.184395" lon="14.6441633"><ele>4.0</ele><time>2026-04-05T09:11:47.831Z</time></trkpt><trkpt lat="42.1843183" lon="14.6442817"><ele>4.0</ele><time>2026-04-05T09:11:49.831Z</time></trkpt><trkpt lat="42.184235" lon="14.64437"><ele>4.0</ele><time>2026-04-05T09:11:51.831Z</time></trkpt><trkpt lat="42.1841383" lon="14.644445"><ele>4.0</ele><time>2026-04-05T09:11:53.831Z</time></trkpt><trkpt lat="42.184035" lon="14.6444967"><ele>4.0</ele><time>2026-04-05T09:11:55.831Z</time></trkpt><trkpt lat="42.1839233" lon="14.6445217"><ele>4.0</ele><time>2026-04-05T09:11:57.831Z</time></trkpt><trkpt lat="42.18381" lon="14.6445367"><ele>4.0</ele><time>2026-04-05T09:11:59.831Z</time></trkpt><trkpt lat="42.1836967" lon="14.6445483"><ele>4.0</ele><time>2026-04-05T09:12:01.832Z</time></trkpt><trkpt lat="42.183585" lon="14.6445517"><ele>4.0</ele><time>2026-04-05T09:12:03.832Z</time></trkpt><trkpt lat="42.18348" lon="14.6445533"><ele>4.0</ele><time>2026-04-05T09:12:05.831Z</time></trkpt><trkpt lat="42.183365" lon="14.6445583"><ele>4.0</ele><time>2026-04-05T09:12:07.831Z</time></trkpt><trkpt lat="42.183255" lon="14.6445617"><ele>4.0</ele><time>2026-04-05T09:12:09.832Z</time></trkpt><trkpt lat="42.183135" lon="14.6445683"><ele>4.0</ele><time>2026-04-05T09:12:11.831Z</time></trkpt><trkpt lat="42.183015" lon="14.6445817"><ele>4.0</ele><time>2026-04-05T09:12:13.831Z</time></trkpt><trkpt lat="42.1829" lon="14.64459"><ele>4.5</ele><time>2026-04-05T09:12:15.831Z</time></trkpt><trkpt lat="42.1827833" lon="14.6445983"><ele>5.0</ele><time>2026-04-05T09:12:17.832Z</time></trkpt><trkpt lat="42.1826667" lon="14.644605"><ele>5.5</ele><time>2026-04-05T09:12:19.831Z</time></trkpt><trkpt lat="42.1825533" lon="14.6446117"><ele>6.0</ele><time>2026-04-05T09:12:21.831Z</time></trkpt><trkpt lat="42.1824367" lon="14.6446117"><ele>6.199999999999999</ele><time>2026-04-05T09:12:23.831Z</time></trkpt><trkpt lat="42.1823167" lon="14.6446167"><ele>6.3999999999999995</ele><time>2026-04-05T09:12:25.831Z</time></trkpt><trkpt lat="42.182205" lon="14.64462"><ele>6.6</ele><time>2026-04-05T09:12:27.831Z</time></trkpt><trkpt lat="42.1820933" lon="14.6446117"><ele>6.8</ele><time>2026-04-05T09:12:29.831Z</time></trkpt><trkpt lat="42.1819883" lon="14.644595"><ele>7.0</ele><time>2026-04-05T09:12:31.832Z</time></trkpt><trkpt lat="42.1818783" lon="14.644565"><ele>7.0</ele><time>2026-04-05T09:12:33.831Z</time></trkpt><trkpt lat="42.1817633" lon="14.64454"><ele>7.0</ele><time>2026-04-05T09:12:35.832Z</time></trkpt><trkpt lat="42.1816567" lon="14.64451"><ele>7.0</ele><time>2026-04-05T09:12:37.832Z</time></trkpt><trkpt lat="42.1815417" lon="14.6444767"><ele>7.0</ele><time>2026-04-05T09:12:39.831Z</time></trkpt><trkpt lat="42.1814367" lon="14.64443"><ele>7.25</ele><time>2026-04-05T09:12:41.832Z</time></trkpt><trkpt lat="42.1813283" lon="14.64438"><ele>7.5</ele><time>2026-04-05T09:12:43.831Z</time></trkpt><trkpt lat="42.18121" lon="14.6443383"><ele>7.75</ele><time>2026-04-05T09:12:45.832Z</time></trkpt><trkpt lat="42.181105" lon="14.6443017"><ele>8.0</ele><time>2026-04-05T09:12:47.831Z</time></trkpt><trkpt lat="42.1809917" lon="14.644255"><ele>8.0</ele><time>2026-04-05T09:12:49.831Z</time></trkpt><trkpt lat="42.1808767" lon="14.64421"><ele>8.0</ele><time>2026-04-05T09:12:51.831Z</time></trkpt><trkpt lat="42.1807717" lon="14.6441633"><ele>8.0</ele><time>2026-04-05T09:12:53.831Z</time></trkpt><trkpt lat="42.18066" lon="14.6441183"><ele>8.0</ele><time>2026-04-05T09:12:55.831Z</time></trkpt><trkpt lat="42.1805583" lon="14.6440767"><ele>7.800000000000001</ele><time>2026-04-05T09:12:57.831Z</time></trkpt><trkpt lat="42.18046" lon="14.6440333"><ele>7.6000000000000005</ele><time>2026-04-05T09:12:59.831Z</time></trkpt><trkpt lat="42.1803517" lon="14.6439833"><ele>7.3999999999999995</ele><time>2026-04-05T09:13:01.831Z</time></trkpt><trkpt lat="42.1802783" lon="14.6438967"><ele>7.199999999999999</ele><time>2026-04-05T09:13:03.831Z</time></trkpt><trkpt lat="42.1802283" lon="14.643765"><ele>7.0</ele><time>2026-04-05T09:13:05.831Z</time></trkpt><trkpt lat="42.1802183" lon="14.6436083"><ele>7.0</ele><time>2026-04-05T09:13:07.831Z</time></trkpt><trkpt lat="42.1802233" lon="14.6434467"><ele>7.0</ele><time>2026-04-05T09:13:09.831Z</time></trkpt><trkpt lat="42.180215" lon="14.6432917"><ele>7.0</ele><time>2026-04-05T09:13:11.831Z</time></trkpt><trkpt lat="42.1802133" lon="14.6431383"><ele>7.0</ele><time>2026-04-05T09:13:13.831Z</time></trkpt><trkpt lat="42.18021" lon="14.64298"><ele>7.0</ele><time>2026-04-05T09:13:15.831Z</time></trkpt><trkpt lat="42.1802017" lon="14.6428133"><ele>6.999999999999999</ele><time>2026-04-05T09:13:17.832Z</time></trkpt><trkpt lat="42.1802017" lon="14.6427283"><ele>6.999999999999999</ele><time>2026-04-05T09:13:18.832Z</time></trkpt><trkpt lat="42.18018" lon="14.642565"><ele>7.0</ele><time>2026-04-05T09:13:20.831Z</time></trkpt><trkpt lat="42.1801583" lon="14.6424817"><ele>7.0</ele><time>2026-04-05T09:13:21.832Z</time></trkpt><trkpt lat="42.18012" lon="14.6423233"><ele>7.25</ele><time>2026-04-05T09:13:23.831Z</time></trkpt><trkpt lat="42.1800683" lon="14.6421783"><ele>7.5</ele><time>2026-04-05T09:13:25.831Z</time></trkpt><trkpt lat="42.1800033" lon="14.6420417"><ele>7.75</ele><time>2026-04-05T09:13:27.831Z</time></trkpt><trkpt lat="42.179935" lon="14.6419183"><ele>8.0</ele><time>2026-04-05T09:13:29.831Z</time></trkpt><trkpt lat="42.1798633" lon="14.6417867"><ele>8.0</ele><time>2026-04-05T09:13:31.831Z</time></trkpt><trkpt lat="42.1797883" lon="14.641665"><ele>8.0</ele><time>2026-04-05T09:13:33.832Z</time></trkpt><trkpt lat="42.179705" lon="14.641555"><ele>8.0</ele><time>2026-04-05T09:13:35.831Z</time></trkpt><trkpt lat="42.1796067" lon="14.6414667"><ele>8.0</ele><time>2026-04-05T09:13:37.832Z</time></trkpt><trkpt lat="42.17951" lon="14.6414"><ele>8.0</ele><time>2026-04-05T09:13:39.831Z</time></trkpt><trkpt lat="42.1794133" lon="14.64133"><ele>8.0</ele><time>2026-04-05T09:13:41.832Z</time></trkpt><trkpt lat="42.1793" lon="14.641275"><ele>8.0</ele><time>2026-04-05T09:13:43.831Z</time></trkpt><trkpt lat="42.1791933" lon="14.6412183"><ele>8.0</ele><time>2026-04-05T09:13:45.831Z</time></trkpt><trkpt lat="42.1790867" lon="14.64117"><ele>8.25</ele><time>2026-04-05T09:13:47.831Z</time></trkpt><trkpt lat="42.1789667" lon="14.64114"><ele>8.5</ele><time>2026-04-05T09:13:49.831Z</time></trkpt><trkpt lat="42.17885" lon="14.6411283"><ele>8.75</ele><time>2026-04-05T09:13:51.831Z</time></trkpt><trkpt lat="42.1787383" lon="14.64112"><ele>9.0</ele><time>2026-04-05T09:13:53.831Z</time></trkpt><trkpt lat="42.1786267" lon="14.6411267"><ele>9.0</ele><time>2026-04-05T09:13:55.831Z</time></trkpt><trkpt lat="42.1785083" lon="14.6411567"><ele>9.0</ele><time>2026-04-05T09:13:57.831Z</time></trkpt><trkpt lat="42.1783933" lon="14.64118"><ele>9.0</ele><time>2026-04-05T09:13:59.831Z</time></trkpt><trkpt lat="42.178275" lon="14.6412067"><ele>9.0</ele><time>2026-04-05T09:14:01.831Z</time></trkpt><trkpt lat="42.1781567" lon="14.6412267"><ele>9.2</ele><time>2026-04-05T09:14:03.831Z</time></trkpt><trkpt lat="42.1780417" lon="14.641215"><ele>9.4</ele><time>2026-04-05T09:14:05.831Z</time></trkpt><trkpt lat="42.1779433" lon="14.6411383"><ele>9.6</ele><time>2026-04-05T09:14:07.831Z</time></trkpt><trkpt lat="42.177875" lon="14.6410217"><ele>9.8</ele><time>2026-04-05T09:14:09.831Z</time></trkpt><trkpt lat="42.1778517" lon="14.64088"><ele>10.0</ele><time>2026-04-05T09:14:11.831Z</time></trkpt><trkpt lat="42.177835" lon="14.64073"><ele>10.2</ele><time>2026-04-05T09:14:13.831Z</time></trkpt><trkpt lat="42.1778117" lon="14.6405867"><ele>10.4</ele><time>2026-04-05T09:14:15.831Z</time></trkpt><trkpt lat="42.1777867" lon="14.640445"><ele>10.600000000000001</ele><time>2026-04-05T09:14:17.831Z</time></trkpt><trkpt lat="42.1777583" lon="14.6402933"><ele>10.8</ele><time>2026-04-05T09:14:19.831Z</time></trkpt><trkpt lat="42.1777267" lon="14.6401467"><ele>11.0</ele><time>2026-04-05T09:14:21.831Z</time></trkpt><trkpt lat="42.1776883" lon="14.6400033"><ele>11.0</ele><time>2026-04-05T09:14:23.831Z</time></trkpt><trkpt lat="42.1776267" lon="14.63987"><ele>11.0</ele><time>2026-04-05T09:14:25.831Z</time></trkpt><trkpt lat="42.177545" lon="14.63974"><ele>11.0</ele><time>2026-04-05T09:14:27.831Z</time></trkpt><trkpt lat="42.1774617" lon="14.63962"><ele>11.0</ele><time>2026-04-05T09:14:29.831Z</time></trkpt><trkpt lat="42.1774183" lon="14.6395567"><ele>11.0</ele><time>2026-04-05T09:14:30.831Z</time></trkpt><trkpt lat="42.177335" lon="14.63945"><ele>11.0</ele><time>2026-04-05T09:14:32.831Z</time></trkpt><trkpt lat="42.177245" lon="14.639345"><ele>11.0</ele><time>2026-04-05T09:14:34.831Z</time></trkpt><trkpt lat="42.17715" lon="14.639245"><ele>11.0</ele><time>2026-04-05T09:14:36.831Z</time></trkpt><trkpt lat="42.1770717" lon="14.6391483"><ele>11.0</ele><time>2026-04-05T09:14:38.831Z</time></trkpt><trkpt lat="42.1770067" lon="14.6390583"><ele>11.0</ele><time>2026-04-05T09:14:40.831Z</time></trkpt><trkpt lat="42.1769567" lon="14.6389683"><ele>11.0</ele><time>2026-04-05T09:14:42.831Z</time></trkpt><trkpt lat="42.176905" lon="14.638885"><ele>11.0</ele><time>2026-04-05T09:14:44.832Z</time></trkpt><trkpt lat="42.1768533" lon="14.6388067"><ele>11.0</ele><time>2026-04-05T09:14:46.832Z</time></trkpt><trkpt lat="42.1768017" lon="14.6387317"><ele>11.0</ele><time>2026-04-05T09:14:48.831Z</time></trkpt><trkpt lat="42.1767467" lon="14.638665"><ele>11.0</ele><time>2026-04-05T09:14:50.831Z</time></trkpt><trkpt lat="42.1766917" lon="14.63861"><ele>11.0</ele><time>2026-04-05T09:14:52.831Z</time></trkpt><trkpt lat="42.176625" lon="14.6385583"><ele>11.833333333333332</ele><time>2026-04-05T09:14:57.831Z</time></trkpt><trkpt lat="42.1765417" lon="14.6385183"><ele>12.666666666666666</ele><time>2026-04-05T09:15:00.831Z</time></trkpt><trkpt lat="42.1764733" lon="14.6385067"><ele>13.5</ele><time>2026-04-05T09:15:02.832Z</time></trkpt><trkpt lat="42.176395" lon="14.6385133"><ele>14.333333333333332</ele><time>2026-04-05T09:15:04.832Z</time></trkpt><trkpt lat="42.1763067" lon="14.6385283"><ele>15.166666666666666</ele><time>2026-04-05T09:15:06.831Z</time></trkpt><trkpt lat="42.176215" lon="14.6385433"><ele>16.0</ele><time>2026-04-05T09:15:08.831Z</time></trkpt><trkpt lat="42.1761217" lon="14.63856"><ele>16.2</ele><time>2026-04-05T09:15:10.832Z</time></trkpt><trkpt lat="42.1760183" lon="14.6385717"><ele>16.400000000000002</ele><time>2026-04-05T09:15:12.831Z</time></trkpt><trkpt lat="42.1759183" lon="14.63859"><ele>16.6</ele><time>2026-04-05T09:15:14.831Z</time></trkpt><trkpt lat="42.1758117" lon="14.63861"><ele>16.8</ele><time>2026-04-05T09:15:16.831Z</time></trkpt><trkpt lat="42.1757033" lon="14.6386183"><ele>17.0</ele><time>2026-04-05T09:15:18.831Z</time></trkpt><trkpt lat="42.175595" lon="14.6386367"><ele>16.6</ele><time>2026-04-05T09:15:20.832Z</time></trkpt><trkpt lat="42.1754867" lon="14.6386533"><ele>16.2</ele><time>2026-04-05T09:15:22.831Z</time></trkpt><trkpt lat="42.17537" lon="14.6386683"><ele>15.8</ele><time>2026-04-05T09:15:24.832Z</time></trkpt><trkpt lat="42.1752633" lon="14.6386833"><ele>15.4</ele><time>2026-04-05T09:15:26.831Z</time></trkpt><trkpt lat="42.1751583" lon="14.6387017"><ele>15.0</ele><time>2026-04-05T09:15:28.831Z</time></trkpt><trkpt lat="42.1750433" lon="14.6387167"><ele>15.0</ele><time>2026-04-05T09:15:30.831Z</time></trkpt><trkpt lat="42.1749367" lon="14.63873"><ele>15.0</ele><time>2026-04-05T09:15:32.831Z</time></trkpt><trkpt lat="42.17483" lon="14.63875"><ele>15.0</ele><time>2026-04-05T09:15:34.832Z</time></trkpt><trkpt lat="42.174725" lon="14.6387683"><ele>15.0</ele><time>2026-04-05T09:15:36.831Z</time></trkpt><trkpt lat="42.1746167" lon="14.6387867"><ele>15.0</ele><time>2026-04-05T09:15:38.832Z</time></trkpt><trkpt lat="42.1745033" lon="14.63881"><ele>14.8</ele><time>2026-04-05T09:15:40.831Z</time></trkpt><trkpt lat="42.1744" lon="14.6388267"><ele>14.6</ele><time>2026-04-05T09:15:42.831Z</time></trkpt><trkpt lat="42.1742767" lon="14.6388417"><ele>14.399999999999999</ele><time>2026-04-05T09:15:44.831Z</time></trkpt><trkpt lat="42.1741567" lon="14.6388633"><ele>14.2</ele><time>2026-04-05T09:15:46.831Z</time></trkpt><trkpt lat="42.1740917" lon="14.6388717"><ele>14.0</ele><time>2026-04-05T09:15:47.831Z</time></trkpt><trkpt lat="42.1739733" lon="14.6388933"><ele>13.75</ele><time>2026-04-05T09:15:49.831Z</time></trkpt><trkpt lat="42.1738533" lon="14.6389183"><ele>13.5</ele><time>2026-04-05T09:15:51.832Z</time></trkpt><trkpt lat="42.1737383" lon="14.63894"><ele>13.25</ele><time>2026-04-05T09:15:53.831Z</time></trkpt><trkpt lat="42.1736233" lon="14.6389533"><ele>13.0</ele><time>2026-04-05T09:15:55.831Z</time></trkpt><trkpt lat="42.1735067" lon="14.63897"><ele>13.0</ele><time>2026-04-05T09:15:57.831Z</time></trkpt><trkpt lat="42.1733867" lon="14.6389917"><ele>13.0</ele><time>2026-04-05T09:15:59.831Z</time></trkpt><trkpt lat="42.1732683" lon="14.6390167"><ele>13.0</ele><time>2026-04-05T09:16:01.832Z</time></trkpt><trkpt lat="42.1731517" lon="14.6390383"><ele>13.0</ele><time>2026-04-05T09:16:03.832Z</time></trkpt><trkpt lat="42.17303" lon="14.6390533"><ele>13.25</ele><time>2026-04-05T09:16:05.832Z</time></trkpt><trkpt lat="42.1729117" lon="14.6390717"><ele>13.5</ele><time>2026-04-05T09:16:07.832Z</time></trkpt><trkpt lat="42.172795" lon="14.6390833"><ele>13.75</ele><time>2026-04-05T09:16:09.831Z</time></trkpt><trkpt lat="42.1726767" lon="14.63911"><ele>14.0</ele><time>2026-04-05T09:16:11.831Z</time></trkpt><trkpt lat="42.17256" lon="14.639125"><ele>14.0</ele><time>2026-04-05T09:16:13.831Z</time></trkpt><trkpt lat="42.1724467" lon="14.6391417"><ele>14.0</ele><time>2026-04-05T09:16:15.83Z</time></trkpt><trkpt lat="42.1723317" lon="14.6391617"><ele>14.0</ele><time>2026-04-05T09:16:17.831Z</time></trkpt><trkpt lat="42.1722117" lon="14.6391883"><ele>14.0</ele><time>2026-04-05T09:16:19.831Z</time></trkpt><trkpt lat="42.1721" lon="14.639205"><ele>14.25</ele><time>2026-04-05T09:16:21.831Z</time></trkpt><trkpt lat="42.1719833" lon="14.639225"><ele>14.5</ele><time>2026-04-05T09:16:23.831Z</time></trkpt><trkpt lat="42.1718633" lon="14.6392383"><ele>14.75</ele><time>2026-04-05T09:16:25.831Z</time></trkpt><trkpt lat="42.1717467" lon="14.6392617"><ele>15.0</ele><time>2026-04-05T09:16:27.831Z</time></trkpt><trkpt lat="42.1716333" lon="14.6392817"><ele>15.25</ele><time>2026-04-05T09:16:29.831Z</time></trkpt><trkpt lat="42.1715183" lon="14.6392967"><ele>15.5</ele><time>2026-04-05T09:16:31.831Z</time></trkpt><trkpt lat="42.1714017" lon="14.6393217"><ele>15.75</ele><time>2026-04-05T09:16:33.831Z</time></trkpt><trkpt lat="42.1712917" lon="14.6393433"><ele>16.0</ele><time>2026-04-05T09:16:35.831Z</time></trkpt><trkpt lat="42.1711717" lon="14.63936"><ele>16.0</ele><time>2026-04-05T09:16:37.831Z</time></trkpt><trkpt lat="42.1710567" lon="14.6393783"><ele>16.0</ele><time>2026-04-05T09:16:39.831Z</time></trkpt><trkpt lat="42.170935" lon="14.6393983"><ele>16.0</ele><time>2026-04-05T09:16:41.832Z</time></trkpt><trkpt lat="42.17082" lon="14.6394217"><ele>16.0</ele><time>2026-04-05T09:16:43.832Z</time></trkpt><trkpt lat="42.1707083" lon="14.6394367"><ele>16.0</ele><time>2026-04-05T09:16:45.831Z</time></trkpt><trkpt lat="42.17059" lon="14.6394483"><ele>16.0</ele><time>2026-04-05T09:16:47.831Z</time></trkpt><trkpt lat="42.1705267" lon="14.63946"><ele>16.0</ele><time>2026-04-05T09:16:48.831Z</time></trkpt><trkpt lat="42.1704067" lon="14.639485"><ele>16.0</ele><time>2026-04-05T09:16:50.831Z</time></trkpt><trkpt lat="42.1702867" lon="14.6395033"><ele>16.0</ele><time>2026-04-05T09:16:52.832Z</time></trkpt><trkpt lat="42.17017" lon="14.63952"><ele>16.0</ele><time>2026-04-05T09:16:54.832Z</time></trkpt><trkpt lat="42.1700517" lon="14.639535"><ele>16.0</ele><time>2026-04-05T09:16:56.832Z</time></trkpt><trkpt lat="42.1699367" lon="14.6395583"><ele>16.0</ele><time>2026-04-05T09:16:58.832Z</time></trkpt><trkpt lat="42.1698217" lon="14.6395783"><ele>16.0</ele><time>2026-04-05T09:17:00.831Z</time></trkpt><trkpt lat="42.1697067" lon="14.6395983"><ele>16.5</ele><time>2026-04-05T09:17:02.831Z</time></trkpt><trkpt lat="42.1695917" lon="14.63961"><ele>17.0</ele><time>2026-04-05T09:17:04.831Z</time></trkpt><trkpt lat="42.169475" lon="14.6396333"><ele>17.5</ele><time>2026-04-05T09:17:06.831Z</time></trkpt><trkpt lat="42.16936" lon="14.6396567"><ele>18.0</ele><time>2026-04-05T09:17:08.831Z</time></trkpt><trkpt lat="42.16925" lon="14.6396767"><ele>18.0</ele><time>2026-04-05T09:17:10.832Z</time></trkpt><trkpt lat="42.1691367" lon="14.639695"><ele>18.0</ele><time>2026-04-05T09:17:12.831Z</time></trkpt><trkpt lat="42.1690167" lon="14.6397083"><ele>18.0</ele><time>2026-04-05T09:17:14.831Z</time></trkpt><trkpt lat="42.1688967" lon="14.63973"><ele>18.0</ele><time>2026-04-05T09:17:16.831Z</time></trkpt><trkpt lat="42.16878" lon="14.639745"><ele>18.0</ele><time>2026-04-05T09:17:18.832Z</time></trkpt><trkpt lat="42.168665" lon="14.639765"><ele>18.0</ele><time>2026-04-05T09:17:20.832Z</time></trkpt><trkpt lat="42.1685517" lon="14.6397867"><ele>18.0</ele><time>2026-04-05T09:17:22.831Z</time></trkpt><trkpt lat="42.1684383" lon="14.6398033"><ele>18.0</ele><time>2026-04-05T09:17:24.831Z</time></trkpt><trkpt lat="42.16832" lon="14.6398267"><ele>18.0</ele><time>2026-04-05T09:17:26.831Z</time></trkpt><trkpt lat="42.1682033" lon="14.6398467"><ele>18.0</ele><time>2026-04-05T09:17:28.831Z</time></trkpt><trkpt lat="42.168085" lon="14.639865"><ele>18.0</ele><time>2026-04-05T09:17:30.831Z</time></trkpt><trkpt lat="42.16797" lon="14.6398817"><ele>18.0</ele><time>2026-04-05T09:17:32.831Z</time></trkpt><trkpt lat="42.1678517" lon="14.6398983"><ele>17.75</ele><time>2026-04-05T09:17:34.831Z</time></trkpt><trkpt lat="42.1677317" lon="14.639925"><ele>17.5</ele><time>2026-04-05T09:17:36.831Z</time></trkpt><trkpt lat="42.16761" lon="14.6399467"><ele>17.25</ele><time>2026-04-05T09:17:38.831Z</time></trkpt><trkpt lat="42.1674917" lon="14.6399617"><ele>17.0</ele><time>2026-04-05T09:17:40.831Z</time></trkpt><trkpt lat="42.167375" lon="14.6399817"><ele>17.0</ele><time>2026-04-05T09:17:42.831Z</time></trkpt><trkpt lat="42.1672617" lon="14.6400033"><ele>17.0</ele><time>2026-04-05T09:17:44.831Z</time></trkpt><trkpt lat="42.1671483" lon="14.6400167"><ele>17.0</ele><time>2026-04-05T09:17:46.832Z</time></trkpt><trkpt lat="42.16703" lon="14.6400383"><ele>17.0</ele><time>2026-04-05T09:17:48.831Z</time></trkpt><trkpt lat="42.16691" lon="14.64006"><ele>17.0</ele><time>2026-04-05T09:17:50.831Z</time></trkpt><trkpt lat="42.1667933" lon="14.6400783"><ele>17.0</ele><time>2026-04-05T09:17:52.831Z</time></trkpt><trkpt lat="42.166675" lon="14.6401"><ele>17.0</ele><time>2026-04-05T09:17:54.831Z</time></trkpt><trkpt lat="42.1665583" lon="14.6401167"><ele>17.0</ele><time>2026-04-05T09:17:56.831Z</time></trkpt><trkpt lat="42.16644" lon="14.6401317"><ele>17.25</ele><time>2026-04-05T09:17:58.831Z</time></trkpt><trkpt lat="42.166325" lon="14.6401483"><ele>17.5</ele><time>2026-04-05T09:18:00.831Z</time></trkpt><trkpt lat="42.16621" lon="14.6401717"><ele>17.75</ele><time>2026-04-05T09:18:02.831Z</time></trkpt><trkpt lat="42.1660983" lon="14.6401883"><ele>18.0</ele><time>2026-04-05T09:18:04.831Z</time></trkpt><trkpt lat="42.1659767" lon="14.6402033"><ele>18.0</ele><time>2026-04-05T09:18:06.832Z</time></trkpt><trkpt lat="42.1658633" lon="14.6402267"><ele>18.0</ele><time>2026-04-05T09:18:08.831Z</time></trkpt><trkpt lat="42.165745" lon="14.6402417"><ele>18.0</ele><time>2026-04-05T09:18:10.831Z</time></trkpt><trkpt lat="42.1656333" lon="14.6402617"><ele>18.0</ele><time>2026-04-05T09:18:12.831Z</time></trkpt><trkpt lat="42.1655183" lon="14.6402817"><ele>18.0</ele><time>2026-04-05T09:18:14.831Z</time></trkpt><trkpt lat="42.1654017" lon="14.6402933"><ele>18.0</ele><time>2026-04-05T09:18:16.831Z</time></trkpt><trkpt lat="42.1652833" lon="14.6403183"><ele>18.0</ele><time>2026-04-05T09:18:18.832Z</time></trkpt><trkpt lat="42.1651717" lon="14.6403433"><ele>18.0</ele><time>2026-04-05T09:18:20.831Z</time></trkpt><trkpt lat="42.1650617" lon="14.6403683"><ele>18.25</ele><time>2026-04-05T09:18:22.831Z</time></trkpt><trkpt lat="42.164945" lon="14.6403917"><ele>18.5</ele><time>2026-04-05T09:18:24.831Z</time></trkpt><trkpt lat="42.1648317" lon="14.64044"><ele>18.75</ele><time>2026-04-05T09:18:26.831Z</time></trkpt><trkpt lat="42.164725" lon="14.6404867"><ele>19.0</ele><time>2026-04-05T09:18:28.831Z</time></trkpt><trkpt lat="42.1646267" lon="14.6405267"><ele>19.2</ele><time>2026-04-05T09:18:30.831Z</time></trkpt><trkpt lat="42.1645267" lon="14.6405617"><ele>19.4</ele><time>2026-04-05T09:18:32.831Z</time></trkpt><trkpt lat="42.1644233" lon="14.64058"><ele>19.6</ele><time>2026-04-05T09:18:34.832Z</time></trkpt><trkpt lat="42.1643333" lon="14.6406"><ele>19.8</ele><time>2026-04-05T09:18:36.831Z</time></trkpt><trkpt lat="42.16424" lon="14.64061"><ele>20.0</ele><time>2026-04-05T09:18:38.831Z</time></trkpt><trkpt lat="42.164135" lon="14.64057"><ele>19.5</ele><time>2026-04-05T09:18:40.831Z</time></trkpt><trkpt lat="42.16402" lon="14.64055"><ele>19.0</ele><time>2026-04-05T09:18:42.831Z</time></trkpt><trkpt lat="42.1639033" lon="14.6405717"><ele>18.5</ele><time>2026-04-05T09:18:44.831Z</time></trkpt><trkpt lat="42.1637967" lon="14.6405733"><ele>18.0</ele><time>2026-04-05T09:18:46.832Z</time></trkpt><trkpt lat="42.1637" lon="14.6404983"><ele>18.0</ele><time>2026-04-05T09:18:48.831Z</time></trkpt><trkpt lat="42.1636433" lon="14.640375"><ele>18.0</ele><time>2026-04-05T09:18:50.831Z</time></trkpt><trkpt lat="42.1635967" lon="14.6402383"><ele>18.0</ele><time>2026-04-05T09:18:52.831Z</time></trkpt><trkpt lat="42.1635217" lon="14.6401217"><ele>18.0</ele><time>2026-04-05T09:18:54.832Z</time></trkpt><trkpt lat="42.1634333" lon="14.6400333"><ele>18.0</ele><time>2026-04-05T09:18:56.831Z</time></trkpt><trkpt lat="42.1633517" lon="14.6399233"><ele>18.4</ele><time>2026-04-05T09:18:58.832Z</time></trkpt><trkpt lat="42.1632733" lon="14.6397983"><ele>18.8</ele><time>2026-04-05T09:19:00.831Z</time></trkpt><trkpt lat="42.163195" lon="14.6396833"><ele>19.2</ele><time>2026-04-05T09:19:02.831Z</time></trkpt><trkpt lat="42.1631067" lon="14.6395917"><ele>19.6</ele><time>2026-04-05T09:19:04.831Z</time></trkpt><trkpt lat="42.1630483" lon="14.6395583"><ele>20.0</ele><time>2026-04-05T09:19:05.831Z</time></trkpt><trkpt lat="42.162985" lon="14.6395333"><ele>20.2</ele><time>2026-04-05T09:19:06.831Z</time></trkpt><trkpt lat="42.1628733" lon="14.639495"><ele>20.4</ele><time>2026-04-05T09:19:08.832Z</time></trkpt><trkpt lat="42.1627733" lon="14.63945"><ele>20.6</ele><time>2026-04-05T09:19:10.831Z</time></trkpt><trkpt lat="42.162675" lon="14.6393967"><ele>20.8</ele><time>2026-04-05T09:19:12.831Z</time></trkpt><trkpt lat="42.162605" lon="14.6392983"><ele>21.0</ele><time>2026-04-05T09:19:14.831Z</time></trkpt><trkpt lat="42.1625533" lon="14.6391967"><ele>21.200000000000003</ele><time>2026-04-05T09:19:16.831Z</time></trkpt><trkpt lat="42.162495" lon="14.6390817"><ele>21.400000000000002</ele><time>2026-04-05T09:19:18.831Z</time></trkpt><trkpt lat="42.1624417" lon="14.638955"><ele>21.6</ele><time>2026-04-05T09:19:20.831Z</time></trkpt><trkpt lat="42.1624217" lon="14.63881"><ele>21.8</ele><time>2026-04-05T09:19:22.832Z</time></trkpt><trkpt lat="42.162435" lon="14.6386767"><ele>22.0</ele><time>2026-04-05T09:19:24.831Z</time></trkpt><trkpt lat="42.1624767" lon="14.6385517"><ele>22.8</ele><time>2026-04-05T09:19:26.831Z</time></trkpt><trkpt lat="42.162545" lon="14.638455"><ele>23.6</ele><time>2026-04-05T09:19:28.831Z</time></trkpt><trkpt lat="42.162625" lon="14.6383683"><ele>24.400000000000002</ele><time>2026-04-05T09:19:30.831Z</time></trkpt><trkpt lat="42.162705" lon="14.6382917"><ele>25.200000000000003</ele><time>2026-04-05T09:19:32.831Z</time></trkpt><trkpt lat="42.1627933" lon="14.6382317"><ele>26.0</ele><time>2026-04-05T09:19:34.831Z</time></trkpt><trkpt lat="42.1628883" lon="14.6381533"><ele>26.0</ele><time>2026-04-05T09:19:36.831Z</time></trkpt><trkpt lat="42.162985" lon="14.638085"><ele>26.0</ele><time>2026-04-05T09:19:38.831Z</time></trkpt><trkpt lat="42.1630833" lon="14.6380317"><ele>26.0</ele><time>2026-04-05T09:19:40.832Z</time></trkpt><trkpt lat="42.163175" lon="14.63797"><ele>26.0</ele><time>2026-04-05T09:19:42.831Z</time></trkpt><trkpt lat="42.16326" lon="14.6379083"><ele>26.0</ele><time>2026-04-05T09:19:44.831Z</time></trkpt><trkpt lat="42.1633333" lon="14.6378083"><ele>26.6</ele><time>2026-04-05T09:19:46.831Z</time></trkpt><trkpt lat="42.1634067" lon="14.6377067"><ele>27.200000000000003</ele><time>2026-04-05T09:19:48.831Z</time></trkpt><trkpt lat="42.1634733" lon="14.6375917"><ele>27.799999999999997</ele><time>2026-04-05T09:19:50.831Z</time></trkpt><trkpt lat="42.1635383" lon="14.6374883"><ele>28.4</ele><time>2026-04-05T09:19:52.831Z</time></trkpt><trkpt lat="42.1636033" lon="14.6373683"><ele>29.0</ele><time>2026-04-05T09:19:54.832Z</time></trkpt><trkpt lat="42.1636567" lon="14.6372333"><ele>28.999999999999996</ele><time>2026-04-05T09:19:56.831Z</time></trkpt><trkpt lat="42.1636767" lon="14.63714"><ele>29.0</ele><time>2026-04-05T09:19:57.831Z</time></trkpt><trkpt lat="42.1636867" lon="14.6370533"><ele>29.0</ele><time>2026-04-05T09:19:58.831Z</time></trkpt><trkpt lat="42.163685" lon="14.6369583"><ele>29.0</ele><time>2026-04-05T09:19:59.832Z</time></trkpt><trkpt lat="42.1636717" lon="14.636875"><ele>28.999999999999996</ele><time>2026-04-05T09:20:00.831Z</time></trkpt><trkpt lat="42.16362" lon="14.6367333"><ele>29.0</ele><time>2026-04-05T09:20:02.832Z</time></trkpt><trkpt lat="42.1635467" lon="14.6366017"><ele>30.25</ele><time>2026-04-05T09:20:04.831Z</time></trkpt><trkpt lat="42.1634717" lon="14.6364767"><ele>31.5</ele><time>2026-04-05T09:20:06.831Z</time></trkpt><trkpt lat="42.1634017" lon="14.636355"><ele>32.75</ele><time>2026-04-05T09:20:08.831Z</time></trkpt><trkpt lat="42.1633333" lon="14.6362333"><ele>34.0</ele><time>2026-04-05T09:20:10.832Z</time></trkpt><trkpt lat="42.1632717" lon="14.636105"><ele>34.2</ele><time>2026-04-05T09:20:12.831Z</time></trkpt><trkpt lat="42.1632083" lon="14.6359733"><ele>34.4</ele><time>2026-04-05T09:20:14.831Z</time></trkpt><trkpt lat="42.1631517" lon="14.6358533"><ele>34.6</ele><time>2026-04-05T09:20:16.831Z</time></trkpt><trkpt lat="42.1630833" lon="14.6357367"><ele>34.8</ele><time>2026-04-05T09:20:18.831Z</time></trkpt><trkpt lat="42.163005" lon="14.63562"><ele>35.0</ele><time>2026-04-05T09:20:20.831Z</time></trkpt><trkpt lat="42.16291" lon="14.6355183"><ele>35.5</ele><time>2026-04-05T09:20:22.831Z</time></trkpt><trkpt lat="42.162815" lon="14.6354333"><ele>36.0</ele><time>2026-04-05T09:20:24.831Z</time></trkpt><trkpt lat="42.16271" lon="14.6353683"><ele>36.5</ele><time>2026-04-05T09:20:26.831Z</time></trkpt><trkpt lat="42.1626033" lon="14.63531"><ele>37.0</ele><time>2026-04-05T09:20:28.831Z</time></trkpt><trkpt lat="42.16249" lon="14.6352633"><ele>38.5</ele><time>2026-04-05T09:20:30.831Z</time></trkpt><trkpt lat="42.1623783" lon="14.635215"><ele>40.0</ele><time>2026-04-05T09:20:32.831Z</time></trkpt><trkpt lat="42.16227" lon="14.6351683"><ele>41.5</ele><time>2026-04-05T09:20:34.831Z</time></trkpt><trkpt lat="42.16217" lon="14.6350967"><ele>43.0</ele><time>2026-04-05T09:20:36.832Z</time></trkpt><trkpt lat="42.162075" lon="14.6350133"><ele>43.66666666666667</ele><time>2026-04-05T09:20:38.831Z</time></trkpt><trkpt lat="42.1619867" lon="14.6349217"><ele>44.333333333333336</ele><time>2026-04-05T09:20:40.831Z</time></trkpt><trkpt lat="42.1619033" lon="14.634845"><ele>45.0</ele><time>2026-04-05T09:20:42.831Z</time></trkpt><trkpt lat="42.1618133" lon="14.6347917"><ele>45.666666666666664</ele><time>2026-04-05T09:20:46.831Z</time></trkpt><trkpt lat="42.1617567" lon="14.6347433"><ele>46.33333333333333</ele><time>2026-04-05T09:20:47.832Z</time></trkpt><trkpt lat="42.16171" lon="14.6346717"><ele>47.0</ele><time>2026-04-05T09:20:48.832Z</time></trkpt><trkpt lat="42.16168" lon="14.6345433"><ele>47.6</ele><time>2026-04-05T09:20:49.831Z</time></trkpt><trkpt lat="42.16165" lon="14.6344633"><ele>48.2</ele><time>2026-04-05T09:20:50.831Z</time></trkpt><trkpt lat="42.1616183" lon="14.6343767"><ele>48.8</ele><time>2026-04-05T09:20:51.831Z</time></trkpt><trkpt lat="42.1616017" lon="14.6342183"><ele>49.4</ele><time>2026-04-05T09:20:53.831Z</time></trkpt><trkpt lat="42.1616267" lon="14.6340683"><ele>50.0</ele><time>2026-04-05T09:20:55.831Z</time></trkpt><trkpt lat="42.16168" lon="14.63394"><ele>50.0</ele><time>2026-04-05T09:20:57.831Z</time></trkpt><trkpt lat="42.1617483" lon="14.633825"><ele>50.0</ele><time>2026-04-05T09:20:59.832Z</time></trkpt><trkpt lat="42.1618217" lon="14.6337083"><ele>50.0</ele><time>2026-04-05T09:21:01.831Z</time></trkpt><trkpt lat="42.1618933" lon="14.633605"><ele>50.0</ele><time>2026-04-05T09:21:03.831Z</time></trkpt><trkpt lat="42.161965" lon="14.63349"><ele>50.0</ele><time>2026-04-05T09:21:05.831Z</time></trkpt><trkpt lat="42.1620367" lon="14.63338"><ele>51.2</ele><time>2026-04-05T09:21:07.831Z</time></trkpt><trkpt lat="42.1621117" lon="14.6332633"><ele>52.4</ele><time>2026-04-05T09:21:09.831Z</time></trkpt><trkpt lat="42.16219" lon="14.6331617"><ele>53.599999999999994</ele><time>2026-04-05T09:21:11.831Z</time></trkpt><trkpt lat="42.16226" lon="14.6330433"><ele>54.8</ele><time>2026-04-05T09:21:13.831Z</time></trkpt><trkpt lat="42.162325" lon="14.6329183"><ele>56.0</ele><time>2026-04-05T09:21:15.831Z</time></trkpt><trkpt lat="42.1623917" lon="14.6327867"><ele>56.0</ele><time>2026-04-05T09:21:17.831Z</time></trkpt><trkpt lat="42.1624733" lon="14.6326717"><ele>56.0</ele><time>2026-04-05T09:21:19.831Z</time></trkpt><trkpt lat="42.1625517" lon="14.63256"><ele>56.0</ele><time>2026-04-05T09:21:21.831Z</time></trkpt><trkpt lat="42.1626317" lon="14.632465"><ele>56.0</ele><time>2026-04-05T09:21:23.831Z</time></trkpt><trkpt lat="42.1627217" lon="14.632365"><ele>56.0</ele><time>2026-04-05T09:21:25.831Z</time></trkpt><trkpt lat="42.16281" lon="14.63227"><ele>56.0</ele><time>2026-04-05T09:21:27.832Z</time></trkpt><trkpt lat="42.1628833" lon="14.63215"><ele>56.0</ele><time>2026-04-05T09:21:29.831Z</time></trkpt><trkpt lat="42.1629233" lon="14.6320067"><ele>56.0</ele><time>2026-04-05T09:21:31.831Z</time></trkpt><trkpt lat="42.1629117" lon="14.63185"><ele>57.599999999999994</ele><time>2026-04-05T09:21:33.831Z</time></trkpt><trkpt lat="42.1628433" lon="14.6317367"><ele>59.199999999999996</ele><time>2026-04-05T09:21:35.831Z</time></trkpt><trkpt lat="42.162745" lon="14.6316883"><ele>60.800000000000004</ele><time>2026-04-05T09:21:37.832Z</time></trkpt><trkpt lat="42.1626367" lon="14.6316833"><ele>62.400000000000006</ele><time>2026-04-05T09:21:39.831Z</time></trkpt><trkpt lat="42.162535" lon="14.6317333"><ele>64.0</ele><time>2026-04-05T09:21:41.831Z</time></trkpt><trkpt lat="42.162475" lon="14.6317717"><ele>64.0</ele><time>2026-04-05T09:21:42.831Z</time></trkpt><trkpt lat="42.1623733" lon="14.63185"><ele>64.0</ele><time>2026-04-05T09:21:44.831Z</time></trkpt><trkpt lat="42.1622683" lon="14.631925"><ele>64.0</ele><time>2026-04-05T09:21:46.831Z</time></trkpt><trkpt lat="42.1621733" lon="14.6320133"><ele>64.0</ele><time>2026-04-05T09:21:48.831Z</time></trkpt><trkpt lat="42.16207" lon="14.6320917"><ele>64.5</ele><time>2026-04-05T09:21:50.831Z</time></trkpt><trkpt lat="42.1619733" lon="14.63217"><ele>65.0</ele><time>2026-04-05T09:21:52.831Z</time></trkpt><trkpt lat="42.1618733" lon="14.6322483"><ele>65.5</ele><time>2026-04-05T09:21:54.831Z</time></trkpt><trkpt lat="42.1617733" lon="14.6323283"><ele>66.0</ele><time>2026-04-05T09:21:56.832Z</time></trkpt><trkpt lat="42.161675" lon="14.632405"><ele>66.0</ele><time>2026-04-05T09:21:58.832Z</time></trkpt><trkpt lat="42.16158" lon="14.6324817"><ele>66.0</ele><time>2026-04-05T09:22:00.832Z</time></trkpt><trkpt lat="42.1614967" lon="14.6325417"><ele>66.0</ele><time>2026-04-05T09:22:02.831Z</time></trkpt><trkpt lat="42.16141" lon="14.6326067"><ele>66.0</ele><time>2026-04-05T09:22:04.831Z</time></trkpt><trkpt lat="42.1613017" lon="14.63267"><ele>66.0</ele><time>2026-04-05T09:22:06.832Z</time></trkpt><trkpt lat="42.1612217" lon="14.632715"><ele>65.0</ele><time>2026-04-05T09:22:07.831Z</time></trkpt><trkpt lat="42.1611217" lon="14.6327767"><ele>64.0</ele><time>2026-04-05T09:22:09.832Z</time></trkpt><trkpt lat="42.161015" lon="14.6328467"><ele>63.0</ele><time>2026-04-05T09:22:11.831Z</time></trkpt><trkpt lat="42.16091" lon="14.6329083"><ele>62.0</ele><time>2026-04-05T09:22:13.831Z</time></trkpt><trkpt lat="42.1607983" lon="14.632935"><ele>62.0</ele><time>2026-04-05T09:22:15.831Z</time></trkpt><trkpt lat="42.1606883" lon="14.6329267"><ele>62.0</ele><time>2026-04-05T09:22:17.831Z</time></trkpt><trkpt lat="42.1605983" lon="14.632845"><ele>62.0</ele><time>2026-04-05T09:22:19.831Z</time></trkpt><trkpt lat="42.1605383" lon="14.63272"><ele>62.0</ele><time>2026-04-05T09:22:21.831Z</time></trkpt><trkpt lat="42.1605017" lon="14.6325833"><ele>62.0</ele><time>2026-04-05T09:22:23.831Z</time></trkpt><trkpt lat="42.1604683" lon="14.632445"><ele>62.0</ele><time>2026-04-05T09:22:25.831Z</time></trkpt><trkpt lat="42.16045" lon="14.6323117"><ele>62.0</ele><time>2026-04-05T09:22:27.831Z</time></trkpt><trkpt lat="42.1604267" lon="14.6321617"><ele>62.0</ele><time>2026-04-05T09:22:29.831Z</time></trkpt><trkpt lat="42.1604117" lon="14.63201"><ele>62.0</ele><time>2026-04-05T09:22:31.831Z</time></trkpt><trkpt lat="42.1603917" lon="14.63186"><ele>62.0</ele><time>2026-04-05T09:22:33.831Z</time></trkpt><trkpt lat="42.1603717" lon="14.6317183"><ele>64.0</ele><time>2026-04-05T09:22:35.832Z</time></trkpt><trkpt lat="42.1603367" lon="14.631575"><ele>66.0</ele><time>2026-04-05T09:22:37.831Z</time></trkpt><trkpt lat="42.1602967" lon="14.631425"><ele>68.0</ele><time>2026-04-05T09:22:39.831Z</time></trkpt><trkpt lat="42.160255" lon="14.63128"><ele>70.0</ele><time>2026-04-05T09:22:41.831Z</time></trkpt><trkpt lat="42.160215" lon="14.6311267"><ele>71.5</ele><time>2026-04-05T09:22:43.831Z</time></trkpt><trkpt lat="42.1601933" lon="14.6309733"><ele>73.0</ele><time>2026-04-05T09:22:45.831Z</time></trkpt><trkpt lat="42.1601867" lon="14.6308117"><ele>74.5</ele><time>2026-04-05T09:22:47.831Z</time></trkpt><trkpt lat="42.1601883" lon="14.6306483"><ele>76.0</ele><time>2026-04-05T09:22:49.831Z</time></trkpt><trkpt lat="42.1601917" lon="14.6304917"><ele>76.0</ele><time>2026-04-05T09:22:51.831Z</time></trkpt><trkpt lat="42.160185" lon="14.6303433"><ele>76.0</ele><time>2026-04-05T09:22:53.831Z</time></trkpt><trkpt lat="42.160195" lon="14.630185"><ele>76.0</ele><time>2026-04-05T09:22:55.831Z</time></trkpt><trkpt lat="42.1602033" lon="14.63003"><ele>76.0</ele><time>2026-04-05T09:22:57.831Z</time></trkpt><trkpt lat="42.16021" lon="14.6298767"><ele>77.0</ele><time>2026-04-05T09:22:59.831Z</time></trkpt><trkpt lat="42.1602267" lon="14.6297433"><ele>78.0</ele><time>2026-04-05T09:23:01.831Z</time></trkpt><trkpt lat="42.1602467" lon="14.6296"><ele>79.0</ele><time>2026-04-05T09:23:03.831Z</time></trkpt><trkpt lat="42.1602667" lon="14.6294467"><ele>80.0</ele><time>2026-04-05T09:23:05.831Z</time></trkpt><trkpt lat="42.1602917" lon="14.6292867"><ele>81.0</ele><time>2026-04-05T09:23:07.831Z</time></trkpt><trkpt lat="42.16031" lon="14.629135"><ele>81.5</ele><time>2026-04-05T09:23:09.831Z</time></trkpt><trkpt lat="42.1603283" lon="14.62897"><ele>82.0</ele><time>2026-04-05T09:23:11.832Z</time></trkpt><trkpt lat="42.1603483" lon="14.62881"><ele>82.5</ele><time>2026-04-05T09:23:13.831Z</time></trkpt><trkpt lat="42.1603667" lon="14.6286483"><ele>83.0</ele><time>2026-04-05T09:23:15.831Z</time></trkpt><trkpt lat="42.1603867" lon="14.628495"><ele>83.25</ele><time>2026-04-05T09:23:17.831Z</time></trkpt><trkpt lat="42.16041" lon="14.62834"><ele>83.5</ele><time>2026-04-05T09:23:19.831Z</time></trkpt><trkpt lat="42.1604317" lon="14.6281833"><ele>83.75</ele><time>2026-04-05T09:23:21.832Z</time></trkpt><trkpt lat="42.160455" lon="14.628035"><ele>84.0</ele><time>2026-04-05T09:23:23.831Z</time></trkpt><trkpt lat="42.160475" lon="14.627885"><ele>84.75</ele><time>2026-04-05T09:23:25.831Z</time></trkpt><trkpt lat="42.1605" lon="14.6277283"><ele>85.5</ele><time>2026-04-05T09:23:27.832Z</time></trkpt><trkpt lat="42.16052" lon="14.6275733"><ele>86.25</ele><time>2026-04-05T09:23:29.831Z</time></trkpt><trkpt lat="42.16054" lon="14.6274217"><ele>87.0</ele><time>2026-04-05T09:23:31.831Z</time></trkpt><trkpt lat="42.1605667" lon="14.627275"><ele>87.0</ele><time>2026-04-05T09:23:33.831Z</time></trkpt><trkpt lat="42.16059" lon="14.627125"><ele>87.0</ele><time>2026-04-05T09:23:35.832Z</time></trkpt><trkpt lat="42.16061" lon="14.62698"><ele>87.0</ele><time>2026-04-05T09:23:37.831Z</time></trkpt><trkpt lat="42.1606333" lon="14.62683"><ele>87.0</ele><time>2026-04-05T09:23:39.831Z</time></trkpt><trkpt lat="42.1606533" lon="14.626685"><ele>87.0</ele><time>2026-04-05T09:23:41.831Z</time></trkpt><trkpt lat="42.1606783" lon="14.6265417"><ele>87.8</ele><time>2026-04-05T09:23:43.831Z</time></trkpt><trkpt lat="42.16071" lon="14.6264083"><ele>88.6</ele><time>2026-04-05T09:23:45.831Z</time></trkpt><trkpt lat="42.1607583" lon="14.6262867"><ele>89.39999999999999</ele><time>2026-04-05T09:23:47.831Z</time></trkpt><trkpt lat="42.1608117" lon="14.6261717"><ele>90.19999999999999</ele><time>2026-04-05T09:23:49.832Z</time></trkpt><trkpt lat="42.1608883" lon="14.6260717"><ele>91.0</ele><time>2026-04-05T09:23:51.831Z</time></trkpt><trkpt lat="42.160975" lon="14.6259817"><ele>91.8</ele><time>2026-04-05T09:23:53.831Z</time></trkpt><trkpt lat="42.1610633" lon="14.6258883"><ele>92.6</ele><time>2026-04-05T09:23:55.831Z</time></trkpt><trkpt lat="42.1611483" lon="14.6257967"><ele>93.4</ele><time>2026-04-05T09:23:57.832Z</time></trkpt><trkpt lat="42.1612333" lon="14.6257"><ele>94.2</ele><time>2026-04-05T09:23:59.832Z</time></trkpt><trkpt lat="42.1613217" lon="14.625615"><ele>95.0</ele><time>2026-04-05T09:24:01.832Z</time></trkpt><trkpt lat="42.16141" lon="14.6255183"><ele>95.0</ele><time>2026-04-05T09:24:03.831Z</time></trkpt><trkpt lat="42.1615017" lon="14.6254217"><ele>95.0</ele><time>2026-04-05T09:24:05.831Z</time></trkpt><trkpt lat="42.1615883" lon="14.625335"><ele>95.0</ele><time>2026-04-05T09:24:07.831Z</time></trkpt><trkpt lat="42.161665" lon="14.62524"><ele>95.0</ele><time>2026-04-05T09:24:09.831Z</time></trkpt><trkpt lat="42.16174" lon="14.6251317"><ele>95.0</ele><time>2026-04-05T09:24:11.831Z</time></trkpt><trkpt lat="42.1618067" lon="14.62501"><ele>96.5</ele><time>2026-04-05T09:24:13.831Z</time></trkpt><trkpt lat="42.16186" lon="14.6248783"><ele>98.0</ele><time>2026-04-05T09:24:15.831Z</time></trkpt><trkpt lat="42.1619033" lon="14.6247367"><ele>99.5</ele><time>2026-04-05T09:24:17.831Z</time></trkpt><trkpt lat="42.1619433" lon="14.6245883"><ele>101.0</ele><time>2026-04-05T09:24:19.831Z</time></trkpt><trkpt lat="42.16198" lon="14.624445"><ele>102.0</ele><time>2026-04-05T09:24:21.831Z</time></trkpt><trkpt lat="42.1620083" lon="14.6243083"><ele>103.0</ele><time>2026-04-05T09:24:23.831Z</time></trkpt><trkpt lat="42.162045" lon="14.6241633"><ele>104.0</ele><time>2026-04-05T09:24:25.831Z</time></trkpt><trkpt lat="42.16208" lon="14.624025"><ele>105.0</ele><time>2026-04-05T09:24:27.831Z</time></trkpt><trkpt lat="42.1621133" lon="14.623885"><ele>106.0</ele><time>2026-04-05T09:24:29.832Z</time></trkpt><trkpt lat="42.1621383" lon="14.6237383"><ele>106.8</ele><time>2026-04-05T09:24:31.831Z</time></trkpt><trkpt lat="42.162145" lon="14.6235933"><ele>107.6</ele><time>2026-04-05T09:24:33.831Z</time></trkpt><trkpt lat="42.162125" lon="14.6234433"><ele>108.4</ele><time>2026-04-05T09:24:35.832Z</time></trkpt><trkpt lat="42.16208" lon="14.62331"><ele>109.2</ele><time>2026-04-05T09:24:37.832Z</time></trkpt><trkpt lat="42.162025" lon="14.62318"><ele>110.0</ele><time>2026-04-05T09:24:39.831Z</time></trkpt><trkpt lat="42.1619683" lon="14.6230517"><ele>110.0</ele><time>2026-04-05T09:24:41.832Z</time></trkpt><trkpt lat="42.1619067" lon="14.6229167"><ele>110.0</ele><time>2026-04-05T09:24:43.831Z</time></trkpt><trkpt lat="42.16184" lon="14.6227833"><ele>110.0</ele><time>2026-04-05T09:24:45.831Z</time></trkpt><trkpt lat="42.161775" lon="14.622655"><ele>110.0</ele><time>2026-04-05T09:24:47.831Z</time></trkpt><trkpt lat="42.16171" lon="14.6225383"><ele>110.5</ele><time>2026-04-05T09:24:49.832Z</time></trkpt><trkpt lat="42.16164" lon="14.6224033"><ele>111.0</ele><time>2026-04-05T09:24:51.831Z</time></trkpt><trkpt lat="42.1615767" lon="14.6222717"><ele>111.5</ele><time>2026-04-05T09:24:53.831Z</time></trkpt><trkpt lat="42.1615167" lon="14.6221433"><ele>112.0</ele><time>2026-04-05T09:24:55.831Z</time></trkpt><trkpt lat="42.161455" lon="14.6220183"><ele>112.39999999999999</ele><time>2026-04-05T09:24:57.831Z</time></trkpt><trkpt lat="42.1613933" lon="14.621885"><ele>112.79999999999998</ele><time>2026-04-05T09:24:59.831Z</time></trkpt><trkpt lat="42.1613283" lon="14.6217633"><ele>113.2</ele><time>2026-04-05T09:25:01.831Z</time></trkpt><trkpt lat="42.1612683" lon="14.6216383"><ele>113.6</ele><time>2026-04-05T09:25:03.831Z</time></trkpt><trkpt lat="42.161215" lon="14.6215067"><ele>114.0</ele><time>2026-04-05T09:25:05.831Z</time></trkpt><trkpt lat="42.1611517" lon="14.62138"><ele>114.0</ele><time>2026-04-05T09:25:07.831Z</time></trkpt><trkpt lat="42.1610933" lon="14.6212583"><ele>114.0</ele><time>2026-04-05T09:25:09.831Z</time></trkpt><trkpt lat="42.16102" lon="14.6211333"><ele>114.0</ele><time>2026-04-05T09:25:11.831Z</time></trkpt><trkpt lat="42.160955" lon="14.621"><ele>114.0</ele><time>2026-04-05T09:25:13.831Z</time></trkpt><trkpt lat="42.16089" lon="14.6208683"><ele>114.75</ele><time>2026-04-05T09:25:15.831Z</time></trkpt><trkpt lat="42.1608217" lon="14.6207367"><ele>115.5</ele><time>2026-04-05T09:25:17.832Z</time></trkpt><trkpt lat="42.1607617" lon="14.620615"><ele>116.25</ele><time>2026-04-05T09:25:19.831Z</time></trkpt><trkpt lat="42.1607033" lon="14.62049"><ele>117.0</ele><time>2026-04-05T09:25:21.831Z</time></trkpt><trkpt lat="42.1606367" lon="14.6203567"><ele>117.75</ele><time>2026-04-05T09:25:23.832Z</time></trkpt><trkpt lat="42.1605767" lon="14.6202233"><ele>118.5</ele><time>2026-04-05T09:25:25.832Z</time></trkpt><trkpt lat="42.1605117" lon="14.6200917"><ele>119.25</ele><time>2026-04-05T09:25:27.831Z</time></trkpt><trkpt lat="42.160445" lon="14.6199683"><ele>120.0</ele><time>2026-04-05T09:25:29.831Z</time></trkpt><trkpt lat="42.1603867" lon="14.6198383"><ele>120.0</ele><time>2026-04-05T09:25:31.832Z</time></trkpt><trkpt lat="42.1603333" lon="14.61971"><ele>120.0</ele><time>2026-04-05T09:25:33.831Z</time></trkpt><trkpt lat="42.16027" lon="14.6195867"><ele>120.0</ele><time>2026-04-05T09:25:35.831Z</time></trkpt><trkpt lat="42.1601983" lon="14.6194617"><ele>120.0</ele><time>2026-04-05T09:25:37.832Z</time></trkpt><trkpt lat="42.1601317" lon="14.6193317"><ele>120.4</ele><time>2026-04-05T09:25:39.832Z</time></trkpt><trkpt lat="42.16009" lon="14.6192583"><ele>120.8</ele><time>2026-04-05T09:25:40.832Z</time></trkpt><trkpt lat="42.1600183" lon="14.61913"><ele>121.19999999999999</ele><time>2026-04-05T09:25:42.831Z</time></trkpt><trkpt lat="42.1599567" lon="14.6190083"><ele>121.6</ele><time>2026-04-05T09:25:44.831Z</time></trkpt><trkpt lat="42.1599" lon="14.6188833"><ele>122.0</ele><time>2026-04-05T09:25:46.831Z</time></trkpt><trkpt lat="42.159835" lon="14.618755"><ele>122.6</ele><time>2026-04-05T09:25:48.831Z</time></trkpt><trkpt lat="42.1597783" lon="14.61863"><ele>123.19999999999999</ele><time>2026-04-05T09:25:50.831Z</time></trkpt><trkpt lat="42.1597183" lon="14.6185117"><ele>123.8</ele><time>2026-04-05T09:25:52.831Z</time></trkpt><trkpt lat="42.1596617" lon="14.6183917"><ele>124.4</ele><time>2026-04-05T09:25:54.831Z</time></trkpt><trkpt lat="42.1596067" lon="14.61827"><ele>125.0</ele><time>2026-04-05T09:25:56.831Z</time></trkpt><trkpt lat="42.1595383" lon="14.6181367"><ele>125.0</ele><time>2026-04-05T09:25:58.831Z</time></trkpt><trkpt lat="42.1594767" lon="14.6180083"><ele>125.0</ele><time>2026-04-05T09:26:00.831Z</time></trkpt><trkpt lat="42.15941" lon="14.617885"><ele>125.0</ele><time>2026-04-05T09:26:02.831Z</time></trkpt><trkpt lat="42.1593417" lon="14.6177617"><ele>125.0</ele><time>2026-04-05T09:26:04.832Z</time></trkpt><trkpt lat="42.15928" lon="14.617635"><ele>125.5</ele><time>2026-04-05T09:26:06.831Z</time></trkpt><trkpt lat="42.159215" lon="14.617505"><ele>126.0</ele><time>2026-04-05T09:26:08.831Z</time></trkpt><trkpt lat="42.1591533" lon="14.6173733"><ele>126.5</ele><time>2026-04-05T09:26:10.831Z</time></trkpt><trkpt lat="42.1590933" lon="14.6172483"><ele>127.0</ele><time>2026-04-05T09:26:12.832Z</time></trkpt><trkpt lat="42.1590283" lon="14.6171217"><ele>127.39999999999999</ele><time>2026-04-05T09:26:14.831Z</time></trkpt><trkpt lat="42.158965" lon="14.6169967"><ele>127.79999999999998</ele><time>2026-04-05T09:26:16.831Z</time></trkpt><trkpt lat="42.1589" lon="14.61687"><ele>128.2</ele><time>2026-04-05T09:26:18.831Z</time></trkpt><trkpt lat="42.1588367" lon="14.6167467"><ele>128.6</ele><time>2026-04-05T09:26:20.831Z</time></trkpt><trkpt lat="42.1587783" lon="14.6166233"><ele>129.0</ele><time>2026-04-05T09:26:22.831Z</time></trkpt><trkpt lat="42.158715" lon="14.616495"><ele>129.4</ele><time>2026-04-05T09:26:24.831Z</time></trkpt><trkpt lat="42.15865" lon="14.6163733"><ele>129.8</ele><time>2026-04-05T09:26:26.832Z</time></trkpt><trkpt lat="42.1585883" lon="14.616255"><ele>130.2</ele><time>2026-04-05T09:26:28.832Z</time></trkpt><trkpt lat="42.1585317" lon="14.61613"><ele>130.6</ele><time>2026-04-05T09:26:30.831Z</time></trkpt><trkpt lat="42.1584683" lon="14.6160033"><ele>131.0</ele><time>2026-04-05T09:26:32.831Z</time></trkpt><trkpt lat="42.1584117" lon="14.6158883"><ele>131.2</ele><time>2026-04-05T09:26:34.831Z</time></trkpt><trkpt lat="42.1583567" lon="14.615785"><ele>131.39999999999998</ele><time>2026-04-05T09:26:36.832Z</time></trkpt><trkpt lat="42.1583017" lon="14.6156883"><ele>131.6</ele><time>2026-04-05T09:26:38.832Z</time></trkpt><trkpt lat="42.15825" lon="14.6155917"><ele>131.79999999999998</ele><time>2026-04-05T09:26:40.831Z</time></trkpt><trkpt lat="42.1581883" lon="14.6154883"><ele>132.0</ele><time>2026-04-05T09:26:42.831Z</time></trkpt><trkpt lat="42.158165" lon="14.6153783"><ele>132.4</ele><time>2026-04-05T09:26:44.831Z</time></trkpt><trkpt lat="42.158185" lon="14.6152583"><ele>132.79999999999998</ele><time>2026-04-05T09:26:46.831Z</time></trkpt><trkpt lat="42.158195" lon="14.6151217"><ele>133.2</ele><time>2026-04-05T09:26:48.831Z</time></trkpt><trkpt lat="42.15819" lon="14.6149867"><ele>133.6</ele><time>2026-04-05T09:26:50.831Z</time></trkpt><trkpt lat="42.15814" lon="14.6148967"><ele>134.0</ele><time>2026-04-05T09:26:52.831Z</time></trkpt><trkpt lat="42.1580383" lon="14.614855"><ele>134.0</ele><time>2026-04-05T09:26:54.831Z</time></trkpt><trkpt lat="42.1579267" lon="14.614795"><ele>134.0</ele><time>2026-04-05T09:26:56.831Z</time></trkpt><trkpt lat="42.157845" lon="14.6146917"><ele>134.0</ele><time>2026-04-05T09:26:58.831Z</time></trkpt><trkpt lat="42.1577783" lon="14.6145717"><ele>134.0</ele><time>2026-04-05T09:27:00.831Z</time></trkpt><trkpt lat="42.157715" lon="14.6144433"><ele>134.0</ele><time>2026-04-05T09:27:02.831Z</time></trkpt><trkpt lat="42.1576533" lon="14.6143183"><ele>134.0</ele><time>2026-04-05T09:27:04.831Z</time></trkpt><trkpt lat="42.1575967" lon="14.61421"><ele>134.0</ele><time>2026-04-05T09:27:06.832Z</time></trkpt><trkpt lat="42.1575367" lon="14.6140817"><ele>134.0</ele><time>2026-04-05T09:27:08.831Z</time></trkpt><trkpt lat="42.1574717" lon="14.6139433"><ele>134.0</ele><time>2026-04-05T09:27:10.831Z</time></trkpt><trkpt lat="42.1574067" lon="14.6138117"><ele>134.0</ele><time>2026-04-05T09:27:12.831Z</time></trkpt><trkpt lat="42.157335" lon="14.613675"><ele>134.0</ele><time>2026-04-05T09:27:14.831Z</time></trkpt><trkpt lat="42.1572733" lon="14.6135417"><ele>134.0</ele><time>2026-04-05T09:27:16.831Z</time></trkpt><trkpt lat="42.157215" lon="14.613425"><ele>134.0</ele><time>2026-04-05T09:27:18.831Z</time></trkpt><trkpt lat="42.1571567" lon="14.6133117"><ele>134.0</ele><time>2026-04-05T09:27:20.831Z</time></trkpt><trkpt lat="42.1570933" lon="14.6131867"><ele>134.0</ele><time>2026-04-05T09:27:22.832Z</time></trkpt><trkpt lat="42.1570383" lon="14.61305"><ele>134.0</ele><time>2026-04-05T09:27:24.831Z</time></trkpt><trkpt lat="42.1569817" lon="14.612925"><ele>134.0</ele><time>2026-04-05T09:27:26.831Z</time></trkpt><trkpt lat="42.1569283" lon="14.61279"><ele>134.0</ele><time>2026-04-05T09:27:28.832Z</time></trkpt><trkpt lat="42.15689" lon="14.6126433"><ele>134.16666666666666</ele><time>2026-04-05T09:27:30.831Z</time></trkpt><trkpt lat="42.1568517" lon="14.61249"><ele>134.33333333333331</ele><time>2026-04-05T09:27:32.831Z</time></trkpt><trkpt lat="42.156825" lon="14.612325"><ele>134.5</ele><time>2026-04-05T09:27:34.831Z</time></trkpt><trkpt lat="42.15681" lon="14.6122333"><ele>134.66666666666666</ele><time>2026-04-05T09:27:35.831Z</time></trkpt><trkpt lat="42.15679" lon="14.6121483"><ele>134.83333333333334</ele><time>2026-04-05T09:27:36.831Z</time></trkpt><trkpt lat="42.1567717" lon="14.6120633"><ele>135.0</ele><time>2026-04-05T09:27:37.831Z</time></trkpt><trkpt lat="42.156755" lon="14.6119733"><ele>135.0</ele><time>2026-04-05T09:27:38.831Z</time></trkpt><trkpt lat="42.1567383" lon="14.6118883"><ele>135.0</ele><time>2026-04-05T09:27:39.832Z</time></trkpt><trkpt lat="42.15672" lon="14.6118033"><ele>135.0</ele><time>2026-04-05T09:27:40.832Z</time></trkpt><trkpt lat="42.1567033" lon="14.61172"><ele>135.0</ele><time>2026-04-05T09:27:41.832Z</time></trkpt><trkpt lat="42.1566717" lon="14.6115683"><ele>135.0</ele><time>2026-04-05T09:27:43.832Z</time></trkpt><trkpt lat="42.15664" lon="14.611415"><ele>135.0</ele><time>2026-04-05T09:27:45.832Z</time></trkpt><trkpt lat="42.156605" lon="14.6112667"><ele>134.8</ele><time>2026-04-05T09:27:47.832Z</time></trkpt><trkpt lat="42.1565667" lon="14.6111033"><ele>134.6</ele><time>2026-04-05T09:27:49.832Z</time></trkpt><trkpt lat="42.15655" lon="14.61102"><ele>134.4</ele><time>2026-04-05T09:27:50.833Z</time></trkpt><trkpt lat="42.1565067" lon="14.6108733"><ele>134.2</ele><time>2026-04-05T09:27:52.832Z</time></trkpt><trkpt lat="42.15649" lon="14.61079"><ele>134.0</ele><time>2026-04-05T09:27:53.832Z</time></trkpt><trkpt lat="42.1564567" lon="14.610635"><ele>134.0</ele><time>2026-04-05T09:27:55.832Z</time></trkpt><trkpt lat="42.1564183" lon="14.6104767"><ele>134.0</ele><time>2026-04-05T09:27:57.832Z</time></trkpt><trkpt lat="42.1563817" lon="14.610325"><ele>134.0</ele><time>2026-04-05T09:27:59.832Z</time></trkpt><trkpt lat="42.156355" lon="14.6101833"><ele>134.0</ele><time>2026-04-05T09:28:01.833Z</time></trkpt><trkpt lat="42.156335" lon="14.6100333"><ele>134.25</ele><time>2026-04-05T09:28:03.832Z</time></trkpt><trkpt lat="42.156305" lon="14.60989"><ele>134.5</ele><time>2026-04-05T09:28:05.832Z</time></trkpt><trkpt lat="42.1562633" lon="14.609745"><ele>134.75</ele><time>2026-04-05T09:28:07.832Z</time></trkpt><trkpt lat="42.1562283" lon="14.60959"><ele>135.0</ele><time>2026-04-05T09:28:09.832Z</time></trkpt><trkpt lat="42.156195" lon="14.6094517"><ele>135.5</ele><time>2026-04-05T09:28:11.832Z</time></trkpt><trkpt lat="42.1561583" lon="14.6092883"><ele>136.0</ele><time>2026-04-05T09:28:13.832Z</time></trkpt><trkpt lat="42.1561233" lon="14.609135"><ele>136.5</ele><time>2026-04-05T09:28:15.832Z</time></trkpt><trkpt lat="42.15609" lon="14.6089933"><ele>137.0</ele><time>2026-04-05T09:28:17.832Z</time></trkpt><trkpt lat="42.1560617" lon="14.6088633"><ele>137.0</ele><time>2026-04-05T09:28:19.832Z</time></trkpt><trkpt lat="42.1560367" lon="14.6087083"><ele>137.0</ele><time>2026-04-05T09:28:21.832Z</time></trkpt><trkpt lat="42.156005" lon="14.6085517"><ele>137.0</ele><time>2026-04-05T09:28:23.832Z</time></trkpt><trkpt lat="42.1559683" lon="14.6083967"><ele>137.0</ele><time>2026-04-05T09:28:25.832Z</time></trkpt><trkpt lat="42.1559333" lon="14.6082417"><ele>137.0</ele><time>2026-04-05T09:28:27.832Z</time></trkpt><trkpt lat="42.1559033" lon="14.6080867"><ele>137.0</ele><time>2026-04-05T09:28:29.833Z</time></trkpt><trkpt lat="42.155865" lon="14.607925"><ele>137.0</ele><time>2026-04-05T09:28:31.832Z</time></trkpt><trkpt lat="42.1558283" lon="14.6077767"><ele>137.0</ele><time>2026-04-05T09:28:33.832Z</time></trkpt><trkpt lat="42.155795" lon="14.6076217"><ele>136.75</ele><time>2026-04-05T09:28:35.832Z</time></trkpt><trkpt lat="42.1557583" lon="14.6074717"><ele>136.5</ele><time>2026-04-05T09:28:37.832Z</time></trkpt><trkpt lat="42.15572" lon="14.6073283"><ele>136.25</ele><time>2026-04-05T09:28:39.832Z</time></trkpt><trkpt lat="42.1556967" lon="14.6071783"><ele>136.0</ele><time>2026-04-05T09:28:41.832Z</time></trkpt><trkpt lat="42.1556717" lon="14.6070367"><ele>136.75</ele><time>2026-04-05T09:28:43.833Z</time></trkpt><trkpt lat="42.155635" lon="14.6068967"><ele>137.5</ele><time>2026-04-05T09:28:45.832Z</time></trkpt><trkpt lat="42.155595" lon="14.6067417"><ele>138.25</ele><time>2026-04-05T09:28:47.832Z</time></trkpt><trkpt lat="42.1555567" lon="14.6065967"><ele>139.0</ele><time>2026-04-05T09:28:49.833Z</time></trkpt><trkpt lat="42.15553" lon="14.6064467"><ele>139.0</ele><time>2026-04-05T09:28:51.832Z</time></trkpt><trkpt lat="42.1555033" lon="14.60629"><ele>139.0</ele><time>2026-04-05T09:28:53.832Z</time></trkpt><trkpt lat="42.1554667" lon="14.606145"><ele>139.0</ele><time>2026-04-05T09:28:55.832Z</time></trkpt><trkpt lat="42.1554317" lon="14.606005"><ele>139.0</ele><time>2026-04-05T09:28:57.832Z</time></trkpt><trkpt lat="42.1554033" lon="14.605865"><ele>139.2</ele><time>2026-04-05T09:28:59.832Z</time></trkpt><trkpt lat="42.155375" lon="14.6057067"><ele>139.4</ele><time>2026-04-05T09:29:01.833Z</time></trkpt><trkpt lat="42.1553567" lon="14.6056233"><ele>139.6</ele><time>2026-04-05T09:29:02.832Z</time></trkpt><trkpt lat="42.1553183" lon="14.6054733"><ele>139.8</ele><time>2026-04-05T09:29:04.832Z</time></trkpt><trkpt lat="42.1552883" lon="14.6053183"><ele>140.0</ele><time>2026-04-05T09:29:06.832Z</time></trkpt><trkpt lat="42.1552533" lon="14.6051717"><ele>140.25</ele><time>2026-04-05T09:29:08.832Z</time></trkpt><trkpt lat="42.1552133" lon="14.60502"><ele>140.5</ele><time>2026-04-05T09:29:10.832Z</time></trkpt><trkpt lat="42.1551817" lon="14.6048633"><ele>140.75</ele><time>2026-04-05T09:29:12.832Z</time></trkpt><trkpt lat="42.1551517" lon="14.604715"><ele>141.0</ele><time>2026-04-05T09:29:14.833Z</time></trkpt><trkpt lat="42.1551183" lon="14.604565"><ele>141.25</ele><time>2026-04-05T09:29:16.832Z</time></trkpt><trkpt lat="42.1550783" lon="14.6044217"><ele>141.5</ele><time>2026-04-05T09:29:18.832Z</time></trkpt><trkpt lat="42.1550433" lon="14.60427"><ele>141.75</ele><time>2026-04-05T09:29:20.832Z</time></trkpt><trkpt lat="42.1550083" lon="14.604115"><ele>142.0</ele><time>2026-04-05T09:29:22.832Z</time></trkpt><trkpt lat="42.1549733" lon="14.603955"><ele>142.0</ele><time>2026-04-05T09:29:24.832Z</time></trkpt><trkpt lat="42.1549533" lon="14.603805"><ele>142.0</ele><time>2026-04-05T09:29:26.832Z</time></trkpt><trkpt lat="42.15492" lon="14.6036517"><ele>142.0</ele><time>2026-04-05T09:29:28.832Z</time></trkpt><trkpt lat="42.15488" lon="14.6035083"><ele>142.0</ele><time>2026-04-05T09:29:30.832Z</time></trkpt><trkpt lat="42.1548467" lon="14.6033667"><ele>143.0</ele><time>2026-04-05T09:29:32.832Z</time></trkpt><trkpt lat="42.154815" lon="14.6032317"><ele>144.0</ele><time>2026-04-05T09:29:34.832Z</time></trkpt><trkpt lat="42.1547817" lon="14.6030833"><ele>145.0</ele><time>2026-04-05T09:29:36.832Z</time></trkpt><trkpt lat="42.154755" lon="14.6029267"><ele>146.0</ele><time>2026-04-05T09:29:38.833Z</time></trkpt><trkpt lat="42.1547167" lon="14.6027783"><ele>146.0</ele><time>2026-04-05T09:29:40.832Z</time></trkpt><trkpt lat="42.1546833" lon="14.6026367"><ele>146.0</ele><time>2026-04-05T09:29:42.833Z</time></trkpt><trkpt lat="42.154645" lon="14.6024833"><ele>146.0</ele><time>2026-04-05T09:29:44.832Z</time></trkpt><trkpt lat="42.1546317" lon="14.6023967"><ele>146.0</ele><time>2026-04-05T09:29:45.833Z</time></trkpt><trkpt lat="42.1545917" lon="14.6022417"><ele>146.0</ele><time>2026-04-05T09:29:47.833Z</time></trkpt><trkpt lat="42.15456" lon="14.6020917"><ele>146.25</ele><time>2026-04-05T09:29:49.832Z</time></trkpt><trkpt lat="42.15453" lon="14.601935"><ele>146.5</ele><time>2026-04-05T09:29:51.832Z</time></trkpt><trkpt lat="42.1545083" lon="14.60179"><ele>146.75</ele><time>2026-04-05T09:29:53.833Z</time></trkpt><trkpt lat="42.1544733" lon="14.601635"><ele>147.0</ele><time>2026-04-05T09:29:55.832Z</time></trkpt><trkpt lat="42.15444" lon="14.601495"><ele>147.0</ele><time>2026-04-05T09:29:57.832Z</time></trkpt><trkpt lat="42.1544033" lon="14.6013467"><ele>147.0</ele><time>2026-04-05T09:29:59.833Z</time></trkpt><trkpt lat="42.1543683" lon="14.6012017"><ele>147.0</ele><time>2026-04-05T09:30:01.832Z</time></trkpt><trkpt lat="42.154335" lon="14.60105"><ele>147.0</ele><time>2026-04-05T09:30:03.832Z</time></trkpt><trkpt lat="42.154305" lon="14.6009033"><ele>147.25</ele><time>2026-04-05T09:30:05.832Z</time></trkpt><trkpt lat="42.15427" lon="14.60075"><ele>147.5</ele><time>2026-04-05T09:30:07.832Z</time></trkpt><trkpt lat="42.1542433" lon="14.6006083"><ele>147.75</ele><time>2026-04-05T09:30:09.832Z</time></trkpt><trkpt lat="42.1542133" lon="14.60046"><ele>148.0</ele><time>2026-04-05T09:30:11.832Z</time></trkpt><trkpt lat="42.15418" lon="14.6003117"><ele>148.0</ele><time>2026-04-05T09:30:13.832Z</time></trkpt><trkpt lat="42.15414" lon="14.6001633"><ele>148.0</ele><time>2026-04-05T09:30:15.832Z</time></trkpt><trkpt lat="42.1541033" lon="14.6000117"><ele>148.0</ele><time>2026-04-05T09:30:17.832Z</time></trkpt><trkpt lat="42.1540767" lon="14.5998533"><ele>148.0</ele><time>2026-04-05T09:30:19.832Z</time></trkpt><trkpt lat="42.1540417" lon="14.5997083"><ele>148.5</ele><time>2026-04-05T09:30:21.832Z</time></trkpt><trkpt lat="42.154005" lon="14.5995617"><ele>149.0</ele><time>2026-04-05T09:30:23.832Z</time></trkpt><trkpt lat="42.1539683" lon="14.5994167"><ele>149.5</ele><time>2026-04-05T09:30:25.832Z</time></trkpt><trkpt lat="42.15393" lon="14.5992683"><ele>150.0</ele><time>2026-04-05T09:30:27.832Z</time></trkpt><trkpt lat="42.1538967" lon="14.5991183"><ele>150.5</ele><time>2026-04-05T09:30:29.832Z</time></trkpt><trkpt lat="42.1538633" lon="14.59897"><ele>151.0</ele><time>2026-04-05T09:30:31.832Z</time></trkpt><trkpt lat="42.1538383" lon="14.598825"><ele>151.5</ele><time>2026-04-05T09:30:33.832Z</time></trkpt><trkpt lat="42.1538017" lon="14.5986783"><ele>152.0</ele><time>2026-04-05T09:30:35.832Z</time></trkpt><trkpt lat="42.1537667" lon="14.5985317"><ele>152.5</ele><time>2026-04-05T09:30:37.832Z</time></trkpt><trkpt lat="42.1537383" lon="14.5983867"><ele>153.0</ele><time>2026-04-05T09:30:39.832Z</time></trkpt><trkpt lat="42.1537083" lon="14.5982467"><ele>153.5</ele><time>2026-04-05T09:30:41.833Z</time></trkpt><trkpt lat="42.15367" lon="14.5980917"><ele>154.0</ele><time>2026-04-05T09:30:43.832Z</time></trkpt><trkpt lat="42.153635" lon="14.597935"><ele>154.0</ele><time>2026-04-05T09:30:45.832Z</time></trkpt><trkpt lat="42.15362" lon="14.5978517"><ele>154.0</ele><time>2026-04-05T09:30:46.832Z</time></trkpt><trkpt lat="42.15359" lon="14.5977033"><ele>154.0</ele><time>2026-04-05T09:30:48.832Z</time></trkpt><trkpt lat="42.1535617" lon="14.5975533"><ele>154.0</ele><time>2026-04-05T09:30:50.832Z</time></trkpt><trkpt lat="42.1535333" lon="14.59741"><ele>154.0</ele><time>2026-04-05T09:30:52.832Z</time></trkpt><trkpt lat="42.1534933" lon="14.5972617"><ele>154.0</ele><time>2026-04-05T09:30:54.832Z</time></trkpt><trkpt lat="42.15345" lon="14.59711"><ele>154.0</ele><time>2026-04-05T09:30:56.832Z</time></trkpt><trkpt lat="42.1534217" lon="14.5969517"><ele>154.0</ele><time>2026-04-05T09:30:58.832Z</time></trkpt><trkpt lat="42.1533867" lon="14.5967933"><ele>154.0</ele><time>2026-04-05T09:31:00.832Z</time></trkpt><trkpt lat="42.1533567" lon="14.5966467"><ele>154.0</ele><time>2026-04-05T09:31:02.832Z</time></trkpt><trkpt lat="42.153335" lon="14.5965"><ele>154.0</ele><time>2026-04-05T09:31:04.832Z</time></trkpt><trkpt lat="42.153305" lon="14.59635"><ele>154.0</ele><time>2026-04-05T09:31:06.832Z</time></trkpt><trkpt lat="42.153285" lon="14.5962683"><ele>154.0</ele><time>2026-04-05T09:31:07.832Z</time></trkpt><trkpt lat="42.1532483" lon="14.5961117"><ele>154.0</ele><time>2026-04-05T09:31:09.832Z</time></trkpt><trkpt lat="42.153205" lon="14.59596"><ele>154.25</ele><time>2026-04-05T09:31:11.832Z</time></trkpt><trkpt lat="42.1531733" lon="14.5958217"><ele>154.5</ele><time>2026-04-05T09:31:13.832Z</time></trkpt><trkpt lat="42.15314" lon="14.5956633"><ele>154.75</ele><time>2026-04-05T09:31:15.833Z</time></trkpt><trkpt lat="42.1531117" lon="14.5955083"><ele>155.0</ele><time>2026-04-05T09:31:17.832Z</time></trkpt><trkpt lat="42.1530817" lon="14.59536"><ele>155.4</ele><time>2026-04-05T09:31:19.832Z</time></trkpt><trkpt lat="42.1530567" lon="14.5952217"><ele>155.8</ele><time>2026-04-05T09:31:21.832Z</time></trkpt><trkpt lat="42.1530283" lon="14.5950967"><ele>156.2</ele><time>2026-04-05T09:31:23.832Z</time></trkpt><trkpt lat="42.152995" lon="14.5949517"><ele>156.6</ele><time>2026-04-05T09:31:25.832Z</time></trkpt><trkpt lat="42.1529617" lon="14.59482"><ele>157.0</ele><time>2026-04-05T09:31:27.832Z</time></trkpt><trkpt lat="42.152935" lon="14.59469"><ele>157.0</ele><time>2026-04-05T09:31:29.833Z</time></trkpt><trkpt lat="42.1529067" lon="14.5945583"><ele>157.0</ele><time>2026-04-05T09:31:31.832Z</time></trkpt><trkpt lat="42.1528767" lon="14.594405"><ele>157.0</ele><time>2026-04-05T09:31:33.832Z</time></trkpt><trkpt lat="42.15286" lon="14.5943217"><ele>157.0</ele><time>2026-04-05T09:31:34.832Z</time></trkpt><trkpt lat="42.1528233" lon="14.594165"><ele>157.0</ele><time>2026-04-05T09:31:36.832Z</time></trkpt><trkpt lat="42.1528083" lon="14.5940817"><ele>157.25</ele><time>2026-04-05T09:31:37.833Z</time></trkpt><trkpt lat="42.1527817" lon="14.5939233"><ele>157.5</ele><time>2026-04-05T09:31:39.832Z</time></trkpt><trkpt lat="42.152745" lon="14.5937817"><ele>157.75</ele><time>2026-04-05T09:31:41.832Z</time></trkpt><trkpt lat="42.1527017" lon="14.5936367"><ele>158.0</ele><time>2026-04-05T09:31:43.832Z</time></trkpt><trkpt lat="42.1526733" lon="14.5934917"><ele>159.0</ele><time>2026-04-05T09:31:45.832Z</time></trkpt><trkpt lat="42.1526383" lon="14.59335"><ele>160.0</ele><time>2026-04-05T09:31:47.832Z</time></trkpt><trkpt lat="42.1526167" lon="14.5932033"><ele>161.0</ele><time>2026-04-05T09:31:49.832Z</time></trkpt><trkpt lat="42.15258" lon="14.5930583"><ele>162.0</ele><time>2026-04-05T09:31:51.832Z</time></trkpt><trkpt lat="42.1525483" lon="14.59291"><ele>162.75</ele><time>2026-04-05T09:31:53.832Z</time></trkpt><trkpt lat="42.1525083" lon="14.5927633"><ele>163.5</ele><time>2026-04-05T09:31:55.832Z</time></trkpt><trkpt lat="42.15247" lon="14.5926233"><ele>164.25</ele><time>2026-04-05T09:31:57.832Z</time></trkpt><trkpt lat="42.1524367" lon="14.5924733"><ele>165.0</ele><time>2026-04-05T09:31:59.832Z</time></trkpt><trkpt lat="42.15241" lon="14.5923317"><ele>165.0</ele><time>2026-04-05T09:32:01.832Z</time></trkpt><trkpt lat="42.15238" lon="14.592195"><ele>165.0</ele><time>2026-04-05T09:32:03.832Z</time></trkpt><trkpt lat="42.1523467" lon="14.5920517"><ele>165.0</ele><time>2026-04-05T09:32:05.832Z</time></trkpt><trkpt lat="42.1523133" lon="14.5919183"><ele>165.0</ele><time>2026-04-05T09:32:07.832Z</time></trkpt><trkpt lat="42.15228" lon="14.59179"><ele>165.0</ele><time>2026-04-05T09:32:09.833Z</time></trkpt><trkpt lat="42.1522567" lon="14.5916583"><ele>164.83333333333334</ele><time>2026-04-05T09:32:11.832Z</time></trkpt><trkpt lat="42.1522583" lon="14.5915233"><ele>164.66666666666666</ele><time>2026-04-05T09:32:13.832Z</time></trkpt><trkpt lat="42.1522633" lon="14.5913717"><ele>164.5</ele><time>2026-04-05T09:32:15.832Z</time></trkpt><trkpt lat="42.1522533" lon="14.5912867"><ele>164.33333333333331</ele><time>2026-04-05T09:32:16.832Z</time></trkpt><trkpt lat="42.1522267" lon="14.5912083"><ele>164.16666666666666</ele><time>2026-04-05T09:32:17.832Z</time></trkpt><trkpt lat="42.1521883" lon="14.5911383"><ele>164.0</ele><time>2026-04-05T09:32:18.832Z</time></trkpt><trkpt lat="42.1521533" lon="14.5910617"><ele>164.75</ele><time>2026-04-05T09:32:19.832Z</time></trkpt><trkpt lat="42.1520933" lon="14.5909233"><ele>165.5</ele><time>2026-04-05T09:32:21.832Z</time></trkpt><trkpt lat="42.152045" lon="14.5907867"><ele>166.25</ele><time>2026-04-05T09:32:23.832Z</time></trkpt><trkpt lat="42.1519983" lon="14.590645"><ele>167.0</ele><time>2026-04-05T09:32:25.832Z</time></trkpt><trkpt lat="42.1519533" lon="14.59051"><ele>167.0</ele><time>2026-04-05T09:32:27.832Z</time></trkpt><trkpt lat="42.1519167" lon="14.590365"><ele>167.0</ele><time>2026-04-05T09:32:29.832Z</time></trkpt><trkpt lat="42.1518767" lon="14.5902317"><ele>167.0</ele><time>2026-04-05T09:32:31.832Z</time></trkpt><trkpt lat="42.1518317" lon="14.5901"><ele>167.0</ele><time>2026-04-05T09:32:33.832Z</time></trkpt><trkpt lat="42.1517867" lon="14.589955"><ele>167.0</ele><time>2026-04-05T09:32:35.832Z</time></trkpt><trkpt lat="42.1517433" lon="14.5898133"><ele>167.6</ele><time>2026-04-05T09:32:37.832Z</time></trkpt><trkpt lat="42.1517" lon="14.5896867"><ele>168.2</ele><time>2026-04-05T09:32:39.832Z</time></trkpt><trkpt lat="42.151665" lon="14.5895383"><ele>168.8</ele><time>2026-04-05T09:32:41.832Z</time></trkpt><trkpt lat="42.15163" lon="14.5894017"><ele>169.4</ele><time>2026-04-05T09:32:43.832Z</time></trkpt><trkpt lat="42.151595" lon="14.58926"><ele>170.0</ele><time>2026-04-05T09:32:45.832Z</time></trkpt><trkpt lat="42.1515517" lon="14.58912"><ele>170.6</ele><time>2026-04-05T09:32:47.833Z</time></trkpt><trkpt lat="42.1515133" lon="14.588975"><ele>171.2</ele><time>2026-04-05T09:32:49.833Z</time></trkpt><trkpt lat="42.151475" lon="14.5888333"><ele>171.8</ele><time>2026-04-05T09:32:51.832Z</time></trkpt><trkpt lat="42.1514283" lon="14.5886933"><ele>172.4</ele><time>2026-04-05T09:32:53.832Z</time></trkpt><trkpt lat="42.151385" lon="14.5885667"><ele>173.0</ele><time>2026-04-05T09:32:55.833Z</time></trkpt><trkpt lat="42.1513467" lon="14.58843"><ele>173.8</ele><time>2026-04-05T09:32:57.832Z</time></trkpt><trkpt lat="42.1513017" lon="14.5883067"><ele>174.60000000000002</ele><time>2026-04-05T09:32:59.832Z</time></trkpt><trkpt lat="42.1512583" lon="14.5881733"><ele>175.39999999999998</ele><time>2026-04-05T09:33:01.832Z</time></trkpt><trkpt lat="42.1512233" lon="14.5880417"><ele>176.2</ele><time>2026-04-05T09:33:03.832Z</time></trkpt><trkpt lat="42.151185" lon="14.5879067"><ele>177.0</ele><time>2026-04-05T09:33:05.832Z</time></trkpt><trkpt lat="42.15115" lon="14.587765"><ele>177.8</ele><time>2026-04-05T09:33:07.832Z</time></trkpt><trkpt lat="42.1511067" lon="14.5876433"><ele>178.6</ele><time>2026-04-05T09:33:09.832Z</time></trkpt><trkpt lat="42.1510683" lon="14.5875117"><ele>179.4</ele><time>2026-04-05T09:33:11.833Z</time></trkpt><trkpt lat="42.1510283" lon="14.58739"><ele>180.20000000000002</ele><time>2026-04-05T09:33:13.833Z</time></trkpt><trkpt lat="42.15099" lon="14.5872717"><ele>181.0</ele><time>2026-04-05T09:33:15.832Z</time></trkpt><trkpt lat="42.15095" lon="14.5871467"><ele>181.0</ele><time>2026-04-05T09:33:17.832Z</time></trkpt><trkpt lat="42.1509083" lon="14.587035"><ele>181.0</ele><time>2026-04-05T09:33:19.833Z</time></trkpt><trkpt lat="42.1508667" lon="14.5869017"><ele>181.0</ele><time>2026-04-05T09:33:21.832Z</time></trkpt><trkpt lat="42.15084" lon="14.5867417"><ele>181.0</ele><time>2026-04-05T09:33:23.833Z</time></trkpt><trkpt lat="42.150805" lon="14.586605"><ele>181.0</ele><time>2026-04-05T09:33:25.832Z</time></trkpt><trkpt lat="42.150745" lon="14.5865"><ele>182.20000000000002</ele><time>2026-04-05T09:33:27.832Z</time></trkpt><trkpt lat="42.1506683" lon="14.58642"><ele>183.4</ele><time>2026-04-05T09:33:29.832Z</time></trkpt><trkpt lat="42.1505733" lon="14.586345"><ele>184.6</ele><time>2026-04-05T09:33:31.833Z</time></trkpt><trkpt lat="42.1504867" lon="14.586265"><ele>185.8</ele><time>2026-04-05T09:33:33.832Z</time></trkpt><trkpt lat="42.1503867" lon="14.5862083"><ele>187.0</ele><time>2026-04-05T09:33:35.832Z</time></trkpt><trkpt lat="42.1502783" lon="14.5861667"><ele>188.2</ele><time>2026-04-05T09:33:37.832Z</time></trkpt><trkpt lat="42.1501867" lon="14.58614"><ele>189.39999999999998</ele><time>2026-04-05T09:33:39.832Z</time></trkpt><trkpt lat="42.1500933" lon="14.5861183"><ele>190.60000000000002</ele><time>2026-04-05T09:33:41.832Z</time></trkpt><trkpt lat="42.15002" lon="14.5861333"><ele>191.8</ele><time>2026-04-05T09:33:43.832Z</time></trkpt><trkpt lat="42.149885" lon="14.5860967"><ele>193.0</ele><time>2026-04-05T09:33:45.832Z</time></trkpt><trkpt lat="42.1497783" lon="14.586025"><ele>193.0</ele><time>2026-04-05T09:33:47.832Z</time></trkpt><trkpt lat="42.149685" lon="14.5859467"><ele>193.0</ele><time>2026-04-05T09:33:49.832Z</time></trkpt><trkpt lat="42.14959" lon="14.5858583"><ele>193.0</ele><time>2026-04-05T09:33:51.832Z</time></trkpt><trkpt lat="42.1494867" lon="14.5857683"><ele>193.0</ele><time>2026-04-05T09:33:53.832Z</time></trkpt><trkpt lat="42.1494" lon="14.5856583"><ele>193.0</ele><time>2026-04-05T09:33:55.832Z</time></trkpt><trkpt lat="42.1493467" lon="14.5856067"><ele>193.0</ele><time>2026-04-05T09:33:56.832Z</time></trkpt><trkpt lat="42.1492917" lon="14.5855567"><ele>193.0</ele><time>2026-04-05T09:33:57.832Z</time></trkpt><trkpt lat="42.1492083" lon="14.5854467"><ele>193.0</ele><time>2026-04-05T09:33:59.832Z</time></trkpt><trkpt lat="42.1491317" lon="14.585325"><ele>193.0</ele><time>2026-04-05T09:34:01.832Z</time></trkpt><trkpt lat="42.14907" lon="14.58521"><ele>193.8</ele><time>2026-04-05T09:34:03.832Z</time></trkpt><trkpt lat="42.1490417" lon="14.5850867"><ele>194.60000000000002</ele><time>2026-04-05T09:34:05.832Z</time></trkpt><trkpt lat="42.1490433" lon="14.5849617"><ele>195.39999999999998</ele><time>2026-04-05T09:34:07.832Z</time></trkpt><trkpt lat="42.1490833" lon="14.5848333"><ele>196.2</ele><time>2026-04-05T09:34:09.832Z</time></trkpt><trkpt lat="42.1491283" lon="14.58471"><ele>197.0</ele><time>2026-04-05T09:34:11.833Z</time></trkpt><trkpt lat="42.1491567" lon="14.5845617"><ele>196.39999999999998</ele><time>2026-04-05T09:34:13.832Z</time></trkpt><trkpt lat="42.1491883" lon="14.5844183"><ele>195.79999999999998</ele><time>2026-04-05T09:34:15.832Z</time></trkpt><trkpt lat="42.1492067" lon="14.5843367"><ele>195.2</ele><time>2026-04-05T09:34:16.832Z</time></trkpt><trkpt lat="42.1492283" lon="14.5841817"><ele>194.6</ele><time>2026-04-05T09:34:18.833Z</time></trkpt><trkpt lat="42.14924" lon="14.5840283"><ele>194.0</ele><time>2026-04-05T09:34:20.832Z</time></trkpt><trkpt lat="42.1492917" lon="14.58387"><ele>194.0</ele><time>2026-04-05T09:34:22.832Z</time></trkpt><trkpt lat="42.1492983" lon="14.5837417"><ele>194.0</ele><time>2026-04-05T09:34:24.832Z</time></trkpt><trkpt lat="42.1493033" lon="14.58362"><ele>194.0</ele><time>2026-04-05T09:34:26.832Z</time></trkpt><trkpt lat="42.1493217" lon="14.5834933"><ele>194.0</ele><time>2026-04-05T09:34:28.832Z</time></trkpt><trkpt lat="42.1493433" lon="14.5833983"><ele>194.0</ele><time>2026-04-05T09:34:29.832Z</time></trkpt><trkpt lat="42.149375" lon="14.5832533"><ele>194.0</ele><time>2026-04-05T09:34:31.832Z</time></trkpt><trkpt lat="42.1494067" lon="14.5831"><ele>194.0</ele><time>2026-04-05T09:34:33.832Z</time></trkpt><trkpt lat="42.149435" lon="14.5829517"><ele>194.0</ele><time>2026-04-05T09:34:35.832Z</time></trkpt><trkpt lat="42.1494517" lon="14.582805"><ele>194.0</ele><time>2026-04-05T09:34:37.832Z</time></trkpt><trkpt lat="42.14947" lon="14.5826367"><ele>195.39999999999998</ele><time>2026-04-05T09:34:39.832Z</time></trkpt><trkpt lat="42.1494633" lon="14.58255"><ele>196.8</ele><time>2026-04-05T09:34:40.832Z</time></trkpt><trkpt lat="42.1494217" lon="14.58243"><ele>198.2</ele><time>2026-04-05T09:34:42.832Z</time></trkpt><trkpt lat="42.1493567" lon="14.5823167"><ele>199.60000000000002</ele><time>2026-04-05T09:34:44.832Z</time></trkpt><trkpt lat="42.149285" lon="14.5821917"><ele>201.0</ele><time>2026-04-05T09:34:46.833Z</time></trkpt><trkpt lat="42.149215" lon="14.5820783"><ele>202.8</ele><time>2026-04-05T09:34:48.833Z</time></trkpt><trkpt lat="42.1491467" lon="14.5819433"><ele>204.60000000000002</ele><time>2026-04-05T09:34:50.833Z</time></trkpt><trkpt lat="42.14911" lon="14.58187"><ele>206.4</ele><time>2026-04-05T09:34:51.832Z</time></trkpt><trkpt lat="42.149035" lon="14.581745"><ele>208.2</ele><time>2026-04-05T09:34:53.832Z</time></trkpt><trkpt lat="42.1489667" lon="14.5816217"><ele>210.0</ele><time>2026-04-05T09:34:55.832Z</time></trkpt><trkpt lat="42.1489017" lon="14.5815067"><ele>209.0</ele><time>2026-04-05T09:34:57.832Z</time></trkpt><trkpt lat="42.1488567" lon="14.5813833"><ele>208.0</ele><time>2026-04-05T09:34:59.833Z</time></trkpt><trkpt lat="42.1488417" lon="14.5812417"><ele>207.0</ele><time>2026-04-05T09:35:01.832Z</time></trkpt><trkpt lat="42.1488317" lon="14.5811083"><ele>206.0</ele><time>2026-04-05T09:35:03.833Z</time></trkpt><trkpt lat="42.1488267" lon="14.58097"><ele>205.0</ele><time>2026-04-05T09:35:05.832Z</time></trkpt><trkpt lat="42.148835" lon="14.5808117"><ele>205.0</ele><time>2026-04-05T09:35:07.832Z</time></trkpt><trkpt lat="42.1488333" lon="14.580655"><ele>205.0</ele><time>2026-04-05T09:35:09.832Z</time></trkpt><trkpt lat="42.1488117" lon="14.58055"><ele>205.0</ele><time>2026-04-05T09:35:11.832Z</time></trkpt><trkpt lat="42.1487917" lon="14.5804383"><ele>205.0</ele><time>2026-04-05T09:35:13.832Z</time></trkpt><trkpt lat="42.1487783" lon="14.580305"><ele>205.0</ele><time>2026-04-05T09:35:15.832Z</time></trkpt><trkpt lat="42.1487667" lon="14.58018"><ele>206.75</ele><time>2026-04-05T09:35:17.832Z</time></trkpt><trkpt lat="42.148755" lon="14.5800383"><ele>208.5</ele><time>2026-04-05T09:35:19.832Z</time></trkpt><trkpt lat="42.1487433" lon="14.579895"><ele>210.25</ele><time>2026-04-05T09:35:21.832Z</time></trkpt><trkpt lat="42.1487317" lon="14.579735"><ele>212.0</ele><time>2026-04-05T09:35:23.832Z</time></trkpt><trkpt lat="42.1487333" lon="14.579555"><ele>212.25</ele><time>2026-04-05T09:35:25.832Z</time></trkpt><trkpt lat="42.1487533" lon="14.5793933"><ele>212.5</ele><time>2026-04-05T09:35:27.832Z</time></trkpt><trkpt lat="42.1487483" lon="14.5792517"><ele>212.75</ele><time>2026-04-05T09:35:29.832Z</time></trkpt><trkpt lat="42.14874" lon="14.579095"><ele>213.0</ele><time>2026-04-05T09:35:31.832Z</time></trkpt><trkpt lat="42.14873" lon="14.5789483"><ele>213.0</ele><time>2026-04-05T09:35:33.832Z</time></trkpt><trkpt lat="42.14872" lon="14.57884"><ele>213.0</ele><time>2026-04-05T09:35:35.832Z</time></trkpt><trkpt lat="42.1487217" lon="14.57873"><ele>213.0</ele><time>2026-04-05T09:35:37.832Z</time></trkpt><trkpt lat="42.1487867" lon="14.578655"><ele>213.0</ele><time>2026-04-05T09:35:39.832Z</time></trkpt><trkpt lat="42.14888" lon="14.5786567"><ele>213.0</ele><time>2026-04-05T09:35:41.832Z</time></trkpt><trkpt lat="42.148975" lon="14.5786517"><ele>213.0</ele><time>2026-04-05T09:35:43.833Z</time></trkpt><trkpt lat="42.1490633" lon="14.5786467"><ele>214.5</ele><time>2026-04-05T09:35:45.833Z</time></trkpt><trkpt lat="42.1491383" lon="14.578635"><ele>216.0</ele><time>2026-04-05T09:35:47.832Z</time></trkpt><trkpt lat="42.1492267" lon="14.5786283"><ele>217.5</ele><time>2026-04-05T09:35:49.832Z</time></trkpt><trkpt lat="42.1493083" lon="14.5786"><ele>219.0</ele><time>2026-04-05T09:35:51.832Z</time></trkpt><trkpt lat="42.1493883" lon="14.5785817"><ele>220.5</ele><time>2026-04-05T09:35:53.833Z</time></trkpt><trkpt lat="42.1494617" lon="14.5785633"><ele>222.0</ele><time>2026-04-05T09:35:55.832Z</time></trkpt><trkpt lat="42.14954" lon="14.5785233"><ele>222.0</ele><time>2026-04-05T09:35:57.832Z</time></trkpt><trkpt lat="42.149615" lon="14.5784783"><ele>222.0</ele><time>2026-04-05T09:35:59.832Z</time></trkpt><trkpt lat="42.149685" lon="14.57841"><ele>222.0</ele><time>2026-04-05T09:36:01.832Z</time></trkpt><trkpt lat="42.1497517" lon="14.5783417"><ele>222.0</ele><time>2026-04-05T09:36:03.832Z</time></trkpt><trkpt lat="42.14986" lon="14.5782717"><ele>222.0</ele><time>2026-04-05T09:36:05.832Z</time></trkpt><trkpt lat="42.1499317" lon="14.578275"><ele>222.0</ele><time>2026-04-05T09:36:06.833Z</time></trkpt><trkpt lat="42.1499983" lon="14.57829"><ele>221.39999999999998</ele><time>2026-04-05T09:36:07.832Z</time></trkpt><trkpt lat="42.1501017" lon="14.57837"><ele>220.79999999999998</ele><time>2026-04-05T09:36:09.832Z</time></trkpt><trkpt lat="42.1501583" lon="14.5784917"><ele>220.2</ele><time>2026-04-05T09:36:11.833Z</time></trkpt><trkpt lat="42.150175" lon="14.578655"><ele>219.6</ele><time>2026-04-05T09:36:13.832Z</time></trkpt><trkpt lat="42.1501767" lon="14.5787433"><ele>219.0</ele><time>2026-04-05T09:36:14.833Z</time></trkpt><trkpt lat="42.1501717" lon="14.5788317"><ele>218.57142857142858</ele><time>2026-04-05T09:36:15.832Z</time></trkpt><trkpt lat="42.150165" lon="14.5789283"><ele>218.14285714285714</ele><time>2026-04-05T09:36:16.832Z</time></trkpt><trkpt lat="42.15016" lon="14.57902"><ele>217.71428571428572</ele><time>2026-04-05T09:36:17.832Z</time></trkpt><trkpt lat="42.1501517" lon="14.5791167"><ele>217.28571428571428</ele><time>2026-04-05T09:36:18.832Z</time></trkpt><trkpt lat="42.1501417" lon="14.5792117"><ele>216.85714285714283</ele><time>2026-04-05T09:36:19.832Z</time></trkpt><trkpt lat="42.1501333" lon="14.5793017"><ele>216.42857142857142</ele><time>2026-04-05T09:36:20.832Z</time></trkpt><trkpt lat="42.1501317" lon="14.579395"><ele>216.0</ele><time>2026-04-05T09:36:21.832Z</time></trkpt><trkpt lat="42.1501317" lon="14.5794933"><ele>215.66666666666666</ele><time>2026-04-05T09:36:22.833Z</time></trkpt><trkpt lat="42.1501217" lon="14.5795967"><ele>215.33333333333331</ele><time>2026-04-05T09:36:23.832Z</time></trkpt><trkpt lat="42.1501183" lon="14.57973"><ele>215.0</ele><time>2026-04-05T09:36:24.832Z</time></trkpt><trkpt lat="42.1501117" lon="14.579835"><ele>214.66666666666666</ele><time>2026-04-05T09:36:25.833Z</time></trkpt><trkpt lat="42.150105" lon="14.5799367"><ele>214.33333333333331</ele><time>2026-04-05T09:36:26.832Z</time></trkpt><trkpt lat="42.1501017" lon="14.5800417"><ele>214.0</ele><time>2026-04-05T09:36:27.833Z</time></trkpt><trkpt lat="42.1501" lon="14.5801417"><ele>214.00000000000003</ele><time>2026-04-05T09:36:28.832Z</time></trkpt><trkpt lat="42.1501" lon="14.58024"><ele>214.0</ele><time>2026-04-05T09:36:29.833Z</time></trkpt><trkpt lat="42.1500933" lon="14.5803267"><ele>214.0</ele><time>2026-04-05T09:36:30.833Z</time></trkpt><trkpt lat="42.15009" lon="14.5804183"><ele>214.0</ele><time>2026-04-05T09:36:31.832Z</time></trkpt><trkpt lat="42.1500883" lon="14.580505"><ele>214.0</ele><time>2026-04-05T09:36:32.833Z</time></trkpt><trkpt lat="42.150085" lon="14.5805917"><ele>214.00000000000003</ele><time>2026-04-05T09:36:33.832Z</time></trkpt><trkpt lat="42.1500867" lon="14.5806817"><ele>214.0</ele><time>2026-04-05T09:36:34.832Z</time></trkpt><trkpt lat="42.15008" lon="14.5807667"><ele>213.83333333333331</ele><time>2026-04-05T09:36:35.832Z</time></trkpt><trkpt lat="42.1500733" lon="14.5808517"><ele>213.66666666666666</ele><time>2026-04-05T09:36:36.832Z</time></trkpt><trkpt lat="42.1500483" lon="14.5810067"><ele>213.5</ele><time>2026-04-05T09:36:38.832Z</time></trkpt><trkpt lat="42.1500033" lon="14.5811183"><ele>213.33333333333331</ele><time>2026-04-05T09:36:40.832Z</time></trkpt><trkpt lat="42.1499417" lon="14.5811833"><ele>213.16666666666666</ele><time>2026-04-05T09:36:42.832Z</time></trkpt><trkpt lat="42.1498517" lon="14.581195"><ele>213.0</ele><time>2026-04-05T09:36:44.832Z</time></trkpt><trkpt lat="42.1497683" lon="14.5812833"><ele>212.4</ele><time>2026-04-05T09:36:46.832Z</time></trkpt><trkpt lat="42.149715" lon="14.5813933"><ele>211.8</ele><time>2026-04-05T09:36:48.832Z</time></trkpt><trkpt lat="42.1496733" lon="14.581525"><ele>211.2</ele><time>2026-04-05T09:36:50.833Z</time></trkpt><trkpt lat="42.1496367" lon="14.5816583"><ele>210.6</ele><time>2026-04-05T09:36:52.832Z</time></trkpt><trkpt lat="42.149605" lon="14.5818217"><ele>210.0</ele><time>2026-04-05T09:36:54.833Z</time></trkpt><trkpt lat="42.1495883" lon="14.58191"><ele>210.0</ele><time>2026-04-05T09:36:55.832Z</time></trkpt><trkpt lat="42.1495733" lon="14.581995"><ele>210.0</ele><time>2026-04-05T09:36:56.832Z</time></trkpt><trkpt lat="42.1495517" lon="14.582145"><ele>210.0</ele><time>2026-04-05T09:36:58.832Z</time></trkpt><trkpt lat="42.1495383" lon="14.5822767"><ele>210.0</ele><time>2026-04-05T09:37:00.832Z</time></trkpt><trkpt lat="42.1495417" lon="14.5824067"><ele>210.0</ele><time>2026-04-05T09:37:02.832Z</time></trkpt><trkpt lat="42.1495917" lon="14.5824817"><ele>210.0</ele><time>2026-04-05T09:37:05.832Z</time></trkpt><trkpt lat="42.1496633" lon="14.58251"><ele>208.71428571428572</ele><time>2026-04-05T09:37:08.832Z</time></trkpt><trkpt lat="42.1496883" lon="14.5825917"><ele>207.42857142857144</ele><time>2026-04-05T09:37:11.832Z</time></trkpt><trkpt lat="42.1496567" lon="14.5827017"><ele>206.14285714285714</ele><time>2026-04-05T09:37:14.832Z</time></trkpt><trkpt lat="42.14966" lon="14.5828033"><ele>204.85714285714286</ele><time>2026-04-05T09:37:17.832Z</time></trkpt><trkpt lat="42.149645" lon="14.582895"><ele>203.57142857142858</ele><time>2026-04-05T09:37:19.832Z</time></trkpt><trkpt lat="42.1496417" lon="14.5829833"><ele>202.28571428571428</ele><time>2026-04-05T09:37:21.832Z</time></trkpt><trkpt lat="42.14967" lon="14.5830783"><ele>201.0</ele><time>2026-04-05T09:37:23.832Z</time></trkpt><trkpt lat="42.1497117" lon="14.583195"><ele>199.83333333333334</ele><time>2026-04-05T09:37:25.832Z</time></trkpt><trkpt lat="42.1497383" lon="14.5833"><ele>198.66666666666669</ele><time>2026-04-05T09:37:28.833Z</time></trkpt><trkpt lat="42.1497633" lon="14.5833783"><ele>197.5</ele><time>2026-04-05T09:37:31.832Z</time></trkpt><trkpt lat="42.1498317" lon="14.5834283"><ele>196.33333333333334</ele><time>2026-04-05T09:37:34.832Z</time></trkpt><trkpt lat="42.14989" lon="14.5834617"><ele>195.16666666666669</ele><time>2026-04-05T09:37:36.832Z</time></trkpt><trkpt lat="42.1499567" lon="14.5835133"><ele>194.0</ele><time>2026-04-05T09:37:38.832Z</time></trkpt><trkpt lat="42.15003" lon="14.5835783"><ele>197.0</ele><time>2026-04-05T09:37:40.832Z</time></trkpt><trkpt lat="42.1500967" lon="14.583665"><ele>200.0</ele><time>2026-04-05T09:37:42.833Z</time></trkpt><trkpt lat="42.150175" lon="14.5837383"><ele>203.0</ele><time>2026-04-05T09:37:44.832Z</time></trkpt><trkpt lat="42.1502533" lon="14.5837983"><ele>206.0</ele><time>2026-04-05T09:37:46.832Z</time></trkpt><trkpt lat="42.150335" lon="14.5838617"><ele>209.0</ele><time>2026-04-05T09:37:48.832Z</time></trkpt><trkpt lat="42.1503933" lon="14.5839417"><ele>209.16666666666669</ele><time>2026-04-05T09:37:50.832Z</time></trkpt><trkpt lat="42.1504333" lon="14.5840533"><ele>209.33333333333334</ele><time>2026-04-05T09:37:53.832Z</time></trkpt><trkpt lat="42.150495" lon="14.5840983"><ele>209.5</ele><time>2026-04-05T09:37:55.832Z</time></trkpt><trkpt lat="42.150575" lon="14.5841483"><ele>209.66666666666669</ele><time>2026-04-05T09:37:58.832Z</time></trkpt><trkpt lat="42.15064" lon="14.5841867"><ele>209.83333333333334</ele><time>2026-04-05T09:38:01.833Z</time></trkpt><trkpt lat="42.150675" lon="14.5842767"><ele>210.0</ele><time>2026-04-05T09:38:05.832Z</time></trkpt><trkpt lat="42.1506767" lon="14.584365"><ele>210.0</ele><time>2026-04-05T09:38:07.832Z</time></trkpt><trkpt lat="42.150665" lon="14.584475"><ele>210.0</ele><time>2026-04-05T09:38:09.832Z</time></trkpt><trkpt lat="42.1506233" lon="14.5845783"><ele>210.0</ele><time>2026-04-05T09:38:11.832Z</time></trkpt><trkpt lat="42.1505567" lon="14.584645"><ele>210.0</ele><time>2026-04-05T09:38:14.833Z</time></trkpt><trkpt lat="42.1505167" lon="14.5847533"><ele>210.0</ele><time>2026-04-05T09:38:17.832Z</time></trkpt><trkpt lat="42.150485" lon="14.5848583"><ele>210.0</ele><time>2026-04-05T09:38:20.833Z</time></trkpt><trkpt lat="42.1504233" lon="14.584945"><ele>209.0</ele><time>2026-04-05T09:38:23.832Z</time></trkpt><trkpt lat="42.1503533" lon="14.5849733"><ele>208.0</ele><time>2026-04-05T09:38:27.832Z</time></trkpt><trkpt lat="42.15035" lon="14.5851167"><ele>207.0</ele><time>2026-04-05T09:38:55.832Z</time></trkpt><trkpt lat="42.1503" lon="14.584985"><ele>206.0</ele><time>2026-04-05T09:39:33.833Z</time></trkpt><trkpt lat="42.1502367" lon="14.584835"><ele>205.0</ele><time>2026-04-05T09:40:39.33Z</time></trkpt><trkpt lat="42.1502733" lon="14.5849067"><ele>205.0</ele><time>2026-04-05T09:40:42.829Z</time></trkpt><trkpt lat="42.1503233" lon="14.5850483"><ele>205.0</ele><time>2026-04-05T09:42:13.828Z</time></trkpt><trkpt lat="42.1502633" lon="14.5850167"><ele>205.0</ele><time>2026-04-05T09:43:25.828Z</time></trkpt><trkpt lat="42.15018" lon="14.5851017"><ele>205.0</ele><time>2026-04-05T09:43:35.828Z</time></trkpt><trkpt lat="42.1501117" lon="14.5851733"><ele>205.0</ele><time>2026-04-05T09:43:39.828Z</time></trkpt><trkpt lat="42.1500367" lon="14.5852317"><ele>205.0</ele><time>2026-04-05T09:43:42.828Z</time></trkpt><trkpt lat="42.149995" lon="14.5852967"><ele>205.0</ele><time>2026-04-05T09:43:47.828Z</time></trkpt><trkpt lat="42.150085" lon="14.5852283"><ele>205.0</ele><time>2026-04-05T09:46:30.51Z</time></trkpt><trkpt lat="42.14996" lon="14.5852583"><ele>205.0</ele><time>2026-04-05T09:46:31.826Z</time></trkpt><trkpt lat="42.150005" lon="14.58533"><ele>205.0</ele><time>2026-04-05T09:46:40.826Z</time></trkpt></trkseg></trk></gpx>